<?xml version="1.0" encoding="UTF-8" standalone="no" ?>
<gpx xmlns="http://www.topografix.com/GPX/1/1" xmlns:xsi="http://www.w3.org/2001/XMLSchema-instance" xsi:schemaLocation="http://www.topografix.com/GPX/1/1 http://www.topografix.com/GPX/1/1/gpx.xsd" version="1.1" creator="VisuGPX - https://www.visugpx.com">
  <metadata>
    <name>Rando vtt St Benoit 2019</name>
    <desc><![CDATA[Température idéale pour cette rando,terrain meuble impeccable!
Un peu de dénivelé....]]></desc>
  </metadata>
  <trk>
    <name><![CDATA[Rando vtt St Benoit 2019]]></name>
    <trkseg>
      <trkpt lat="46.55874" lon="0.34221">
        <ele>197.77</ele>
        <time>2019-01-13T07:32:16.268Z</time>
      </trkpt>
      <trkpt lat="46.55892" lon="0.34257">
        <ele>154.6</ele>
        <time>2019-01-13T07:32:17.268Z</time>
      </trkpt>
      <trkpt lat="46.55885" lon="0.34265">
        <ele>153.46</ele>
        <time>2019-01-13T07:32:26.000Z</time>
      </trkpt>
      <trkpt lat="46.55884" lon="0.34279">
        <ele>155.22</ele>
        <time>2019-01-13T07:32:33.000Z</time>
      </trkpt>
      <trkpt lat="46.55882" lon="0.34296">
        <ele>159.59</ele>
        <time>2019-01-13T07:32:41.000Z</time>
      </trkpt>
      <trkpt lat="46.55873" lon="0.34311">
        <ele>159.2</ele>
        <time>2019-01-13T07:32:52.000Z</time>
      </trkpt>
      <trkpt lat="46.55864" lon="0.34326">
        <ele>161.16</ele>
        <time>2019-01-13T07:32:57.000Z</time>
      </trkpt>
      <trkpt lat="46.55854" lon="0.34321">
        <ele>160.29</ele>
        <time>2019-01-13T07:33:17.000Z</time>
      </trkpt>
      <trkpt lat="46.55846" lon="0.34326">
        <ele>173.39</ele>
        <time>2019-01-13T07:33:42.000Z</time>
      </trkpt>
      <trkpt lat="46.55837" lon="0.34331">
        <ele>179.8</ele>
        <time>2019-01-13T07:33:55.000Z</time>
      </trkpt>
      <trkpt lat="46.55828" lon="0.34336">
        <ele>181.03</ele>
        <time>2019-01-13T07:34:06.000Z</time>
      </trkpt>
      <trkpt lat="46.55822" lon="0.34347">
        <ele>180.69</ele>
        <time>2019-01-13T07:34:26.000Z</time>
      </trkpt>
      <trkpt lat="46.55818" lon="0.34359">
        <ele>179.93</ele>
        <time>2019-01-13T07:34:45.000Z</time>
      </trkpt>
      <trkpt lat="46.55814" lon="0.34372">
        <ele>179.68</ele>
        <time>2019-01-13T07:34:51.000Z</time>
      </trkpt>
      <trkpt lat="46.55814" lon="0.34386">
        <ele>179.51</ele>
        <time>2019-01-13T07:34:56.000Z</time>
      </trkpt>
      <trkpt lat="46.55811" lon="0.34401">
        <ele>179.36</ele>
        <time>2019-01-13T07:35:01.000Z</time>
      </trkpt>
      <trkpt lat="46.55808" lon="0.34415">
        <ele>179.3</ele>
        <time>2019-01-13T07:35:06.000Z</time>
      </trkpt>
      <trkpt lat="46.55804" lon="0.34428">
        <ele>179.36</ele>
        <time>2019-01-13T07:35:11.000Z</time>
      </trkpt>
      <trkpt lat="46.55793" lon="0.34427">
        <ele>179.43</ele>
        <time>2019-01-13T07:35:15.000Z</time>
      </trkpt>
      <trkpt lat="46.55782" lon="0.3443">
        <ele>179.53</ele>
        <time>2019-01-13T07:35:19.000Z</time>
      </trkpt>
      <trkpt lat="46.55776" lon="0.34442">
        <ele>179.6</ele>
        <time>2019-01-13T07:35:22.000Z</time>
      </trkpt>
      <trkpt lat="46.55776" lon="0.34456">
        <ele>179.62</ele>
        <time>2019-01-13T07:35:25.000Z</time>
      </trkpt>
      <trkpt lat="46.55779" lon="0.34472">
        <ele>179.57</ele>
        <time>2019-01-13T07:35:28.000Z</time>
      </trkpt>
      <trkpt lat="46.55781" lon="0.34485">
        <ele>179.49</ele>
        <time>2019-01-13T07:35:31.000Z</time>
      </trkpt>
      <trkpt lat="46.55782" lon="0.345">
        <ele>179.41</ele>
        <time>2019-01-13T07:35:34.000Z</time>
      </trkpt>
      <trkpt lat="46.55784" lon="0.34514">
        <ele>179.35</ele>
        <time>2019-01-13T07:35:37.000Z</time>
      </trkpt>
      <trkpt lat="46.55788" lon="0.34529">
        <ele>179.28</ele>
        <time>2019-01-13T07:35:40.000Z</time>
      </trkpt>
      <trkpt lat="46.55793" lon="0.34542">
        <ele>179.23</ele>
        <time>2019-01-13T07:35:43.000Z</time>
      </trkpt>
      <trkpt lat="46.55798" lon="0.34555">
        <ele>179.2</ele>
        <time>2019-01-13T07:35:46.000Z</time>
      </trkpt>
      <trkpt lat="46.55802" lon="0.34568">
        <ele>179.18</ele>
        <time>2019-01-13T07:35:49.000Z</time>
      </trkpt>
      <trkpt lat="46.55806" lon="0.34579">
        <ele>179.19</ele>
        <time>2019-01-13T07:35:52.000Z</time>
      </trkpt>
      <trkpt lat="46.55806" lon="0.34593">
        <ele>179.19</ele>
        <time>2019-01-13T07:35:55.000Z</time>
      </trkpt>
      <trkpt lat="46.55803" lon="0.34606">
        <ele>179.18</ele>
        <time>2019-01-13T07:35:58.000Z</time>
      </trkpt>
      <trkpt lat="46.55793" lon="0.34615">
        <ele>178.96</ele>
        <time>2019-01-13T07:36:01.000Z</time>
      </trkpt>
      <trkpt lat="46.55785" lon="0.34622">
        <ele>178.73</ele>
        <time>2019-01-13T07:36:03.000Z</time>
      </trkpt>
      <trkpt lat="46.55777" lon="0.34629">
        <ele>178.28</ele>
        <time>2019-01-13T07:36:05.000Z</time>
      </trkpt>
      <trkpt lat="46.5577" lon="0.34636">
        <ele>177.51</ele>
        <time>2019-01-13T07:36:07.000Z</time>
      </trkpt>
      <trkpt lat="46.55758" lon="0.34646">
        <ele>175.67</ele>
        <time>2019-01-13T07:36:10.000Z</time>
      </trkpt>
      <trkpt lat="46.5575" lon="0.34652">
        <ele>174.6</ele>
        <time>2019-01-13T07:36:12.000Z</time>
      </trkpt>
      <trkpt lat="46.55741" lon="0.34659">
        <ele>173.75</ele>
        <time>2019-01-13T07:36:14.000Z</time>
      </trkpt>
      <trkpt lat="46.55732" lon="0.34665">
        <ele>173.11</ele>
        <time>2019-01-13T07:36:16.000Z</time>
      </trkpt>
      <trkpt lat="46.55723" lon="0.34671">
        <ele>172.58</ele>
        <time>2019-01-13T07:36:18.000Z</time>
      </trkpt>
      <trkpt lat="46.55713" lon="0.34677">
        <ele>172.51</ele>
        <time>2019-01-13T07:36:20.000Z</time>
      </trkpt>
      <trkpt lat="46.55703" lon="0.34684">
        <ele>172.82</ele>
        <time>2019-01-13T07:36:22.000Z</time>
      </trkpt>
      <trkpt lat="46.55694" lon="0.34693">
        <ele>173.17</ele>
        <time>2019-01-13T07:36:25.000Z</time>
      </trkpt>
      <trkpt lat="46.55685" lon="0.34699">
        <ele>173.22</ele>
        <time>2019-01-13T07:36:28.000Z</time>
      </trkpt>
      <trkpt lat="46.55682" lon="0.34712">
        <ele>173.42</ele>
        <time>2019-01-13T07:36:31.000Z</time>
      </trkpt>
      <trkpt lat="46.55686" lon="0.34725">
        <ele>173.76</ele>
        <time>2019-01-13T07:36:33.000Z</time>
      </trkpt>
      <trkpt lat="46.55689" lon="0.34739">
        <ele>173.92</ele>
        <time>2019-01-13T07:36:35.000Z</time>
      </trkpt>
      <trkpt lat="46.55695" lon="0.34753">
        <ele>174.36</ele>
        <time>2019-01-13T07:36:37.000Z</time>
      </trkpt>
      <trkpt lat="46.557" lon="0.34768">
        <ele>174.91</ele>
        <time>2019-01-13T07:36:39.000Z</time>
      </trkpt>
      <trkpt lat="46.55705" lon="0.34782">
        <ele>175.48</ele>
        <time>2019-01-13T07:36:41.000Z</time>
      </trkpt>
      <trkpt lat="46.5571" lon="0.34798">
        <ele>176.14</ele>
        <time>2019-01-13T07:36:43.000Z</time>
      </trkpt>
      <trkpt lat="46.55716" lon="0.34813">
        <ele>176.56</ele>
        <time>2019-01-13T07:36:45.000Z</time>
      </trkpt>
      <trkpt lat="46.55721" lon="0.3483">
        <ele>176.59</ele>
        <time>2019-01-13T07:36:47.000Z</time>
      </trkpt>
      <trkpt lat="46.55727" lon="0.34846">
        <ele>176.67</ele>
        <time>2019-01-13T07:36:49.000Z</time>
      </trkpt>
      <trkpt lat="46.55733" lon="0.34863">
        <ele>176.68</ele>
        <time>2019-01-13T07:36:51.000Z</time>
      </trkpt>
      <trkpt lat="46.55738" lon="0.3488">
        <ele>176.61</ele>
        <time>2019-01-13T07:36:53.000Z</time>
      </trkpt>
      <trkpt lat="46.55744" lon="0.34898">
        <ele>176.49</ele>
        <time>2019-01-13T07:36:55.000Z</time>
      </trkpt>
      <trkpt lat="46.5575" lon="0.34917">
        <ele>176.38</ele>
        <time>2019-01-13T07:36:57.000Z</time>
      </trkpt>
      <trkpt lat="46.55757" lon="0.34936">
        <ele>176.28</ele>
        <time>2019-01-13T07:36:59.000Z</time>
      </trkpt>
      <trkpt lat="46.55764" lon="0.34953">
        <ele>176.17</ele>
        <time>2019-01-13T07:37:01.000Z</time>
      </trkpt>
      <trkpt lat="46.55767" lon="0.34967">
        <ele>175.78</ele>
        <time>2019-01-13T07:37:03.000Z</time>
      </trkpt>
      <trkpt lat="46.55762" lon="0.3498">
        <ele>175.07</ele>
        <time>2019-01-13T07:37:05.000Z</time>
      </trkpt>
      <trkpt lat="46.55751" lon="0.34985">
        <ele>174.28</ele>
        <time>2019-01-13T07:37:07.000Z</time>
      </trkpt>
      <trkpt lat="46.55738" lon="0.34984">
        <ele>173.41</ele>
        <time>2019-01-13T07:37:09.000Z</time>
      </trkpt>
      <trkpt lat="46.55726" lon="0.34983">
        <ele>172.68</ele>
        <time>2019-01-13T07:37:11.000Z</time>
      </trkpt>
      <trkpt lat="46.55713" lon="0.34978">
        <ele>172.03</ele>
        <time>2019-01-13T07:37:13.000Z</time>
      </trkpt>
      <trkpt lat="46.55703" lon="0.34968">
        <ele>171.54</ele>
        <time>2019-01-13T07:37:15.000Z</time>
      </trkpt>
      <trkpt lat="46.55695" lon="0.34957">
        <ele>171.25</ele>
        <time>2019-01-13T07:37:17.000Z</time>
      </trkpt>
      <trkpt lat="46.55688" lon="0.34944">
        <ele>170.99</ele>
        <time>2019-01-13T07:37:19.000Z</time>
      </trkpt>
      <trkpt lat="46.55683" lon="0.34932">
        <ele>170.87</ele>
        <time>2019-01-13T07:37:21.000Z</time>
      </trkpt>
      <trkpt lat="46.55679" lon="0.34919">
        <ele>170.99</ele>
        <time>2019-01-13T07:37:23.000Z</time>
      </trkpt>
      <trkpt lat="46.55675" lon="0.34907">
        <ele>171.39</ele>
        <time>2019-01-13T07:37:25.000Z</time>
      </trkpt>
      <trkpt lat="46.55671" lon="0.34893">
        <ele>171.44</ele>
        <time>2019-01-13T07:37:28.000Z</time>
      </trkpt>
      <trkpt lat="46.55658" lon="0.34897">
        <ele>171.48</ele>
        <time>2019-01-13T07:37:33.000Z</time>
      </trkpt>
      <trkpt lat="46.55646" lon="0.34903">
        <ele>171.35</ele>
        <time>2019-01-13T07:37:36.000Z</time>
      </trkpt>
      <trkpt lat="46.55636" lon="0.34909">
        <ele>171.33</ele>
        <time>2019-01-13T07:37:39.000Z</time>
      </trkpt>
      <trkpt lat="46.55629" lon="0.34897">
        <ele>171.25</ele>
        <time>2019-01-13T07:37:44.000Z</time>
      </trkpt>
      <trkpt lat="46.55626" lon="0.34882">
        <ele>171.02</ele>
        <time>2019-01-13T07:37:48.000Z</time>
      </trkpt>
      <trkpt lat="46.55616" lon="0.34883">
        <ele>170.74</ele>
        <time>2019-01-13T07:37:51.000Z</time>
      </trkpt>
      <trkpt lat="46.55607" lon="0.34876">
        <ele>170.53</ele>
        <time>2019-01-13T07:37:54.000Z</time>
      </trkpt>
      <trkpt lat="46.556" lon="0.34866">
        <ele>169.66</ele>
        <time>2019-01-13T07:37:56.000Z</time>
      </trkpt>
      <trkpt lat="46.55589" lon="0.3486">
        <ele>168.47</ele>
        <time>2019-01-13T07:37:59.000Z</time>
      </trkpt>
      <trkpt lat="46.55578" lon="0.34854">
        <ele>166.08</ele>
        <time>2019-01-13T07:38:02.000Z</time>
      </trkpt>
      <trkpt lat="46.55566" lon="0.34847">
        <ele>165.68</ele>
        <time>2019-01-13T07:38:06.000Z</time>
      </trkpt>
      <trkpt lat="46.55557" lon="0.3484">
        <ele>165.31</ele>
        <time>2019-01-13T07:38:09.000Z</time>
      </trkpt>
      <trkpt lat="46.55544" lon="0.34831">
        <ele>162.5</ele>
        <time>2019-01-13T07:38:12.000Z</time>
      </trkpt>
      <trkpt lat="46.55535" lon="0.34825">
        <ele>162.07</ele>
        <time>2019-01-13T07:38:15.000Z</time>
      </trkpt>
      <trkpt lat="46.55526" lon="0.34818">
        <ele>160.84</ele>
        <time>2019-01-13T07:38:22.000Z</time>
      </trkpt>
      <trkpt lat="46.55515" lon="0.34813">
        <ele>160.21</ele>
        <time>2019-01-13T07:38:27.000Z</time>
      </trkpt>
      <trkpt lat="46.55506" lon="0.34814">
        <ele>159.59</ele>
        <time>2019-01-13T07:38:31.000Z</time>
      </trkpt>
      <trkpt lat="46.55495" lon="0.34812">
        <ele>158.61</ele>
        <time>2019-01-13T07:38:37.000Z</time>
      </trkpt>
      <trkpt lat="46.55486" lon="0.34803">
        <ele>158.07</ele>
        <time>2019-01-13T07:38:40.000Z</time>
      </trkpt>
      <trkpt lat="46.55477" lon="0.34793">
        <ele>157.41</ele>
        <time>2019-01-13T07:38:44.000Z</time>
      </trkpt>
      <trkpt lat="46.55467" lon="0.34782">
        <ele>156.71</ele>
        <time>2019-01-13T07:38:48.000Z</time>
      </trkpt>
      <trkpt lat="46.55459" lon="0.34776">
        <ele>155.71</ele>
        <time>2019-01-13T07:38:53.000Z</time>
      </trkpt>
      <trkpt lat="46.5545" lon="0.34764">
        <ele>154.86</ele>
        <time>2019-01-13T07:38:59.000Z</time>
      </trkpt>
      <trkpt lat="46.55444" lon="0.34753">
        <ele>154.03</ele>
        <time>2019-01-13T07:39:05.000Z</time>
      </trkpt>
      <trkpt lat="46.55439" lon="0.3474">
        <ele>152.99</ele>
        <time>2019-01-13T07:39:11.000Z</time>
      </trkpt>
      <trkpt lat="46.55433" lon="0.34729">
        <ele>152.31</ele>
        <time>2019-01-13T07:39:15.000Z</time>
      </trkpt>
      <trkpt lat="46.55422" lon="0.34719">
        <ele>149.88</ele>
        <time>2019-01-13T07:39:19.000Z</time>
      </trkpt>
      <trkpt lat="46.55413" lon="0.34713">
        <ele>146.62</ele>
        <time>2019-01-13T07:39:21.000Z</time>
      </trkpt>
      <trkpt lat="46.55407" lon="0.34703">
        <ele>144.01</ele>
        <time>2019-01-13T07:39:23.000Z</time>
      </trkpt>
      <trkpt lat="46.55394" lon="0.347">
        <ele>141.45</ele>
        <time>2019-01-13T07:39:26.000Z</time>
      </trkpt>
      <trkpt lat="46.55388" lon="0.34718">
        <ele>139.78</ele>
        <time>2019-01-13T07:39:29.000Z</time>
      </trkpt>
      <trkpt lat="46.55383" lon="0.34732">
        <ele>137.49</ele>
        <time>2019-01-13T07:39:31.000Z</time>
      </trkpt>
      <trkpt lat="46.55378" lon="0.34748">
        <ele>135.61</ele>
        <time>2019-01-13T07:39:33.000Z</time>
      </trkpt>
      <trkpt lat="46.55373" lon="0.34764">
        <ele>133.78</ele>
        <time>2019-01-13T07:39:35.000Z</time>
      </trkpt>
      <trkpt lat="46.55367" lon="0.3478">
        <ele>132.47</ele>
        <time>2019-01-13T07:39:37.000Z</time>
      </trkpt>
      <trkpt lat="46.55363" lon="0.34798">
        <ele>131.53</ele>
        <time>2019-01-13T07:39:39.000Z</time>
      </trkpt>
      <trkpt lat="46.55359" lon="0.34816">
        <ele>131.07</ele>
        <time>2019-01-13T07:39:41.000Z</time>
      </trkpt>
      <trkpt lat="46.55357" lon="0.34836">
        <ele>130.93</ele>
        <time>2019-01-13T07:39:43.000Z</time>
      </trkpt>
      <trkpt lat="46.55356" lon="0.34857">
        <ele>130.98</ele>
        <time>2019-01-13T07:39:45.000Z</time>
      </trkpt>
      <trkpt lat="46.55355" lon="0.34877">
        <ele>131.14</ele>
        <time>2019-01-13T07:39:47.000Z</time>
      </trkpt>
      <trkpt lat="46.55355" lon="0.34894">
        <ele>131.23</ele>
        <time>2019-01-13T07:39:49.000Z</time>
      </trkpt>
      <trkpt lat="46.55356" lon="0.34908">
        <ele>131.34</ele>
        <time>2019-01-13T07:39:51.000Z</time>
      </trkpt>
      <trkpt lat="46.55358" lon="0.34923">
        <ele>131.56</ele>
        <time>2019-01-13T07:39:54.000Z</time>
      </trkpt>
      <trkpt lat="46.55362" lon="0.34939">
        <ele>132.03</ele>
        <time>2019-01-13T07:39:57.000Z</time>
      </trkpt>
      <trkpt lat="46.55367" lon="0.34953">
        <ele>132.57</ele>
        <time>2019-01-13T07:39:59.000Z</time>
      </trkpt>
      <trkpt lat="46.55374" lon="0.34968">
        <ele>133.2</ele>
        <time>2019-01-13T07:40:01.000Z</time>
      </trkpt>
      <trkpt lat="46.55382" lon="0.34982">
        <ele>133.85</ele>
        <time>2019-01-13T07:40:03.000Z</time>
      </trkpt>
      <trkpt lat="46.55394" lon="0.34992">
        <ele>134.66</ele>
        <time>2019-01-13T07:40:05.000Z</time>
      </trkpt>
      <trkpt lat="46.55405" lon="0.35">
        <ele>135.43</ele>
        <time>2019-01-13T07:40:07.000Z</time>
      </trkpt>
      <trkpt lat="46.55415" lon="0.35006">
        <ele>136.22</ele>
        <time>2019-01-13T07:40:09.000Z</time>
      </trkpt>
      <trkpt lat="46.55423" lon="0.35014">
        <ele>136.34</ele>
        <time>2019-01-13T07:40:12.000Z</time>
      </trkpt>
      <trkpt lat="46.55427" lon="0.35028">
        <ele>137.28</ele>
        <time>2019-01-13T07:40:15.000Z</time>
      </trkpt>
      <trkpt lat="46.55432" lon="0.35042">
        <ele>137.77</ele>
        <time>2019-01-13T07:40:17.000Z</time>
      </trkpt>
      <trkpt lat="46.55438" lon="0.3506">
        <ele>137.92</ele>
        <time>2019-01-13T07:40:19.000Z</time>
      </trkpt>
      <trkpt lat="46.55444" lon="0.35078">
        <ele>137.76</ele>
        <time>2019-01-13T07:40:21.000Z</time>
      </trkpt>
      <trkpt lat="46.5545" lon="0.35096">
        <ele>137.43</ele>
        <time>2019-01-13T07:40:23.000Z</time>
      </trkpt>
      <trkpt lat="46.55456" lon="0.35112">
        <ele>137.11</ele>
        <time>2019-01-13T07:40:25.000Z</time>
      </trkpt>
      <trkpt lat="46.55462" lon="0.35127">
        <ele>136.81</ele>
        <time>2019-01-13T07:40:27.000Z</time>
      </trkpt>
      <trkpt lat="46.55467" lon="0.35142">
        <ele>136.78</ele>
        <time>2019-01-13T07:40:29.000Z</time>
      </trkpt>
      <trkpt lat="46.55472" lon="0.35156">
        <ele>137.02</ele>
        <time>2019-01-13T07:40:31.000Z</time>
      </trkpt>
      <trkpt lat="46.55476" lon="0.35169">
        <ele>137.48</ele>
        <time>2019-01-13T07:40:33.000Z</time>
      </trkpt>
      <trkpt lat="46.55481" lon="0.35183">
        <ele>137.78</ele>
        <time>2019-01-13T07:40:35.000Z</time>
      </trkpt>
      <trkpt lat="46.55487" lon="0.35199">
        <ele>138.19</ele>
        <time>2019-01-13T07:40:37.000Z</time>
      </trkpt>
      <trkpt lat="46.55492" lon="0.35215">
        <ele>138.63</ele>
        <time>2019-01-13T07:40:39.000Z</time>
      </trkpt>
      <trkpt lat="46.55496" lon="0.35231">
        <ele>139.08</ele>
        <time>2019-01-13T07:40:41.000Z</time>
      </trkpt>
      <trkpt lat="46.55499" lon="0.35246">
        <ele>139.56</ele>
        <time>2019-01-13T07:40:43.000Z</time>
      </trkpt>
      <trkpt lat="46.55501" lon="0.35263">
        <ele>139.91</ele>
        <time>2019-01-13T07:40:45.000Z</time>
      </trkpt>
      <trkpt lat="46.55499" lon="0.35281">
        <ele>140.2</ele>
        <time>2019-01-13T07:40:47.000Z</time>
      </trkpt>
      <trkpt lat="46.55492" lon="0.35297">
        <ele>140.54</ele>
        <time>2019-01-13T07:40:49.000Z</time>
      </trkpt>
      <trkpt lat="46.55485" lon="0.35313">
        <ele>140.89</ele>
        <time>2019-01-13T07:40:51.000Z</time>
      </trkpt>
      <trkpt lat="46.55479" lon="0.35327">
        <ele>141.03</ele>
        <time>2019-01-13T07:40:53.000Z</time>
      </trkpt>
      <trkpt lat="46.55473" lon="0.3534">
        <ele>141.16</ele>
        <time>2019-01-13T07:40:55.000Z</time>
      </trkpt>
      <trkpt lat="46.55467" lon="0.35354">
        <ele>141.22</ele>
        <time>2019-01-13T07:40:57.000Z</time>
      </trkpt>
      <trkpt lat="46.5546" lon="0.35367">
        <ele>141.11</ele>
        <time>2019-01-13T07:40:59.000Z</time>
      </trkpt>
      <trkpt lat="46.55452" lon="0.35377">
        <ele>140.98</ele>
        <time>2019-01-13T07:41:01.000Z</time>
      </trkpt>
      <trkpt lat="46.55446" lon="0.35387">
        <ele>140.45</ele>
        <time>2019-01-13T07:41:03.000Z</time>
      </trkpt>
      <trkpt lat="46.55438" lon="0.35396">
        <ele>139.95</ele>
        <time>2019-01-13T07:41:05.000Z</time>
      </trkpt>
      <trkpt lat="46.55428" lon="0.35402">
        <ele>139.47</ele>
        <time>2019-01-13T07:41:07.000Z</time>
      </trkpt>
      <trkpt lat="46.5542" lon="0.35407">
        <ele>139.1</ele>
        <time>2019-01-13T07:41:09.000Z</time>
      </trkpt>
      <trkpt lat="46.55407" lon="0.35412">
        <ele>138.81</ele>
        <time>2019-01-13T07:41:12.000Z</time>
      </trkpt>
      <trkpt lat="46.55395" lon="0.35414">
        <ele>138.87</ele>
        <time>2019-01-13T07:41:16.000Z</time>
      </trkpt>
      <trkpt lat="46.55401" lon="0.35425">
        <ele>138.95</ele>
        <time>2019-01-13T07:41:23.000Z</time>
      </trkpt>
      <trkpt lat="46.55411" lon="0.35427">
        <ele>139.02</ele>
        <time>2019-01-13T07:41:27.000Z</time>
      </trkpt>
      <trkpt lat="46.55421" lon="0.3543">
        <ele>139.13</ele>
        <time>2019-01-13T07:41:32.000Z</time>
      </trkpt>
      <trkpt lat="46.55434" lon="0.35427">
        <ele>139.22</ele>
        <time>2019-01-13T07:41:36.000Z</time>
      </trkpt>
      <trkpt lat="46.55443" lon="0.35427">
        <ele>139.19</ele>
        <time>2019-01-13T07:41:39.000Z</time>
      </trkpt>
      <trkpt lat="46.55454" lon="0.35427">
        <ele>139.1</ele>
        <time>2019-01-13T07:41:45.000Z</time>
      </trkpt>
      <trkpt lat="46.55463" lon="0.35425">
        <ele>139.65</ele>
        <time>2019-01-13T07:41:53.000Z</time>
      </trkpt>
      <trkpt lat="46.55473" lon="0.35423">
        <ele>141.51</ele>
        <time>2019-01-13T07:42:03.000Z</time>
      </trkpt>
      <trkpt lat="46.55482" lon="0.35424">
        <ele>142.59</ele>
        <time>2019-01-13T07:42:11.000Z</time>
      </trkpt>
      <trkpt lat="46.55492" lon="0.35417">
        <ele>143.61</ele>
        <time>2019-01-13T07:42:22.000Z</time>
      </trkpt>
      <trkpt lat="46.55501" lon="0.35418">
        <ele>146.22</ele>
        <time>2019-01-13T07:42:34.000Z</time>
      </trkpt>
      <trkpt lat="46.5551" lon="0.35423">
        <ele>147.49</ele>
        <time>2019-01-13T07:42:40.000Z</time>
      </trkpt>
      <trkpt lat="46.55518" lon="0.35429">
        <ele>148.62</ele>
        <time>2019-01-13T07:42:45.000Z</time>
      </trkpt>
      <trkpt lat="46.55526" lon="0.35436">
        <ele>152.17</ele>
        <time>2019-01-13T07:42:57.000Z</time>
      </trkpt>
      <trkpt lat="46.55528" lon="0.35449">
        <ele>154.86</ele>
        <time>2019-01-13T07:43:09.000Z</time>
      </trkpt>
      <trkpt lat="46.55526" lon="0.35463">
        <ele>155.9</ele>
        <time>2019-01-13T07:43:13.000Z</time>
      </trkpt>
      <trkpt lat="46.55526" lon="0.35477">
        <ele>157.24</ele>
        <time>2019-01-13T07:43:18.000Z</time>
      </trkpt>
      <trkpt lat="46.55528" lon="0.3549">
        <ele>158.59</ele>
        <time>2019-01-13T07:43:23.000Z</time>
      </trkpt>
      <trkpt lat="46.55527" lon="0.35504">
        <ele>160.06</ele>
        <time>2019-01-13T07:43:29.000Z</time>
      </trkpt>
      <trkpt lat="46.55528" lon="0.35518">
        <ele>161.06</ele>
        <time>2019-01-13T07:43:33.000Z</time>
      </trkpt>
      <trkpt lat="46.55527" lon="0.35532">
        <ele>162.08</ele>
        <time>2019-01-13T07:43:37.000Z</time>
      </trkpt>
      <trkpt lat="46.55528" lon="0.35549">
        <ele>163.41</ele>
        <time>2019-01-13T07:43:42.000Z</time>
      </trkpt>
      <trkpt lat="46.55529" lon="0.35563">
        <ele>164.75</ele>
        <time>2019-01-13T07:43:47.000Z</time>
      </trkpt>
      <trkpt lat="46.5553" lon="0.35578">
        <ele>165.82</ele>
        <time>2019-01-13T07:43:51.000Z</time>
      </trkpt>
      <trkpt lat="46.55531" lon="0.35594">
        <ele>166.66</ele>
        <time>2019-01-13T07:43:55.000Z</time>
      </trkpt>
      <trkpt lat="46.55532" lon="0.35608">
        <ele>167.36</ele>
        <time>2019-01-13T07:43:59.000Z</time>
      </trkpt>
      <trkpt lat="46.55533" lon="0.35623">
        <ele>168.15</ele>
        <time>2019-01-13T07:44:04.000Z</time>
      </trkpt>
      <trkpt lat="46.55534" lon="0.35638">
        <ele>168.83</ele>
        <time>2019-01-13T07:44:08.000Z</time>
      </trkpt>
      <trkpt lat="46.55533" lon="0.35654">
        <ele>169.35</ele>
        <time>2019-01-13T07:44:12.000Z</time>
      </trkpt>
      <trkpt lat="46.55531" lon="0.35667">
        <ele>169.77</ele>
        <time>2019-01-13T07:44:16.000Z</time>
      </trkpt>
      <trkpt lat="46.55521" lon="0.3567">
        <ele>170.06</ele>
        <time>2019-01-13T07:44:20.000Z</time>
      </trkpt>
      <trkpt lat="46.5551" lon="0.3567">
        <ele>170.34</ele>
        <time>2019-01-13T07:44:24.000Z</time>
      </trkpt>
      <trkpt lat="46.555" lon="0.35669">
        <ele>170.68</ele>
        <time>2019-01-13T07:44:28.000Z</time>
      </trkpt>
      <trkpt lat="46.55489" lon="0.35669">
        <ele>170.97</ele>
        <time>2019-01-13T07:44:32.000Z</time>
      </trkpt>
      <trkpt lat="46.55479" lon="0.35668">
        <ele>171.19</ele>
        <time>2019-01-13T07:44:35.000Z</time>
      </trkpt>
      <trkpt lat="46.55468" lon="0.35667">
        <ele>171.53</ele>
        <time>2019-01-13T07:44:39.000Z</time>
      </trkpt>
      <trkpt lat="46.55457" lon="0.35667">
        <ele>171.91</ele>
        <time>2019-01-13T07:44:43.000Z</time>
      </trkpt>
      <trkpt lat="46.55446" lon="0.35664">
        <ele>172.09</ele>
        <time>2019-01-13T07:44:46.000Z</time>
      </trkpt>
      <trkpt lat="46.55434" lon="0.3566">
        <ele>172.71</ele>
        <time>2019-01-13T07:44:49.000Z</time>
      </trkpt>
      <trkpt lat="46.55423" lon="0.35657">
        <ele>173.81</ele>
        <time>2019-01-13T07:44:52.000Z</time>
      </trkpt>
      <trkpt lat="46.55408" lon="0.35654">
        <ele>174.5</ele>
        <time>2019-01-13T07:44:55.000Z</time>
      </trkpt>
      <trkpt lat="46.55397" lon="0.35652">
        <ele>175.13</ele>
        <time>2019-01-13T07:44:57.000Z</time>
      </trkpt>
      <trkpt lat="46.55387" lon="0.35649">
        <ele>175.44</ele>
        <time>2019-01-13T07:44:59.000Z</time>
      </trkpt>
      <trkpt lat="46.55377" lon="0.35647">
        <ele>175.03</ele>
        <time>2019-01-13T07:45:01.000Z</time>
      </trkpt>
      <trkpt lat="46.55365" lon="0.35645">
        <ele>174.45</ele>
        <time>2019-01-13T07:45:03.000Z</time>
      </trkpt>
      <trkpt lat="46.55353" lon="0.35642">
        <ele>173.82</ele>
        <time>2019-01-13T07:45:05.000Z</time>
      </trkpt>
      <trkpt lat="46.5534" lon="0.3564">
        <ele>173.08</ele>
        <time>2019-01-13T07:45:07.000Z</time>
      </trkpt>
      <trkpt lat="46.55326" lon="0.35639">
        <ele>172.39</ele>
        <time>2019-01-13T07:45:09.000Z</time>
      </trkpt>
      <trkpt lat="46.55312" lon="0.35638">
        <ele>171.62</ele>
        <time>2019-01-13T07:45:11.000Z</time>
      </trkpt>
      <trkpt lat="46.55297" lon="0.35637">
        <ele>171.01</ele>
        <time>2019-01-13T07:45:13.000Z</time>
      </trkpt>
      <trkpt lat="46.55281" lon="0.35636">
        <ele>170.48</ele>
        <time>2019-01-13T07:45:15.000Z</time>
      </trkpt>
      <trkpt lat="46.55267" lon="0.35637">
        <ele>170.06</ele>
        <time>2019-01-13T07:45:17.000Z</time>
      </trkpt>
      <trkpt lat="46.55251" lon="0.3564">
        <ele>169.54</ele>
        <time>2019-01-13T07:45:19.000Z</time>
      </trkpt>
      <trkpt lat="46.55234" lon="0.35648">
        <ele>169.08</ele>
        <time>2019-01-13T07:45:21.000Z</time>
      </trkpt>
      <trkpt lat="46.55226" lon="0.35654">
        <ele>168.77</ele>
        <time>2019-01-13T07:45:22.000Z</time>
      </trkpt>
      <trkpt lat="46.55218" lon="0.35662">
        <ele>168.51</ele>
        <time>2019-01-13T07:45:23.000Z</time>
      </trkpt>
      <trkpt lat="46.55211" lon="0.35672">
        <ele>168.22</ele>
        <time>2019-01-13T07:45:24.000Z</time>
      </trkpt>
      <trkpt lat="46.55204" lon="0.3568">
        <ele>167.98</ele>
        <time>2019-01-13T07:45:25.000Z</time>
      </trkpt>
      <trkpt lat="46.55196" lon="0.35687">
        <ele>167.75</ele>
        <time>2019-01-13T07:45:26.000Z</time>
      </trkpt>
      <trkpt lat="46.5518" lon="0.35692">
        <ele>167.33</ele>
        <time>2019-01-13T07:45:28.000Z</time>
      </trkpt>
      <trkpt lat="46.55165" lon="0.35685">
        <ele>166.6</ele>
        <time>2019-01-13T07:45:30.000Z</time>
      </trkpt>
      <trkpt lat="46.55151" lon="0.3568">
        <ele>165.83</ele>
        <time>2019-01-13T07:45:32.000Z</time>
      </trkpt>
      <trkpt lat="46.55138" lon="0.35673">
        <ele>165.07</ele>
        <time>2019-01-13T07:45:34.000Z</time>
      </trkpt>
      <trkpt lat="46.55123" lon="0.35665">
        <ele>164.16</ele>
        <time>2019-01-13T07:45:36.000Z</time>
      </trkpt>
      <trkpt lat="46.55108" lon="0.35657">
        <ele>163.4</ele>
        <time>2019-01-13T07:45:38.000Z</time>
      </trkpt>
      <trkpt lat="46.55092" lon="0.35649">
        <ele>162.81</ele>
        <time>2019-01-13T07:45:40.000Z</time>
      </trkpt>
      <trkpt lat="46.55076" lon="0.35642">
        <ele>162.32</ele>
        <time>2019-01-13T07:45:42.000Z</time>
      </trkpt>
      <trkpt lat="46.5506" lon="0.35638">
        <ele>161.81</ele>
        <time>2019-01-13T07:45:44.000Z</time>
      </trkpt>
      <trkpt lat="46.55044" lon="0.35637">
        <ele>161.34</ele>
        <time>2019-01-13T07:45:46.000Z</time>
      </trkpt>
      <trkpt lat="46.55029" lon="0.35639">
        <ele>160.88</ele>
        <time>2019-01-13T07:45:48.000Z</time>
      </trkpt>
      <trkpt lat="46.55014" lon="0.3564">
        <ele>160.51</ele>
        <time>2019-01-13T07:45:50.000Z</time>
      </trkpt>
      <trkpt lat="46.54999" lon="0.35643">
        <ele>160.15</ele>
        <time>2019-01-13T07:45:52.000Z</time>
      </trkpt>
      <trkpt lat="46.54983" lon="0.35646">
        <ele>159.89</ele>
        <time>2019-01-13T07:45:54.000Z</time>
      </trkpt>
      <trkpt lat="46.54968" lon="0.35649">
        <ele>159.63</ele>
        <time>2019-01-13T07:45:56.000Z</time>
      </trkpt>
      <trkpt lat="46.54953" lon="0.35652">
        <ele>159.49</ele>
        <time>2019-01-13T07:45:58.000Z</time>
      </trkpt>
      <trkpt lat="46.54939" lon="0.35656">
        <ele>159.1</ele>
        <time>2019-01-13T07:46:00.000Z</time>
      </trkpt>
      <trkpt lat="46.54923" lon="0.35661">
        <ele>158.75</ele>
        <time>2019-01-13T07:46:02.000Z</time>
      </trkpt>
      <trkpt lat="46.54906" lon="0.35669">
        <ele>158.35</ele>
        <time>2019-01-13T07:46:04.000Z</time>
      </trkpt>
      <trkpt lat="46.54891" lon="0.35676">
        <ele>157.76</ele>
        <time>2019-01-13T07:46:06.000Z</time>
      </trkpt>
      <trkpt lat="46.54879" lon="0.35681">
        <ele>156.8</ele>
        <time>2019-01-13T07:46:08.000Z</time>
      </trkpt>
      <trkpt lat="46.54869" lon="0.35685">
        <ele>155.82</ele>
        <time>2019-01-13T07:46:10.000Z</time>
      </trkpt>
      <trkpt lat="46.54858" lon="0.35681">
        <ele>154.52</ele>
        <time>2019-01-13T07:46:12.000Z</time>
      </trkpt>
      <trkpt lat="46.54847" lon="0.35668">
        <ele>152.86</ele>
        <time>2019-01-13T07:46:14.000Z</time>
      </trkpt>
      <trkpt lat="46.54835" lon="0.35656">
        <ele>151.2</ele>
        <time>2019-01-13T07:46:16.000Z</time>
      </trkpt>
      <trkpt lat="46.54826" lon="0.3564">
        <ele>149.48</ele>
        <time>2019-01-13T07:46:18.000Z</time>
      </trkpt>
      <trkpt lat="46.54819" lon="0.35625">
        <ele>147.77</ele>
        <time>2019-01-13T07:46:20.000Z</time>
      </trkpt>
      <trkpt lat="46.54812" lon="0.35612">
        <ele>146.39</ele>
        <time>2019-01-13T07:46:22.000Z</time>
      </trkpt>
      <trkpt lat="46.54804" lon="0.35599">
        <ele>145.24</ele>
        <time>2019-01-13T07:46:24.000Z</time>
      </trkpt>
      <trkpt lat="46.54799" lon="0.35587">
        <ele>143.78</ele>
        <time>2019-01-13T07:46:26.000Z</time>
      </trkpt>
      <trkpt lat="46.54793" lon="0.35574">
        <ele>142.9</ele>
        <time>2019-01-13T07:46:28.000Z</time>
      </trkpt>
      <trkpt lat="46.54787" lon="0.35563">
        <ele>142.59</ele>
        <time>2019-01-13T07:46:30.000Z</time>
      </trkpt>
      <trkpt lat="46.54779" lon="0.35554">
        <ele>142.72</ele>
        <time>2019-01-13T07:46:36.000Z</time>
      </trkpt>
      <trkpt lat="46.5477" lon="0.35554">
        <ele>142.71</ele>
        <time>2019-01-13T07:46:39.000Z</time>
      </trkpt>
      <trkpt lat="46.54761" lon="0.35552">
        <ele>142.65</ele>
        <time>2019-01-13T07:46:42.000Z</time>
      </trkpt>
      <trkpt lat="46.54752" lon="0.35554">
        <ele>142.62</ele>
        <time>2019-01-13T07:46:46.000Z</time>
      </trkpt>
      <trkpt lat="46.54743" lon="0.35564">
        <ele>142.67</ele>
        <time>2019-01-13T07:46:50.000Z</time>
      </trkpt>
      <trkpt lat="46.54735" lon="0.3557">
        <ele>142.66</ele>
        <time>2019-01-13T07:46:53.000Z</time>
      </trkpt>
      <trkpt lat="46.54724" lon="0.35569">
        <ele>142.4</ele>
        <time>2019-01-13T07:46:58.000Z</time>
      </trkpt>
      <trkpt lat="46.54715" lon="0.35571">
        <ele>141.89</ele>
        <time>2019-01-13T07:47:08.000Z</time>
      </trkpt>
      <trkpt lat="46.54705" lon="0.35571">
        <ele>142.62</ele>
        <time>2019-01-13T07:47:16.000Z</time>
      </trkpt>
      <trkpt lat="46.54695" lon="0.3557">
        <ele>142.76</ele>
        <time>2019-01-13T07:47:20.000Z</time>
      </trkpt>
      <trkpt lat="46.54686" lon="0.35572">
        <ele>142.62</ele>
        <time>2019-01-13T07:47:24.000Z</time>
      </trkpt>
      <trkpt lat="46.54679" lon="0.35579">
        <ele>142.5</ele>
        <time>2019-01-13T07:47:30.000Z</time>
      </trkpt>
      <trkpt lat="46.5467" lon="0.35585">
        <ele>142.36</ele>
        <time>2019-01-13T07:47:35.000Z</time>
      </trkpt>
      <trkpt lat="46.54661" lon="0.35591">
        <ele>142.66</ele>
        <time>2019-01-13T07:47:41.000Z</time>
      </trkpt>
      <trkpt lat="46.54651" lon="0.35596">
        <ele>143.64</ele>
        <time>2019-01-13T07:47:48.000Z</time>
      </trkpt>
      <trkpt lat="46.54643" lon="0.35602">
        <ele>144.83</ele>
        <time>2019-01-13T07:47:55.000Z</time>
      </trkpt>
      <trkpt lat="46.54634" lon="0.35608">
        <ele>146.51</ele>
        <time>2019-01-13T07:48:03.000Z</time>
      </trkpt>
      <trkpt lat="46.54625" lon="0.35612">
        <ele>148.3</ele>
        <time>2019-01-13T07:48:11.000Z</time>
      </trkpt>
      <trkpt lat="46.54616" lon="0.35615">
        <ele>150.39</ele>
        <time>2019-01-13T07:48:22.000Z</time>
      </trkpt>
      <trkpt lat="46.54606" lon="0.35618">
        <ele>151.93</ele>
        <time>2019-01-13T07:48:32.000Z</time>
      </trkpt>
      <trkpt lat="46.54597" lon="0.35622">
        <ele>153.61</ele>
        <time>2019-01-13T07:48:43.000Z</time>
      </trkpt>
      <trkpt lat="46.54588" lon="0.35624">
        <ele>154</ele>
        <time>2019-01-13T07:48:49.000Z</time>
      </trkpt>
      <trkpt lat="46.54594" lon="0.35638">
        <ele>154.12</ele>
        <time>2019-01-13T07:48:56.000Z</time>
      </trkpt>
      <trkpt lat="46.54602" lon="0.35646">
        <ele>154.29</ele>
        <time>2019-01-13T07:49:00.000Z</time>
      </trkpt>
      <trkpt lat="46.54611" lon="0.35656">
        <ele>154.6</ele>
        <time>2019-01-13T07:49:04.000Z</time>
      </trkpt>
      <trkpt lat="46.54619" lon="0.35666">
        <ele>154.9</ele>
        <time>2019-01-13T07:49:07.000Z</time>
      </trkpt>
      <trkpt lat="46.54627" lon="0.35674">
        <ele>155.19</ele>
        <time>2019-01-13T07:49:10.000Z</time>
      </trkpt>
      <trkpt lat="46.54638" lon="0.35686">
        <ele>155.54</ele>
        <time>2019-01-13T07:49:13.000Z</time>
      </trkpt>
      <trkpt lat="46.54648" lon="0.35699">
        <ele>158.68</ele>
        <time>2019-01-13T07:49:16.000Z</time>
      </trkpt>
      <trkpt lat="46.54655" lon="0.35709">
        <ele>159.97</ele>
        <time>2019-01-13T07:49:18.000Z</time>
      </trkpt>
      <trkpt lat="46.54664" lon="0.35722">
        <ele>161.03</ele>
        <time>2019-01-13T07:49:20.000Z</time>
      </trkpt>
      <trkpt lat="46.54673" lon="0.35735">
        <ele>161.97</ele>
        <time>2019-01-13T07:49:22.000Z</time>
      </trkpt>
      <trkpt lat="46.54682" lon="0.35751">
        <ele>161.71</ele>
        <time>2019-01-13T07:49:24.000Z</time>
      </trkpt>
      <trkpt lat="46.54688" lon="0.35762">
        <ele>160.71</ele>
        <time>2019-01-13T07:49:26.000Z</time>
      </trkpt>
      <trkpt lat="46.54693" lon="0.35774">
        <ele>160.19</ele>
        <time>2019-01-13T07:49:28.000Z</time>
      </trkpt>
      <trkpt lat="46.54697" lon="0.35787">
        <ele>160.08</ele>
        <time>2019-01-13T07:49:32.000Z</time>
      </trkpt>
      <trkpt lat="46.54699" lon="0.35802">
        <ele>160.05</ele>
        <time>2019-01-13T07:49:37.000Z</time>
      </trkpt>
      <trkpt lat="46.54701" lon="0.35815">
        <ele>160.1</ele>
        <time>2019-01-13T07:49:40.000Z</time>
      </trkpt>
      <trkpt lat="46.54704" lon="0.35829">
        <ele>160.11</ele>
        <time>2019-01-13T07:49:42.000Z</time>
      </trkpt>
      <trkpt lat="46.54707" lon="0.35842">
        <ele>160.06</ele>
        <time>2019-01-13T07:49:44.000Z</time>
      </trkpt>
      <trkpt lat="46.54711" lon="0.35859">
        <ele>160.01</ele>
        <time>2019-01-13T07:49:47.000Z</time>
      </trkpt>
      <trkpt lat="46.54715" lon="0.35874">
        <ele>159.48</ele>
        <time>2019-01-13T07:49:49.000Z</time>
      </trkpt>
      <trkpt lat="46.5472" lon="0.35888">
        <ele>159.34</ele>
        <time>2019-01-13T07:49:51.000Z</time>
      </trkpt>
      <trkpt lat="46.54727" lon="0.35904">
        <ele>156.92</ele>
        <time>2019-01-13T07:49:54.000Z</time>
      </trkpt>
      <trkpt lat="46.54731" lon="0.35921">
        <ele>156.62</ele>
        <time>2019-01-13T07:49:57.000Z</time>
      </trkpt>
      <trkpt lat="46.54738" lon="0.35935">
        <ele>156.19</ele>
        <time>2019-01-13T07:50:01.000Z</time>
      </trkpt>
      <trkpt lat="46.54744" lon="0.35946">
        <ele>155.86</ele>
        <time>2019-01-13T07:50:04.000Z</time>
      </trkpt>
      <trkpt lat="46.5475" lon="0.35956">
        <ele>155.59</ele>
        <time>2019-01-13T07:50:06.000Z</time>
      </trkpt>
      <trkpt lat="46.54755" lon="0.35968">
        <ele>155.18</ele>
        <time>2019-01-13T07:50:09.000Z</time>
      </trkpt>
      <trkpt lat="46.54763" lon="0.3598">
        <ele>154.88</ele>
        <time>2019-01-13T07:50:12.000Z</time>
      </trkpt>
      <trkpt lat="46.54769" lon="0.35989">
        <ele>154.67</ele>
        <time>2019-01-13T07:50:15.000Z</time>
      </trkpt>
      <trkpt lat="46.54774" lon="0.36002">
        <ele>154.48</ele>
        <time>2019-01-13T07:50:18.000Z</time>
      </trkpt>
      <trkpt lat="46.54779" lon="0.36016">
        <ele>154.3</ele>
        <time>2019-01-13T07:50:21.000Z</time>
      </trkpt>
      <trkpt lat="46.54785" lon="0.3603">
        <ele>154.26</ele>
        <time>2019-01-13T07:50:24.000Z</time>
      </trkpt>
      <trkpt lat="46.54791" lon="0.36041">
        <ele>154.21</ele>
        <time>2019-01-13T07:50:26.000Z</time>
      </trkpt>
      <trkpt lat="46.54798" lon="0.36055">
        <ele>154</ele>
        <time>2019-01-13T07:50:29.000Z</time>
      </trkpt>
      <trkpt lat="46.54805" lon="0.36068">
        <ele>153.62</ele>
        <time>2019-01-13T07:50:33.000Z</time>
      </trkpt>
      <trkpt lat="46.54813" lon="0.36076">
        <ele>153.46</ele>
        <time>2019-01-13T07:50:36.000Z</time>
      </trkpt>
      <trkpt lat="46.54821" lon="0.36083">
        <ele>153.41</ele>
        <time>2019-01-13T07:50:39.000Z</time>
      </trkpt>
      <trkpt lat="46.54829" lon="0.3609">
        <ele>153.44</ele>
        <time>2019-01-13T07:50:42.000Z</time>
      </trkpt>
      <trkpt lat="46.54839" lon="0.36098">
        <ele>153.47</ele>
        <time>2019-01-13T07:50:45.000Z</time>
      </trkpt>
      <trkpt lat="46.54849" lon="0.36107">
        <ele>153.53</ele>
        <time>2019-01-13T07:50:48.000Z</time>
      </trkpt>
      <trkpt lat="46.54856" lon="0.3612">
        <ele>153.69</ele>
        <time>2019-01-13T07:50:50.000Z</time>
      </trkpt>
      <trkpt lat="46.54864" lon="0.36131">
        <ele>153.07</ele>
        <time>2019-01-13T07:50:52.000Z</time>
      </trkpt>
      <trkpt lat="46.54872" lon="0.36146">
        <ele>151.95</ele>
        <time>2019-01-13T07:50:54.000Z</time>
      </trkpt>
      <trkpt lat="46.54881" lon="0.36157">
        <ele>151.86</ele>
        <time>2019-01-13T07:50:56.000Z</time>
      </trkpt>
      <trkpt lat="46.5489" lon="0.36169">
        <ele>151.9</ele>
        <time>2019-01-13T07:50:58.000Z</time>
      </trkpt>
      <trkpt lat="46.54899" lon="0.36177">
        <ele>151.32</ele>
        <time>2019-01-13T07:51:00.000Z</time>
      </trkpt>
      <trkpt lat="46.5491" lon="0.36185">
        <ele>150.93</ele>
        <time>2019-01-13T07:51:02.000Z</time>
      </trkpt>
      <trkpt lat="46.54919" lon="0.36197">
        <ele>150.59</ele>
        <time>2019-01-13T07:51:04.000Z</time>
      </trkpt>
      <trkpt lat="46.54932" lon="0.36211">
        <ele>149.26</ele>
        <time>2019-01-13T07:51:06.000Z</time>
      </trkpt>
      <trkpt lat="46.54944" lon="0.36223">
        <ele>147.91</ele>
        <time>2019-01-13T07:51:08.000Z</time>
      </trkpt>
      <trkpt lat="46.54955" lon="0.36227">
        <ele>146.48</ele>
        <time>2019-01-13T07:51:10.000Z</time>
      </trkpt>
      <trkpt lat="46.54964" lon="0.36231">
        <ele>145.31</ele>
        <time>2019-01-13T07:51:12.000Z</time>
      </trkpt>
      <trkpt lat="46.54973" lon="0.36236">
        <ele>144.5</ele>
        <time>2019-01-13T07:51:14.000Z</time>
      </trkpt>
      <trkpt lat="46.54981" lon="0.36245">
        <ele>144.08</ele>
        <time>2019-01-13T07:51:16.000Z</time>
      </trkpt>
      <trkpt lat="46.5499" lon="0.36257">
        <ele>144.03</ele>
        <time>2019-01-13T07:51:19.000Z</time>
      </trkpt>
      <trkpt lat="46.54999" lon="0.3627">
        <ele>144.22</ele>
        <time>2019-01-13T07:51:22.000Z</time>
      </trkpt>
      <trkpt lat="46.55006" lon="0.36278">
        <ele>144.42</ele>
        <time>2019-01-13T07:51:24.000Z</time>
      </trkpt>
      <trkpt lat="46.55014" lon="0.36286">
        <ele>144.62</ele>
        <time>2019-01-13T07:51:26.000Z</time>
      </trkpt>
      <trkpt lat="46.55022" lon="0.36294">
        <ele>144.68</ele>
        <time>2019-01-13T07:51:28.000Z</time>
      </trkpt>
      <trkpt lat="46.55034" lon="0.363">
        <ele>144.75</ele>
        <time>2019-01-13T07:51:31.000Z</time>
      </trkpt>
      <trkpt lat="46.55044" lon="0.36303">
        <ele>144.85</ele>
        <time>2019-01-13T07:51:34.000Z</time>
      </trkpt>
      <trkpt lat="46.55049" lon="0.36314">
        <ele>144.95</ele>
        <time>2019-01-13T07:51:38.000Z</time>
      </trkpt>
      <trkpt lat="46.55048" lon="0.36329">
        <ele>145.14</ele>
        <time>2019-01-13T07:51:41.000Z</time>
      </trkpt>
      <trkpt lat="46.55045" lon="0.36342">
        <ele>145.24</ele>
        <time>2019-01-13T07:51:43.000Z</time>
      </trkpt>
      <trkpt lat="46.55039" lon="0.36359">
        <ele>145.24</ele>
        <time>2019-01-13T07:51:46.000Z</time>
      </trkpt>
      <trkpt lat="46.55034" lon="0.36376">
        <ele>144.92</ele>
        <time>2019-01-13T07:51:49.000Z</time>
      </trkpt>
      <trkpt lat="46.55032" lon="0.36391">
        <ele>144.35</ele>
        <time>2019-01-13T07:51:52.000Z</time>
      </trkpt>
      <trkpt lat="46.55034" lon="0.36406">
        <ele>144.31</ele>
        <time>2019-01-13T07:51:55.000Z</time>
      </trkpt>
      <trkpt lat="46.55033" lon="0.36421">
        <ele>144.34</ele>
        <time>2019-01-13T07:51:58.000Z</time>
      </trkpt>
      <trkpt lat="46.55032" lon="0.36436">
        <ele>144.51</ele>
        <time>2019-01-13T07:52:01.000Z</time>
      </trkpt>
      <trkpt lat="46.55034" lon="0.36454">
        <ele>144.85</ele>
        <time>2019-01-13T07:52:05.000Z</time>
      </trkpt>
      <trkpt lat="46.55037" lon="0.3647">
        <ele>144.94</ele>
        <time>2019-01-13T07:52:08.000Z</time>
      </trkpt>
      <trkpt lat="46.5504" lon="0.36487">
        <ele>145.13</ele>
        <time>2019-01-13T07:52:11.000Z</time>
      </trkpt>
      <trkpt lat="46.55047" lon="0.36499">
        <ele>145.33</ele>
        <time>2019-01-13T07:52:15.000Z</time>
      </trkpt>
      <trkpt lat="46.55055" lon="0.36513">
        <ele>145.29</ele>
        <time>2019-01-13T07:52:18.000Z</time>
      </trkpt>
      <trkpt lat="46.55064" lon="0.36522">
        <ele>144.97</ele>
        <time>2019-01-13T07:52:22.000Z</time>
      </trkpt>
      <trkpt lat="46.55073" lon="0.36528">
        <ele>144.74</ele>
        <time>2019-01-13T07:52:26.000Z</time>
      </trkpt>
      <trkpt lat="46.55082" lon="0.36535">
        <ele>144.66</ele>
        <time>2019-01-13T07:52:29.000Z</time>
      </trkpt>
      <trkpt lat="46.55089" lon="0.36543">
        <ele>144.57</ele>
        <time>2019-01-13T07:52:32.000Z</time>
      </trkpt>
      <trkpt lat="46.55098" lon="0.36553">
        <ele>144.61</ele>
        <time>2019-01-13T07:52:36.000Z</time>
      </trkpt>
      <trkpt lat="46.55105" lon="0.36564">
        <ele>144.69</ele>
        <time>2019-01-13T07:52:40.000Z</time>
      </trkpt>
      <trkpt lat="46.55111" lon="0.36575">
        <ele>144.92</ele>
        <time>2019-01-13T07:52:44.000Z</time>
      </trkpt>
      <trkpt lat="46.55116" lon="0.36587">
        <ele>145.5</ele>
        <time>2019-01-13T07:52:50.000Z</time>
      </trkpt>
      <trkpt lat="46.5512" lon="0.366">
        <ele>146.18</ele>
        <time>2019-01-13T07:52:55.000Z</time>
      </trkpt>
      <trkpt lat="46.55123" lon="0.36614">
        <ele>146.88</ele>
        <time>2019-01-13T07:53:01.000Z</time>
      </trkpt>
      <trkpt lat="46.5512" lon="0.36626">
        <ele>148.56</ele>
        <time>2019-01-13T07:53:22.000Z</time>
      </trkpt>
      <trkpt lat="46.55111" lon="0.36621">
        <ele>148.53</ele>
        <time>2019-01-13T07:53:29.000Z</time>
      </trkpt>
      <trkpt lat="46.55101" lon="0.36617">
        <ele>148.39</ele>
        <time>2019-01-13T07:53:33.000Z</time>
      </trkpt>
      <trkpt lat="46.55092" lon="0.3661">
        <ele>148.19</ele>
        <time>2019-01-13T07:53:38.000Z</time>
      </trkpt>
      <trkpt lat="46.55082" lon="0.36602">
        <ele>148.29</ele>
        <time>2019-01-13T07:53:42.000Z</time>
      </trkpt>
      <trkpt lat="46.55072" lon="0.36599">
        <ele>148.57</ele>
        <time>2019-01-13T07:53:46.000Z</time>
      </trkpt>
      <trkpt lat="46.55057" lon="0.36592">
        <ele>148.76</ele>
        <time>2019-01-13T07:53:50.000Z</time>
      </trkpt>
      <trkpt lat="46.55047" lon="0.36588">
        <ele>148.86</ele>
        <time>2019-01-13T07:53:52.000Z</time>
      </trkpt>
      <trkpt lat="46.55037" lon="0.36585">
        <ele>149.02</ele>
        <time>2019-01-13T07:53:56.000Z</time>
      </trkpt>
      <trkpt lat="46.55029" lon="0.36579">
        <ele>149.26</ele>
        <time>2019-01-13T07:54:00.000Z</time>
      </trkpt>
      <trkpt lat="46.55019" lon="0.36573">
        <ele>149.98</ele>
        <time>2019-01-13T07:54:07.000Z</time>
      </trkpt>
      <trkpt lat="46.55009" lon="0.36567">
        <ele>150.83</ele>
        <time>2019-01-13T07:54:14.000Z</time>
      </trkpt>
      <trkpt lat="46.55" lon="0.36562">
        <ele>151.38</ele>
        <time>2019-01-13T07:54:19.000Z</time>
      </trkpt>
      <trkpt lat="46.54991" lon="0.36555">
        <ele>152.31</ele>
        <time>2019-01-13T07:54:25.000Z</time>
      </trkpt>
      <trkpt lat="46.54984" lon="0.36546">
        <ele>153.18</ele>
        <time>2019-01-13T07:54:30.000Z</time>
      </trkpt>
      <trkpt lat="46.54976" lon="0.36535">
        <ele>154.31</ele>
        <time>2019-01-13T07:54:36.000Z</time>
      </trkpt>
      <trkpt lat="46.54969" lon="0.36525">
        <ele>156.7</ele>
        <time>2019-01-13T07:54:46.000Z</time>
      </trkpt>
      <trkpt lat="46.54964" lon="0.36514">
        <ele>157.9</ele>
        <time>2019-01-13T07:54:52.000Z</time>
      </trkpt>
      <trkpt lat="46.54956" lon="0.36507">
        <ele>159.56</ele>
        <time>2019-01-13T07:55:12.000Z</time>
      </trkpt>
      <trkpt lat="46.54947" lon="0.36499">
        <ele>159.76</ele>
        <time>2019-01-13T07:55:18.000Z</time>
      </trkpt>
      <trkpt lat="46.54937" lon="0.36493">
        <ele>159.62</ele>
        <time>2019-01-13T07:55:22.000Z</time>
      </trkpt>
      <trkpt lat="46.54927" lon="0.36489">
        <ele>159.29</ele>
        <time>2019-01-13T07:55:26.000Z</time>
      </trkpt>
      <trkpt lat="46.54916" lon="0.36486">
        <ele>158.79</ele>
        <time>2019-01-13T07:55:31.000Z</time>
      </trkpt>
      <trkpt lat="46.54907" lon="0.36483">
        <ele>158.65</ele>
        <time>2019-01-13T07:55:35.000Z</time>
      </trkpt>
      <trkpt lat="46.54897" lon="0.36479">
        <ele>158.95</ele>
        <time>2019-01-13T07:55:38.000Z</time>
      </trkpt>
      <trkpt lat="46.54886" lon="0.36476">
        <ele>159.62</ele>
        <time>2019-01-13T07:55:41.000Z</time>
      </trkpt>
      <trkpt lat="46.54874" lon="0.36475">
        <ele>160.5</ele>
        <time>2019-01-13T07:55:44.000Z</time>
      </trkpt>
      <trkpt lat="46.54864" lon="0.36474">
        <ele>161.4</ele>
        <time>2019-01-13T07:55:47.000Z</time>
      </trkpt>
      <trkpt lat="46.54854" lon="0.36473">
        <ele>162.39</ele>
        <time>2019-01-13T07:55:50.000Z</time>
      </trkpt>
      <trkpt lat="46.54844" lon="0.36472">
        <ele>163.32</ele>
        <time>2019-01-13T07:55:53.000Z</time>
      </trkpt>
      <trkpt lat="46.54833" lon="0.36473">
        <ele>164.18</ele>
        <time>2019-01-13T07:55:56.000Z</time>
      </trkpt>
      <trkpt lat="46.54823" lon="0.36476">
        <ele>164.99</ele>
        <time>2019-01-13T07:55:59.000Z</time>
      </trkpt>
      <trkpt lat="46.5481" lon="0.36478">
        <ele>165.75</ele>
        <time>2019-01-13T07:56:02.000Z</time>
      </trkpt>
      <trkpt lat="46.54797" lon="0.36483">
        <ele>169.57</ele>
        <time>2019-01-13T07:56:05.000Z</time>
      </trkpt>
      <trkpt lat="46.54791" lon="0.36496">
        <ele>169.96</ele>
        <time>2019-01-13T07:56:08.000Z</time>
      </trkpt>
      <trkpt lat="46.54787" lon="0.36511">
        <ele>170.68</ele>
        <time>2019-01-13T07:56:12.000Z</time>
      </trkpt>
      <trkpt lat="46.54785" lon="0.36529">
        <ele>171.34</ele>
        <time>2019-01-13T07:56:15.000Z</time>
      </trkpt>
      <trkpt lat="46.54783" lon="0.36545">
        <ele>171.97</ele>
        <time>2019-01-13T07:56:18.000Z</time>
      </trkpt>
      <trkpt lat="46.54781" lon="0.36561">
        <ele>172.5</ele>
        <time>2019-01-13T07:56:21.000Z</time>
      </trkpt>
      <trkpt lat="46.54771" lon="0.36569">
        <ele>173.04</ele>
        <time>2019-01-13T07:56:25.000Z</time>
      </trkpt>
      <trkpt lat="46.54761" lon="0.36579">
        <ele>174.69</ele>
        <time>2019-01-13T07:56:29.000Z</time>
      </trkpt>
      <trkpt lat="46.54754" lon="0.3659">
        <ele>176.08</ele>
        <time>2019-01-13T07:56:31.000Z</time>
      </trkpt>
      <trkpt lat="46.54747" lon="0.366">
        <ele>176.76</ele>
        <time>2019-01-13T07:56:33.000Z</time>
      </trkpt>
      <trkpt lat="46.54742" lon="0.36611">
        <ele>177.08</ele>
        <time>2019-01-13T07:56:35.000Z</time>
      </trkpt>
      <trkpt lat="46.54735" lon="0.36622">
        <ele>177.64</ele>
        <time>2019-01-13T07:56:37.000Z</time>
      </trkpt>
      <trkpt lat="46.54729" lon="0.36634">
        <ele>177.94</ele>
        <time>2019-01-13T07:56:39.000Z</time>
      </trkpt>
      <trkpt lat="46.54723" lon="0.36647">
        <ele>178.2</ele>
        <time>2019-01-13T07:56:41.000Z</time>
      </trkpt>
      <trkpt lat="46.54718" lon="0.3666">
        <ele>178.29</ele>
        <time>2019-01-13T07:56:43.000Z</time>
      </trkpt>
      <trkpt lat="46.54713" lon="0.36673">
        <ele>178.06</ele>
        <time>2019-01-13T07:56:45.000Z</time>
      </trkpt>
      <trkpt lat="46.54709" lon="0.36687">
        <ele>177.82</ele>
        <time>2019-01-13T07:56:47.000Z</time>
      </trkpt>
      <trkpt lat="46.54704" lon="0.36702">
        <ele>177.69</ele>
        <time>2019-01-13T07:56:49.000Z</time>
      </trkpt>
      <trkpt lat="46.54699" lon="0.36716">
        <ele>178.22</ele>
        <time>2019-01-13T07:56:51.000Z</time>
      </trkpt>
      <trkpt lat="46.54694" lon="0.36732">
        <ele>178.74</ele>
        <time>2019-01-13T07:56:53.000Z</time>
      </trkpt>
      <trkpt lat="46.5469" lon="0.36748">
        <ele>179.27</ele>
        <time>2019-01-13T07:56:55.000Z</time>
      </trkpt>
      <trkpt lat="46.54684" lon="0.36765">
        <ele>179.57</ele>
        <time>2019-01-13T07:56:57.000Z</time>
      </trkpt>
      <trkpt lat="46.54675" lon="0.36779">
        <ele>178.59</ele>
        <time>2019-01-13T07:56:59.000Z</time>
      </trkpt>
      <trkpt lat="46.54664" lon="0.36786">
        <ele>176.39</ele>
        <time>2019-01-13T07:57:01.000Z</time>
      </trkpt>
      <trkpt lat="46.54653" lon="0.3679">
        <ele>174.63</ele>
        <time>2019-01-13T07:57:03.000Z</time>
      </trkpt>
      <trkpt lat="46.54642" lon="0.36794">
        <ele>173.57</ele>
        <time>2019-01-13T07:57:05.000Z</time>
      </trkpt>
      <trkpt lat="46.5463" lon="0.36798">
        <ele>173.01</ele>
        <time>2019-01-13T07:57:07.000Z</time>
      </trkpt>
      <trkpt lat="46.54619" lon="0.36801">
        <ele>172.84</ele>
        <time>2019-01-13T07:57:09.000Z</time>
      </trkpt>
      <trkpt lat="46.54608" lon="0.36805">
        <ele>172.92</ele>
        <time>2019-01-13T07:57:11.000Z</time>
      </trkpt>
      <trkpt lat="46.54596" lon="0.3681">
        <ele>173.1</ele>
        <time>2019-01-13T07:57:13.000Z</time>
      </trkpt>
      <trkpt lat="46.54586" lon="0.36814">
        <ele>173.4</ele>
        <time>2019-01-13T07:57:15.000Z</time>
      </trkpt>
      <trkpt lat="46.54576" lon="0.36818">
        <ele>173.78</ele>
        <time>2019-01-13T07:57:17.000Z</time>
      </trkpt>
      <trkpt lat="46.54567" lon="0.36822">
        <ele>174.2</ele>
        <time>2019-01-13T07:57:19.000Z</time>
      </trkpt>
      <trkpt lat="46.54557" lon="0.36828">
        <ele>174.59</ele>
        <time>2019-01-13T07:57:22.000Z</time>
      </trkpt>
      <trkpt lat="46.54546" lon="0.36833">
        <ele>175.52</ele>
        <time>2019-01-13T07:57:25.000Z</time>
      </trkpt>
      <trkpt lat="46.54534" lon="0.36838">
        <ele>176.15</ele>
        <time>2019-01-13T07:57:28.000Z</time>
      </trkpt>
      <trkpt lat="46.54522" lon="0.36843">
        <ele>176.68</ele>
        <time>2019-01-13T07:57:31.000Z</time>
      </trkpt>
      <trkpt lat="46.54513" lon="0.36847">
        <ele>177.04</ele>
        <time>2019-01-13T07:57:33.000Z</time>
      </trkpt>
      <trkpt lat="46.54504" lon="0.3685">
        <ele>177.51</ele>
        <time>2019-01-13T07:57:35.000Z</time>
      </trkpt>
      <trkpt lat="46.54491" lon="0.36855">
        <ele>177.96</ele>
        <time>2019-01-13T07:57:38.000Z</time>
      </trkpt>
      <trkpt lat="46.54479" lon="0.3686">
        <ele>178.28</ele>
        <time>2019-01-13T07:57:41.000Z</time>
      </trkpt>
      <trkpt lat="46.5447" lon="0.36864">
        <ele>178.37</ele>
        <time>2019-01-13T07:57:44.000Z</time>
      </trkpt>
      <trkpt lat="46.54458" lon="0.36869">
        <ele>178.58</ele>
        <time>2019-01-13T07:57:47.000Z</time>
      </trkpt>
      <trkpt lat="46.54448" lon="0.36874">
        <ele>179</ele>
        <time>2019-01-13T07:57:50.000Z</time>
      </trkpt>
      <trkpt lat="46.54437" lon="0.36878">
        <ele>178.96</ele>
        <time>2019-01-13T07:57:53.000Z</time>
      </trkpt>
      <trkpt lat="46.54428" lon="0.36883">
        <ele>178.77</ele>
        <time>2019-01-13T07:57:55.000Z</time>
      </trkpt>
      <trkpt lat="46.54417" lon="0.36886">
        <ele>179.29</ele>
        <time>2019-01-13T07:57:57.000Z</time>
      </trkpt>
      <trkpt lat="46.54408" lon="0.3689">
        <ele>179.98</ele>
        <time>2019-01-13T07:57:59.000Z</time>
      </trkpt>
      <trkpt lat="46.54397" lon="0.36893">
        <ele>180.56</ele>
        <time>2019-01-13T07:58:01.000Z</time>
      </trkpt>
      <trkpt lat="46.54386" lon="0.36893">
        <ele>181.23</ele>
        <time>2019-01-13T07:58:03.000Z</time>
      </trkpt>
      <trkpt lat="46.54377" lon="0.36892">
        <ele>181.42</ele>
        <time>2019-01-13T07:58:05.000Z</time>
      </trkpt>
      <trkpt lat="46.54366" lon="0.3689">
        <ele>181.57</ele>
        <time>2019-01-13T07:58:07.000Z</time>
      </trkpt>
      <trkpt lat="46.54355" lon="0.36888">
        <ele>181.73</ele>
        <time>2019-01-13T07:58:09.000Z</time>
      </trkpt>
      <trkpt lat="46.54345" lon="0.36886">
        <ele>182.03</ele>
        <time>2019-01-13T07:58:11.000Z</time>
      </trkpt>
      <trkpt lat="46.54334" lon="0.36885">
        <ele>182.54</ele>
        <time>2019-01-13T07:58:13.000Z</time>
      </trkpt>
      <trkpt lat="46.54323" lon="0.36885">
        <ele>182.76</ele>
        <time>2019-01-13T07:58:15.000Z</time>
      </trkpt>
      <trkpt lat="46.54312" lon="0.36883">
        <ele>182.61</ele>
        <time>2019-01-13T07:58:17.000Z</time>
      </trkpt>
      <trkpt lat="46.54302" lon="0.36882">
        <ele>182.46</ele>
        <time>2019-01-13T07:58:19.000Z</time>
      </trkpt>
      <trkpt lat="46.5429" lon="0.36881">
        <ele>182.03</ele>
        <time>2019-01-13T07:58:21.000Z</time>
      </trkpt>
      <trkpt lat="46.54277" lon="0.3688">
        <ele>181.35</ele>
        <time>2019-01-13T07:58:23.000Z</time>
      </trkpt>
      <trkpt lat="46.54264" lon="0.36879">
        <ele>180.73</ele>
        <time>2019-01-13T07:58:25.000Z</time>
      </trkpt>
      <trkpt lat="46.54252" lon="0.36878">
        <ele>180.09</ele>
        <time>2019-01-13T07:58:27.000Z</time>
      </trkpt>
      <trkpt lat="46.5424" lon="0.36882">
        <ele>179.35</ele>
        <time>2019-01-13T07:58:29.000Z</time>
      </trkpt>
      <trkpt lat="46.54236" lon="0.36894">
        <ele>178.76</ele>
        <time>2019-01-13T07:58:31.000Z</time>
      </trkpt>
      <trkpt lat="46.54241" lon="0.3691">
        <ele>178.23</ele>
        <time>2019-01-13T07:58:34.000Z</time>
      </trkpt>
      <trkpt lat="46.54248" lon="0.36921">
        <ele>177.72</ele>
        <time>2019-01-13T07:58:36.000Z</time>
      </trkpt>
      <trkpt lat="46.54254" lon="0.36933">
        <ele>177.33</ele>
        <time>2019-01-13T07:58:38.000Z</time>
      </trkpt>
      <trkpt lat="46.5426" lon="0.36947">
        <ele>176.93</ele>
        <time>2019-01-13T07:58:40.000Z</time>
      </trkpt>
      <trkpt lat="46.54266" lon="0.36961">
        <ele>176.69</ele>
        <time>2019-01-13T07:58:42.000Z</time>
      </trkpt>
      <trkpt lat="46.54271" lon="0.36975">
        <ele>176.58</ele>
        <time>2019-01-13T07:58:44.000Z</time>
      </trkpt>
      <trkpt lat="46.54277" lon="0.36987">
        <ele>176.4</ele>
        <time>2019-01-13T07:58:46.000Z</time>
      </trkpt>
      <trkpt lat="46.54282" lon="0.37">
        <ele>176.22</ele>
        <time>2019-01-13T07:58:48.000Z</time>
      </trkpt>
      <trkpt lat="46.54288" lon="0.37011">
        <ele>176.26</ele>
        <time>2019-01-13T07:58:50.000Z</time>
      </trkpt>
      <trkpt lat="46.54293" lon="0.37023">
        <ele>176.45</ele>
        <time>2019-01-13T07:58:52.000Z</time>
      </trkpt>
      <trkpt lat="46.54296" lon="0.37036">
        <ele>176.65</ele>
        <time>2019-01-13T07:58:54.000Z</time>
      </trkpt>
      <trkpt lat="46.543" lon="0.37048">
        <ele>176.93</ele>
        <time>2019-01-13T07:58:56.000Z</time>
      </trkpt>
      <trkpt lat="46.54306" lon="0.3706">
        <ele>177.29</ele>
        <time>2019-01-13T07:58:58.000Z</time>
      </trkpt>
      <trkpt lat="46.54314" lon="0.37072">
        <ele>177.66</ele>
        <time>2019-01-13T07:59:00.000Z</time>
      </trkpt>
      <trkpt lat="46.54321" lon="0.37084">
        <ele>178.01</ele>
        <time>2019-01-13T07:59:02.000Z</time>
      </trkpt>
      <trkpt lat="46.5433" lon="0.37099">
        <ele>177.64</ele>
        <time>2019-01-13T07:59:05.000Z</time>
      </trkpt>
      <trkpt lat="46.54337" lon="0.37109">
        <ele>177.33</ele>
        <time>2019-01-13T07:59:08.000Z</time>
      </trkpt>
      <trkpt lat="46.54344" lon="0.37124">
        <ele>176.89</ele>
        <time>2019-01-13T07:59:11.000Z</time>
      </trkpt>
      <trkpt lat="46.54351" lon="0.37139">
        <ele>175.93</ele>
        <time>2019-01-13T07:59:14.000Z</time>
      </trkpt>
      <trkpt lat="46.54359" lon="0.37156">
        <ele>175.08</ele>
        <time>2019-01-13T07:59:17.000Z</time>
      </trkpt>
      <trkpt lat="46.54366" lon="0.37172">
        <ele>174.59</ele>
        <time>2019-01-13T07:59:20.000Z</time>
      </trkpt>
      <trkpt lat="46.54373" lon="0.37187">
        <ele>173.65</ele>
        <time>2019-01-13T07:59:23.000Z</time>
      </trkpt>
      <trkpt lat="46.54378" lon="0.37198">
        <ele>172.86</ele>
        <time>2019-01-13T07:59:25.000Z</time>
      </trkpt>
      <trkpt lat="46.54384" lon="0.3721">
        <ele>172.54</ele>
        <time>2019-01-13T07:59:27.000Z</time>
      </trkpt>
      <trkpt lat="46.54389" lon="0.37222">
        <ele>172.47</ele>
        <time>2019-01-13T07:59:29.000Z</time>
      </trkpt>
      <trkpt lat="46.54396" lon="0.37238">
        <ele>172.4</ele>
        <time>2019-01-13T07:59:32.000Z</time>
      </trkpt>
      <trkpt lat="46.54403" lon="0.3725">
        <ele>172.51</ele>
        <time>2019-01-13T07:59:34.000Z</time>
      </trkpt>
      <trkpt lat="46.5441" lon="0.37265">
        <ele>172.59</ele>
        <time>2019-01-13T07:59:36.000Z</time>
      </trkpt>
      <trkpt lat="46.54417" lon="0.37279">
        <ele>172.45</ele>
        <time>2019-01-13T07:59:38.000Z</time>
      </trkpt>
      <trkpt lat="46.54424" lon="0.37293">
        <ele>171.93</ele>
        <time>2019-01-13T07:59:40.000Z</time>
      </trkpt>
      <trkpt lat="46.54431" lon="0.37308">
        <ele>171.33</ele>
        <time>2019-01-13T07:59:42.000Z</time>
      </trkpt>
      <trkpt lat="46.54436" lon="0.37321">
        <ele>170.72</ele>
        <time>2019-01-13T07:59:44.000Z</time>
      </trkpt>
      <trkpt lat="46.5444" lon="0.37335">
        <ele>170.23</ele>
        <time>2019-01-13T07:59:46.000Z</time>
      </trkpt>
      <trkpt lat="46.54443" lon="0.37348">
        <ele>170.31</ele>
        <time>2019-01-13T07:59:48.000Z</time>
      </trkpt>
      <trkpt lat="46.54452" lon="0.37354">
        <ele>170.72</ele>
        <time>2019-01-13T07:59:51.000Z</time>
      </trkpt>
      <trkpt lat="46.5446" lon="0.37349">
        <ele>170.82</ele>
        <time>2019-01-13T07:59:54.000Z</time>
      </trkpt>
      <trkpt lat="46.54469" lon="0.37345">
        <ele>170.98</ele>
        <time>2019-01-13T07:59:57.000Z</time>
      </trkpt>
      <trkpt lat="46.5448" lon="0.37343">
        <ele>171.21</ele>
        <time>2019-01-13T08:00:01.000Z</time>
      </trkpt>
      <trkpt lat="46.54489" lon="0.37348">
        <ele>171.47</ele>
        <time>2019-01-13T08:00:05.000Z</time>
      </trkpt>
      <trkpt lat="46.54498" lon="0.37355">
        <ele>171.81</ele>
        <time>2019-01-13T08:00:09.000Z</time>
      </trkpt>
      <trkpt lat="46.54507" lon="0.37365">
        <ele>172.19</ele>
        <time>2019-01-13T08:00:13.000Z</time>
      </trkpt>
      <trkpt lat="46.54516" lon="0.37375">
        <ele>172.62</ele>
        <time>2019-01-13T08:00:17.000Z</time>
      </trkpt>
      <trkpt lat="46.54525" lon="0.37384">
        <ele>172.96</ele>
        <time>2019-01-13T08:00:20.000Z</time>
      </trkpt>
      <trkpt lat="46.54535" lon="0.37395">
        <ele>175.93</ele>
        <time>2019-01-13T08:00:23.000Z</time>
      </trkpt>
      <trkpt lat="46.54546" lon="0.37406">
        <ele>177.27</ele>
        <time>2019-01-13T08:00:26.000Z</time>
      </trkpt>
      <trkpt lat="46.54555" lon="0.37415">
        <ele>177.61</ele>
        <time>2019-01-13T08:00:28.000Z</time>
      </trkpt>
      <trkpt lat="46.54564" lon="0.37424">
        <ele>177.82</ele>
        <time>2019-01-13T08:00:30.000Z</time>
      </trkpt>
      <trkpt lat="46.54571" lon="0.37433">
        <ele>177.74</ele>
        <time>2019-01-13T08:00:32.000Z</time>
      </trkpt>
      <trkpt lat="46.54579" lon="0.37443">
        <ele>177.48</ele>
        <time>2019-01-13T08:00:34.000Z</time>
      </trkpt>
      <trkpt lat="46.54587" lon="0.37453">
        <ele>177.16</ele>
        <time>2019-01-13T08:00:36.000Z</time>
      </trkpt>
      <trkpt lat="46.54594" lon="0.37463">
        <ele>176.93</ele>
        <time>2019-01-13T08:00:38.000Z</time>
      </trkpt>
      <trkpt lat="46.54601" lon="0.37474">
        <ele>176.94</ele>
        <time>2019-01-13T08:00:40.000Z</time>
      </trkpt>
      <trkpt lat="46.54606" lon="0.37487">
        <ele>176.87</ele>
        <time>2019-01-13T08:00:42.000Z</time>
      </trkpt>
      <trkpt lat="46.5461" lon="0.375">
        <ele>176.71</ele>
        <time>2019-01-13T08:00:44.000Z</time>
      </trkpt>
      <trkpt lat="46.54615" lon="0.37514">
        <ele>176.55</ele>
        <time>2019-01-13T08:00:46.000Z</time>
      </trkpt>
      <trkpt lat="46.5462" lon="0.37526">
        <ele>176.08</ele>
        <time>2019-01-13T08:00:48.000Z</time>
      </trkpt>
      <trkpt lat="46.54627" lon="0.37535">
        <ele>175.76</ele>
        <time>2019-01-13T08:00:50.000Z</time>
      </trkpt>
      <trkpt lat="46.54636" lon="0.37542">
        <ele>175.41</ele>
        <time>2019-01-13T08:00:52.000Z</time>
      </trkpt>
      <trkpt lat="46.54644" lon="0.37551">
        <ele>174.95</ele>
        <time>2019-01-13T08:00:54.000Z</time>
      </trkpt>
      <trkpt lat="46.54653" lon="0.3756">
        <ele>174.3</ele>
        <time>2019-01-13T08:00:56.000Z</time>
      </trkpt>
      <trkpt lat="46.54661" lon="0.3757">
        <ele>173.93</ele>
        <time>2019-01-13T08:00:58.000Z</time>
      </trkpt>
      <trkpt lat="46.54669" lon="0.37581">
        <ele>173.26</ele>
        <time>2019-01-13T08:01:00.000Z</time>
      </trkpt>
      <trkpt lat="46.54677" lon="0.37593">
        <ele>171.85</ele>
        <time>2019-01-13T08:01:02.000Z</time>
      </trkpt>
      <trkpt lat="46.54685" lon="0.37603">
        <ele>170.55</ele>
        <time>2019-01-13T08:01:04.000Z</time>
      </trkpt>
      <trkpt lat="46.54692" lon="0.37614">
        <ele>170.09</ele>
        <time>2019-01-13T08:01:06.000Z</time>
      </trkpt>
      <trkpt lat="46.54699" lon="0.37626">
        <ele>170.06</ele>
        <time>2019-01-13T08:01:08.000Z</time>
      </trkpt>
      <trkpt lat="46.54707" lon="0.3764">
        <ele>169.89</ele>
        <time>2019-01-13T08:01:10.000Z</time>
      </trkpt>
      <trkpt lat="46.54713" lon="0.37651">
        <ele>169.65</ele>
        <time>2019-01-13T08:01:12.000Z</time>
      </trkpt>
      <trkpt lat="46.5472" lon="0.37664">
        <ele>169.21</ele>
        <time>2019-01-13T08:01:14.000Z</time>
      </trkpt>
      <trkpt lat="46.54726" lon="0.37675">
        <ele>168.88</ele>
        <time>2019-01-13T08:01:16.000Z</time>
      </trkpt>
      <trkpt lat="46.54732" lon="0.37686">
        <ele>168.98</ele>
        <time>2019-01-13T08:01:18.000Z</time>
      </trkpt>
      <trkpt lat="46.54738" lon="0.37698">
        <ele>169.41</ele>
        <time>2019-01-13T08:01:21.000Z</time>
      </trkpt>
      <trkpt lat="46.54743" lon="0.37709">
        <ele>169.52</ele>
        <time>2019-01-13T08:01:23.000Z</time>
      </trkpt>
      <trkpt lat="46.54749" lon="0.37725">
        <ele>169.59</ele>
        <time>2019-01-13T08:01:26.000Z</time>
      </trkpt>
      <trkpt lat="46.54752" lon="0.37738">
        <ele>169.62</ele>
        <time>2019-01-13T08:01:28.000Z</time>
      </trkpt>
      <trkpt lat="46.54753" lon="0.37756">
        <ele>169.77</ele>
        <time>2019-01-13T08:01:31.000Z</time>
      </trkpt>
      <trkpt lat="46.54749" lon="0.37772">
        <ele>171.02</ele>
        <time>2019-01-13T08:01:33.000Z</time>
      </trkpt>
      <trkpt lat="46.54744" lon="0.37787">
        <ele>171.32</ele>
        <time>2019-01-13T08:01:35.000Z</time>
      </trkpt>
      <trkpt lat="46.54739" lon="0.37801">
        <ele>171.77</ele>
        <time>2019-01-13T08:01:37.000Z</time>
      </trkpt>
      <trkpt lat="46.54733" lon="0.37819">
        <ele>171.68</ele>
        <time>2019-01-13T08:01:39.000Z</time>
      </trkpt>
      <trkpt lat="46.54723" lon="0.37836">
        <ele>171.43</ele>
        <time>2019-01-13T08:01:41.000Z</time>
      </trkpt>
      <trkpt lat="46.54715" lon="0.37848">
        <ele>171.18</ele>
        <time>2019-01-13T08:01:43.000Z</time>
      </trkpt>
      <trkpt lat="46.54706" lon="0.3786">
        <ele>171.08</ele>
        <time>2019-01-13T08:01:45.000Z</time>
      </trkpt>
      <trkpt lat="46.54698" lon="0.3787">
        <ele>171.35</ele>
        <time>2019-01-13T08:01:47.000Z</time>
      </trkpt>
      <trkpt lat="46.5469" lon="0.37881">
        <ele>171.81</ele>
        <time>2019-01-13T08:01:49.000Z</time>
      </trkpt>
      <trkpt lat="46.54683" lon="0.3789">
        <ele>172.57</ele>
        <time>2019-01-13T08:01:51.000Z</time>
      </trkpt>
      <trkpt lat="46.54675" lon="0.37902">
        <ele>172.76</ele>
        <time>2019-01-13T08:01:54.000Z</time>
      </trkpt>
      <trkpt lat="46.54667" lon="0.37912">
        <ele>172.97</ele>
        <time>2019-01-13T08:01:57.000Z</time>
      </trkpt>
      <trkpt lat="46.5466" lon="0.37922">
        <ele>173.13</ele>
        <time>2019-01-13T08:02:00.000Z</time>
      </trkpt>
      <trkpt lat="46.54653" lon="0.37933">
        <ele>173.34</ele>
        <time>2019-01-13T08:02:04.000Z</time>
      </trkpt>
      <trkpt lat="46.54644" lon="0.37944">
        <ele>173.57</ele>
        <time>2019-01-13T08:02:08.000Z</time>
      </trkpt>
      <trkpt lat="46.54635" lon="0.37953">
        <ele>173.92</ele>
        <time>2019-01-13T08:02:12.000Z</time>
      </trkpt>
      <trkpt lat="46.54626" lon="0.37964">
        <ele>174.32</ele>
        <time>2019-01-13T08:02:16.000Z</time>
      </trkpt>
      <trkpt lat="46.54618" lon="0.37973">
        <ele>174.77</ele>
        <time>2019-01-13T08:02:20.000Z</time>
      </trkpt>
      <trkpt lat="46.5461" lon="0.37985">
        <ele>175.23</ele>
        <time>2019-01-13T08:02:24.000Z</time>
      </trkpt>
      <trkpt lat="46.54603" lon="0.37997">
        <ele>175.81</ele>
        <time>2019-01-13T08:02:28.000Z</time>
      </trkpt>
      <trkpt lat="46.54596" lon="0.38007">
        <ele>176.33</ele>
        <time>2019-01-13T08:02:32.000Z</time>
      </trkpt>
      <trkpt lat="46.5459" lon="0.38016">
        <ele>176.79</ele>
        <time>2019-01-13T08:02:37.000Z</time>
      </trkpt>
      <trkpt lat="46.54583" lon="0.38026">
        <ele>177.04</ele>
        <time>2019-01-13T08:02:40.000Z</time>
      </trkpt>
      <trkpt lat="46.54576" lon="0.38037">
        <ele>177.45</ele>
        <time>2019-01-13T08:02:46.000Z</time>
      </trkpt>
      <trkpt lat="46.54569" lon="0.38049">
        <ele>177.65</ele>
        <time>2019-01-13T08:02:50.000Z</time>
      </trkpt>
      <trkpt lat="46.54561" lon="0.38061">
        <ele>177.71</ele>
        <time>2019-01-13T08:02:55.000Z</time>
      </trkpt>
      <trkpt lat="46.54554" lon="0.38071">
        <ele>177.84</ele>
        <time>2019-01-13T08:03:00.000Z</time>
      </trkpt>
      <trkpt lat="46.54547" lon="0.38079">
        <ele>177.97</ele>
        <time>2019-01-13T08:03:05.000Z</time>
      </trkpt>
      <trkpt lat="46.5454" lon="0.38088">
        <ele>178.21</ele>
        <time>2019-01-13T08:03:09.000Z</time>
      </trkpt>
      <trkpt lat="46.54531" lon="0.38096">
        <ele>178.73</ele>
        <time>2019-01-13T08:03:14.000Z</time>
      </trkpt>
      <trkpt lat="46.54524" lon="0.38103">
        <ele>179.44</ele>
        <time>2019-01-13T08:03:19.000Z</time>
      </trkpt>
      <trkpt lat="46.54515" lon="0.38114">
        <ele>180.01</ele>
        <time>2019-01-13T08:03:23.000Z</time>
      </trkpt>
      <trkpt lat="46.54506" lon="0.38123">
        <ele>180.51</ele>
        <time>2019-01-13T08:03:27.000Z</time>
      </trkpt>
      <trkpt lat="46.54496" lon="0.3813">
        <ele>181.06</ele>
        <time>2019-01-13T08:03:31.000Z</time>
      </trkpt>
      <trkpt lat="46.54488" lon="0.38139">
        <ele>181.58</ele>
        <time>2019-01-13T08:03:35.000Z</time>
      </trkpt>
      <trkpt lat="46.5448" lon="0.38148">
        <ele>182.02</ele>
        <time>2019-01-13T08:03:39.000Z</time>
      </trkpt>
      <trkpt lat="46.54473" lon="0.38157">
        <ele>182.33</ele>
        <time>2019-01-13T08:03:42.000Z</time>
      </trkpt>
      <trkpt lat="46.54466" lon="0.38167">
        <ele>182.71</ele>
        <time>2019-01-13T08:03:46.000Z</time>
      </trkpt>
      <trkpt lat="46.54457" lon="0.38174">
        <ele>182.98</ele>
        <time>2019-01-13T08:03:49.000Z</time>
      </trkpt>
      <trkpt lat="46.54449" lon="0.38186">
        <ele>183.37</ele>
        <time>2019-01-13T08:03:53.000Z</time>
      </trkpt>
      <trkpt lat="46.54441" lon="0.38197">
        <ele>183.74</ele>
        <time>2019-01-13T08:03:57.000Z</time>
      </trkpt>
      <trkpt lat="46.54432" lon="0.38204">
        <ele>183.99</ele>
        <time>2019-01-13T08:04:00.000Z</time>
      </trkpt>
      <trkpt lat="46.54424" lon="0.38212">
        <ele>184.27</ele>
        <time>2019-01-13T08:04:03.000Z</time>
      </trkpt>
      <trkpt lat="46.54415" lon="0.3822">
        <ele>184.58</ele>
        <time>2019-01-13T08:04:06.000Z</time>
      </trkpt>
      <trkpt lat="46.54406" lon="0.38226">
        <ele>184.9</ele>
        <time>2019-01-13T08:04:09.000Z</time>
      </trkpt>
      <trkpt lat="46.54397" lon="0.38232">
        <ele>185.23</ele>
        <time>2019-01-13T08:04:12.000Z</time>
      </trkpt>
      <trkpt lat="46.54388" lon="0.38239">
        <ele>185.53</ele>
        <time>2019-01-13T08:04:15.000Z</time>
      </trkpt>
      <trkpt lat="46.54378" lon="0.38244">
        <ele>185.74</ele>
        <time>2019-01-13T08:04:18.000Z</time>
      </trkpt>
      <trkpt lat="46.54366" lon="0.38249">
        <ele>186.24</ele>
        <time>2019-01-13T08:04:21.000Z</time>
      </trkpt>
      <trkpt lat="46.54355" lon="0.38255">
        <ele>186.95</ele>
        <time>2019-01-13T08:04:24.000Z</time>
      </trkpt>
      <trkpt lat="46.54346" lon="0.3826">
        <ele>187.05</ele>
        <time>2019-01-13T08:04:27.000Z</time>
      </trkpt>
      <trkpt lat="46.54337" lon="0.38267">
        <ele>187.12</ele>
        <time>2019-01-13T08:04:30.000Z</time>
      </trkpt>
      <trkpt lat="46.54327" lon="0.38272">
        <ele>187.18</ele>
        <time>2019-01-13T08:04:33.000Z</time>
      </trkpt>
      <trkpt lat="46.54317" lon="0.38277">
        <ele>187.23</ele>
        <time>2019-01-13T08:04:36.000Z</time>
      </trkpt>
      <trkpt lat="46.54305" lon="0.38285">
        <ele>187.26</ele>
        <time>2019-01-13T08:04:39.000Z</time>
      </trkpt>
      <trkpt lat="46.54293" lon="0.38292">
        <ele>187.24</ele>
        <time>2019-01-13T08:04:42.000Z</time>
      </trkpt>
      <trkpt lat="46.54283" lon="0.38298">
        <ele>187.22</ele>
        <time>2019-01-13T08:04:45.000Z</time>
      </trkpt>
      <trkpt lat="46.5427" lon="0.38306">
        <ele>187.43</ele>
        <time>2019-01-13T08:04:48.000Z</time>
      </trkpt>
      <trkpt lat="46.54258" lon="0.38313">
        <ele>187.49</ele>
        <time>2019-01-13T08:04:51.000Z</time>
      </trkpt>
      <trkpt lat="46.54246" lon="0.38322">
        <ele>187.38</ele>
        <time>2019-01-13T08:04:54.000Z</time>
      </trkpt>
      <trkpt lat="46.54238" lon="0.38328">
        <ele>187.31</ele>
        <time>2019-01-13T08:04:57.000Z</time>
      </trkpt>
      <trkpt lat="46.54229" lon="0.38328">
        <ele>188.19</ele>
        <time>2019-01-13T08:05:44.000Z</time>
      </trkpt>
      <trkpt lat="46.5422" lon="0.38328">
        <ele>189.16</ele>
        <time>2019-01-13T08:06:08.000Z</time>
      </trkpt>
      <trkpt lat="46.54212" lon="0.38334">
        <ele>189.01</ele>
        <time>2019-01-13T08:06:12.000Z</time>
      </trkpt>
      <trkpt lat="46.54201" lon="0.38341">
        <ele>188.02</ele>
        <time>2019-01-13T08:06:15.000Z</time>
      </trkpt>
      <trkpt lat="46.54192" lon="0.38347">
        <ele>187.48</ele>
        <time>2019-01-13T08:06:17.000Z</time>
      </trkpt>
      <trkpt lat="46.54184" lon="0.38353">
        <ele>187.07</ele>
        <time>2019-01-13T08:06:19.000Z</time>
      </trkpt>
      <trkpt lat="46.54173" lon="0.38358">
        <ele>187.88</ele>
        <time>2019-01-13T08:06:21.000Z</time>
      </trkpt>
      <trkpt lat="46.54162" lon="0.38363">
        <ele>188.9</ele>
        <time>2019-01-13T08:06:23.000Z</time>
      </trkpt>
      <trkpt lat="46.54153" lon="0.38368">
        <ele>190.4</ele>
        <time>2019-01-13T08:06:25.000Z</time>
      </trkpt>
      <trkpt lat="46.54144" lon="0.38374">
        <ele>191.02</ele>
        <time>2019-01-13T08:06:27.000Z</time>
      </trkpt>
      <trkpt lat="46.54135" lon="0.3838">
        <ele>191.03</ele>
        <time>2019-01-13T08:06:29.000Z</time>
      </trkpt>
      <trkpt lat="46.54125" lon="0.38386">
        <ele>190.82</ele>
        <time>2019-01-13T08:06:31.000Z</time>
      </trkpt>
      <trkpt lat="46.54114" lon="0.38393">
        <ele>190.8</ele>
        <time>2019-01-13T08:06:33.000Z</time>
      </trkpt>
      <trkpt lat="46.54104" lon="0.38399">
        <ele>190.69</ele>
        <time>2019-01-13T08:06:35.000Z</time>
      </trkpt>
      <trkpt lat="46.54091" lon="0.38406">
        <ele>190.24</ele>
        <time>2019-01-13T08:06:37.000Z</time>
      </trkpt>
      <trkpt lat="46.5408" lon="0.38413">
        <ele>190</ele>
        <time>2019-01-13T08:06:39.000Z</time>
      </trkpt>
      <trkpt lat="46.5407" lon="0.38421">
        <ele>189.83</ele>
        <time>2019-01-13T08:06:41.000Z</time>
      </trkpt>
      <trkpt lat="46.54058" lon="0.38429">
        <ele>189.73</ele>
        <time>2019-01-13T08:06:43.000Z</time>
      </trkpt>
      <trkpt lat="46.54046" lon="0.38437">
        <ele>189.6</ele>
        <time>2019-01-13T08:06:45.000Z</time>
      </trkpt>
      <trkpt lat="46.54035" lon="0.38446">
        <ele>189.48</ele>
        <time>2019-01-13T08:06:47.000Z</time>
      </trkpt>
      <trkpt lat="46.54024" lon="0.38456">
        <ele>189.29</ele>
        <time>2019-01-13T08:06:49.000Z</time>
      </trkpt>
      <trkpt lat="46.54013" lon="0.38467">
        <ele>189.05</ele>
        <time>2019-01-13T08:06:51.000Z</time>
      </trkpt>
      <trkpt lat="46.54001" lon="0.38476">
        <ele>188.56</ele>
        <time>2019-01-13T08:06:53.000Z</time>
      </trkpt>
      <trkpt lat="46.53989" lon="0.38486">
        <ele>188.11</ele>
        <time>2019-01-13T08:06:55.000Z</time>
      </trkpt>
      <trkpt lat="46.53976" lon="0.38495">
        <ele>187.56</ele>
        <time>2019-01-13T08:06:57.000Z</time>
      </trkpt>
      <trkpt lat="46.53964" lon="0.38505">
        <ele>187.08</ele>
        <time>2019-01-13T08:06:59.000Z</time>
      </trkpt>
      <trkpt lat="46.5395" lon="0.38516">
        <ele>186.62</ele>
        <time>2019-01-13T08:07:01.000Z</time>
      </trkpt>
      <trkpt lat="46.53936" lon="0.38528">
        <ele>186.18</ele>
        <time>2019-01-13T08:07:03.000Z</time>
      </trkpt>
      <trkpt lat="46.53921" lon="0.3854">
        <ele>185.8</ele>
        <time>2019-01-13T08:07:05.000Z</time>
      </trkpt>
      <trkpt lat="46.53907" lon="0.38553">
        <ele>185.52</ele>
        <time>2019-01-13T08:07:07.000Z</time>
      </trkpt>
      <trkpt lat="46.53894" lon="0.38566">
        <ele>185.18</ele>
        <time>2019-01-13T08:07:09.000Z</time>
      </trkpt>
      <trkpt lat="46.53881" lon="0.38577">
        <ele>184.73</ele>
        <time>2019-01-13T08:07:11.000Z</time>
      </trkpt>
      <trkpt lat="46.53868" lon="0.38587">
        <ele>184.31</ele>
        <time>2019-01-13T08:07:13.000Z</time>
      </trkpt>
      <trkpt lat="46.53854" lon="0.38598">
        <ele>183.92</ele>
        <time>2019-01-13T08:07:15.000Z</time>
      </trkpt>
      <trkpt lat="46.53841" lon="0.38609">
        <ele>183.34</ele>
        <time>2019-01-13T08:07:17.000Z</time>
      </trkpt>
      <trkpt lat="46.53829" lon="0.38619">
        <ele>182.81</ele>
        <time>2019-01-13T08:07:19.000Z</time>
      </trkpt>
      <trkpt lat="46.53819" lon="0.38631">
        <ele>182.31</ele>
        <time>2019-01-13T08:07:21.000Z</time>
      </trkpt>
      <trkpt lat="46.53807" lon="0.38644">
        <ele>181.8</ele>
        <time>2019-01-13T08:07:23.000Z</time>
      </trkpt>
      <trkpt lat="46.53797" lon="0.38656">
        <ele>181.11</ele>
        <time>2019-01-13T08:07:25.000Z</time>
      </trkpt>
      <trkpt lat="46.53783" lon="0.38664">
        <ele>180.57</ele>
        <time>2019-01-13T08:07:27.000Z</time>
      </trkpt>
      <trkpt lat="46.53769" lon="0.38666">
        <ele>180.02</ele>
        <time>2019-01-13T08:07:29.000Z</time>
      </trkpt>
      <trkpt lat="46.53755" lon="0.38669">
        <ele>179.62</ele>
        <time>2019-01-13T08:07:31.000Z</time>
      </trkpt>
      <trkpt lat="46.53741" lon="0.38674">
        <ele>179.26</ele>
        <time>2019-01-13T08:07:33.000Z</time>
      </trkpt>
      <trkpt lat="46.53728" lon="0.38678">
        <ele>179.09</ele>
        <time>2019-01-13T08:07:35.000Z</time>
      </trkpt>
      <trkpt lat="46.53714" lon="0.38682">
        <ele>179.12</ele>
        <time>2019-01-13T08:07:37.000Z</time>
      </trkpt>
      <trkpt lat="46.53701" lon="0.38687">
        <ele>178.99</ele>
        <time>2019-01-13T08:07:39.000Z</time>
      </trkpt>
      <trkpt lat="46.53689" lon="0.38694">
        <ele>178.94</ele>
        <time>2019-01-13T08:07:41.000Z</time>
      </trkpt>
      <trkpt lat="46.53679" lon="0.387">
        <ele>179.22</ele>
        <time>2019-01-13T08:07:43.000Z</time>
      </trkpt>
      <trkpt lat="46.53668" lon="0.38707">
        <ele>179.66</ele>
        <time>2019-01-13T08:07:45.000Z</time>
      </trkpt>
      <trkpt lat="46.53657" lon="0.38715">
        <ele>180.14</ele>
        <time>2019-01-13T08:07:47.000Z</time>
      </trkpt>
      <trkpt lat="46.53645" lon="0.38722">
        <ele>180.6</ele>
        <time>2019-01-13T08:07:49.000Z</time>
      </trkpt>
      <trkpt lat="46.53632" lon="0.3873">
        <ele>181</ele>
        <time>2019-01-13T08:07:51.000Z</time>
      </trkpt>
      <trkpt lat="46.5362" lon="0.38739">
        <ele>180.89</ele>
        <time>2019-01-13T08:07:53.000Z</time>
      </trkpt>
      <trkpt lat="46.53609" lon="0.38746">
        <ele>180.76</ele>
        <time>2019-01-13T08:07:55.000Z</time>
      </trkpt>
      <trkpt lat="46.53597" lon="0.38753">
        <ele>180.49</ele>
        <time>2019-01-13T08:07:57.000Z</time>
      </trkpt>
      <trkpt lat="46.53586" lon="0.38761">
        <ele>180.31</ele>
        <time>2019-01-13T08:07:59.000Z</time>
      </trkpt>
      <trkpt lat="46.53575" lon="0.38769">
        <ele>180.03</ele>
        <time>2019-01-13T08:08:01.000Z</time>
      </trkpt>
      <trkpt lat="46.53564" lon="0.38775">
        <ele>179.72</ele>
        <time>2019-01-13T08:08:03.000Z</time>
      </trkpt>
      <trkpt lat="46.53553" lon="0.3878">
        <ele>179.32</ele>
        <time>2019-01-13T08:08:05.000Z</time>
      </trkpt>
      <trkpt lat="46.53542" lon="0.38782">
        <ele>178.94</ele>
        <time>2019-01-13T08:08:07.000Z</time>
      </trkpt>
      <trkpt lat="46.53532" lon="0.38783">
        <ele>178.61</ele>
        <time>2019-01-13T08:08:09.000Z</time>
      </trkpt>
      <trkpt lat="46.53523" lon="0.38783">
        <ele>178.33</ele>
        <time>2019-01-13T08:08:11.000Z</time>
      </trkpt>
      <trkpt lat="46.5351" lon="0.38785">
        <ele>178.04</ele>
        <time>2019-01-13T08:08:14.000Z</time>
      </trkpt>
      <trkpt lat="46.53501" lon="0.38787">
        <ele>178.01</ele>
        <time>2019-01-13T08:08:17.000Z</time>
      </trkpt>
      <trkpt lat="46.53492" lon="0.3879">
        <ele>177.97</ele>
        <time>2019-01-13T08:08:20.000Z</time>
      </trkpt>
      <trkpt lat="46.53481" lon="0.38795">
        <ele>177.95</ele>
        <time>2019-01-13T08:08:24.000Z</time>
      </trkpt>
      <trkpt lat="46.53471" lon="0.38798">
        <ele>177.89</ele>
        <time>2019-01-13T08:08:28.000Z</time>
      </trkpt>
      <trkpt lat="46.5346" lon="0.38801">
        <ele>177.71</ele>
        <time>2019-01-13T08:08:31.000Z</time>
      </trkpt>
      <trkpt lat="46.53449" lon="0.388">
        <ele>177.5</ele>
        <time>2019-01-13T08:08:34.000Z</time>
      </trkpt>
      <trkpt lat="46.53439" lon="0.38801">
        <ele>177.41</ele>
        <time>2019-01-13T08:08:38.000Z</time>
      </trkpt>
      <trkpt lat="46.53428" lon="0.38803">
        <ele>177.43</ele>
        <time>2019-01-13T08:08:41.000Z</time>
      </trkpt>
      <trkpt lat="46.53419" lon="0.38805">
        <ele>177.5</ele>
        <time>2019-01-13T08:08:44.000Z</time>
      </trkpt>
      <trkpt lat="46.53408" lon="0.38808">
        <ele>177.65</ele>
        <time>2019-01-13T08:08:48.000Z</time>
      </trkpt>
      <trkpt lat="46.53397" lon="0.38809">
        <ele>177.73</ele>
        <time>2019-01-13T08:08:52.000Z</time>
      </trkpt>
      <trkpt lat="46.53386" lon="0.3881">
        <ele>177.82</ele>
        <time>2019-01-13T08:08:56.000Z</time>
      </trkpt>
      <trkpt lat="46.53375" lon="0.38813">
        <ele>177.94</ele>
        <time>2019-01-13T08:09:00.000Z</time>
      </trkpt>
      <trkpt lat="46.53364" lon="0.38818">
        <ele>178.21</ele>
        <time>2019-01-13T08:09:04.000Z</time>
      </trkpt>
      <trkpt lat="46.53352" lon="0.38819">
        <ele>178.58</ele>
        <time>2019-01-13T08:09:08.000Z</time>
      </trkpt>
      <trkpt lat="46.53341" lon="0.3882">
        <ele>178.98</ele>
        <time>2019-01-13T08:09:12.000Z</time>
      </trkpt>
      <trkpt lat="46.53328" lon="0.38826">
        <ele>179.34</ele>
        <time>2019-01-13T08:09:16.000Z</time>
      </trkpt>
      <trkpt lat="46.53318" lon="0.3883">
        <ele>179.5</ele>
        <time>2019-01-13T08:09:18.000Z</time>
      </trkpt>
      <trkpt lat="46.53309" lon="0.38832">
        <ele>179.8</ele>
        <time>2019-01-13T08:09:21.000Z</time>
      </trkpt>
      <trkpt lat="46.53299" lon="0.38836">
        <ele>180.16</ele>
        <time>2019-01-13T08:09:24.000Z</time>
      </trkpt>
      <trkpt lat="46.53288" lon="0.38841">
        <ele>180.73</ele>
        <time>2019-01-13T08:09:28.000Z</time>
      </trkpt>
      <trkpt lat="46.53279" lon="0.38844">
        <ele>181.25</ele>
        <time>2019-01-13T08:09:31.000Z</time>
      </trkpt>
      <trkpt lat="46.5327" lon="0.38848">
        <ele>181.83</ele>
        <time>2019-01-13T08:09:34.000Z</time>
      </trkpt>
      <trkpt lat="46.53261" lon="0.38852">
        <ele>182.43</ele>
        <time>2019-01-13T08:09:37.000Z</time>
      </trkpt>
      <trkpt lat="46.53251" lon="0.38855">
        <ele>183.02</ele>
        <time>2019-01-13T08:09:40.000Z</time>
      </trkpt>
      <trkpt lat="46.53241" lon="0.38859">
        <ele>183.58</ele>
        <time>2019-01-13T08:09:43.000Z</time>
      </trkpt>
      <trkpt lat="46.53232" lon="0.38861">
        <ele>184.08</ele>
        <time>2019-01-13T08:09:46.000Z</time>
      </trkpt>
      <trkpt lat="46.53222" lon="0.38863">
        <ele>184.61</ele>
        <time>2019-01-13T08:09:49.000Z</time>
      </trkpt>
      <trkpt lat="46.53212" lon="0.38866">
        <ele>185.13</ele>
        <time>2019-01-13T08:09:52.000Z</time>
      </trkpt>
      <trkpt lat="46.53202" lon="0.38869">
        <ele>185.64</ele>
        <time>2019-01-13T08:09:55.000Z</time>
      </trkpt>
      <trkpt lat="46.5319" lon="0.38873">
        <ele>186.29</ele>
        <time>2019-01-13T08:09:59.000Z</time>
      </trkpt>
      <trkpt lat="46.53177" lon="0.38874">
        <ele>186.78</ele>
        <time>2019-01-13T08:10:02.000Z</time>
      </trkpt>
      <trkpt lat="46.53166" lon="0.38875">
        <ele>187.21</ele>
        <time>2019-01-13T08:10:05.000Z</time>
      </trkpt>
      <trkpt lat="46.53154" lon="0.38877">
        <ele>187.51</ele>
        <time>2019-01-13T08:10:08.000Z</time>
      </trkpt>
      <trkpt lat="46.53144" lon="0.38881">
        <ele>188.43</ele>
        <time>2019-01-13T08:10:11.000Z</time>
      </trkpt>
      <trkpt lat="46.53133" lon="0.38887">
        <ele>189.45</ele>
        <time>2019-01-13T08:10:14.000Z</time>
      </trkpt>
      <trkpt lat="46.53123" lon="0.38892">
        <ele>190.83</ele>
        <time>2019-01-13T08:10:17.000Z</time>
      </trkpt>
      <trkpt lat="46.53111" lon="0.38894">
        <ele>190.99</ele>
        <time>2019-01-13T08:10:20.000Z</time>
      </trkpt>
      <trkpt lat="46.531" lon="0.38897">
        <ele>190.55</ele>
        <time>2019-01-13T08:10:22.000Z</time>
      </trkpt>
      <trkpt lat="46.5309" lon="0.38902">
        <ele>190.51</ele>
        <time>2019-01-13T08:10:25.000Z</time>
      </trkpt>
      <trkpt lat="46.53077" lon="0.38906">
        <ele>191.27</ele>
        <time>2019-01-13T08:10:28.000Z</time>
      </trkpt>
      <trkpt lat="46.53066" lon="0.38913">
        <ele>191.99</ele>
        <time>2019-01-13T08:10:31.000Z</time>
      </trkpt>
      <trkpt lat="46.53054" lon="0.38919">
        <ele>192.26</ele>
        <time>2019-01-13T08:10:34.000Z</time>
      </trkpt>
      <trkpt lat="46.53045" lon="0.38926">
        <ele>191.97</ele>
        <time>2019-01-13T08:10:36.000Z</time>
      </trkpt>
      <trkpt lat="46.53036" lon="0.38932">
        <ele>191.56</ele>
        <time>2019-01-13T08:10:38.000Z</time>
      </trkpt>
      <trkpt lat="46.53028" lon="0.38938">
        <ele>191.3</ele>
        <time>2019-01-13T08:10:40.000Z</time>
      </trkpt>
      <trkpt lat="46.53019" lon="0.38944">
        <ele>191.04</ele>
        <time>2019-01-13T08:10:42.000Z</time>
      </trkpt>
      <trkpt lat="46.53011" lon="0.38949">
        <ele>191.15</ele>
        <time>2019-01-13T08:10:44.000Z</time>
      </trkpt>
      <trkpt lat="46.53001" lon="0.38955">
        <ele>191.34</ele>
        <time>2019-01-13T08:10:46.000Z</time>
      </trkpt>
      <trkpt lat="46.52992" lon="0.38959">
        <ele>191.54</ele>
        <time>2019-01-13T08:10:48.000Z</time>
      </trkpt>
      <trkpt lat="46.52984" lon="0.38963">
        <ele>191.7</ele>
        <time>2019-01-13T08:10:50.000Z</time>
      </trkpt>
      <trkpt lat="46.52971" lon="0.38968">
        <ele>191.93</ele>
        <time>2019-01-13T08:10:53.000Z</time>
      </trkpt>
      <trkpt lat="46.52958" lon="0.38971">
        <ele>192.4</ele>
        <time>2019-01-13T08:10:56.000Z</time>
      </trkpt>
      <trkpt lat="46.52947" lon="0.38973">
        <ele>192.24</ele>
        <time>2019-01-13T08:10:58.000Z</time>
      </trkpt>
      <trkpt lat="46.52935" lon="0.38978">
        <ele>192.91</ele>
        <time>2019-01-13T08:11:01.000Z</time>
      </trkpt>
      <trkpt lat="46.52926" lon="0.38979">
        <ele>193.25</ele>
        <time>2019-01-13T08:11:03.000Z</time>
      </trkpt>
      <trkpt lat="46.52913" lon="0.38981">
        <ele>193.17</ele>
        <time>2019-01-13T08:11:06.000Z</time>
      </trkpt>
      <trkpt lat="46.52904" lon="0.38983">
        <ele>193.12</ele>
        <time>2019-01-13T08:11:08.000Z</time>
      </trkpt>
      <trkpt lat="46.52893" lon="0.38986">
        <ele>193.24</ele>
        <time>2019-01-13T08:11:11.000Z</time>
      </trkpt>
      <trkpt lat="46.52882" lon="0.38988">
        <ele>193.26</ele>
        <time>2019-01-13T08:11:14.000Z</time>
      </trkpt>
      <trkpt lat="46.52872" lon="0.38991">
        <ele>193.47</ele>
        <time>2019-01-13T08:11:17.000Z</time>
      </trkpt>
      <trkpt lat="46.52861" lon="0.38995">
        <ele>194.12</ele>
        <time>2019-01-13T08:11:20.000Z</time>
      </trkpt>
      <trkpt lat="46.52851" lon="0.38998">
        <ele>194.78</ele>
        <time>2019-01-13T08:11:23.000Z</time>
      </trkpt>
      <trkpt lat="46.52839" lon="0.39001">
        <ele>194.89</ele>
        <time>2019-01-13T08:11:26.000Z</time>
      </trkpt>
      <trkpt lat="46.52829" lon="0.39003">
        <ele>194.98</ele>
        <time>2019-01-13T08:11:29.000Z</time>
      </trkpt>
      <trkpt lat="46.52819" lon="0.39005">
        <ele>195.09</ele>
        <time>2019-01-13T08:11:32.000Z</time>
      </trkpt>
      <trkpt lat="46.5281" lon="0.39008">
        <ele>195.24</ele>
        <time>2019-01-13T08:11:35.000Z</time>
      </trkpt>
      <trkpt lat="46.52797" lon="0.3901">
        <ele>195.53</ele>
        <time>2019-01-13T08:11:39.000Z</time>
      </trkpt>
      <trkpt lat="46.52786" lon="0.39013">
        <ele>195.92</ele>
        <time>2019-01-13T08:11:43.000Z</time>
      </trkpt>
      <trkpt lat="46.52772" lon="0.39017">
        <ele>196.1</ele>
        <time>2019-01-13T08:11:46.000Z</time>
      </trkpt>
      <trkpt lat="46.52763" lon="0.39019">
        <ele>195.71</ele>
        <time>2019-01-13T08:11:48.000Z</time>
      </trkpt>
      <trkpt lat="46.52752" lon="0.39023">
        <ele>194.42</ele>
        <time>2019-01-13T08:11:51.000Z</time>
      </trkpt>
      <trkpt lat="46.52742" lon="0.39025">
        <ele>193.73</ele>
        <time>2019-01-13T08:11:54.000Z</time>
      </trkpt>
      <trkpt lat="46.52729" lon="0.39027">
        <ele>193.38</ele>
        <time>2019-01-13T08:11:57.000Z</time>
      </trkpt>
      <trkpt lat="46.52718" lon="0.3903">
        <ele>193.34</ele>
        <time>2019-01-13T08:12:00.000Z</time>
      </trkpt>
      <trkpt lat="46.52709" lon="0.39035">
        <ele>193.31</ele>
        <time>2019-01-13T08:12:03.000Z</time>
      </trkpt>
      <trkpt lat="46.52698" lon="0.39038">
        <ele>193.27</ele>
        <time>2019-01-13T08:12:06.000Z</time>
      </trkpt>
      <trkpt lat="46.52686" lon="0.3904">
        <ele>193.41</ele>
        <time>2019-01-13T08:12:09.000Z</time>
      </trkpt>
      <trkpt lat="46.52676" lon="0.3904">
        <ele>193.6</ele>
        <time>2019-01-13T08:12:11.000Z</time>
      </trkpt>
      <trkpt lat="46.52667" lon="0.3904">
        <ele>194.1</ele>
        <time>2019-01-13T08:12:13.000Z</time>
      </trkpt>
      <trkpt lat="46.52655" lon="0.39041">
        <ele>194.42</ele>
        <time>2019-01-13T08:12:15.000Z</time>
      </trkpt>
      <trkpt lat="46.52644" lon="0.39043">
        <ele>194.11</ele>
        <time>2019-01-13T08:12:17.000Z</time>
      </trkpt>
      <trkpt lat="46.52634" lon="0.39047">
        <ele>193.61</ele>
        <time>2019-01-13T08:12:19.000Z</time>
      </trkpt>
      <trkpt lat="46.52624" lon="0.3905">
        <ele>193.22</ele>
        <time>2019-01-13T08:12:21.000Z</time>
      </trkpt>
      <trkpt lat="46.52613" lon="0.39053">
        <ele>193.01</ele>
        <time>2019-01-13T08:12:23.000Z</time>
      </trkpt>
      <trkpt lat="46.52602" lon="0.39056">
        <ele>193.04</ele>
        <time>2019-01-13T08:12:25.000Z</time>
      </trkpt>
      <trkpt lat="46.52591" lon="0.39058">
        <ele>193.22</ele>
        <time>2019-01-13T08:12:27.000Z</time>
      </trkpt>
      <trkpt lat="46.52579" lon="0.3906">
        <ele>193.49</ele>
        <time>2019-01-13T08:12:29.000Z</time>
      </trkpt>
      <trkpt lat="46.52566" lon="0.39062">
        <ele>193.46</ele>
        <time>2019-01-13T08:12:31.000Z</time>
      </trkpt>
      <trkpt lat="46.52552" lon="0.39062">
        <ele>193.27</ele>
        <time>2019-01-13T08:12:33.000Z</time>
      </trkpt>
      <trkpt lat="46.52539" lon="0.39057">
        <ele>192.95</ele>
        <time>2019-01-13T08:12:35.000Z</time>
      </trkpt>
      <trkpt lat="46.52526" lon="0.3905">
        <ele>192.55</ele>
        <time>2019-01-13T08:12:37.000Z</time>
      </trkpt>
      <trkpt lat="46.52512" lon="0.39042">
        <ele>192.02</ele>
        <time>2019-01-13T08:12:39.000Z</time>
      </trkpt>
      <trkpt lat="46.52498" lon="0.39035">
        <ele>191.54</ele>
        <time>2019-01-13T08:12:41.000Z</time>
      </trkpt>
      <trkpt lat="46.52484" lon="0.39029">
        <ele>191.15</ele>
        <time>2019-01-13T08:12:43.000Z</time>
      </trkpt>
      <trkpt lat="46.5247" lon="0.39023">
        <ele>190.83</ele>
        <time>2019-01-13T08:12:45.000Z</time>
      </trkpt>
      <trkpt lat="46.52457" lon="0.39017">
        <ele>190.67</ele>
        <time>2019-01-13T08:12:47.000Z</time>
      </trkpt>
      <trkpt lat="46.52445" lon="0.39013">
        <ele>190.59</ele>
        <time>2019-01-13T08:12:49.000Z</time>
      </trkpt>
      <trkpt lat="46.52432" lon="0.39008">
        <ele>190.49</ele>
        <time>2019-01-13T08:12:51.000Z</time>
      </trkpt>
      <trkpt lat="46.52419" lon="0.39002">
        <ele>190.43</ele>
        <time>2019-01-13T08:12:53.000Z</time>
      </trkpt>
      <trkpt lat="46.52407" lon="0.38997">
        <ele>190.42</ele>
        <time>2019-01-13T08:12:55.000Z</time>
      </trkpt>
      <trkpt lat="46.52395" lon="0.3899">
        <ele>190.36</ele>
        <time>2019-01-13T08:12:57.000Z</time>
      </trkpt>
      <trkpt lat="46.52383" lon="0.38982">
        <ele>190.28</ele>
        <time>2019-01-13T08:12:59.000Z</time>
      </trkpt>
      <trkpt lat="46.52371" lon="0.38975">
        <ele>190.19</ele>
        <time>2019-01-13T08:13:01.000Z</time>
      </trkpt>
      <trkpt lat="46.52359" lon="0.38968">
        <ele>190.03</ele>
        <time>2019-01-13T08:13:03.000Z</time>
      </trkpt>
      <trkpt lat="46.52347" lon="0.3896">
        <ele>190</ele>
        <time>2019-01-13T08:13:05.000Z</time>
      </trkpt>
      <trkpt lat="46.52336" lon="0.38953">
        <ele>189.86</ele>
        <time>2019-01-13T08:13:07.000Z</time>
      </trkpt>
      <trkpt lat="46.52324" lon="0.38946">
        <ele>189.75</ele>
        <time>2019-01-13T08:13:09.000Z</time>
      </trkpt>
      <trkpt lat="46.52312" lon="0.38939">
        <ele>189.65</ele>
        <time>2019-01-13T08:13:11.000Z</time>
      </trkpt>
      <trkpt lat="46.523" lon="0.38931">
        <ele>189.6</ele>
        <time>2019-01-13T08:13:13.000Z</time>
      </trkpt>
      <trkpt lat="46.52288" lon="0.38924">
        <ele>189.55</ele>
        <time>2019-01-13T08:13:15.000Z</time>
      </trkpt>
      <trkpt lat="46.52276" lon="0.38917">
        <ele>189.5</ele>
        <time>2019-01-13T08:13:17.000Z</time>
      </trkpt>
      <trkpt lat="46.52265" lon="0.3891">
        <ele>189.45</ele>
        <time>2019-01-13T08:13:19.000Z</time>
      </trkpt>
      <trkpt lat="46.52253" lon="0.38904">
        <ele>189.47</ele>
        <time>2019-01-13T08:13:21.000Z</time>
      </trkpt>
      <trkpt lat="46.52242" lon="0.38897">
        <ele>189.53</ele>
        <time>2019-01-13T08:13:23.000Z</time>
      </trkpt>
      <trkpt lat="46.52231" lon="0.38891">
        <ele>189.57</ele>
        <time>2019-01-13T08:13:25.000Z</time>
      </trkpt>
      <trkpt lat="46.52219" lon="0.38885">
        <ele>189.6</ele>
        <time>2019-01-13T08:13:27.000Z</time>
      </trkpt>
      <trkpt lat="46.52209" lon="0.38879">
        <ele>189.57</ele>
        <time>2019-01-13T08:13:29.000Z</time>
      </trkpt>
      <trkpt lat="46.52197" lon="0.38872">
        <ele>189.5</ele>
        <time>2019-01-13T08:13:31.000Z</time>
      </trkpt>
      <trkpt lat="46.52185" lon="0.38866">
        <ele>189.45</ele>
        <time>2019-01-13T08:13:33.000Z</time>
      </trkpt>
      <trkpt lat="46.52174" lon="0.38859">
        <ele>189.45</ele>
        <time>2019-01-13T08:13:35.000Z</time>
      </trkpt>
      <trkpt lat="46.52164" lon="0.38854">
        <ele>189.44</ele>
        <time>2019-01-13T08:13:37.000Z</time>
      </trkpt>
      <trkpt lat="46.52153" lon="0.38848">
        <ele>189.37</ele>
        <time>2019-01-13T08:13:39.000Z</time>
      </trkpt>
      <trkpt lat="46.52142" lon="0.38841">
        <ele>189.27</ele>
        <time>2019-01-13T08:13:41.000Z</time>
      </trkpt>
      <trkpt lat="46.5213" lon="0.38834">
        <ele>189.15</ele>
        <time>2019-01-13T08:13:43.000Z</time>
      </trkpt>
      <trkpt lat="46.52119" lon="0.38829">
        <ele>189.09</ele>
        <time>2019-01-13T08:13:45.000Z</time>
      </trkpt>
      <trkpt lat="46.52107" lon="0.38822">
        <ele>188.99</ele>
        <time>2019-01-13T08:13:47.000Z</time>
      </trkpt>
      <trkpt lat="46.52095" lon="0.38816">
        <ele>188.88</ele>
        <time>2019-01-13T08:13:49.000Z</time>
      </trkpt>
      <trkpt lat="46.52084" lon="0.38809">
        <ele>188.77</ele>
        <time>2019-01-13T08:13:51.000Z</time>
      </trkpt>
      <trkpt lat="46.52073" lon="0.38802">
        <ele>188.72</ele>
        <time>2019-01-13T08:13:53.000Z</time>
      </trkpt>
      <trkpt lat="46.52062" lon="0.38795">
        <ele>188.54</ele>
        <time>2019-01-13T08:13:55.000Z</time>
      </trkpt>
      <trkpt lat="46.5205" lon="0.38788">
        <ele>188.27</ele>
        <time>2019-01-13T08:13:57.000Z</time>
      </trkpt>
      <trkpt lat="46.5204" lon="0.3878">
        <ele>188.03</ele>
        <time>2019-01-13T08:13:59.000Z</time>
      </trkpt>
      <trkpt lat="46.52029" lon="0.3877">
        <ele>187.84</ele>
        <time>2019-01-13T08:14:01.000Z</time>
      </trkpt>
      <trkpt lat="46.52018" lon="0.3876">
        <ele>187.63</ele>
        <time>2019-01-13T08:14:03.000Z</time>
      </trkpt>
      <trkpt lat="46.52008" lon="0.38749">
        <ele>187.38</ele>
        <time>2019-01-13T08:14:05.000Z</time>
      </trkpt>
      <trkpt lat="46.51999" lon="0.38737">
        <ele>187.11</ele>
        <time>2019-01-13T08:14:07.000Z</time>
      </trkpt>
      <trkpt lat="46.51991" lon="0.38727">
        <ele>186.82</ele>
        <time>2019-01-13T08:14:09.000Z</time>
      </trkpt>
      <trkpt lat="46.51983" lon="0.38716">
        <ele>186.4</ele>
        <time>2019-01-13T08:14:11.000Z</time>
      </trkpt>
      <trkpt lat="46.51975" lon="0.38705">
        <ele>185.93</ele>
        <time>2019-01-13T08:14:13.000Z</time>
      </trkpt>
      <trkpt lat="46.51966" lon="0.38693">
        <ele>185.45</ele>
        <time>2019-01-13T08:14:15.000Z</time>
      </trkpt>
      <trkpt lat="46.51959" lon="0.38681">
        <ele>184.99</ele>
        <time>2019-01-13T08:14:17.000Z</time>
      </trkpt>
      <trkpt lat="46.51952" lon="0.38669">
        <ele>184.63</ele>
        <time>2019-01-13T08:14:19.000Z</time>
      </trkpt>
      <trkpt lat="46.51944" lon="0.38658">
        <ele>184.27</ele>
        <time>2019-01-13T08:14:21.000Z</time>
      </trkpt>
      <trkpt lat="46.51935" lon="0.38648">
        <ele>183.97</ele>
        <time>2019-01-13T08:14:23.000Z</time>
      </trkpt>
      <trkpt lat="46.51926" lon="0.38637">
        <ele>183.65</ele>
        <time>2019-01-13T08:14:25.000Z</time>
      </trkpt>
      <trkpt lat="46.51918" lon="0.38623">
        <ele>183.53</ele>
        <time>2019-01-13T08:14:27.000Z</time>
      </trkpt>
      <trkpt lat="46.51911" lon="0.38609">
        <ele>183.66</ele>
        <time>2019-01-13T08:14:29.000Z</time>
      </trkpt>
      <trkpt lat="46.51903" lon="0.38589">
        <ele>183.34</ele>
        <time>2019-01-13T08:14:31.000Z</time>
      </trkpt>
      <trkpt lat="46.51894" lon="0.38567">
        <ele>183.01</ele>
        <time>2019-01-13T08:14:33.000Z</time>
      </trkpt>
      <trkpt lat="46.5189" lon="0.38554">
        <ele>182.67</ele>
        <time>2019-01-13T08:14:34.000Z</time>
      </trkpt>
      <trkpt lat="46.51886" lon="0.38542">
        <ele>182.28</ele>
        <time>2019-01-13T08:14:35.000Z</time>
      </trkpt>
      <trkpt lat="46.51883" lon="0.3853">
        <ele>181.99</ele>
        <time>2019-01-13T08:14:36.000Z</time>
      </trkpt>
      <trkpt lat="46.51876" lon="0.38507">
        <ele>181.44</ele>
        <time>2019-01-13T08:14:38.000Z</time>
      </trkpt>
      <trkpt lat="46.51872" lon="0.38485">
        <ele>180.91</ele>
        <time>2019-01-13T08:14:40.000Z</time>
      </trkpt>
      <trkpt lat="46.5187" lon="0.38466">
        <ele>180.25</ele>
        <time>2019-01-13T08:14:42.000Z</time>
      </trkpt>
      <trkpt lat="46.5186" lon="0.38453">
        <ele>179.37</ele>
        <time>2019-01-13T08:14:44.000Z</time>
      </trkpt>
      <trkpt lat="46.51851" lon="0.3844">
        <ele>178.51</ele>
        <time>2019-01-13T08:14:46.000Z</time>
      </trkpt>
      <trkpt lat="46.51844" lon="0.38425">
        <ele>177.57</ele>
        <time>2019-01-13T08:14:48.000Z</time>
      </trkpt>
      <trkpt lat="46.51838" lon="0.3841">
        <ele>176.83</ele>
        <time>2019-01-13T08:14:50.000Z</time>
      </trkpt>
      <trkpt lat="46.5183" lon="0.38398">
        <ele>176.62</ele>
        <time>2019-01-13T08:14:52.000Z</time>
      </trkpt>
      <trkpt lat="46.51822" lon="0.38386">
        <ele>176.26</ele>
        <time>2019-01-13T08:14:54.000Z</time>
      </trkpt>
      <trkpt lat="46.51812" lon="0.38377">
        <ele>175.35</ele>
        <time>2019-01-13T08:14:56.000Z</time>
      </trkpt>
      <trkpt lat="46.51801" lon="0.38369">
        <ele>174.58</ele>
        <time>2019-01-13T08:14:58.000Z</time>
      </trkpt>
      <trkpt lat="46.51789" lon="0.38363">
        <ele>173.08</ele>
        <time>2019-01-13T08:15:00.000Z</time>
      </trkpt>
      <trkpt lat="46.51777" lon="0.38358">
        <ele>171.38</ele>
        <time>2019-01-13T08:15:02.000Z</time>
      </trkpt>
      <trkpt lat="46.51767" lon="0.38353">
        <ele>169.84</ele>
        <time>2019-01-13T08:15:04.000Z</time>
      </trkpt>
      <trkpt lat="46.51758" lon="0.38346">
        <ele>169.05</ele>
        <time>2019-01-13T08:15:06.000Z</time>
      </trkpt>
      <trkpt lat="46.51747" lon="0.38337">
        <ele>168.74</ele>
        <time>2019-01-13T08:15:09.000Z</time>
      </trkpt>
      <trkpt lat="46.51739" lon="0.38325">
        <ele>168.44</ele>
        <time>2019-01-13T08:15:11.000Z</time>
      </trkpt>
      <trkpt lat="46.51736" lon="0.38313">
        <ele>168.16</ele>
        <time>2019-01-13T08:15:13.000Z</time>
      </trkpt>
      <trkpt lat="46.51731" lon="0.383">
        <ele>168.1</ele>
        <time>2019-01-13T08:15:15.000Z</time>
      </trkpt>
      <trkpt lat="46.51723" lon="0.38291">
        <ele>167.18</ele>
        <time>2019-01-13T08:15:17.000Z</time>
      </trkpt>
      <trkpt lat="46.51714" lon="0.38284">
        <ele>166.08</ele>
        <time>2019-01-13T08:15:19.000Z</time>
      </trkpt>
      <trkpt lat="46.51702" lon="0.38279">
        <ele>165.75</ele>
        <time>2019-01-13T08:15:21.000Z</time>
      </trkpt>
      <trkpt lat="46.51692" lon="0.38275">
        <ele>165.22</ele>
        <time>2019-01-13T08:15:23.000Z</time>
      </trkpt>
      <trkpt lat="46.51683" lon="0.3827">
        <ele>164.95</ele>
        <time>2019-01-13T08:15:25.000Z</time>
      </trkpt>
      <trkpt lat="46.51673" lon="0.38264">
        <ele>164.66</ele>
        <time>2019-01-13T08:15:27.000Z</time>
      </trkpt>
      <trkpt lat="46.51664" lon="0.38259">
        <ele>164.64</ele>
        <time>2019-01-13T08:15:29.000Z</time>
      </trkpt>
      <trkpt lat="46.51651" lon="0.38252">
        <ele>164.72</ele>
        <time>2019-01-13T08:15:32.000Z</time>
      </trkpt>
      <trkpt lat="46.5164" lon="0.38252">
        <ele>164.78</ele>
        <time>2019-01-13T08:15:35.000Z</time>
      </trkpt>
      <trkpt lat="46.51629" lon="0.38254">
        <ele>164.65</ele>
        <time>2019-01-13T08:15:38.000Z</time>
      </trkpt>
      <trkpt lat="46.51621" lon="0.38249">
        <ele>164.45</ele>
        <time>2019-01-13T08:15:41.000Z</time>
      </trkpt>
      <trkpt lat="46.5161" lon="0.38243">
        <ele>164.11</ele>
        <time>2019-01-13T08:15:44.000Z</time>
      </trkpt>
      <trkpt lat="46.51601" lon="0.38238">
        <ele>162.45</ele>
        <time>2019-01-13T08:15:46.000Z</time>
      </trkpt>
      <trkpt lat="46.51592" lon="0.38235">
        <ele>162.17</ele>
        <time>2019-01-13T08:15:48.000Z</time>
      </trkpt>
      <trkpt lat="46.51582" lon="0.3823">
        <ele>161.68</ele>
        <time>2019-01-13T08:15:51.000Z</time>
      </trkpt>
      <trkpt lat="46.51574" lon="0.38223">
        <ele>161.43</ele>
        <time>2019-01-13T08:15:53.000Z</time>
      </trkpt>
      <trkpt lat="46.51562" lon="0.38218">
        <ele>161.28</ele>
        <time>2019-01-13T08:15:56.000Z</time>
      </trkpt>
      <trkpt lat="46.5155" lon="0.38212">
        <ele>161.3</ele>
        <time>2019-01-13T08:15:59.000Z</time>
      </trkpt>
      <trkpt lat="46.51541" lon="0.38202">
        <ele>161.24</ele>
        <time>2019-01-13T08:16:02.000Z</time>
      </trkpt>
      <trkpt lat="46.51532" lon="0.38202">
        <ele>161.07</ele>
        <time>2019-01-13T08:16:06.000Z</time>
      </trkpt>
      <trkpt lat="46.51523" lon="0.38197">
        <ele>161</ele>
        <time>2019-01-13T08:16:09.000Z</time>
      </trkpt>
      <trkpt lat="46.5151" lon="0.38197">
        <ele>160.97</ele>
        <time>2019-01-13T08:16:12.000Z</time>
      </trkpt>
      <trkpt lat="46.51503" lon="0.38186">
        <ele>160.98</ele>
        <time>2019-01-13T08:16:14.000Z</time>
      </trkpt>
      <trkpt lat="46.51497" lon="0.38174">
        <ele>161.01</ele>
        <time>2019-01-13T08:16:17.000Z</time>
      </trkpt>
      <trkpt lat="46.51485" lon="0.38175">
        <ele>160.94</ele>
        <time>2019-01-13T08:16:21.000Z</time>
      </trkpt>
      <trkpt lat="46.51475" lon="0.38179">
        <ele>160.87</ele>
        <time>2019-01-13T08:16:23.000Z</time>
      </trkpt>
      <trkpt lat="46.51464" lon="0.38177">
        <ele>160.86</ele>
        <time>2019-01-13T08:16:25.000Z</time>
      </trkpt>
      <trkpt lat="46.51454" lon="0.38176">
        <ele>160.89</ele>
        <time>2019-01-13T08:16:27.000Z</time>
      </trkpt>
      <trkpt lat="46.51441" lon="0.38174">
        <ele>160.8</ele>
        <time>2019-01-13T08:16:30.000Z</time>
      </trkpt>
      <trkpt lat="46.51431" lon="0.38168">
        <ele>160.66</ele>
        <time>2019-01-13T08:16:33.000Z</time>
      </trkpt>
      <trkpt lat="46.51423" lon="0.38158">
        <ele>160.32</ele>
        <time>2019-01-13T08:16:36.000Z</time>
      </trkpt>
      <trkpt lat="46.51413" lon="0.38154">
        <ele>159.99</ele>
        <time>2019-01-13T08:16:39.000Z</time>
      </trkpt>
      <trkpt lat="46.51403" lon="0.3815">
        <ele>159.73</ele>
        <time>2019-01-13T08:16:41.000Z</time>
      </trkpt>
      <trkpt lat="46.51394" lon="0.38139">
        <ele>159.3</ele>
        <time>2019-01-13T08:16:44.000Z</time>
      </trkpt>
      <trkpt lat="46.51387" lon="0.38126">
        <ele>158.83</ele>
        <time>2019-01-13T08:16:47.000Z</time>
      </trkpt>
      <trkpt lat="46.51382" lon="0.38112">
        <ele>158.61</ele>
        <time>2019-01-13T08:16:51.000Z</time>
      </trkpt>
      <trkpt lat="46.51371" lon="0.38111">
        <ele>159.21</ele>
        <time>2019-01-13T08:16:54.000Z</time>
      </trkpt>
      <trkpt lat="46.51362" lon="0.38108">
        <ele>160.22</ele>
        <time>2019-01-13T08:16:56.000Z</time>
      </trkpt>
      <trkpt lat="46.51352" lon="0.38106">
        <ele>160.86</ele>
        <time>2019-01-13T08:16:58.000Z</time>
      </trkpt>
      <trkpt lat="46.51342" lon="0.38103">
        <ele>161.84</ele>
        <time>2019-01-13T08:17:00.000Z</time>
      </trkpt>
      <trkpt lat="46.51334" lon="0.381">
        <ele>162.95</ele>
        <time>2019-01-13T08:17:02.000Z</time>
      </trkpt>
      <trkpt lat="46.51322" lon="0.38098">
        <ele>163.63</ele>
        <time>2019-01-13T08:17:04.000Z</time>
      </trkpt>
      <trkpt lat="46.51308" lon="0.38095">
        <ele>164.32</ele>
        <time>2019-01-13T08:17:06.000Z</time>
      </trkpt>
      <trkpt lat="46.51295" lon="0.38088">
        <ele>164.69</ele>
        <time>2019-01-13T08:17:08.000Z</time>
      </trkpt>
      <trkpt lat="46.51282" lon="0.3808">
        <ele>164.57</ele>
        <time>2019-01-13T08:17:10.000Z</time>
      </trkpt>
      <trkpt lat="46.51271" lon="0.38075">
        <ele>164.26</ele>
        <time>2019-01-13T08:17:12.000Z</time>
      </trkpt>
      <trkpt lat="46.51262" lon="0.38069">
        <ele>163.75</ele>
        <time>2019-01-13T08:17:14.000Z</time>
      </trkpt>
      <trkpt lat="46.51251" lon="0.38063">
        <ele>163.41</ele>
        <time>2019-01-13T08:17:16.000Z</time>
      </trkpt>
      <trkpt lat="46.51242" lon="0.38057">
        <ele>163.92</ele>
        <time>2019-01-13T08:17:18.000Z</time>
      </trkpt>
      <trkpt lat="46.51231" lon="0.3805">
        <ele>164.74</ele>
        <time>2019-01-13T08:17:21.000Z</time>
      </trkpt>
      <trkpt lat="46.5122" lon="0.3804">
        <ele>165.37</ele>
        <time>2019-01-13T08:17:24.000Z</time>
      </trkpt>
      <trkpt lat="46.5121" lon="0.38035">
        <ele>165.59</ele>
        <time>2019-01-13T08:17:27.000Z</time>
      </trkpt>
      <trkpt lat="46.51202" lon="0.38026">
        <ele>166.04</ele>
        <time>2019-01-13T08:17:30.000Z</time>
      </trkpt>
      <trkpt lat="46.51194" lon="0.38018">
        <ele>166.64</ele>
        <time>2019-01-13T08:17:34.000Z</time>
      </trkpt>
      <trkpt lat="46.51186" lon="0.3801">
        <ele>166.98</ele>
        <time>2019-01-13T08:17:37.000Z</time>
      </trkpt>
      <trkpt lat="46.51177" lon="0.38002">
        <ele>167.28</ele>
        <time>2019-01-13T08:17:40.000Z</time>
      </trkpt>
      <trkpt lat="46.51167" lon="0.37995">
        <ele>167.51</ele>
        <time>2019-01-13T08:17:43.000Z</time>
      </trkpt>
      <trkpt lat="46.51159" lon="0.37988">
        <ele>167.87</ele>
        <time>2019-01-13T08:17:47.000Z</time>
      </trkpt>
      <trkpt lat="46.51148" lon="0.37983">
        <ele>168.21</ele>
        <time>2019-01-13T08:17:51.000Z</time>
      </trkpt>
      <trkpt lat="46.51139" lon="0.3798">
        <ele>168.35</ele>
        <time>2019-01-13T08:17:54.000Z</time>
      </trkpt>
      <trkpt lat="46.51127" lon="0.37979">
        <ele>168.32</ele>
        <time>2019-01-13T08:17:58.000Z</time>
      </trkpt>
      <trkpt lat="46.51116" lon="0.37981">
        <ele>168.2</ele>
        <time>2019-01-13T08:18:01.000Z</time>
      </trkpt>
      <trkpt lat="46.51105" lon="0.37981">
        <ele>168.1</ele>
        <time>2019-01-13T08:18:04.000Z</time>
      </trkpt>
      <trkpt lat="46.51094" lon="0.37981">
        <ele>167.98</ele>
        <time>2019-01-13T08:18:07.000Z</time>
      </trkpt>
      <trkpt lat="46.51081" lon="0.37979">
        <ele>167.57</ele>
        <time>2019-01-13T08:18:10.000Z</time>
      </trkpt>
      <trkpt lat="46.51069" lon="0.37978">
        <ele>167.3</ele>
        <time>2019-01-13T08:18:13.000Z</time>
      </trkpt>
      <trkpt lat="46.51056" lon="0.37978">
        <ele>167.11</ele>
        <time>2019-01-13T08:18:16.000Z</time>
      </trkpt>
      <trkpt lat="46.51044" lon="0.37978">
        <ele>166.98</ele>
        <time>2019-01-13T08:18:19.000Z</time>
      </trkpt>
      <trkpt lat="46.51033" lon="0.37982">
        <ele>166.82</ele>
        <time>2019-01-13T08:18:22.000Z</time>
      </trkpt>
      <trkpt lat="46.51022" lon="0.37985">
        <ele>166.65</ele>
        <time>2019-01-13T08:18:25.000Z</time>
      </trkpt>
      <trkpt lat="46.51009" lon="0.37984">
        <ele>166.46</ele>
        <time>2019-01-13T08:18:28.000Z</time>
      </trkpt>
      <trkpt lat="46.51" lon="0.37983">
        <ele>166.33</ele>
        <time>2019-01-13T08:18:30.000Z</time>
      </trkpt>
      <trkpt lat="46.50989" lon="0.37983">
        <ele>166.11</ele>
        <time>2019-01-13T08:18:33.000Z</time>
      </trkpt>
      <trkpt lat="46.50976" lon="0.37979">
        <ele>166.05</ele>
        <time>2019-01-13T08:18:36.000Z</time>
      </trkpt>
      <trkpt lat="46.50967" lon="0.37974">
        <ele>166.06</ele>
        <time>2019-01-13T08:18:38.000Z</time>
      </trkpt>
      <trkpt lat="46.50958" lon="0.3797">
        <ele>166.06</ele>
        <time>2019-01-13T08:18:40.000Z</time>
      </trkpt>
      <trkpt lat="46.50948" lon="0.37966">
        <ele>166.12</ele>
        <time>2019-01-13T08:18:43.000Z</time>
      </trkpt>
      <trkpt lat="46.50939" lon="0.37963">
        <ele>166.12</ele>
        <time>2019-01-13T08:18:46.000Z</time>
      </trkpt>
      <trkpt lat="46.50929" lon="0.3796">
        <ele>166.22</ele>
        <time>2019-01-13T08:18:49.000Z</time>
      </trkpt>
      <trkpt lat="46.5092" lon="0.37963">
        <ele>166.19</ele>
        <time>2019-01-13T08:18:52.000Z</time>
      </trkpt>
      <trkpt lat="46.50921" lon="0.37977">
        <ele>165.65</ele>
        <time>2019-01-13T08:18:56.000Z</time>
      </trkpt>
      <trkpt lat="46.50924" lon="0.37989">
        <ele>164.95</ele>
        <time>2019-01-13T08:19:01.000Z</time>
      </trkpt>
      <trkpt lat="46.50928" lon="0.38002">
        <ele>165.12</ele>
        <time>2019-01-13T08:19:08.000Z</time>
      </trkpt>
      <trkpt lat="46.50934" lon="0.38013">
        <ele>166.21</ele>
        <time>2019-01-13T08:19:13.000Z</time>
      </trkpt>
      <trkpt lat="46.50939" lon="0.38027">
        <ele>168.47</ele>
        <time>2019-01-13T08:19:20.000Z</time>
      </trkpt>
      <trkpt lat="46.50943" lon="0.38041">
        <ele>170.81</ele>
        <time>2019-01-13T08:19:27.000Z</time>
      </trkpt>
      <trkpt lat="46.50947" lon="0.38057">
        <ele>172.34</ele>
        <time>2019-01-13T08:19:32.000Z</time>
      </trkpt>
      <trkpt lat="46.50949" lon="0.38072">
        <ele>173.89</ele>
        <time>2019-01-13T08:19:37.000Z</time>
      </trkpt>
      <trkpt lat="46.50952" lon="0.38086">
        <ele>175.25</ele>
        <time>2019-01-13T08:19:42.000Z</time>
      </trkpt>
      <trkpt lat="46.50956" lon="0.381">
        <ele>176.68</ele>
        <time>2019-01-13T08:19:47.000Z</time>
      </trkpt>
      <trkpt lat="46.5096" lon="0.38112">
        <ele>177.89</ele>
        <time>2019-01-13T08:19:51.000Z</time>
      </trkpt>
      <trkpt lat="46.50964" lon="0.38127">
        <ele>178.99</ele>
        <time>2019-01-13T08:19:55.000Z</time>
      </trkpt>
      <trkpt lat="46.50967" lon="0.3814">
        <ele>179.84</ele>
        <time>2019-01-13T08:19:58.000Z</time>
      </trkpt>
      <trkpt lat="46.50971" lon="0.38156">
        <ele>180.62</ele>
        <time>2019-01-13T08:20:01.000Z</time>
      </trkpt>
      <trkpt lat="46.50971" lon="0.38172">
        <ele>181.26</ele>
        <time>2019-01-13T08:20:04.000Z</time>
      </trkpt>
      <trkpt lat="46.50971" lon="0.38187">
        <ele>183.47</ele>
        <time>2019-01-13T08:20:06.000Z</time>
      </trkpt>
      <trkpt lat="46.5097" lon="0.38203">
        <ele>186.34</ele>
        <time>2019-01-13T08:20:08.000Z</time>
      </trkpt>
      <trkpt lat="46.50969" lon="0.38219">
        <ele>188.33</ele>
        <time>2019-01-13T08:20:10.000Z</time>
      </trkpt>
      <trkpt lat="46.50967" lon="0.38233">
        <ele>191.01</ele>
        <time>2019-01-13T08:20:12.000Z</time>
      </trkpt>
      <trkpt lat="46.50964" lon="0.38255">
        <ele>192.34</ele>
        <time>2019-01-13T08:20:14.000Z</time>
      </trkpt>
      <trkpt lat="46.50959" lon="0.3828">
        <ele>192.26</ele>
        <time>2019-01-13T08:20:16.000Z</time>
      </trkpt>
      <trkpt lat="46.50955" lon="0.38303">
        <ele>189.79</ele>
        <time>2019-01-13T08:20:18.000Z</time>
      </trkpt>
      <trkpt lat="46.50953" lon="0.38317">
        <ele>189.55</ele>
        <time>2019-01-13T08:20:21.000Z</time>
      </trkpt>
      <trkpt lat="46.5095" lon="0.3833">
        <ele>189.26</ele>
        <time>2019-01-13T08:20:24.000Z</time>
      </trkpt>
      <trkpt lat="46.50942" lon="0.38339">
        <ele>188.8</ele>
        <time>2019-01-13T08:20:28.000Z</time>
      </trkpt>
      <trkpt lat="46.50932" lon="0.38347">
        <ele>188.2</ele>
        <time>2019-01-13T08:20:32.000Z</time>
      </trkpt>
      <trkpt lat="46.50925" lon="0.38357">
        <ele>187.59</ele>
        <time>2019-01-13T08:20:36.000Z</time>
      </trkpt>
      <trkpt lat="46.50917" lon="0.38365">
        <ele>187.12</ele>
        <time>2019-01-13T08:20:39.000Z</time>
      </trkpt>
      <trkpt lat="46.50908" lon="0.3837">
        <ele>186.59</ele>
        <time>2019-01-13T08:20:42.000Z</time>
      </trkpt>
      <trkpt lat="46.509" lon="0.38377">
        <ele>185.78</ele>
        <time>2019-01-13T08:20:46.000Z</time>
      </trkpt>
      <trkpt lat="46.50889" lon="0.38386">
        <ele>184.71</ele>
        <time>2019-01-13T08:20:51.000Z</time>
      </trkpt>
      <trkpt lat="46.5088" lon="0.38394">
        <ele>183.89</ele>
        <time>2019-01-13T08:20:56.000Z</time>
      </trkpt>
      <trkpt lat="46.50872" lon="0.38402">
        <ele>183.3</ele>
        <time>2019-01-13T08:21:00.000Z</time>
      </trkpt>
      <trkpt lat="46.50866" lon="0.38411">
        <ele>182.8</ele>
        <time>2019-01-13T08:21:04.000Z</time>
      </trkpt>
      <trkpt lat="46.50858" lon="0.38421">
        <ele>182.41</ele>
        <time>2019-01-13T08:21:08.000Z</time>
      </trkpt>
      <trkpt lat="46.50848" lon="0.3843">
        <ele>182.13</ele>
        <time>2019-01-13T08:21:11.000Z</time>
      </trkpt>
      <trkpt lat="46.50837" lon="0.3844">
        <ele>181.88</ele>
        <time>2019-01-13T08:21:14.000Z</time>
      </trkpt>
      <trkpt lat="46.50829" lon="0.38447">
        <ele>181.54</ele>
        <time>2019-01-13T08:21:18.000Z</time>
      </trkpt>
      <trkpt lat="46.50821" lon="0.38454">
        <ele>181.15</ele>
        <time>2019-01-13T08:21:22.000Z</time>
      </trkpt>
      <trkpt lat="46.50811" lon="0.38465">
        <ele>180.92</ele>
        <time>2019-01-13T08:21:25.000Z</time>
      </trkpt>
      <trkpt lat="46.50804" lon="0.38479">
        <ele>180.79</ele>
        <time>2019-01-13T08:21:28.000Z</time>
      </trkpt>
      <trkpt lat="46.50812" lon="0.38493">
        <ele>180.16</ele>
        <time>2019-01-13T08:21:32.000Z</time>
      </trkpt>
      <trkpt lat="46.50822" lon="0.38503">
        <ele>178.55</ele>
        <time>2019-01-13T08:21:34.000Z</time>
      </trkpt>
      <trkpt lat="46.50833" lon="0.3851">
        <ele>176.92</ele>
        <time>2019-01-13T08:21:36.000Z</time>
      </trkpt>
      <trkpt lat="46.50845" lon="0.38519">
        <ele>176.24</ele>
        <time>2019-01-13T08:21:38.000Z</time>
      </trkpt>
      <trkpt lat="46.50855" lon="0.38526">
        <ele>176.12</ele>
        <time>2019-01-13T08:21:40.000Z</time>
      </trkpt>
      <trkpt lat="46.50864" lon="0.38534">
        <ele>176.16</ele>
        <time>2019-01-13T08:21:42.000Z</time>
      </trkpt>
      <trkpt lat="46.50869" lon="0.38548">
        <ele>176.36</ele>
        <time>2019-01-13T08:21:46.000Z</time>
      </trkpt>
      <trkpt lat="46.50873" lon="0.38564">
        <ele>176.64</ele>
        <time>2019-01-13T08:21:50.000Z</time>
      </trkpt>
      <trkpt lat="46.50877" lon="0.38579">
        <ele>176.98</ele>
        <time>2019-01-13T08:21:53.000Z</time>
      </trkpt>
      <trkpt lat="46.50878" lon="0.38594">
        <ele>177.25</ele>
        <time>2019-01-13T08:21:56.000Z</time>
      </trkpt>
      <trkpt lat="46.50871" lon="0.38607">
        <ele>177.44</ele>
        <time>2019-01-13T08:22:00.000Z</time>
      </trkpt>
      <trkpt lat="46.50865" lon="0.3862">
        <ele>177.76</ele>
        <time>2019-01-13T08:22:04.000Z</time>
      </trkpt>
      <trkpt lat="46.50858" lon="0.38628">
        <ele>177.96</ele>
        <time>2019-01-13T08:22:07.000Z</time>
      </trkpt>
      <trkpt lat="46.5085" lon="0.38638">
        <ele>177.99</ele>
        <time>2019-01-13T08:22:10.000Z</time>
      </trkpt>
      <trkpt lat="46.50841" lon="0.38646">
        <ele>177.95</ele>
        <time>2019-01-13T08:22:14.000Z</time>
      </trkpt>
      <trkpt lat="46.50833" lon="0.38655">
        <ele>178.06</ele>
        <time>2019-01-13T08:22:18.000Z</time>
      </trkpt>
      <trkpt lat="46.50825" lon="0.38665">
        <ele>178.11</ele>
        <time>2019-01-13T08:22:22.000Z</time>
      </trkpt>
      <trkpt lat="46.50816" lon="0.38675">
        <ele>178.06</ele>
        <time>2019-01-13T08:22:26.000Z</time>
      </trkpt>
      <trkpt lat="46.50806" lon="0.38686">
        <ele>177.92</ele>
        <time>2019-01-13T08:22:30.000Z</time>
      </trkpt>
      <trkpt lat="46.50799" lon="0.38697">
        <ele>177.77</ele>
        <time>2019-01-13T08:22:34.000Z</time>
      </trkpt>
      <trkpt lat="46.50791" lon="0.38709">
        <ele>177.89</ele>
        <time>2019-01-13T08:22:38.000Z</time>
      </trkpt>
      <trkpt lat="46.50782" lon="0.38717">
        <ele>178.13</ele>
        <time>2019-01-13T08:22:42.000Z</time>
      </trkpt>
      <trkpt lat="46.50775" lon="0.38728">
        <ele>178.3</ele>
        <time>2019-01-13T08:22:46.000Z</time>
      </trkpt>
      <trkpt lat="46.50767" lon="0.3874">
        <ele>178.48</ele>
        <time>2019-01-13T08:22:50.000Z</time>
      </trkpt>
      <trkpt lat="46.50759" lon="0.38748">
        <ele>178.73</ele>
        <time>2019-01-13T08:22:53.000Z</time>
      </trkpt>
      <trkpt lat="46.50751" lon="0.38755">
        <ele>178.97</ele>
        <time>2019-01-13T08:22:56.000Z</time>
      </trkpt>
      <trkpt lat="46.50741" lon="0.38764">
        <ele>179.16</ele>
        <time>2019-01-13T08:22:59.000Z</time>
      </trkpt>
      <trkpt lat="46.50731" lon="0.38768">
        <ele>179.32</ele>
        <time>2019-01-13T08:23:02.000Z</time>
      </trkpt>
      <trkpt lat="46.5072" lon="0.3877">
        <ele>179.49</ele>
        <time>2019-01-13T08:23:05.000Z</time>
      </trkpt>
      <trkpt lat="46.50708" lon="0.38773">
        <ele>179.75</ele>
        <time>2019-01-13T08:23:09.000Z</time>
      </trkpt>
      <trkpt lat="46.50699" lon="0.38777">
        <ele>179.94</ele>
        <time>2019-01-13T08:23:12.000Z</time>
      </trkpt>
      <trkpt lat="46.50687" lon="0.38783">
        <ele>180.24</ele>
        <time>2019-01-13T08:23:16.000Z</time>
      </trkpt>
      <trkpt lat="46.50677" lon="0.38786">
        <ele>180.38</ele>
        <time>2019-01-13T08:23:19.000Z</time>
      </trkpt>
      <trkpt lat="46.50666" lon="0.3879">
        <ele>180.46</ele>
        <time>2019-01-13T08:23:22.000Z</time>
      </trkpt>
      <trkpt lat="46.50657" lon="0.38796">
        <ele>180.55</ele>
        <time>2019-01-13T08:23:25.000Z</time>
      </trkpt>
      <trkpt lat="46.50646" lon="0.38801">
        <ele>180.67</ele>
        <time>2019-01-13T08:23:28.000Z</time>
      </trkpt>
      <trkpt lat="46.50633" lon="0.38806">
        <ele>180.69</ele>
        <time>2019-01-13T08:23:31.000Z</time>
      </trkpt>
      <trkpt lat="46.5062" lon="0.3881">
        <ele>180.49</ele>
        <time>2019-01-13T08:23:34.000Z</time>
      </trkpt>
      <trkpt lat="46.5061" lon="0.38813">
        <ele>180.46</ele>
        <time>2019-01-13T08:23:36.000Z</time>
      </trkpt>
      <trkpt lat="46.506" lon="0.38818">
        <ele>180.56</ele>
        <time>2019-01-13T08:23:39.000Z</time>
      </trkpt>
      <trkpt lat="46.5059" lon="0.38825">
        <ele>180.75</ele>
        <time>2019-01-13T08:23:42.000Z</time>
      </trkpt>
      <trkpt lat="46.50582" lon="0.38832">
        <ele>180.89</ele>
        <time>2019-01-13T08:23:44.000Z</time>
      </trkpt>
      <trkpt lat="46.50573" lon="0.38843">
        <ele>181.12</ele>
        <time>2019-01-13T08:23:47.000Z</time>
      </trkpt>
      <trkpt lat="46.50565" lon="0.38853">
        <ele>182.01</ele>
        <time>2019-01-13T08:23:49.000Z</time>
      </trkpt>
      <trkpt lat="46.50557" lon="0.38862">
        <ele>181.85</ele>
        <time>2019-01-13T08:23:51.000Z</time>
      </trkpt>
      <trkpt lat="46.50548" lon="0.38877">
        <ele>181.89</ele>
        <time>2019-01-13T08:23:54.000Z</time>
      </trkpt>
      <trkpt lat="46.5054" lon="0.38888">
        <ele>182.34</ele>
        <time>2019-01-13T08:23:56.000Z</time>
      </trkpt>
      <trkpt lat="46.50533" lon="0.38902">
        <ele>182.45</ele>
        <time>2019-01-13T08:23:59.000Z</time>
      </trkpt>
      <trkpt lat="46.50526" lon="0.38913">
        <ele>182.37</ele>
        <time>2019-01-13T08:24:01.000Z</time>
      </trkpt>
      <trkpt lat="46.5052" lon="0.38926">
        <ele>182.39</ele>
        <time>2019-01-13T08:24:04.000Z</time>
      </trkpt>
      <trkpt lat="46.50515" lon="0.38939">
        <ele>182.28</ele>
        <time>2019-01-13T08:24:06.000Z</time>
      </trkpt>
      <trkpt lat="46.5051" lon="0.38956">
        <ele>180.66</ele>
        <time>2019-01-13T08:24:09.000Z</time>
      </trkpt>
      <trkpt lat="46.50507" lon="0.3897">
        <ele>178.35</ele>
        <time>2019-01-13T08:24:11.000Z</time>
      </trkpt>
      <trkpt lat="46.50504" lon="0.38985">
        <ele>177.56</ele>
        <time>2019-01-13T08:24:13.000Z</time>
      </trkpt>
      <trkpt lat="46.50499" lon="0.39">
        <ele>176.91</ele>
        <time>2019-01-13T08:24:15.000Z</time>
      </trkpt>
      <trkpt lat="46.50496" lon="0.39015">
        <ele>176.87</ele>
        <time>2019-01-13T08:24:17.000Z</time>
      </trkpt>
      <trkpt lat="46.50493" lon="0.3903">
        <ele>177.54</ele>
        <time>2019-01-13T08:24:19.000Z</time>
      </trkpt>
      <trkpt lat="46.5049" lon="0.39044">
        <ele>178.62</ele>
        <time>2019-01-13T08:24:21.000Z</time>
      </trkpt>
      <trkpt lat="46.50488" lon="0.39068">
        <ele>180.22</ele>
        <time>2019-01-13T08:24:23.000Z</time>
      </trkpt>
      <trkpt lat="46.50483" lon="0.39089">
        <ele>181.73</ele>
        <time>2019-01-13T08:24:25.000Z</time>
      </trkpt>
      <trkpt lat="46.50478" lon="0.39105">
        <ele>183.32</ele>
        <time>2019-01-13T08:24:27.000Z</time>
      </trkpt>
      <trkpt lat="46.50473" lon="0.39123">
        <ele>184.11</ele>
        <time>2019-01-13T08:24:29.000Z</time>
      </trkpt>
      <trkpt lat="46.50468" lon="0.39139">
        <ele>184.75</ele>
        <time>2019-01-13T08:24:31.000Z</time>
      </trkpt>
      <trkpt lat="46.50465" lon="0.39156">
        <ele>184.36</ele>
        <time>2019-01-13T08:24:33.000Z</time>
      </trkpt>
      <trkpt lat="46.50462" lon="0.39177">
        <ele>185.21</ele>
        <time>2019-01-13T08:24:36.000Z</time>
      </trkpt>
      <trkpt lat="46.50458" lon="0.39191">
        <ele>185.54</ele>
        <time>2019-01-13T08:24:38.000Z</time>
      </trkpt>
      <trkpt lat="46.50456" lon="0.39206">
        <ele>185.6</ele>
        <time>2019-01-13T08:24:40.000Z</time>
      </trkpt>
      <trkpt lat="46.50454" lon="0.3922">
        <ele>185.67</ele>
        <time>2019-01-13T08:24:42.000Z</time>
      </trkpt>
      <trkpt lat="46.5045" lon="0.39235">
        <ele>185.58</ele>
        <time>2019-01-13T08:24:44.000Z</time>
      </trkpt>
      <trkpt lat="46.5044" lon="0.39255">
        <ele>182.42</ele>
        <time>2019-01-13T08:24:46.000Z</time>
      </trkpt>
      <trkpt lat="46.5043" lon="0.39267">
        <ele>178.11</ele>
        <time>2019-01-13T08:24:48.000Z</time>
      </trkpt>
      <trkpt lat="46.50422" lon="0.39276">
        <ele>174.23</ele>
        <time>2019-01-13T08:24:50.000Z</time>
      </trkpt>
      <trkpt lat="46.50412" lon="0.39284">
        <ele>171.06</ele>
        <time>2019-01-13T08:24:52.000Z</time>
      </trkpt>
      <trkpt lat="46.50401" lon="0.39288">
        <ele>168.46</ele>
        <time>2019-01-13T08:24:54.000Z</time>
      </trkpt>
      <trkpt lat="46.50388" lon="0.39287">
        <ele>166.67</ele>
        <time>2019-01-13T08:24:56.000Z</time>
      </trkpt>
      <trkpt lat="46.50377" lon="0.39285">
        <ele>165.05</ele>
        <time>2019-01-13T08:24:58.000Z</time>
      </trkpt>
      <trkpt lat="46.50364" lon="0.39283">
        <ele>163.54</ele>
        <time>2019-01-13T08:25:00.000Z</time>
      </trkpt>
      <trkpt lat="46.50352" lon="0.39282">
        <ele>163.14</ele>
        <time>2019-01-13T08:25:02.000Z</time>
      </trkpt>
      <trkpt lat="46.50341" lon="0.39277">
        <ele>163.48</ele>
        <time>2019-01-13T08:25:04.000Z</time>
      </trkpt>
      <trkpt lat="46.50328" lon="0.39274">
        <ele>164.11</ele>
        <time>2019-01-13T08:25:06.000Z</time>
      </trkpt>
      <trkpt lat="46.50316" lon="0.39268">
        <ele>164.59</ele>
        <time>2019-01-13T08:25:08.000Z</time>
      </trkpt>
      <trkpt lat="46.50302" lon="0.39263">
        <ele>166.01</ele>
        <time>2019-01-13T08:25:10.000Z</time>
      </trkpt>
      <trkpt lat="46.50289" lon="0.39257">
        <ele>167.38</ele>
        <time>2019-01-13T08:25:12.000Z</time>
      </trkpt>
      <trkpt lat="46.50279" lon="0.39249">
        <ele>168.41</ele>
        <time>2019-01-13T08:25:14.000Z</time>
      </trkpt>
      <trkpt lat="46.5027" lon="0.39238">
        <ele>169.03</ele>
        <time>2019-01-13T08:25:16.000Z</time>
      </trkpt>
      <trkpt lat="46.50262" lon="0.39229">
        <ele>169.87</ele>
        <time>2019-01-13T08:25:18.000Z</time>
      </trkpt>
      <trkpt lat="46.50253" lon="0.39217">
        <ele>171.16</ele>
        <time>2019-01-13T08:25:20.000Z</time>
      </trkpt>
      <trkpt lat="46.50247" lon="0.39203">
        <ele>172.36</ele>
        <time>2019-01-13T08:25:22.000Z</time>
      </trkpt>
      <trkpt lat="46.50242" lon="0.39186">
        <ele>173.47</ele>
        <time>2019-01-13T08:25:24.000Z</time>
      </trkpt>
      <trkpt lat="46.50233" lon="0.39172">
        <ele>174.35</ele>
        <time>2019-01-13T08:25:26.000Z</time>
      </trkpt>
      <trkpt lat="46.50222" lon="0.39165">
        <ele>175.56</ele>
        <time>2019-01-13T08:25:28.000Z</time>
      </trkpt>
      <trkpt lat="46.50213" lon="0.39157">
        <ele>176.68</ele>
        <time>2019-01-13T08:25:30.000Z</time>
      </trkpt>
      <trkpt lat="46.50204" lon="0.3915">
        <ele>177.13</ele>
        <time>2019-01-13T08:25:32.000Z</time>
      </trkpt>
      <trkpt lat="46.50194" lon="0.39145">
        <ele>177.2</ele>
        <time>2019-01-13T08:25:35.000Z</time>
      </trkpt>
      <trkpt lat="46.50184" lon="0.39139">
        <ele>177.27</ele>
        <time>2019-01-13T08:25:38.000Z</time>
      </trkpt>
      <trkpt lat="46.50173" lon="0.39135">
        <ele>177.31</ele>
        <time>2019-01-13T08:25:41.000Z</time>
      </trkpt>
      <trkpt lat="46.50163" lon="0.39131">
        <ele>177.23</ele>
        <time>2019-01-13T08:25:44.000Z</time>
      </trkpt>
      <trkpt lat="46.50151" lon="0.39132">
        <ele>177.02</ele>
        <time>2019-01-13T08:25:47.000Z</time>
      </trkpt>
      <trkpt lat="46.50142" lon="0.39134">
        <ele>176.84</ele>
        <time>2019-01-13T08:25:49.000Z</time>
      </trkpt>
      <trkpt lat="46.50132" lon="0.39138">
        <ele>175.78</ele>
        <time>2019-01-13T08:25:52.000Z</time>
      </trkpt>
      <trkpt lat="46.50119" lon="0.3914">
        <ele>175.16</ele>
        <time>2019-01-13T08:25:54.000Z</time>
      </trkpt>
      <trkpt lat="46.50107" lon="0.39141">
        <ele>174.71</ele>
        <time>2019-01-13T08:25:56.000Z</time>
      </trkpt>
      <trkpt lat="46.50094" lon="0.39141">
        <ele>174.4</ele>
        <time>2019-01-13T08:25:59.000Z</time>
      </trkpt>
      <trkpt lat="46.50082" lon="0.39139">
        <ele>174.12</ele>
        <time>2019-01-13T08:26:01.000Z</time>
      </trkpt>
      <trkpt lat="46.50073" lon="0.39137">
        <ele>174.09</ele>
        <time>2019-01-13T08:26:03.000Z</time>
      </trkpt>
      <trkpt lat="46.50062" lon="0.39136">
        <ele>173.62</ele>
        <time>2019-01-13T08:26:05.000Z</time>
      </trkpt>
      <trkpt lat="46.50048" lon="0.39134">
        <ele>174.67</ele>
        <time>2019-01-13T08:26:08.000Z</time>
      </trkpt>
      <trkpt lat="46.50036" lon="0.39133">
        <ele>175.61</ele>
        <time>2019-01-13T08:26:10.000Z</time>
      </trkpt>
      <trkpt lat="46.50026" lon="0.3913">
        <ele>175.71</ele>
        <time>2019-01-13T08:26:12.000Z</time>
      </trkpt>
      <trkpt lat="46.50017" lon="0.39128">
        <ele>176.47</ele>
        <time>2019-01-13T08:26:14.000Z</time>
      </trkpt>
      <trkpt lat="46.50008" lon="0.39127">
        <ele>176.59</ele>
        <time>2019-01-13T08:26:16.000Z</time>
      </trkpt>
      <trkpt lat="46.49995" lon="0.39125">
        <ele>178.51</ele>
        <time>2019-01-13T08:26:19.000Z</time>
      </trkpt>
      <trkpt lat="46.49986" lon="0.39126">
        <ele>178.6</ele>
        <time>2019-01-13T08:26:21.000Z</time>
      </trkpt>
      <trkpt lat="46.49973" lon="0.39128">
        <ele>178.76</ele>
        <time>2019-01-13T08:26:24.000Z</time>
      </trkpt>
      <trkpt lat="46.49964" lon="0.39128">
        <ele>179.19</ele>
        <time>2019-01-13T08:26:26.000Z</time>
      </trkpt>
      <trkpt lat="46.49954" lon="0.3913">
        <ele>179.18</ele>
        <time>2019-01-13T08:26:28.000Z</time>
      </trkpt>
      <trkpt lat="46.49944" lon="0.39129">
        <ele>179.13</ele>
        <time>2019-01-13T08:26:30.000Z</time>
      </trkpt>
      <trkpt lat="46.49932" lon="0.3913">
        <ele>178.83</ele>
        <time>2019-01-13T08:26:32.000Z</time>
      </trkpt>
      <trkpt lat="46.49919" lon="0.39129">
        <ele>178.61</ele>
        <time>2019-01-13T08:26:34.000Z</time>
      </trkpt>
      <trkpt lat="46.49906" lon="0.39127">
        <ele>178.36</ele>
        <time>2019-01-13T08:26:36.000Z</time>
      </trkpt>
      <trkpt lat="46.49894" lon="0.39122">
        <ele>178.23</ele>
        <time>2019-01-13T08:26:38.000Z</time>
      </trkpt>
      <trkpt lat="46.49884" lon="0.39118">
        <ele>178.23</ele>
        <time>2019-01-13T08:26:40.000Z</time>
      </trkpt>
      <trkpt lat="46.49875" lon="0.39109">
        <ele>179.02</ele>
        <time>2019-01-13T08:26:42.000Z</time>
      </trkpt>
      <trkpt lat="46.49867" lon="0.391">
        <ele>179.87</ele>
        <time>2019-01-13T08:26:44.000Z</time>
      </trkpt>
      <trkpt lat="46.49858" lon="0.39093">
        <ele>181.06</ele>
        <time>2019-01-13T08:26:46.000Z</time>
      </trkpt>
      <trkpt lat="46.49849" lon="0.39082">
        <ele>181.65</ele>
        <time>2019-01-13T08:26:48.000Z</time>
      </trkpt>
      <trkpt lat="46.49841" lon="0.39072">
        <ele>181.9</ele>
        <time>2019-01-13T08:26:50.000Z</time>
      </trkpt>
      <trkpt lat="46.49835" lon="0.39061">
        <ele>182.28</ele>
        <time>2019-01-13T08:26:52.000Z</time>
      </trkpt>
      <trkpt lat="46.49831" lon="0.39049">
        <ele>182.54</ele>
        <time>2019-01-13T08:26:54.000Z</time>
      </trkpt>
      <trkpt lat="46.49826" lon="0.39036">
        <ele>182.51</ele>
        <time>2019-01-13T08:26:56.000Z</time>
      </trkpt>
      <trkpt lat="46.49818" lon="0.39021">
        <ele>182.58</ele>
        <time>2019-01-13T08:26:59.000Z</time>
      </trkpt>
      <trkpt lat="46.4981" lon="0.39007">
        <ele>182.78</ele>
        <time>2019-01-13T08:27:02.000Z</time>
      </trkpt>
      <trkpt lat="46.49806" lon="0.38995">
        <ele>183.74</ele>
        <time>2019-01-13T08:27:04.000Z</time>
      </trkpt>
      <trkpt lat="46.49799" lon="0.3898">
        <ele>183.81</ele>
        <time>2019-01-13T08:27:07.000Z</time>
      </trkpt>
      <trkpt lat="46.49789" lon="0.38972">
        <ele>183.6</ele>
        <time>2019-01-13T08:27:10.000Z</time>
      </trkpt>
      <trkpt lat="46.49788" lon="0.38955">
        <ele>183.45</ele>
        <time>2019-01-13T08:27:13.000Z</time>
      </trkpt>
      <trkpt lat="46.49787" lon="0.38941">
        <ele>183.31</ele>
        <time>2019-01-13T08:27:16.000Z</time>
      </trkpt>
      <trkpt lat="46.49781" lon="0.3893">
        <ele>183.16</ele>
        <time>2019-01-13T08:27:18.000Z</time>
      </trkpt>
      <trkpt lat="46.49775" lon="0.38919">
        <ele>183.05</ele>
        <time>2019-01-13T08:27:20.000Z</time>
      </trkpt>
      <trkpt lat="46.4977" lon="0.38904">
        <ele>182.24</ele>
        <time>2019-01-13T08:27:22.000Z</time>
      </trkpt>
      <trkpt lat="46.49765" lon="0.38889">
        <ele>181.57</ele>
        <time>2019-01-13T08:27:24.000Z</time>
      </trkpt>
      <trkpt lat="46.49759" lon="0.38875">
        <ele>181.78</ele>
        <time>2019-01-13T08:27:26.000Z</time>
      </trkpt>
      <trkpt lat="46.49754" lon="0.38857">
        <ele>181.83</ele>
        <time>2019-01-13T08:27:29.000Z</time>
      </trkpt>
      <trkpt lat="46.49751" lon="0.38843">
        <ele>182.46</ele>
        <time>2019-01-13T08:27:31.000Z</time>
      </trkpt>
      <trkpt lat="46.49746" lon="0.38832">
        <ele>182.73</ele>
        <time>2019-01-13T08:27:33.000Z</time>
      </trkpt>
      <trkpt lat="46.49743" lon="0.38819">
        <ele>183.45</ele>
        <time>2019-01-13T08:27:35.000Z</time>
      </trkpt>
      <trkpt lat="46.49737" lon="0.38805">
        <ele>183.63</ele>
        <time>2019-01-13T08:27:37.000Z</time>
      </trkpt>
      <trkpt lat="46.49731" lon="0.38788">
        <ele>184.04</ele>
        <time>2019-01-13T08:27:40.000Z</time>
      </trkpt>
      <trkpt lat="46.49728" lon="0.38775">
        <ele>185.58</ele>
        <time>2019-01-13T08:27:42.000Z</time>
      </trkpt>
      <trkpt lat="46.49724" lon="0.38758">
        <ele>185.84</ele>
        <time>2019-01-13T08:27:45.000Z</time>
      </trkpt>
      <trkpt lat="46.49722" lon="0.38743">
        <ele>186.24</ele>
        <time>2019-01-13T08:27:48.000Z</time>
      </trkpt>
      <trkpt lat="46.49719" lon="0.38728">
        <ele>186.65</ele>
        <time>2019-01-13T08:27:51.000Z</time>
      </trkpt>
      <trkpt lat="46.49716" lon="0.38711">
        <ele>187.05</ele>
        <time>2019-01-13T08:27:54.000Z</time>
      </trkpt>
      <trkpt lat="46.49711" lon="0.38694">
        <ele>187.24</ele>
        <time>2019-01-13T08:27:57.000Z</time>
      </trkpt>
      <trkpt lat="46.49706" lon="0.38681">
        <ele>187.34</ele>
        <time>2019-01-13T08:28:00.000Z</time>
      </trkpt>
      <trkpt lat="46.49701" lon="0.38668">
        <ele>187.51</ele>
        <time>2019-01-13T08:28:03.000Z</time>
      </trkpt>
      <trkpt lat="46.49698" lon="0.38655">
        <ele>187.83</ele>
        <time>2019-01-13T08:28:06.000Z</time>
      </trkpt>
      <trkpt lat="46.49694" lon="0.38642">
        <ele>188.46</ele>
        <time>2019-01-13T08:28:10.000Z</time>
      </trkpt>
      <trkpt lat="46.49692" lon="0.38628">
        <ele>189.09</ele>
        <time>2019-01-13T08:28:13.000Z</time>
      </trkpt>
      <trkpt lat="46.49688" lon="0.38614">
        <ele>189.77</ele>
        <time>2019-01-13T08:28:16.000Z</time>
      </trkpt>
      <trkpt lat="46.49686" lon="0.38596">
        <ele>190.17</ele>
        <time>2019-01-13T08:28:19.000Z</time>
      </trkpt>
      <trkpt lat="46.49683" lon="0.3858">
        <ele>190.51</ele>
        <time>2019-01-13T08:28:23.000Z</time>
      </trkpt>
      <trkpt lat="46.49681" lon="0.38566">
        <ele>190.87</ele>
        <time>2019-01-13T08:28:27.000Z</time>
      </trkpt>
      <trkpt lat="46.49676" lon="0.38551">
        <ele>191.32</ele>
        <time>2019-01-13T08:28:32.000Z</time>
      </trkpt>
      <trkpt lat="46.49673" lon="0.38537">
        <ele>191.95</ele>
        <time>2019-01-13T08:28:37.000Z</time>
      </trkpt>
      <trkpt lat="46.4967" lon="0.3852">
        <ele>192.37</ele>
        <time>2019-01-13T08:28:41.000Z</time>
      </trkpt>
      <trkpt lat="46.49667" lon="0.38504">
        <ele>193</ele>
        <time>2019-01-13T08:28:46.000Z</time>
      </trkpt>
      <trkpt lat="46.49666" lon="0.38488">
        <ele>193.56</ele>
        <time>2019-01-13T08:28:50.000Z</time>
      </trkpt>
      <trkpt lat="46.49661" lon="0.38473">
        <ele>193.98</ele>
        <time>2019-01-13T08:28:54.000Z</time>
      </trkpt>
      <trkpt lat="46.49657" lon="0.38459">
        <ele>194.51</ele>
        <time>2019-01-13T08:28:59.000Z</time>
      </trkpt>
      <trkpt lat="46.49655" lon="0.38446">
        <ele>194.9</ele>
        <time>2019-01-13T08:29:03.000Z</time>
      </trkpt>
      <trkpt lat="46.49651" lon="0.38433">
        <ele>195.22</ele>
        <time>2019-01-13T08:29:07.000Z</time>
      </trkpt>
      <trkpt lat="46.49649" lon="0.3842">
        <ele>195.48</ele>
        <time>2019-01-13T08:29:10.000Z</time>
      </trkpt>
      <trkpt lat="46.49645" lon="0.38404">
        <ele>196.12</ele>
        <time>2019-01-13T08:29:15.000Z</time>
      </trkpt>
      <trkpt lat="46.49638" lon="0.38389">
        <ele>196.62</ele>
        <time>2019-01-13T08:29:19.000Z</time>
      </trkpt>
      <trkpt lat="46.49633" lon="0.38374">
        <ele>197.04</ele>
        <time>2019-01-13T08:29:23.000Z</time>
      </trkpt>
      <trkpt lat="46.49633" lon="0.38361">
        <ele>197.39</ele>
        <time>2019-01-13T08:29:27.000Z</time>
      </trkpt>
      <trkpt lat="46.49642" lon="0.38351">
        <ele>197.56</ele>
        <time>2019-01-13T08:29:31.000Z</time>
      </trkpt>
      <trkpt lat="46.49651" lon="0.38343">
        <ele>197.57</ele>
        <time>2019-01-13T08:29:34.000Z</time>
      </trkpt>
      <trkpt lat="46.49661" lon="0.38337">
        <ele>197.51</ele>
        <time>2019-01-13T08:29:36.000Z</time>
      </trkpt>
      <trkpt lat="46.4967" lon="0.38332">
        <ele>197.33</ele>
        <time>2019-01-13T08:29:38.000Z</time>
      </trkpt>
      <trkpt lat="46.49682" lon="0.38327">
        <ele>196.9</ele>
        <time>2019-01-13T08:29:41.000Z</time>
      </trkpt>
      <trkpt lat="46.49695" lon="0.38321">
        <ele>196.46</ele>
        <time>2019-01-13T08:29:44.000Z</time>
      </trkpt>
      <trkpt lat="46.49706" lon="0.38313">
        <ele>193.92</ele>
        <time>2019-01-13T08:29:47.000Z</time>
      </trkpt>
      <trkpt lat="46.49717" lon="0.38306">
        <ele>193.63</ele>
        <time>2019-01-13T08:29:50.000Z</time>
      </trkpt>
      <trkpt lat="46.49725" lon="0.38302">
        <ele>193.35</ele>
        <time>2019-01-13T08:29:53.000Z</time>
      </trkpt>
      <trkpt lat="46.49735" lon="0.38297">
        <ele>193.2</ele>
        <time>2019-01-13T08:29:56.000Z</time>
      </trkpt>
      <trkpt lat="46.49744" lon="0.38292">
        <ele>193.22</ele>
        <time>2019-01-13T08:29:59.000Z</time>
      </trkpt>
      <trkpt lat="46.49754" lon="0.38283">
        <ele>193.29</ele>
        <time>2019-01-13T08:30:03.000Z</time>
      </trkpt>
      <trkpt lat="46.49761" lon="0.38274">
        <ele>193.29</ele>
        <time>2019-01-13T08:30:05.000Z</time>
      </trkpt>
      <trkpt lat="46.49773" lon="0.38265">
        <ele>193.3</ele>
        <time>2019-01-13T08:30:08.000Z</time>
      </trkpt>
      <trkpt lat="46.49782" lon="0.38258">
        <ele>193.32</ele>
        <time>2019-01-13T08:30:11.000Z</time>
      </trkpt>
      <trkpt lat="46.49793" lon="0.3825">
        <ele>193.29</ele>
        <time>2019-01-13T08:30:14.000Z</time>
      </trkpt>
      <trkpt lat="46.49801" lon="0.38241">
        <ele>193.24</ele>
        <time>2019-01-13T08:30:17.000Z</time>
      </trkpt>
      <trkpt lat="46.49809" lon="0.38231">
        <ele>193.21</ele>
        <time>2019-01-13T08:30:20.000Z</time>
      </trkpt>
      <trkpt lat="46.49819" lon="0.38219">
        <ele>193.22</ele>
        <time>2019-01-13T08:30:23.000Z</time>
      </trkpt>
      <trkpt lat="46.49828" lon="0.38212">
        <ele>193.2</ele>
        <time>2019-01-13T08:30:26.000Z</time>
      </trkpt>
      <trkpt lat="46.49837" lon="0.38201">
        <ele>193.22</ele>
        <time>2019-01-13T08:30:29.000Z</time>
      </trkpt>
      <trkpt lat="46.49845" lon="0.3819">
        <ele>193.23</ele>
        <time>2019-01-13T08:30:32.000Z</time>
      </trkpt>
      <trkpt lat="46.49853" lon="0.38179">
        <ele>193.15</ele>
        <time>2019-01-13T08:30:35.000Z</time>
      </trkpt>
      <trkpt lat="46.49863" lon="0.38168">
        <ele>193.06</ele>
        <time>2019-01-13T08:30:38.000Z</time>
      </trkpt>
      <trkpt lat="46.49871" lon="0.38158">
        <ele>193.01</ele>
        <time>2019-01-13T08:30:41.000Z</time>
      </trkpt>
      <trkpt lat="46.4988" lon="0.38147">
        <ele>192.46</ele>
        <time>2019-01-13T08:30:44.000Z</time>
      </trkpt>
      <trkpt lat="46.49888" lon="0.38137">
        <ele>192.17</ele>
        <time>2019-01-13T08:30:46.000Z</time>
      </trkpt>
      <trkpt lat="46.49897" lon="0.38124">
        <ele>191.22</ele>
        <time>2019-01-13T08:30:49.000Z</time>
      </trkpt>
      <trkpt lat="46.49907" lon="0.38112">
        <ele>191.45</ele>
        <time>2019-01-13T08:30:52.000Z</time>
      </trkpt>
      <trkpt lat="46.49915" lon="0.38098">
        <ele>192.89</ele>
        <time>2019-01-13T08:30:55.000Z</time>
      </trkpt>
      <trkpt lat="46.49922" lon="0.3809">
        <ele>194.1</ele>
        <time>2019-01-13T08:30:57.000Z</time>
      </trkpt>
      <trkpt lat="46.4993" lon="0.38082">
        <ele>194.57</ele>
        <time>2019-01-13T08:30:59.000Z</time>
      </trkpt>
      <trkpt lat="46.49939" lon="0.38072">
        <ele>195.3</ele>
        <time>2019-01-13T08:31:02.000Z</time>
      </trkpt>
      <trkpt lat="46.49947" lon="0.38063">
        <ele>195.51</ele>
        <time>2019-01-13T08:31:04.000Z</time>
      </trkpt>
      <trkpt lat="46.49957" lon="0.38051">
        <ele>195.22</ele>
        <time>2019-01-13T08:31:07.000Z</time>
      </trkpt>
      <trkpt lat="46.49965" lon="0.38043">
        <ele>195.01</ele>
        <time>2019-01-13T08:31:09.000Z</time>
      </trkpt>
      <trkpt lat="46.49974" lon="0.38032">
        <ele>195.13</ele>
        <time>2019-01-13T08:31:12.000Z</time>
      </trkpt>
      <trkpt lat="46.49984" lon="0.38031">
        <ele>195.17</ele>
        <time>2019-01-13T08:31:15.000Z</time>
      </trkpt>
      <trkpt lat="46.49991" lon="0.38042">
        <ele>195.84</ele>
        <time>2019-01-13T08:31:18.000Z</time>
      </trkpt>
      <trkpt lat="46.5" lon="0.3805">
        <ele>196.43</ele>
        <time>2019-01-13T08:31:20.000Z</time>
      </trkpt>
      <trkpt lat="46.50009" lon="0.38056">
        <ele>196.65</ele>
        <time>2019-01-13T08:31:22.000Z</time>
      </trkpt>
      <trkpt lat="46.5002" lon="0.38061">
        <ele>196.94</ele>
        <time>2019-01-13T08:31:25.000Z</time>
      </trkpt>
      <trkpt lat="46.50028" lon="0.38069">
        <ele>196.99</ele>
        <time>2019-01-13T08:31:27.000Z</time>
      </trkpt>
      <trkpt lat="46.50036" lon="0.38078">
        <ele>196.83</ele>
        <time>2019-01-13T08:31:29.000Z</time>
      </trkpt>
      <trkpt lat="46.50044" lon="0.3809">
        <ele>196.31</ele>
        <time>2019-01-13T08:31:31.000Z</time>
      </trkpt>
      <trkpt lat="46.50053" lon="0.38101">
        <ele>195.42</ele>
        <time>2019-01-13T08:31:33.000Z</time>
      </trkpt>
      <trkpt lat="46.50064" lon="0.38112">
        <ele>195.09</ele>
        <time>2019-01-13T08:31:36.000Z</time>
      </trkpt>
      <trkpt lat="46.50074" lon="0.38116">
        <ele>194.56</ele>
        <time>2019-01-13T08:31:39.000Z</time>
      </trkpt>
      <trkpt lat="46.50083" lon="0.38122">
        <ele>193.9</ele>
        <time>2019-01-13T08:31:41.000Z</time>
      </trkpt>
      <trkpt lat="46.50092" lon="0.38127">
        <ele>193.6</ele>
        <time>2019-01-13T08:31:43.000Z</time>
      </trkpt>
      <trkpt lat="46.50102" lon="0.3813">
        <ele>193.55</ele>
        <time>2019-01-13T08:31:45.000Z</time>
      </trkpt>
      <trkpt lat="46.50111" lon="0.38133">
        <ele>193.69</ele>
        <time>2019-01-13T08:31:47.000Z</time>
      </trkpt>
      <trkpt lat="46.50122" lon="0.38142">
        <ele>193.76</ele>
        <time>2019-01-13T08:31:50.000Z</time>
      </trkpt>
      <trkpt lat="46.5013" lon="0.38153">
        <ele>193.68</ele>
        <time>2019-01-13T08:31:52.000Z</time>
      </trkpt>
      <trkpt lat="46.50139" lon="0.38166">
        <ele>193.24</ele>
        <time>2019-01-13T08:31:54.000Z</time>
      </trkpt>
      <trkpt lat="46.50147" lon="0.38173">
        <ele>193.22</ele>
        <time>2019-01-13T08:31:57.000Z</time>
      </trkpt>
      <trkpt lat="46.50156" lon="0.3818">
        <ele>193.29</ele>
        <time>2019-01-13T08:32:00.000Z</time>
      </trkpt>
      <trkpt lat="46.50167" lon="0.38188">
        <ele>193.44</ele>
        <time>2019-01-13T08:32:03.000Z</time>
      </trkpt>
      <trkpt lat="46.50177" lon="0.382">
        <ele>194.3</ele>
        <time>2019-01-13T08:32:06.000Z</time>
      </trkpt>
      <trkpt lat="46.50186" lon="0.38212">
        <ele>195.43</ele>
        <time>2019-01-13T08:32:08.000Z</time>
      </trkpt>
      <trkpt lat="46.50198" lon="0.38225">
        <ele>195.83</ele>
        <time>2019-01-13T08:32:10.000Z</time>
      </trkpt>
      <trkpt lat="46.50211" lon="0.38233">
        <ele>196.13</ele>
        <time>2019-01-13T08:32:12.000Z</time>
      </trkpt>
      <trkpt lat="46.50221" lon="0.38239">
        <ele>196.69</ele>
        <time>2019-01-13T08:32:14.000Z</time>
      </trkpt>
      <trkpt lat="46.5023" lon="0.38247">
        <ele>197.16</ele>
        <time>2019-01-13T08:32:16.000Z</time>
      </trkpt>
      <trkpt lat="46.50238" lon="0.38257">
        <ele>196.63</ele>
        <time>2019-01-13T08:32:18.000Z</time>
      </trkpt>
      <trkpt lat="46.50246" lon="0.38267">
        <ele>196.54</ele>
        <time>2019-01-13T08:32:21.000Z</time>
      </trkpt>
      <trkpt lat="46.50256" lon="0.38277">
        <ele>196.6</ele>
        <time>2019-01-13T08:32:24.000Z</time>
      </trkpt>
      <trkpt lat="46.50266" lon="0.38284">
        <ele>196.74</ele>
        <time>2019-01-13T08:32:27.000Z</time>
      </trkpt>
      <trkpt lat="46.50277" lon="0.38289">
        <ele>196.95</ele>
        <time>2019-01-13T08:32:30.000Z</time>
      </trkpt>
      <trkpt lat="46.50286" lon="0.38295">
        <ele>197.15</ele>
        <time>2019-01-13T08:32:33.000Z</time>
      </trkpt>
      <trkpt lat="46.50296" lon="0.38303">
        <ele>197.32</ele>
        <time>2019-01-13T08:32:36.000Z</time>
      </trkpt>
      <trkpt lat="46.50304" lon="0.3831">
        <ele>197.4</ele>
        <time>2019-01-13T08:32:38.000Z</time>
      </trkpt>
      <trkpt lat="46.50316" lon="0.3832">
        <ele>197.42</ele>
        <time>2019-01-13T08:32:41.000Z</time>
      </trkpt>
      <trkpt lat="46.50326" lon="0.38325">
        <ele>197.37</ele>
        <time>2019-01-13T08:32:44.000Z</time>
      </trkpt>
      <trkpt lat="46.50328" lon="0.38311">
        <ele>197.36</ele>
        <time>2019-01-13T08:32:51.000Z</time>
      </trkpt>
      <trkpt lat="46.50318" lon="0.383">
        <ele>198.14</ele>
        <time>2019-01-13T08:32:54.000Z</time>
      </trkpt>
      <trkpt lat="46.5031" lon="0.38294">
        <ele>198.85</ele>
        <time>2019-01-13T08:32:56.000Z</time>
      </trkpt>
      <trkpt lat="46.50299" lon="0.38284">
        <ele>199.76</ele>
        <time>2019-01-13T08:32:58.000Z</time>
      </trkpt>
      <trkpt lat="46.50291" lon="0.38275">
        <ele>200.92</ele>
        <time>2019-01-13T08:33:00.000Z</time>
      </trkpt>
      <trkpt lat="46.50283" lon="0.38265">
        <ele>201.9</ele>
        <time>2019-01-13T08:33:02.000Z</time>
      </trkpt>
      <trkpt lat="46.50274" lon="0.38255">
        <ele>202.25</ele>
        <time>2019-01-13T08:33:04.000Z</time>
      </trkpt>
      <trkpt lat="46.50268" lon="0.38246">
        <ele>203.08</ele>
        <time>2019-01-13T08:33:06.000Z</time>
      </trkpt>
      <trkpt lat="46.50262" lon="0.38234">
        <ele>203.58</ele>
        <time>2019-01-13T08:33:08.000Z</time>
      </trkpt>
      <trkpt lat="46.50256" lon="0.38223">
        <ele>204.17</ele>
        <time>2019-01-13T08:33:10.000Z</time>
      </trkpt>
      <trkpt lat="46.50249" lon="0.38211">
        <ele>205.18</ele>
        <time>2019-01-13T08:33:12.000Z</time>
      </trkpt>
      <trkpt lat="46.50243" lon="0.382">
        <ele>205.76</ele>
        <time>2019-01-13T08:33:14.000Z</time>
      </trkpt>
      <trkpt lat="46.50235" lon="0.38189">
        <ele>205.79</ele>
        <time>2019-01-13T08:33:17.000Z</time>
      </trkpt>
      <trkpt lat="46.50225" lon="0.38178">
        <ele>205.67</ele>
        <time>2019-01-13T08:33:20.000Z</time>
      </trkpt>
      <trkpt lat="46.50226" lon="0.38165">
        <ele>205.66</ele>
        <time>2019-01-13T08:33:24.000Z</time>
      </trkpt>
      <trkpt lat="46.50235" lon="0.38149">
        <ele>205.63</ele>
        <time>2019-01-13T08:33:27.000Z</time>
      </trkpt>
      <trkpt lat="46.50242" lon="0.38135">
        <ele>205.54</ele>
        <time>2019-01-13T08:33:30.000Z</time>
      </trkpt>
      <trkpt lat="46.5025" lon="0.38128">
        <ele>205.51</ele>
        <time>2019-01-13T08:33:32.000Z</time>
      </trkpt>
      <trkpt lat="46.50259" lon="0.38121">
        <ele>205.44</ele>
        <time>2019-01-13T08:33:34.000Z</time>
      </trkpt>
      <trkpt lat="46.50268" lon="0.38119">
        <ele>205.37</ele>
        <time>2019-01-13T08:33:36.000Z</time>
      </trkpt>
      <trkpt lat="46.50277" lon="0.38117">
        <ele>205.21</ele>
        <time>2019-01-13T08:33:38.000Z</time>
      </trkpt>
      <trkpt lat="46.50287" lon="0.38114">
        <ele>204.97</ele>
        <time>2019-01-13T08:33:40.000Z</time>
      </trkpt>
      <trkpt lat="46.50297" lon="0.38114">
        <ele>201.85</ele>
        <time>2019-01-13T08:33:42.000Z</time>
      </trkpt>
      <trkpt lat="46.50306" lon="0.38112">
        <ele>200.62</ele>
        <time>2019-01-13T08:33:44.000Z</time>
      </trkpt>
      <trkpt lat="46.50316" lon="0.38102">
        <ele>199.69</ele>
        <time>2019-01-13T08:33:47.000Z</time>
      </trkpt>
      <trkpt lat="46.50323" lon="0.3809">
        <ele>199.16</ele>
        <time>2019-01-13T08:33:50.000Z</time>
      </trkpt>
      <trkpt lat="46.50332" lon="0.38082">
        <ele>198.52</ele>
        <time>2019-01-13T08:33:52.000Z</time>
      </trkpt>
      <trkpt lat="46.50341" lon="0.38074">
        <ele>198.16</ele>
        <time>2019-01-13T08:33:54.000Z</time>
      </trkpt>
      <trkpt lat="46.50348" lon="0.38065">
        <ele>198.15</ele>
        <time>2019-01-13T08:33:56.000Z</time>
      </trkpt>
      <trkpt lat="46.50356" lon="0.38051">
        <ele>198.12</ele>
        <time>2019-01-13T08:33:59.000Z</time>
      </trkpt>
      <trkpt lat="46.50362" lon="0.38041">
        <ele>198.22</ele>
        <time>2019-01-13T08:34:01.000Z</time>
      </trkpt>
      <trkpt lat="46.5037" lon="0.38031">
        <ele>198.49</ele>
        <time>2019-01-13T08:34:04.000Z</time>
      </trkpt>
      <trkpt lat="46.50365" lon="0.38018">
        <ele>199.74</ele>
        <time>2019-01-13T08:34:08.000Z</time>
      </trkpt>
      <trkpt lat="46.50357" lon="0.38009">
        <ele>199.93</ele>
        <time>2019-01-13T08:34:10.000Z</time>
      </trkpt>
      <trkpt lat="46.50349" lon="0.38002">
        <ele>200.09</ele>
        <time>2019-01-13T08:34:12.000Z</time>
      </trkpt>
      <trkpt lat="46.50341" lon="0.37995">
        <ele>199.74</ele>
        <time>2019-01-13T08:34:14.000Z</time>
      </trkpt>
      <trkpt lat="46.50328" lon="0.37984">
        <ele>198.26</ele>
        <time>2019-01-13T08:34:17.000Z</time>
      </trkpt>
      <trkpt lat="46.50319" lon="0.37977">
        <ele>197.6</ele>
        <time>2019-01-13T08:34:19.000Z</time>
      </trkpt>
      <trkpt lat="46.5031" lon="0.37969">
        <ele>197.16</ele>
        <time>2019-01-13T08:34:21.000Z</time>
      </trkpt>
      <trkpt lat="46.50301" lon="0.37964">
        <ele>196.57</ele>
        <time>2019-01-13T08:34:23.000Z</time>
      </trkpt>
      <trkpt lat="46.50289" lon="0.37955">
        <ele>196.75</ele>
        <time>2019-01-13T08:34:26.000Z</time>
      </trkpt>
      <trkpt lat="46.5028" lon="0.37947">
        <ele>196.97</ele>
        <time>2019-01-13T08:34:28.000Z</time>
      </trkpt>
      <trkpt lat="46.50272" lon="0.3794">
        <ele>197</ele>
        <time>2019-01-13T08:34:31.000Z</time>
      </trkpt>
      <trkpt lat="46.50263" lon="0.37935">
        <ele>196.99</ele>
        <time>2019-01-13T08:34:33.000Z</time>
      </trkpt>
      <trkpt lat="46.50253" lon="0.37929">
        <ele>196.45</ele>
        <time>2019-01-13T08:34:35.000Z</time>
      </trkpt>
      <trkpt lat="46.50244" lon="0.37923">
        <ele>195.69</ele>
        <time>2019-01-13T08:34:37.000Z</time>
      </trkpt>
      <trkpt lat="46.50235" lon="0.37914">
        <ele>194.56</ele>
        <time>2019-01-13T08:34:39.000Z</time>
      </trkpt>
      <trkpt lat="46.50227" lon="0.37908">
        <ele>193.98</ele>
        <time>2019-01-13T08:34:41.000Z</time>
      </trkpt>
      <trkpt lat="46.50219" lon="0.37902">
        <ele>194.02</ele>
        <time>2019-01-13T08:34:43.000Z</time>
      </trkpt>
      <trkpt lat="46.50209" lon="0.37891">
        <ele>194.12</ele>
        <time>2019-01-13T08:34:46.000Z</time>
      </trkpt>
      <trkpt lat="46.502" lon="0.37883">
        <ele>194.35</ele>
        <time>2019-01-13T08:34:48.000Z</time>
      </trkpt>
      <trkpt lat="46.50189" lon="0.37875">
        <ele>195.11</ele>
        <time>2019-01-13T08:34:50.000Z</time>
      </trkpt>
      <trkpt lat="46.50181" lon="0.37868">
        <ele>196.06</ele>
        <time>2019-01-13T08:34:52.000Z</time>
      </trkpt>
      <trkpt lat="46.50171" lon="0.37861">
        <ele>196.16</ele>
        <time>2019-01-13T08:34:55.000Z</time>
      </trkpt>
      <trkpt lat="46.5016" lon="0.37854">
        <ele>196.34</ele>
        <time>2019-01-13T08:34:58.000Z</time>
      </trkpt>
      <trkpt lat="46.50152" lon="0.37846">
        <ele>197.09</ele>
        <time>2019-01-13T08:35:00.000Z</time>
      </trkpt>
      <trkpt lat="46.50142" lon="0.37838">
        <ele>197.09</ele>
        <time>2019-01-13T08:35:02.000Z</time>
      </trkpt>
      <trkpt lat="46.50132" lon="0.37828">
        <ele>196.15</ele>
        <time>2019-01-13T08:35:04.000Z</time>
      </trkpt>
      <trkpt lat="46.50123" lon="0.3782">
        <ele>195.4</ele>
        <time>2019-01-13T08:35:06.000Z</time>
      </trkpt>
      <trkpt lat="46.50114" lon="0.37812">
        <ele>195.14</ele>
        <time>2019-01-13T08:35:08.000Z</time>
      </trkpt>
      <trkpt lat="46.50106" lon="0.37803">
        <ele>195.33</ele>
        <time>2019-01-13T08:35:10.000Z</time>
      </trkpt>
      <trkpt lat="46.50098" lon="0.37795">
        <ele>195.2</ele>
        <time>2019-01-13T08:35:12.000Z</time>
      </trkpt>
      <trkpt lat="46.50089" lon="0.37784">
        <ele>194.65</ele>
        <time>2019-01-13T08:35:14.000Z</time>
      </trkpt>
      <trkpt lat="46.5008" lon="0.37774">
        <ele>194.23</ele>
        <time>2019-01-13T08:35:16.000Z</time>
      </trkpt>
      <trkpt lat="46.50071" lon="0.37764">
        <ele>194.14</ele>
        <time>2019-01-13T08:35:18.000Z</time>
      </trkpt>
      <trkpt lat="46.50062" lon="0.37755">
        <ele>193.97</ele>
        <time>2019-01-13T08:35:20.000Z</time>
      </trkpt>
      <trkpt lat="46.50055" lon="0.37745">
        <ele>193.6</ele>
        <time>2019-01-13T08:35:22.000Z</time>
      </trkpt>
      <trkpt lat="46.50045" lon="0.37737">
        <ele>193.34</ele>
        <time>2019-01-13T08:35:24.000Z</time>
      </trkpt>
      <trkpt lat="46.50036" lon="0.37725">
        <ele>193.64</ele>
        <time>2019-01-13T08:35:27.000Z</time>
      </trkpt>
      <trkpt lat="46.50028" lon="0.37717">
        <ele>194.02</ele>
        <time>2019-01-13T08:35:29.000Z</time>
      </trkpt>
      <trkpt lat="46.5002" lon="0.3771">
        <ele>194.73</ele>
        <time>2019-01-13T08:35:31.000Z</time>
      </trkpt>
      <trkpt lat="46.5001" lon="0.377">
        <ele>195.78</ele>
        <time>2019-01-13T08:35:34.000Z</time>
      </trkpt>
      <trkpt lat="46.5" lon="0.37693">
        <ele>196.03</ele>
        <time>2019-01-13T08:35:36.000Z</time>
      </trkpt>
      <trkpt lat="46.49991" lon="0.37684">
        <ele>196.36</ele>
        <time>2019-01-13T08:35:38.000Z</time>
      </trkpt>
      <trkpt lat="46.49982" lon="0.37678">
        <ele>196.31</ele>
        <time>2019-01-13T08:35:40.000Z</time>
      </trkpt>
      <trkpt lat="46.49974" lon="0.37671">
        <ele>196.07</ele>
        <time>2019-01-13T08:35:42.000Z</time>
      </trkpt>
      <trkpt lat="46.49966" lon="0.37662">
        <ele>195.83</ele>
        <time>2019-01-13T08:35:44.000Z</time>
      </trkpt>
      <trkpt lat="46.49957" lon="0.37654">
        <ele>195.47</ele>
        <time>2019-01-13T08:35:46.000Z</time>
      </trkpt>
      <trkpt lat="46.49949" lon="0.37646">
        <ele>195.04</ele>
        <time>2019-01-13T08:35:48.000Z</time>
      </trkpt>
      <trkpt lat="46.49941" lon="0.37638">
        <ele>195.29</ele>
        <time>2019-01-13T08:35:50.000Z</time>
      </trkpt>
      <trkpt lat="46.49933" lon="0.3763">
        <ele>195.23</ele>
        <time>2019-01-13T08:35:52.000Z</time>
      </trkpt>
      <trkpt lat="46.49922" lon="0.37621">
        <ele>195.07</ele>
        <time>2019-01-13T08:35:55.000Z</time>
      </trkpt>
      <trkpt lat="46.49914" lon="0.37612">
        <ele>194.75</ele>
        <time>2019-01-13T08:35:58.000Z</time>
      </trkpt>
      <trkpt lat="46.49905" lon="0.37617">
        <ele>194.42</ele>
        <time>2019-01-13T08:36:01.000Z</time>
      </trkpt>
      <trkpt lat="46.49896" lon="0.37631">
        <ele>191.88</ele>
        <time>2019-01-13T08:36:04.000Z</time>
      </trkpt>
      <trkpt lat="46.49887" lon="0.37642">
        <ele>190.67</ele>
        <time>2019-01-13T08:36:07.000Z</time>
      </trkpt>
      <trkpt lat="46.4988" lon="0.37652">
        <ele>190.82</ele>
        <time>2019-01-13T08:36:09.000Z</time>
      </trkpt>
      <trkpt lat="46.49873" lon="0.37663">
        <ele>191.17</ele>
        <time>2019-01-13T08:36:11.000Z</time>
      </trkpt>
      <trkpt lat="46.49865" lon="0.37676">
        <ele>191.74</ele>
        <time>2019-01-13T08:36:14.000Z</time>
      </trkpt>
      <trkpt lat="46.49858" lon="0.37689">
        <ele>191.71</ele>
        <time>2019-01-13T08:36:17.000Z</time>
      </trkpt>
      <trkpt lat="46.49852" lon="0.37701">
        <ele>191.44</ele>
        <time>2019-01-13T08:36:19.000Z</time>
      </trkpt>
      <trkpt lat="46.49847" lon="0.37711">
        <ele>191.24</ele>
        <time>2019-01-13T08:36:21.000Z</time>
      </trkpt>
      <trkpt lat="46.49841" lon="0.37722">
        <ele>191.25</ele>
        <time>2019-01-13T08:36:23.000Z</time>
      </trkpt>
      <trkpt lat="46.49835" lon="0.37733">
        <ele>191.32</ele>
        <time>2019-01-13T08:36:26.000Z</time>
      </trkpt>
      <trkpt lat="46.49825" lon="0.37724">
        <ele>191.48</ele>
        <time>2019-01-13T08:36:30.000Z</time>
      </trkpt>
      <trkpt lat="46.49818" lon="0.37716">
        <ele>191.71</ele>
        <time>2019-01-13T08:36:32.000Z</time>
      </trkpt>
      <trkpt lat="46.49807" lon="0.37704">
        <ele>192.16</ele>
        <time>2019-01-13T08:36:35.000Z</time>
      </trkpt>
      <trkpt lat="46.49797" lon="0.37696">
        <ele>194.17</ele>
        <time>2019-01-13T08:36:37.000Z</time>
      </trkpt>
      <trkpt lat="46.49787" lon="0.37687">
        <ele>196.05</ele>
        <time>2019-01-13T08:36:40.000Z</time>
      </trkpt>
      <trkpt lat="46.49776" lon="0.37683">
        <ele>197.01</ele>
        <time>2019-01-13T08:36:43.000Z</time>
      </trkpt>
      <trkpt lat="46.49764" lon="0.3768">
        <ele>197.85</ele>
        <time>2019-01-13T08:36:46.000Z</time>
      </trkpt>
      <trkpt lat="46.49752" lon="0.37676">
        <ele>197.97</ele>
        <time>2019-01-13T08:36:49.000Z</time>
      </trkpt>
      <trkpt lat="46.49742" lon="0.3767">
        <ele>198.09</ele>
        <time>2019-01-13T08:36:52.000Z</time>
      </trkpt>
      <trkpt lat="46.49733" lon="0.37659">
        <ele>198.47</ele>
        <time>2019-01-13T08:36:54.000Z</time>
      </trkpt>
      <trkpt lat="46.49721" lon="0.37652">
        <ele>198.25</ele>
        <time>2019-01-13T08:36:56.000Z</time>
      </trkpt>
      <trkpt lat="46.49709" lon="0.37644">
        <ele>197.21</ele>
        <time>2019-01-13T08:36:58.000Z</time>
      </trkpt>
      <trkpt lat="46.49698" lon="0.37635">
        <ele>195.92</ele>
        <time>2019-01-13T08:37:00.000Z</time>
      </trkpt>
      <trkpt lat="46.49688" lon="0.37629">
        <ele>194.86</ele>
        <time>2019-01-13T08:37:02.000Z</time>
      </trkpt>
      <trkpt lat="46.4968" lon="0.37619">
        <ele>194.63</ele>
        <time>2019-01-13T08:37:05.000Z</time>
      </trkpt>
      <trkpt lat="46.4968" lon="0.37604">
        <ele>194.97</ele>
        <time>2019-01-13T08:37:10.000Z</time>
      </trkpt>
      <trkpt lat="46.49685" lon="0.37592">
        <ele>195.5</ele>
        <time>2019-01-13T08:37:13.000Z</time>
      </trkpt>
      <trkpt lat="46.49687" lon="0.37577">
        <ele>195.9</ele>
        <time>2019-01-13T08:37:15.000Z</time>
      </trkpt>
      <trkpt lat="46.4969" lon="0.37564">
        <ele>198.05</ele>
        <time>2019-01-13T08:37:17.000Z</time>
      </trkpt>
      <trkpt lat="46.49693" lon="0.3755">
        <ele>199.75</ele>
        <time>2019-01-13T08:37:19.000Z</time>
      </trkpt>
      <trkpt lat="46.49694" lon="0.37535">
        <ele>200.18</ele>
        <time>2019-01-13T08:37:22.000Z</time>
      </trkpt>
      <trkpt lat="46.49701" lon="0.3752">
        <ele>200.59</ele>
        <time>2019-01-13T08:37:25.000Z</time>
      </trkpt>
      <trkpt lat="46.49709" lon="0.37506">
        <ele>202.89</ele>
        <time>2019-01-13T08:37:28.000Z</time>
      </trkpt>
      <trkpt lat="46.49716" lon="0.37494">
        <ele>203.01</ele>
        <time>2019-01-13T08:37:30.000Z</time>
      </trkpt>
      <trkpt lat="46.49723" lon="0.37481">
        <ele>203.15</ele>
        <time>2019-01-13T08:37:32.000Z</time>
      </trkpt>
      <trkpt lat="46.49731" lon="0.37467">
        <ele>203.25</ele>
        <time>2019-01-13T08:37:34.000Z</time>
      </trkpt>
      <trkpt lat="46.49738" lon="0.37453">
        <ele>203.31</ele>
        <time>2019-01-13T08:37:37.000Z</time>
      </trkpt>
      <trkpt lat="46.49744" lon="0.3744">
        <ele>203.25</ele>
        <time>2019-01-13T08:37:40.000Z</time>
      </trkpt>
      <trkpt lat="46.49746" lon="0.37421">
        <ele>203.12</ele>
        <time>2019-01-13T08:37:44.000Z</time>
      </trkpt>
      <trkpt lat="46.49749" lon="0.37401">
        <ele>203.05</ele>
        <time>2019-01-13T08:37:47.000Z</time>
      </trkpt>
      <trkpt lat="46.49752" lon="0.37384">
        <ele>202.86</ele>
        <time>2019-01-13T08:37:50.000Z</time>
      </trkpt>
      <trkpt lat="46.49753" lon="0.37371">
        <ele>202.64</ele>
        <time>2019-01-13T08:37:52.000Z</time>
      </trkpt>
      <trkpt lat="46.49757" lon="0.37356">
        <ele>202.23</ele>
        <time>2019-01-13T08:37:55.000Z</time>
      </trkpt>
      <trkpt lat="46.49761" lon="0.37342">
        <ele>201.78</ele>
        <time>2019-01-13T08:37:59.000Z</time>
      </trkpt>
      <trkpt lat="46.4977" lon="0.3733">
        <ele>201.54</ele>
        <time>2019-01-13T08:38:03.000Z</time>
      </trkpt>
      <trkpt lat="46.4978" lon="0.37323">
        <ele>201.4</ele>
        <time>2019-01-13T08:38:06.000Z</time>
      </trkpt>
      <trkpt lat="46.49789" lon="0.37318">
        <ele>201.3</ele>
        <time>2019-01-13T08:38:09.000Z</time>
      </trkpt>
      <trkpt lat="46.49799" lon="0.37325">
        <ele>201.2</ele>
        <time>2019-01-13T08:38:13.000Z</time>
      </trkpt>
      <trkpt lat="46.49805" lon="0.37336">
        <ele>201.23</ele>
        <time>2019-01-13T08:38:16.000Z</time>
      </trkpt>
      <trkpt lat="46.49815" lon="0.37341">
        <ele>201.4</ele>
        <time>2019-01-13T08:38:19.000Z</time>
      </trkpt>
      <trkpt lat="46.49826" lon="0.37348">
        <ele>201.69</ele>
        <time>2019-01-13T08:38:22.000Z</time>
      </trkpt>
      <trkpt lat="46.49836" lon="0.37353">
        <ele>201.94</ele>
        <time>2019-01-13T08:38:25.000Z</time>
      </trkpt>
      <trkpt lat="46.49844" lon="0.37348">
        <ele>202.39</ele>
        <time>2019-01-13T08:38:36.000Z</time>
      </trkpt>
      <trkpt lat="46.49854" lon="0.37338">
        <ele>202.55</ele>
        <time>2019-01-13T08:38:39.000Z</time>
      </trkpt>
      <trkpt lat="46.49864" lon="0.37326">
        <ele>202.64</ele>
        <time>2019-01-13T08:38:42.000Z</time>
      </trkpt>
      <trkpt lat="46.49873" lon="0.37316">
        <ele>202.73</ele>
        <time>2019-01-13T08:38:45.000Z</time>
      </trkpt>
      <trkpt lat="46.49881" lon="0.37308">
        <ele>202.79</ele>
        <time>2019-01-13T08:38:48.000Z</time>
      </trkpt>
      <trkpt lat="46.49889" lon="0.37298">
        <ele>202.88</ele>
        <time>2019-01-13T08:38:51.000Z</time>
      </trkpt>
      <trkpt lat="46.49896" lon="0.37288">
        <ele>203.02</ele>
        <time>2019-01-13T08:38:54.000Z</time>
      </trkpt>
      <trkpt lat="46.49901" lon="0.37278">
        <ele>203.13</ele>
        <time>2019-01-13T08:38:56.000Z</time>
      </trkpt>
      <trkpt lat="46.49896" lon="0.37263">
        <ele>203.52</ele>
        <time>2019-01-13T08:39:01.000Z</time>
      </trkpt>
      <trkpt lat="46.49885" lon="0.37255">
        <ele>204.65</ele>
        <time>2019-01-13T08:39:04.000Z</time>
      </trkpt>
      <trkpt lat="46.49876" lon="0.37244">
        <ele>205.47</ele>
        <time>2019-01-13T08:39:07.000Z</time>
      </trkpt>
      <trkpt lat="46.49869" lon="0.37233">
        <ele>205.84</ele>
        <time>2019-01-13T08:39:10.000Z</time>
      </trkpt>
      <trkpt lat="46.4986" lon="0.37226">
        <ele>206.24</ele>
        <time>2019-01-13T08:39:13.000Z</time>
      </trkpt>
      <trkpt lat="46.49853" lon="0.37217">
        <ele>206.72</ele>
        <time>2019-01-13T08:39:16.000Z</time>
      </trkpt>
      <trkpt lat="46.49859" lon="0.37205">
        <ele>207.45</ele>
        <time>2019-01-13T08:39:22.000Z</time>
      </trkpt>
      <trkpt lat="46.49868" lon="0.37195">
        <ele>207.62</ele>
        <time>2019-01-13T08:39:25.000Z</time>
      </trkpt>
      <trkpt lat="46.49873" lon="0.37181">
        <ele>207.79</ele>
        <time>2019-01-13T08:39:28.000Z</time>
      </trkpt>
      <trkpt lat="46.49881" lon="0.37169">
        <ele>207.92</ele>
        <time>2019-01-13T08:39:31.000Z</time>
      </trkpt>
      <trkpt lat="46.49891" lon="0.37158">
        <ele>208.01</ele>
        <time>2019-01-13T08:39:34.000Z</time>
      </trkpt>
      <trkpt lat="46.49891" lon="0.37142">
        <ele>208.07</ele>
        <time>2019-01-13T08:39:37.000Z</time>
      </trkpt>
      <trkpt lat="46.49894" lon="0.37127">
        <ele>208.11</ele>
        <time>2019-01-13T08:39:40.000Z</time>
      </trkpt>
      <trkpt lat="46.49899" lon="0.37116">
        <ele>208.11</ele>
        <time>2019-01-13T08:39:43.000Z</time>
      </trkpt>
      <trkpt lat="46.49911" lon="0.37107">
        <ele>207.85</ele>
        <time>2019-01-13T08:39:47.000Z</time>
      </trkpt>
      <trkpt lat="46.4992" lon="0.37103">
        <ele>207.56</ele>
        <time>2019-01-13T08:39:49.000Z</time>
      </trkpt>
      <trkpt lat="46.49927" lon="0.37092">
        <ele>207.12</ele>
        <time>2019-01-13T08:39:53.000Z</time>
      </trkpt>
      <trkpt lat="46.49931" lon="0.37077">
        <ele>206.75</ele>
        <time>2019-01-13T08:39:57.000Z</time>
      </trkpt>
      <trkpt lat="46.49938" lon="0.3707">
        <ele>206.68</ele>
        <time>2019-01-13T08:40:02.000Z</time>
      </trkpt>
      <trkpt lat="46.49949" lon="0.37069">
        <ele>206.87</ele>
        <time>2019-01-13T08:40:10.000Z</time>
      </trkpt>
      <trkpt lat="46.49958" lon="0.37061">
        <ele>206.82</ele>
        <time>2019-01-13T08:40:16.000Z</time>
      </trkpt>
      <trkpt lat="46.49966" lon="0.37052">
        <ele>206.96</ele>
        <time>2019-01-13T08:40:22.000Z</time>
      </trkpt>
      <trkpt lat="46.49976" lon="0.37048">
        <ele>207.06</ele>
        <time>2019-01-13T08:40:26.000Z</time>
      </trkpt>
      <trkpt lat="46.49985" lon="0.37049">
        <ele>207.06</ele>
        <time>2019-01-13T08:40:29.000Z</time>
      </trkpt>
      <trkpt lat="46.49995" lon="0.37053">
        <ele>206.99</ele>
        <time>2019-01-13T08:40:32.000Z</time>
      </trkpt>
      <trkpt lat="46.50003" lon="0.3706">
        <ele>206.88</ele>
        <time>2019-01-13T08:40:36.000Z</time>
      </trkpt>
      <trkpt lat="46.50011" lon="0.37051">
        <ele>206.54</ele>
        <time>2019-01-13T08:40:42.000Z</time>
      </trkpt>
      <trkpt lat="46.50022" lon="0.37047">
        <ele>206.19</ele>
        <time>2019-01-13T08:40:46.000Z</time>
      </trkpt>
      <trkpt lat="46.50031" lon="0.37048">
        <ele>205.77</ele>
        <time>2019-01-13T08:40:50.000Z</time>
      </trkpt>
      <trkpt lat="46.50037" lon="0.37061">
        <ele>205.56</ele>
        <time>2019-01-13T08:40:55.000Z</time>
      </trkpt>
      <trkpt lat="46.50044" lon="0.37073">
        <ele>205.54</ele>
        <time>2019-01-13T08:40:57.000Z</time>
      </trkpt>
      <trkpt lat="46.50053" lon="0.37081">
        <ele>205.51</ele>
        <time>2019-01-13T08:41:01.000Z</time>
      </trkpt>
      <trkpt lat="46.50063" lon="0.37085">
        <ele>205.43</ele>
        <time>2019-01-13T08:41:04.000Z</time>
      </trkpt>
      <trkpt lat="46.50071" lon="0.371">
        <ele>205.15</ele>
        <time>2019-01-13T08:41:08.000Z</time>
      </trkpt>
      <trkpt lat="46.50077" lon="0.37109">
        <ele>205.04</ele>
        <time>2019-01-13T08:41:11.000Z</time>
      </trkpt>
      <trkpt lat="46.50087" lon="0.37111">
        <ele>204.9</ele>
        <time>2019-01-13T08:41:13.000Z</time>
      </trkpt>
      <trkpt lat="46.50096" lon="0.37113">
        <ele>204.62</ele>
        <time>2019-01-13T08:41:15.000Z</time>
      </trkpt>
      <trkpt lat="46.50104" lon="0.37101">
        <ele>203.99</ele>
        <time>2019-01-13T08:41:19.000Z</time>
      </trkpt>
      <trkpt lat="46.50108" lon="0.37089">
        <ele>203.68</ele>
        <time>2019-01-13T08:41:21.000Z</time>
      </trkpt>
      <trkpt lat="46.50113" lon="0.37071">
        <ele>203.27</ele>
        <time>2019-01-13T08:41:24.000Z</time>
      </trkpt>
      <trkpt lat="46.50119" lon="0.37061">
        <ele>202.96</ele>
        <time>2019-01-13T08:41:26.000Z</time>
      </trkpt>
      <trkpt lat="46.50131" lon="0.37063">
        <ele>202.53</ele>
        <time>2019-01-13T08:41:29.000Z</time>
      </trkpt>
      <trkpt lat="46.50141" lon="0.37066">
        <ele>200.82</ele>
        <time>2019-01-13T08:41:31.000Z</time>
      </trkpt>
      <trkpt lat="46.5015" lon="0.37071">
        <ele>198.29</ele>
        <time>2019-01-13T08:41:33.000Z</time>
      </trkpt>
      <trkpt lat="46.50159" lon="0.37074">
        <ele>198.13</ele>
        <time>2019-01-13T08:41:35.000Z</time>
      </trkpt>
      <trkpt lat="46.5017" lon="0.37083">
        <ele>197.94</ele>
        <time>2019-01-13T08:41:38.000Z</time>
      </trkpt>
      <trkpt lat="46.5018" lon="0.37086">
        <ele>197.72</ele>
        <time>2019-01-13T08:41:41.000Z</time>
      </trkpt>
      <trkpt lat="46.50182" lon="0.37071">
        <ele>197.59</ele>
        <time>2019-01-13T08:41:46.000Z</time>
      </trkpt>
      <trkpt lat="46.50179" lon="0.37056">
        <ele>197.73</ele>
        <time>2019-01-13T08:41:49.000Z</time>
      </trkpt>
      <trkpt lat="46.50176" lon="0.37038">
        <ele>198.75</ele>
        <time>2019-01-13T08:41:52.000Z</time>
      </trkpt>
      <trkpt lat="46.50172" lon="0.37022">
        <ele>200.74</ele>
        <time>2019-01-13T08:41:55.000Z</time>
      </trkpt>
      <trkpt lat="46.50168" lon="0.37003">
        <ele>202.62</ele>
        <time>2019-01-13T08:41:58.000Z</time>
      </trkpt>
      <trkpt lat="46.50165" lon="0.36989">
        <ele>202.63</ele>
        <time>2019-01-13T08:42:00.000Z</time>
      </trkpt>
      <trkpt lat="46.50163" lon="0.36969">
        <ele>202.65</ele>
        <time>2019-01-13T08:42:03.000Z</time>
      </trkpt>
      <trkpt lat="46.50163" lon="0.36954">
        <ele>202.36</ele>
        <time>2019-01-13T08:42:05.000Z</time>
      </trkpt>
      <trkpt lat="46.5016" lon="0.36935">
        <ele>202</ele>
        <time>2019-01-13T08:42:08.000Z</time>
      </trkpt>
      <trkpt lat="46.50159" lon="0.36922">
        <ele>201.65</ele>
        <time>2019-01-13T08:42:10.000Z</time>
      </trkpt>
      <trkpt lat="46.50157" lon="0.36908">
        <ele>201.36</ele>
        <time>2019-01-13T08:42:12.000Z</time>
      </trkpt>
      <trkpt lat="46.50156" lon="0.36892">
        <ele>201.33</ele>
        <time>2019-01-13T08:42:15.000Z</time>
      </trkpt>
      <trkpt lat="46.50159" lon="0.36878">
        <ele>201.3</ele>
        <time>2019-01-13T08:42:18.000Z</time>
      </trkpt>
      <trkpt lat="46.50168" lon="0.36872">
        <ele>201.22</ele>
        <time>2019-01-13T08:42:21.000Z</time>
      </trkpt>
      <trkpt lat="46.50176" lon="0.36863">
        <ele>200.96</ele>
        <time>2019-01-13T08:42:25.000Z</time>
      </trkpt>
      <trkpt lat="46.50184" lon="0.36856">
        <ele>200.7</ele>
        <time>2019-01-13T08:42:28.000Z</time>
      </trkpt>
      <trkpt lat="46.50196" lon="0.3685">
        <ele>200.29</ele>
        <time>2019-01-13T08:42:32.000Z</time>
      </trkpt>
      <trkpt lat="46.50206" lon="0.36846">
        <ele>199</ele>
        <time>2019-01-13T08:42:34.000Z</time>
      </trkpt>
      <trkpt lat="46.50217" lon="0.36839">
        <ele>198.73</ele>
        <time>2019-01-13T08:42:37.000Z</time>
      </trkpt>
      <trkpt lat="46.50227" lon="0.36834">
        <ele>198.37</ele>
        <time>2019-01-13T08:42:40.000Z</time>
      </trkpt>
      <trkpt lat="46.50239" lon="0.36831">
        <ele>197.97</ele>
        <time>2019-01-13T08:42:43.000Z</time>
      </trkpt>
      <trkpt lat="46.50248" lon="0.36827">
        <ele>197.75</ele>
        <time>2019-01-13T08:42:45.000Z</time>
      </trkpt>
      <trkpt lat="46.50259" lon="0.36833">
        <ele>197.45</ele>
        <time>2019-01-13T08:42:49.000Z</time>
      </trkpt>
      <trkpt lat="46.50269" lon="0.3684">
        <ele>197.56</ele>
        <time>2019-01-13T08:42:52.000Z</time>
      </trkpt>
      <trkpt lat="46.50274" lon="0.36827">
        <ele>198.33</ele>
        <time>2019-01-13T08:42:58.000Z</time>
      </trkpt>
      <trkpt lat="46.50276" lon="0.36813">
        <ele>198.76</ele>
        <time>2019-01-13T08:43:01.000Z</time>
      </trkpt>
      <trkpt lat="46.50281" lon="0.368">
        <ele>199.07</ele>
        <time>2019-01-13T08:43:03.000Z</time>
      </trkpt>
      <trkpt lat="46.50292" lon="0.36795">
        <ele>199.36</ele>
        <time>2019-01-13T08:43:05.000Z</time>
      </trkpt>
      <trkpt lat="46.50301" lon="0.36788">
        <ele>199.56</ele>
        <time>2019-01-13T08:43:07.000Z</time>
      </trkpt>
      <trkpt lat="46.50314" lon="0.36784">
        <ele>199.66</ele>
        <time>2019-01-13T08:43:10.000Z</time>
      </trkpt>
      <trkpt lat="46.50326" lon="0.36784">
        <ele>199.75</ele>
        <time>2019-01-13T08:43:12.000Z</time>
      </trkpt>
      <trkpt lat="46.50335" lon="0.36785">
        <ele>199.92</ele>
        <time>2019-01-13T08:43:14.000Z</time>
      </trkpt>
      <trkpt lat="46.50348" lon="0.36788">
        <ele>200.1</ele>
        <time>2019-01-13T08:43:16.000Z</time>
      </trkpt>
      <trkpt lat="46.50359" lon="0.3679">
        <ele>201.16</ele>
        <time>2019-01-13T08:43:18.000Z</time>
      </trkpt>
      <trkpt lat="46.50368" lon="0.36794">
        <ele>202.94</ele>
        <time>2019-01-13T08:43:20.000Z</time>
      </trkpt>
      <trkpt lat="46.5038" lon="0.36802">
        <ele>203.88</ele>
        <time>2019-01-13T08:43:23.000Z</time>
      </trkpt>
      <trkpt lat="46.50389" lon="0.36808">
        <ele>203.93</ele>
        <time>2019-01-13T08:43:25.000Z</time>
      </trkpt>
      <trkpt lat="46.50399" lon="0.36815">
        <ele>203.86</ele>
        <time>2019-01-13T08:43:27.000Z</time>
      </trkpt>
      <trkpt lat="46.50412" lon="0.36818">
        <ele>203.4</ele>
        <time>2019-01-13T08:43:29.000Z</time>
      </trkpt>
      <trkpt lat="46.50422" lon="0.36818">
        <ele>202.73</ele>
        <time>2019-01-13T08:43:31.000Z</time>
      </trkpt>
      <trkpt lat="46.50434" lon="0.36822">
        <ele>201.59</ele>
        <time>2019-01-13T08:43:33.000Z</time>
      </trkpt>
      <trkpt lat="46.50443" lon="0.36823">
        <ele>201.21</ele>
        <time>2019-01-13T08:43:34.000Z</time>
      </trkpt>
      <trkpt lat="46.50452" lon="0.36825">
        <ele>201.13</ele>
        <time>2019-01-13T08:43:36.000Z</time>
      </trkpt>
      <trkpt lat="46.5046" lon="0.36826">
        <ele>201.04</ele>
        <time>2019-01-13T08:43:38.000Z</time>
      </trkpt>
      <trkpt lat="46.50475" lon="0.3683">
        <ele>201.04</ele>
        <time>2019-01-13T08:43:41.000Z</time>
      </trkpt>
      <trkpt lat="46.50486" lon="0.36833">
        <ele>200.98</ele>
        <time>2019-01-13T08:43:43.000Z</time>
      </trkpt>
      <trkpt lat="46.50496" lon="0.36831">
        <ele>200.93</ele>
        <time>2019-01-13T08:43:45.000Z</time>
      </trkpt>
      <trkpt lat="46.50507" lon="0.36832">
        <ele>200.31</ele>
        <time>2019-01-13T08:43:47.000Z</time>
      </trkpt>
      <trkpt lat="46.50517" lon="0.36832">
        <ele>200.31</ele>
        <time>2019-01-13T08:43:49.000Z</time>
      </trkpt>
      <trkpt lat="46.50527" lon="0.36829">
        <ele>200.38</ele>
        <time>2019-01-13T08:43:52.000Z</time>
      </trkpt>
      <trkpt lat="46.50541" lon="0.36823">
        <ele>201.17</ele>
        <time>2019-01-13T08:43:55.000Z</time>
      </trkpt>
      <trkpt lat="46.50553" lon="0.36826">
        <ele>201.45</ele>
        <time>2019-01-13T08:43:58.000Z</time>
      </trkpt>
      <trkpt lat="46.50563" lon="0.36829">
        <ele>201.68</ele>
        <time>2019-01-13T08:44:01.000Z</time>
      </trkpt>
      <trkpt lat="46.50571" lon="0.36821">
        <ele>201.78</ele>
        <time>2019-01-13T08:44:03.000Z</time>
      </trkpt>
      <trkpt lat="46.50579" lon="0.36806">
        <ele>202.4</ele>
        <time>2019-01-13T08:44:05.000Z</time>
      </trkpt>
      <trkpt lat="46.50588" lon="0.36793">
        <ele>202.56</ele>
        <time>2019-01-13T08:44:08.000Z</time>
      </trkpt>
      <trkpt lat="46.50601" lon="0.36783">
        <ele>202.86</ele>
        <time>2019-01-13T08:44:11.000Z</time>
      </trkpt>
      <trkpt lat="46.50612" lon="0.36778">
        <ele>202.73</ele>
        <time>2019-01-13T08:44:13.000Z</time>
      </trkpt>
      <trkpt lat="46.50623" lon="0.36765">
        <ele>202.55</ele>
        <time>2019-01-13T08:44:16.000Z</time>
      </trkpt>
      <trkpt lat="46.50628" lon="0.3675">
        <ele>201.46</ele>
        <time>2019-01-13T08:44:18.000Z</time>
      </trkpt>
      <trkpt lat="46.50632" lon="0.36733">
        <ele>200.71</ele>
        <time>2019-01-13T08:44:20.000Z</time>
      </trkpt>
      <trkpt lat="46.50634" lon="0.36714">
        <ele>199.2</ele>
        <time>2019-01-13T08:44:22.000Z</time>
      </trkpt>
      <trkpt lat="46.50638" lon="0.36693">
        <ele>196.7</ele>
        <time>2019-01-13T08:44:24.000Z</time>
      </trkpt>
      <trkpt lat="46.50641" lon="0.36673">
        <ele>195.1</ele>
        <time>2019-01-13T08:44:26.000Z</time>
      </trkpt>
      <trkpt lat="46.50643" lon="0.36648">
        <ele>194.09</ele>
        <time>2019-01-13T08:44:28.000Z</time>
      </trkpt>
      <trkpt lat="46.50649" lon="0.36626">
        <ele>193.07</ele>
        <time>2019-01-13T08:44:30.000Z</time>
      </trkpt>
      <trkpt lat="46.50661" lon="0.36608">
        <ele>191.99</ele>
        <time>2019-01-13T08:44:32.000Z</time>
      </trkpt>
      <trkpt lat="46.50669" lon="0.36602">
        <ele>191.54</ele>
        <time>2019-01-13T08:44:33.000Z</time>
      </trkpt>
      <trkpt lat="46.50683" lon="0.36586">
        <ele>191.04</ele>
        <time>2019-01-13T08:44:35.000Z</time>
      </trkpt>
      <trkpt lat="46.50691" lon="0.36563">
        <ele>190.34</ele>
        <time>2019-01-13T08:44:37.000Z</time>
      </trkpt>
      <trkpt lat="46.50694" lon="0.36542">
        <ele>189.49</ele>
        <time>2019-01-13T08:44:39.000Z</time>
      </trkpt>
      <trkpt lat="46.50699" lon="0.36522">
        <ele>188.55</ele>
        <time>2019-01-13T08:44:41.000Z</time>
      </trkpt>
      <trkpt lat="46.50701" lon="0.36504">
        <ele>187.9</ele>
        <time>2019-01-13T08:44:43.000Z</time>
      </trkpt>
      <trkpt lat="46.50704" lon="0.36488">
        <ele>187.5</ele>
        <time>2019-01-13T08:44:45.000Z</time>
      </trkpt>
      <trkpt lat="46.50706" lon="0.36473">
        <ele>187.36</ele>
        <time>2019-01-13T08:44:47.000Z</time>
      </trkpt>
      <trkpt lat="46.50708" lon="0.3646">
        <ele>187.43</ele>
        <time>2019-01-13T08:44:49.000Z</time>
      </trkpt>
      <trkpt lat="46.5071" lon="0.36447">
        <ele>187.58</ele>
        <time>2019-01-13T08:44:51.000Z</time>
      </trkpt>
      <trkpt lat="46.50715" lon="0.36429">
        <ele>188.06</ele>
        <time>2019-01-13T08:44:54.000Z</time>
      </trkpt>
      <trkpt lat="46.50716" lon="0.36416">
        <ele>188.61</ele>
        <time>2019-01-13T08:44:56.000Z</time>
      </trkpt>
      <trkpt lat="46.50719" lon="0.364">
        <ele>188.86</ele>
        <time>2019-01-13T08:44:58.000Z</time>
      </trkpt>
      <trkpt lat="46.50721" lon="0.36387">
        <ele>189.25</ele>
        <time>2019-01-13T08:45:00.000Z</time>
      </trkpt>
      <trkpt lat="46.50724" lon="0.36369">
        <ele>190.25</ele>
        <time>2019-01-13T08:45:03.000Z</time>
      </trkpt>
      <trkpt lat="46.50725" lon="0.3635">
        <ele>191.22</ele>
        <time>2019-01-13T08:45:06.000Z</time>
      </trkpt>
      <trkpt lat="46.50727" lon="0.36336">
        <ele>191.65</ele>
        <time>2019-01-13T08:45:08.000Z</time>
      </trkpt>
      <trkpt lat="46.50728" lon="0.36322">
        <ele>191.81</ele>
        <time>2019-01-13T08:45:10.000Z</time>
      </trkpt>
      <trkpt lat="46.5073" lon="0.36304">
        <ele>192.18</ele>
        <time>2019-01-13T08:45:13.000Z</time>
      </trkpt>
      <trkpt lat="46.50731" lon="0.3629">
        <ele>192.34</ele>
        <time>2019-01-13T08:45:15.000Z</time>
      </trkpt>
      <trkpt lat="46.50732" lon="0.36276">
        <ele>191.57</ele>
        <time>2019-01-13T08:45:17.000Z</time>
      </trkpt>
      <trkpt lat="46.50734" lon="0.36263">
        <ele>190.58</ele>
        <time>2019-01-13T08:45:19.000Z</time>
      </trkpt>
      <trkpt lat="46.50737" lon="0.3624">
        <ele>189.77</ele>
        <time>2019-01-13T08:45:23.000Z</time>
      </trkpt>
      <trkpt lat="46.5074" lon="0.36223">
        <ele>189.52</ele>
        <time>2019-01-13T08:45:26.000Z</time>
      </trkpt>
      <trkpt lat="46.50744" lon="0.36206">
        <ele>189.27</ele>
        <time>2019-01-13T08:45:29.000Z</time>
      </trkpt>
      <trkpt lat="46.50747" lon="0.36184">
        <ele>189.18</ele>
        <time>2019-01-13T08:45:33.000Z</time>
      </trkpt>
      <trkpt lat="46.5075" lon="0.36168">
        <ele>189.13</ele>
        <time>2019-01-13T08:45:36.000Z</time>
      </trkpt>
      <trkpt lat="46.50753" lon="0.36151">
        <ele>189.4</ele>
        <time>2019-01-13T08:45:39.000Z</time>
      </trkpt>
      <trkpt lat="46.50757" lon="0.36135">
        <ele>189.93</ele>
        <time>2019-01-13T08:45:42.000Z</time>
      </trkpt>
      <trkpt lat="46.50764" lon="0.36126">
        <ele>190.25</ele>
        <time>2019-01-13T08:45:44.000Z</time>
      </trkpt>
      <trkpt lat="46.50771" lon="0.36117">
        <ele>190.42</ele>
        <time>2019-01-13T08:45:46.000Z</time>
      </trkpt>
      <trkpt lat="46.50778" lon="0.36103">
        <ele>190.6</ele>
        <time>2019-01-13T08:45:48.000Z</time>
      </trkpt>
      <trkpt lat="46.50781" lon="0.36086">
        <ele>190.78</ele>
        <time>2019-01-13T08:45:50.000Z</time>
      </trkpt>
      <trkpt lat="46.5078" lon="0.36072">
        <ele>191.1</ele>
        <time>2019-01-13T08:45:52.000Z</time>
      </trkpt>
      <trkpt lat="46.50779" lon="0.36059">
        <ele>191.65</ele>
        <time>2019-01-13T08:45:54.000Z</time>
      </trkpt>
      <trkpt lat="46.5078" lon="0.36043">
        <ele>191.7</ele>
        <time>2019-01-13T08:45:57.000Z</time>
      </trkpt>
      <trkpt lat="46.5078" lon="0.36027">
        <ele>191.77</ele>
        <time>2019-01-13T08:46:01.000Z</time>
      </trkpt>
      <trkpt lat="46.50778" lon="0.36011">
        <ele>191.8</ele>
        <time>2019-01-13T08:46:04.000Z</time>
      </trkpt>
      <trkpt lat="46.50777" lon="0.35997">
        <ele>191.7</ele>
        <time>2019-01-13T08:46:07.000Z</time>
      </trkpt>
      <trkpt lat="46.50776" lon="0.35983">
        <ele>191.6</ele>
        <time>2019-01-13T08:46:10.000Z</time>
      </trkpt>
      <trkpt lat="46.50774" lon="0.35965">
        <ele>191.64</ele>
        <time>2019-01-13T08:46:14.000Z</time>
      </trkpt>
      <trkpt lat="46.50771" lon="0.35951">
        <ele>191.71</ele>
        <time>2019-01-13T08:46:17.000Z</time>
      </trkpt>
      <trkpt lat="46.50769" lon="0.35937">
        <ele>191.87</ele>
        <time>2019-01-13T08:46:20.000Z</time>
      </trkpt>
      <trkpt lat="46.50765" lon="0.35922">
        <ele>192.15</ele>
        <time>2019-01-13T08:46:23.000Z</time>
      </trkpt>
      <trkpt lat="46.50761" lon="0.35906">
        <ele>192.46</ele>
        <time>2019-01-13T08:46:26.000Z</time>
      </trkpt>
      <trkpt lat="46.50758" lon="0.3589">
        <ele>192.67</ele>
        <time>2019-01-13T08:46:29.000Z</time>
      </trkpt>
      <trkpt lat="46.50755" lon="0.35877">
        <ele>192.87</ele>
        <time>2019-01-13T08:46:32.000Z</time>
      </trkpt>
      <trkpt lat="46.50751" lon="0.35861">
        <ele>194.84</ele>
        <time>2019-01-13T08:46:35.000Z</time>
      </trkpt>
      <trkpt lat="46.50754" lon="0.35849">
        <ele>195.95</ele>
        <time>2019-01-13T08:46:37.000Z</time>
      </trkpt>
      <trkpt lat="46.50759" lon="0.35831">
        <ele>197.06</ele>
        <time>2019-01-13T08:46:40.000Z</time>
      </trkpt>
      <trkpt lat="46.50763" lon="0.35819">
        <ele>198.02</ele>
        <time>2019-01-13T08:46:42.000Z</time>
      </trkpt>
      <trkpt lat="46.50768" lon="0.35806">
        <ele>199.16</ele>
        <time>2019-01-13T08:46:44.000Z</time>
      </trkpt>
      <trkpt lat="46.50774" lon="0.35792">
        <ele>200.05</ele>
        <time>2019-01-13T08:46:46.000Z</time>
      </trkpt>
      <trkpt lat="46.50779" lon="0.35782">
        <ele>200.46</ele>
        <time>2019-01-13T08:46:48.000Z</time>
      </trkpt>
      <trkpt lat="46.50789" lon="0.3577">
        <ele>200</ele>
        <time>2019-01-13T08:46:50.000Z</time>
      </trkpt>
      <trkpt lat="46.50797" lon="0.3576">
        <ele>199.04</ele>
        <time>2019-01-13T08:46:52.000Z</time>
      </trkpt>
      <trkpt lat="46.50806" lon="0.35751">
        <ele>198.05</ele>
        <time>2019-01-13T08:46:54.000Z</time>
      </trkpt>
      <trkpt lat="46.50811" lon="0.3574">
        <ele>197.95</ele>
        <time>2019-01-13T08:46:57.000Z</time>
      </trkpt>
      <trkpt lat="46.50813" lon="0.35726">
        <ele>197.79</ele>
        <time>2019-01-13T08:47:03.000Z</time>
      </trkpt>
      <trkpt lat="46.50804" lon="0.35725">
        <ele>197.08</ele>
        <time>2019-01-13T08:47:06.000Z</time>
      </trkpt>
      <trkpt lat="46.50794" lon="0.35725">
        <ele>196.84</ele>
        <time>2019-01-13T08:47:08.000Z</time>
      </trkpt>
      <trkpt lat="46.50781" lon="0.35724">
        <ele>196.76</ele>
        <time>2019-01-13T08:47:10.000Z</time>
      </trkpt>
      <trkpt lat="46.50769" lon="0.35723">
        <ele>196.57</ele>
        <time>2019-01-13T08:47:12.000Z</time>
      </trkpt>
      <trkpt lat="46.50758" lon="0.35721">
        <ele>196.31</ele>
        <time>2019-01-13T08:47:14.000Z</time>
      </trkpt>
      <trkpt lat="46.50746" lon="0.3572">
        <ele>196.05</ele>
        <time>2019-01-13T08:47:16.000Z</time>
      </trkpt>
      <trkpt lat="46.50734" lon="0.3572">
        <ele>196.37</ele>
        <time>2019-01-13T08:47:18.000Z</time>
      </trkpt>
      <trkpt lat="46.50723" lon="0.3572">
        <ele>196.89</ele>
        <time>2019-01-13T08:47:20.000Z</time>
      </trkpt>
      <trkpt lat="46.50712" lon="0.35719">
        <ele>197.42</ele>
        <time>2019-01-13T08:47:22.000Z</time>
      </trkpt>
      <trkpt lat="46.50701" lon="0.35717">
        <ele>197.68</ele>
        <time>2019-01-13T08:47:24.000Z</time>
      </trkpt>
      <trkpt lat="46.50691" lon="0.35717">
        <ele>198</ele>
        <time>2019-01-13T08:47:26.000Z</time>
      </trkpt>
      <trkpt lat="46.50679" lon="0.35716">
        <ele>198.48</ele>
        <time>2019-01-13T08:47:28.000Z</time>
      </trkpt>
      <trkpt lat="46.50669" lon="0.35715">
        <ele>198.86</ele>
        <time>2019-01-13T08:47:30.000Z</time>
      </trkpt>
      <trkpt lat="46.50659" lon="0.35715">
        <ele>199.25</ele>
        <time>2019-01-13T08:47:32.000Z</time>
      </trkpt>
      <trkpt lat="46.50649" lon="0.3571">
        <ele>199.65</ele>
        <time>2019-01-13T08:47:34.000Z</time>
      </trkpt>
      <trkpt lat="46.50644" lon="0.35697">
        <ele>200.02</ele>
        <time>2019-01-13T08:47:36.000Z</time>
      </trkpt>
      <trkpt lat="46.50646" lon="0.3568">
        <ele>199.86</ele>
        <time>2019-01-13T08:47:38.000Z</time>
      </trkpt>
      <trkpt lat="46.50648" lon="0.35664">
        <ele>199.56</ele>
        <time>2019-01-13T08:47:40.000Z</time>
      </trkpt>
      <trkpt lat="46.50649" lon="0.35647">
        <ele>199.03</ele>
        <time>2019-01-13T08:47:42.000Z</time>
      </trkpt>
      <trkpt lat="46.50651" lon="0.3563">
        <ele>197.96</ele>
        <time>2019-01-13T08:47:44.000Z</time>
      </trkpt>
      <trkpt lat="46.50652" lon="0.35615">
        <ele>197.21</ele>
        <time>2019-01-13T08:47:46.000Z</time>
      </trkpt>
      <trkpt lat="46.50654" lon="0.356">
        <ele>196.85</ele>
        <time>2019-01-13T08:47:48.000Z</time>
      </trkpt>
      <trkpt lat="46.50654" lon="0.35586">
        <ele>196.64</ele>
        <time>2019-01-13T08:47:50.000Z</time>
      </trkpt>
      <trkpt lat="46.5065" lon="0.35566">
        <ele>196.4</ele>
        <time>2019-01-13T08:47:53.000Z</time>
      </trkpt>
      <trkpt lat="46.50642" lon="0.35558">
        <ele>196.54</ele>
        <time>2019-01-13T08:47:55.000Z</time>
      </trkpt>
      <trkpt lat="46.50635" lon="0.35551">
        <ele>196.98</ele>
        <time>2019-01-13T08:47:57.000Z</time>
      </trkpt>
      <trkpt lat="46.50627" lon="0.35543">
        <ele>197.04</ele>
        <time>2019-01-13T08:47:59.000Z</time>
      </trkpt>
      <trkpt lat="46.50618" lon="0.35537">
        <ele>196.98</ele>
        <time>2019-01-13T08:48:01.000Z</time>
      </trkpt>
      <trkpt lat="46.5061" lon="0.3553">
        <ele>196.67</ele>
        <time>2019-01-13T08:48:03.000Z</time>
      </trkpt>
      <trkpt lat="46.506" lon="0.35523">
        <ele>196.45</ele>
        <time>2019-01-13T08:48:05.000Z</time>
      </trkpt>
      <trkpt lat="46.50592" lon="0.35516">
        <ele>196.44</ele>
        <time>2019-01-13T08:48:07.000Z</time>
      </trkpt>
      <trkpt lat="46.50583" lon="0.35509">
        <ele>196.51</ele>
        <time>2019-01-13T08:48:09.000Z</time>
      </trkpt>
      <trkpt lat="46.50574" lon="0.35503">
        <ele>196.72</ele>
        <time>2019-01-13T08:48:11.000Z</time>
      </trkpt>
      <trkpt lat="46.50563" lon="0.35493">
        <ele>197.17</ele>
        <time>2019-01-13T08:48:14.000Z</time>
      </trkpt>
      <trkpt lat="46.50554" lon="0.35487">
        <ele>197.25</ele>
        <time>2019-01-13T08:48:16.000Z</time>
      </trkpt>
      <trkpt lat="46.50546" lon="0.3548">
        <ele>197.64</ele>
        <time>2019-01-13T08:48:18.000Z</time>
      </trkpt>
      <trkpt lat="46.50538" lon="0.35474">
        <ele>198.3</ele>
        <time>2019-01-13T08:48:20.000Z</time>
      </trkpt>
      <trkpt lat="46.50529" lon="0.35468">
        <ele>199.07</ele>
        <time>2019-01-13T08:48:22.000Z</time>
      </trkpt>
      <trkpt lat="46.50518" lon="0.35456">
        <ele>199.6</ele>
        <time>2019-01-13T08:48:25.000Z</time>
      </trkpt>
      <trkpt lat="46.5051" lon="0.35447">
        <ele>199.89</ele>
        <time>2019-01-13T08:48:27.000Z</time>
      </trkpt>
      <trkpt lat="46.50501" lon="0.35433">
        <ele>200.31</ele>
        <time>2019-01-13T08:48:30.000Z</time>
      </trkpt>
      <trkpt lat="46.50494" lon="0.35422">
        <ele>200.75</ele>
        <time>2019-01-13T08:48:32.000Z</time>
      </trkpt>
      <trkpt lat="46.50486" lon="0.35411">
        <ele>200.84</ele>
        <time>2019-01-13T08:48:34.000Z</time>
      </trkpt>
      <trkpt lat="46.50478" lon="0.35395">
        <ele>200.46</ele>
        <time>2019-01-13T08:48:37.000Z</time>
      </trkpt>
      <trkpt lat="46.50471" lon="0.35385">
        <ele>200.01</ele>
        <time>2019-01-13T08:48:39.000Z</time>
      </trkpt>
      <trkpt lat="46.50462" lon="0.35371">
        <ele>199.02</ele>
        <time>2019-01-13T08:48:42.000Z</time>
      </trkpt>
      <trkpt lat="46.50452" lon="0.35358">
        <ele>198.71</ele>
        <time>2019-01-13T08:48:45.000Z</time>
      </trkpt>
      <trkpt lat="46.50443" lon="0.35346">
        <ele>198.62</ele>
        <time>2019-01-13T08:48:48.000Z</time>
      </trkpt>
      <trkpt lat="46.50433" lon="0.35335">
        <ele>197.27</ele>
        <time>2019-01-13T08:48:51.000Z</time>
      </trkpt>
      <trkpt lat="46.50423" lon="0.35323">
        <ele>196.72</ele>
        <time>2019-01-13T08:48:54.000Z</time>
      </trkpt>
      <trkpt lat="46.50415" lon="0.35316">
        <ele>196.7</ele>
        <time>2019-01-13T08:48:56.000Z</time>
      </trkpt>
      <trkpt lat="46.50407" lon="0.35308">
        <ele>196.74</ele>
        <time>2019-01-13T08:48:58.000Z</time>
      </trkpt>
      <trkpt lat="46.504" lon="0.35299">
        <ele>196.7</ele>
        <time>2019-01-13T08:49:00.000Z</time>
      </trkpt>
      <trkpt lat="46.50392" lon="0.35289">
        <ele>197.1</ele>
        <time>2019-01-13T08:49:02.000Z</time>
      </trkpt>
      <trkpt lat="46.50385" lon="0.3528">
        <ele>197.4</ele>
        <time>2019-01-13T08:49:04.000Z</time>
      </trkpt>
      <trkpt lat="46.50378" lon="0.35269">
        <ele>197.91</ele>
        <time>2019-01-13T08:49:06.000Z</time>
      </trkpt>
      <trkpt lat="46.50371" lon="0.3526">
        <ele>198.48</ele>
        <time>2019-01-13T08:49:08.000Z</time>
      </trkpt>
      <trkpt lat="46.50364" lon="0.3525">
        <ele>198.85</ele>
        <time>2019-01-13T08:49:10.000Z</time>
      </trkpt>
      <trkpt lat="46.50356" lon="0.35238">
        <ele>199.25</ele>
        <time>2019-01-13T08:49:13.000Z</time>
      </trkpt>
      <trkpt lat="46.50346" lon="0.35225">
        <ele>199.53</ele>
        <time>2019-01-13T08:49:16.000Z</time>
      </trkpt>
      <trkpt lat="46.50339" lon="0.35216">
        <ele>199.85</ele>
        <time>2019-01-13T08:49:18.000Z</time>
      </trkpt>
      <trkpt lat="46.50334" lon="0.35204">
        <ele>200.17</ele>
        <time>2019-01-13T08:49:20.000Z</time>
      </trkpt>
      <trkpt lat="46.50335" lon="0.35189">
        <ele>200.1</ele>
        <time>2019-01-13T08:49:22.000Z</time>
      </trkpt>
      <trkpt lat="46.5034" lon="0.35177">
        <ele>199.82</ele>
        <time>2019-01-13T08:49:24.000Z</time>
      </trkpt>
      <trkpt lat="46.50345" lon="0.35162">
        <ele>199.56</ele>
        <time>2019-01-13T08:49:26.000Z</time>
      </trkpt>
      <trkpt lat="46.50348" lon="0.35149">
        <ele>199.08</ele>
        <time>2019-01-13T08:49:28.000Z</time>
      </trkpt>
      <trkpt lat="46.5035" lon="0.35135">
        <ele>198.36</ele>
        <time>2019-01-13T08:49:30.000Z</time>
      </trkpt>
      <trkpt lat="46.50351" lon="0.35121">
        <ele>197.79</ele>
        <time>2019-01-13T08:49:32.000Z</time>
      </trkpt>
      <trkpt lat="46.50351" lon="0.35107">
        <ele>197.48</ele>
        <time>2019-01-13T08:49:34.000Z</time>
      </trkpt>
      <trkpt lat="46.50352" lon="0.35093">
        <ele>197.37</ele>
        <time>2019-01-13T08:49:36.000Z</time>
      </trkpt>
      <trkpt lat="46.50352" lon="0.35078">
        <ele>197.39</ele>
        <time>2019-01-13T08:49:38.000Z</time>
      </trkpt>
      <trkpt lat="46.50352" lon="0.35062">
        <ele>197.28</ele>
        <time>2019-01-13T08:49:40.000Z</time>
      </trkpt>
      <trkpt lat="46.50351" lon="0.35049">
        <ele>197.29</ele>
        <time>2019-01-13T08:49:42.000Z</time>
      </trkpt>
      <trkpt lat="46.5035" lon="0.35029">
        <ele>197.38</ele>
        <time>2019-01-13T08:49:45.000Z</time>
      </trkpt>
      <trkpt lat="46.50351" lon="0.35014">
        <ele>196.89</ele>
        <time>2019-01-13T08:49:47.000Z</time>
      </trkpt>
      <trkpt lat="46.50351" lon="0.34997">
        <ele>196.66</ele>
        <time>2019-01-13T08:49:50.000Z</time>
      </trkpt>
      <trkpt lat="46.50355" lon="0.34985">
        <ele>197.39</ele>
        <time>2019-01-13T08:49:52.000Z</time>
      </trkpt>
      <trkpt lat="46.50361" lon="0.34971">
        <ele>198.28</ele>
        <time>2019-01-13T08:49:54.000Z</time>
      </trkpt>
      <trkpt lat="46.50366" lon="0.34956">
        <ele>199.08</ele>
        <time>2019-01-13T08:49:56.000Z</time>
      </trkpt>
      <trkpt lat="46.50373" lon="0.34942">
        <ele>199.61</ele>
        <time>2019-01-13T08:49:58.000Z</time>
      </trkpt>
      <trkpt lat="46.5038" lon="0.34929">
        <ele>200.31</ele>
        <time>2019-01-13T08:50:00.000Z</time>
      </trkpt>
      <trkpt lat="46.50388" lon="0.34916">
        <ele>201.14</ele>
        <time>2019-01-13T08:50:02.000Z</time>
      </trkpt>
      <trkpt lat="46.50396" lon="0.34903">
        <ele>201.63</ele>
        <time>2019-01-13T08:50:04.000Z</time>
      </trkpt>
      <trkpt lat="46.50405" lon="0.34891">
        <ele>201.66</ele>
        <time>2019-01-13T08:50:06.000Z</time>
      </trkpt>
      <trkpt lat="46.50415" lon="0.34877">
        <ele>200.99</ele>
        <time>2019-01-13T08:50:08.000Z</time>
      </trkpt>
      <trkpt lat="46.50425" lon="0.34864">
        <ele>200.05</ele>
        <time>2019-01-13T08:50:10.000Z</time>
      </trkpt>
      <trkpt lat="46.50434" lon="0.34851">
        <ele>199.22</ele>
        <time>2019-01-13T08:50:12.000Z</time>
      </trkpt>
      <trkpt lat="46.50443" lon="0.34838">
        <ele>198.62</ele>
        <time>2019-01-13T08:50:14.000Z</time>
      </trkpt>
      <trkpt lat="46.50451" lon="0.34822">
        <ele>198.2</ele>
        <time>2019-01-13T08:50:16.000Z</time>
      </trkpt>
      <trkpt lat="46.50459" lon="0.34807">
        <ele>198.02</ele>
        <time>2019-01-13T08:50:18.000Z</time>
      </trkpt>
      <trkpt lat="46.50467" lon="0.34791">
        <ele>197.99</ele>
        <time>2019-01-13T08:50:20.000Z</time>
      </trkpt>
      <trkpt lat="46.50473" lon="0.34774">
        <ele>197.94</ele>
        <time>2019-01-13T08:50:22.000Z</time>
      </trkpt>
      <trkpt lat="46.50477" lon="0.34756">
        <ele>197.81</ele>
        <time>2019-01-13T08:50:24.000Z</time>
      </trkpt>
      <trkpt lat="46.50481" lon="0.34739">
        <ele>197.69</ele>
        <time>2019-01-13T08:50:26.000Z</time>
      </trkpt>
      <trkpt lat="46.50482" lon="0.34721">
        <ele>197.48</ele>
        <time>2019-01-13T08:50:28.000Z</time>
      </trkpt>
      <trkpt lat="46.50484" lon="0.34703">
        <ele>197.19</ele>
        <time>2019-01-13T08:50:30.000Z</time>
      </trkpt>
      <trkpt lat="46.50487" lon="0.34688">
        <ele>197.03</ele>
        <time>2019-01-13T08:50:32.000Z</time>
      </trkpt>
      <trkpt lat="46.50492" lon="0.34673">
        <ele>197.02</ele>
        <time>2019-01-13T08:50:37.000Z</time>
      </trkpt>
      <trkpt lat="46.505" lon="0.3466">
        <ele>197.02</ele>
        <time>2019-01-13T08:50:40.000Z</time>
      </trkpt>
      <trkpt lat="46.50502" lon="0.34647">
        <ele>197.02</ele>
        <time>2019-01-13T08:50:42.000Z</time>
      </trkpt>
      <trkpt lat="46.50504" lon="0.34633">
        <ele>197.09</ele>
        <time>2019-01-13T08:50:44.000Z</time>
      </trkpt>
      <trkpt lat="46.50505" lon="0.34618">
        <ele>197.06</ele>
        <time>2019-01-13T08:50:46.000Z</time>
      </trkpt>
      <trkpt lat="46.50505" lon="0.34602">
        <ele>196.99</ele>
        <time>2019-01-13T08:50:48.000Z</time>
      </trkpt>
      <trkpt lat="46.50506" lon="0.34586">
        <ele>196.86</ele>
        <time>2019-01-13T08:50:50.000Z</time>
      </trkpt>
      <trkpt lat="46.50506" lon="0.34569">
        <ele>196.71</ele>
        <time>2019-01-13T08:50:52.000Z</time>
      </trkpt>
      <trkpt lat="46.50506" lon="0.34553">
        <ele>196.59</ele>
        <time>2019-01-13T08:50:54.000Z</time>
      </trkpt>
      <trkpt lat="46.50506" lon="0.34536">
        <ele>196.49</ele>
        <time>2019-01-13T08:50:56.000Z</time>
      </trkpt>
      <trkpt lat="46.50506" lon="0.34519">
        <ele>196.42</ele>
        <time>2019-01-13T08:50:58.000Z</time>
      </trkpt>
      <trkpt lat="46.50507" lon="0.34504">
        <ele>196.37</ele>
        <time>2019-01-13T08:51:00.000Z</time>
      </trkpt>
      <trkpt lat="46.50507" lon="0.34488">
        <ele>196.27</ele>
        <time>2019-01-13T08:51:02.000Z</time>
      </trkpt>
      <trkpt lat="46.50507" lon="0.34474">
        <ele>196.13</ele>
        <time>2019-01-13T08:51:04.000Z</time>
      </trkpt>
      <trkpt lat="46.50507" lon="0.34457">
        <ele>195.91</ele>
        <time>2019-01-13T08:51:06.000Z</time>
      </trkpt>
      <trkpt lat="46.50505" lon="0.34439">
        <ele>195.63</ele>
        <time>2019-01-13T08:51:08.000Z</time>
      </trkpt>
      <trkpt lat="46.50502" lon="0.34423">
        <ele>195.36</ele>
        <time>2019-01-13T08:51:10.000Z</time>
      </trkpt>
      <trkpt lat="46.50497" lon="0.34407">
        <ele>195.21</ele>
        <time>2019-01-13T08:51:12.000Z</time>
      </trkpt>
      <trkpt lat="46.50496" lon="0.3439">
        <ele>195</ele>
        <time>2019-01-13T08:51:14.000Z</time>
      </trkpt>
      <trkpt lat="46.50499" lon="0.34373">
        <ele>194.75</ele>
        <time>2019-01-13T08:51:16.000Z</time>
      </trkpt>
      <trkpt lat="46.50502" lon="0.34361">
        <ele>194.77</ele>
        <time>2019-01-13T08:51:18.000Z</time>
      </trkpt>
      <trkpt lat="46.50509" lon="0.34351">
        <ele>194.94</ele>
        <time>2019-01-13T08:51:20.000Z</time>
      </trkpt>
      <trkpt lat="46.50517" lon="0.34336">
        <ele>195.66</ele>
        <time>2019-01-13T08:51:23.000Z</time>
      </trkpt>
      <trkpt lat="46.50525" lon="0.34321">
        <ele>196.5</ele>
        <time>2019-01-13T08:51:26.000Z</time>
      </trkpt>
      <trkpt lat="46.50531" lon="0.34311">
        <ele>196.86</ele>
        <time>2019-01-13T08:51:28.000Z</time>
      </trkpt>
      <trkpt lat="46.50538" lon="0.34296">
        <ele>196.89</ele>
        <time>2019-01-13T08:51:31.000Z</time>
      </trkpt>
      <trkpt lat="46.50542" lon="0.34285">
        <ele>197.18</ele>
        <time>2019-01-13T08:51:33.000Z</time>
      </trkpt>
      <trkpt lat="46.50548" lon="0.34273">
        <ele>197.6</ele>
        <time>2019-01-13T08:51:35.000Z</time>
      </trkpt>
      <trkpt lat="46.50554" lon="0.34257">
        <ele>198.22</ele>
        <time>2019-01-13T08:51:38.000Z</time>
      </trkpt>
      <trkpt lat="46.5056" lon="0.34241">
        <ele>198.1</ele>
        <time>2019-01-13T08:51:41.000Z</time>
      </trkpt>
      <trkpt lat="46.50565" lon="0.34229">
        <ele>198.44</ele>
        <time>2019-01-13T08:51:43.000Z</time>
      </trkpt>
      <trkpt lat="46.50571" lon="0.34212">
        <ele>199.03</ele>
        <time>2019-01-13T08:51:46.000Z</time>
      </trkpt>
      <trkpt lat="46.50576" lon="0.342">
        <ele>198.85</ele>
        <time>2019-01-13T08:51:48.000Z</time>
      </trkpt>
      <trkpt lat="46.50583" lon="0.34183">
        <ele>198.4</ele>
        <time>2019-01-13T08:51:51.000Z</time>
      </trkpt>
      <trkpt lat="46.50589" lon="0.34165">
        <ele>197.87</ele>
        <time>2019-01-13T08:51:54.000Z</time>
      </trkpt>
      <trkpt lat="46.50595" lon="0.34153">
        <ele>197.58</ele>
        <time>2019-01-13T08:51:56.000Z</time>
      </trkpt>
      <trkpt lat="46.506" lon="0.3414">
        <ele>197.51</ele>
        <time>2019-01-13T08:51:58.000Z</time>
      </trkpt>
      <trkpt lat="46.50605" lon="0.34129">
        <ele>197.77</ele>
        <time>2019-01-13T08:52:00.000Z</time>
      </trkpt>
      <trkpt lat="46.50612" lon="0.34113">
        <ele>197.47</ele>
        <time>2019-01-13T08:52:03.000Z</time>
      </trkpt>
      <trkpt lat="46.50617" lon="0.34102">
        <ele>196.85</ele>
        <time>2019-01-13T08:52:05.000Z</time>
      </trkpt>
      <trkpt lat="46.50622" lon="0.34089">
        <ele>196.4</ele>
        <time>2019-01-13T08:52:07.000Z</time>
      </trkpt>
      <trkpt lat="46.50628" lon="0.34074">
        <ele>196.06</ele>
        <time>2019-01-13T08:52:09.000Z</time>
      </trkpt>
      <trkpt lat="46.50633" lon="0.34061">
        <ele>195.84</ele>
        <time>2019-01-13T08:52:11.000Z</time>
      </trkpt>
      <trkpt lat="46.50638" lon="0.34049">
        <ele>195.64</ele>
        <time>2019-01-13T08:52:13.000Z</time>
      </trkpt>
      <trkpt lat="46.50643" lon="0.34034">
        <ele>195.57</ele>
        <time>2019-01-13T08:52:15.000Z</time>
      </trkpt>
      <trkpt lat="46.50647" lon="0.3402">
        <ele>195.47</ele>
        <time>2019-01-13T08:52:17.000Z</time>
      </trkpt>
      <trkpt lat="46.50646" lon="0.34006">
        <ele>194.55</ele>
        <time>2019-01-13T08:52:19.000Z</time>
      </trkpt>
      <trkpt lat="46.50641" lon="0.33991">
        <ele>193.18</ele>
        <time>2019-01-13T08:52:21.000Z</time>
      </trkpt>
      <trkpt lat="46.50633" lon="0.33982">
        <ele>191.98</ele>
        <time>2019-01-13T08:52:23.000Z</time>
      </trkpt>
      <trkpt lat="46.50623" lon="0.33973">
        <ele>191.46</ele>
        <time>2019-01-13T08:52:25.000Z</time>
      </trkpt>
      <trkpt lat="46.50614" lon="0.33962">
        <ele>190.97</ele>
        <time>2019-01-13T08:52:27.000Z</time>
      </trkpt>
      <trkpt lat="46.50607" lon="0.33949">
        <ele>190.43</ele>
        <time>2019-01-13T08:52:29.000Z</time>
      </trkpt>
      <trkpt lat="46.50602" lon="0.33932">
        <ele>189.43</ele>
        <time>2019-01-13T08:52:31.000Z</time>
      </trkpt>
      <trkpt lat="46.50602" lon="0.33912">
        <ele>188.05</ele>
        <time>2019-01-13T08:52:33.000Z</time>
      </trkpt>
      <trkpt lat="46.50603" lon="0.33891">
        <ele>186.8</ele>
        <time>2019-01-13T08:52:35.000Z</time>
      </trkpt>
      <trkpt lat="46.50605" lon="0.3387">
        <ele>185.6</ele>
        <time>2019-01-13T08:52:37.000Z</time>
      </trkpt>
      <trkpt lat="46.50609" lon="0.3385">
        <ele>184.72</ele>
        <time>2019-01-13T08:52:39.000Z</time>
      </trkpt>
      <trkpt lat="46.50613" lon="0.3383">
        <ele>184</ele>
        <time>2019-01-13T08:52:41.000Z</time>
      </trkpt>
      <trkpt lat="46.50618" lon="0.3381">
        <ele>183.32</ele>
        <time>2019-01-13T08:52:43.000Z</time>
      </trkpt>
      <trkpt lat="46.50623" lon="0.33793">
        <ele>182.8</ele>
        <time>2019-01-13T08:52:45.000Z</time>
      </trkpt>
      <trkpt lat="46.50628" lon="0.33777">
        <ele>182.43</ele>
        <time>2019-01-13T08:52:47.000Z</time>
      </trkpt>
      <trkpt lat="46.50633" lon="0.3376">
        <ele>181.94</ele>
        <time>2019-01-13T08:52:49.000Z</time>
      </trkpt>
      <trkpt lat="46.50636" lon="0.33743">
        <ele>181.41</ele>
        <time>2019-01-13T08:52:51.000Z</time>
      </trkpt>
      <trkpt lat="46.50642" lon="0.33727">
        <ele>180.95</ele>
        <time>2019-01-13T08:52:53.000Z</time>
      </trkpt>
      <trkpt lat="46.50652" lon="0.33715">
        <ele>180.69</ele>
        <time>2019-01-13T08:52:55.000Z</time>
      </trkpt>
      <trkpt lat="46.50663" lon="0.33705">
        <ele>180.26</ele>
        <time>2019-01-13T08:52:57.000Z</time>
      </trkpt>
      <trkpt lat="46.50674" lon="0.33697">
        <ele>179.94</ele>
        <time>2019-01-13T08:52:59.000Z</time>
      </trkpt>
      <trkpt lat="46.50685" lon="0.3369">
        <ele>179.57</ele>
        <time>2019-01-13T08:53:01.000Z</time>
      </trkpt>
      <trkpt lat="46.50695" lon="0.33685">
        <ele>179.37</ele>
        <time>2019-01-13T08:53:03.000Z</time>
      </trkpt>
      <trkpt lat="46.50706" lon="0.33681">
        <ele>179.37</ele>
        <time>2019-01-13T08:53:05.000Z</time>
      </trkpt>
      <trkpt lat="46.50718" lon="0.33681">
        <ele>179.66</ele>
        <time>2019-01-13T08:53:07.000Z</time>
      </trkpt>
      <trkpt lat="46.50729" lon="0.33681">
        <ele>179.96</ele>
        <time>2019-01-13T08:53:09.000Z</time>
      </trkpt>
      <trkpt lat="46.50742" lon="0.33681">
        <ele>180.24</ele>
        <time>2019-01-13T08:53:11.000Z</time>
      </trkpt>
      <trkpt lat="46.50753" lon="0.33682">
        <ele>180.55</ele>
        <time>2019-01-13T08:53:13.000Z</time>
      </trkpt>
      <trkpt lat="46.50765" lon="0.33683">
        <ele>180.89</ele>
        <time>2019-01-13T08:53:15.000Z</time>
      </trkpt>
      <trkpt lat="46.50776" lon="0.33683">
        <ele>181.35</ele>
        <time>2019-01-13T08:53:17.000Z</time>
      </trkpt>
      <trkpt lat="46.50788" lon="0.33683">
        <ele>181.72</ele>
        <time>2019-01-13T08:53:19.000Z</time>
      </trkpt>
      <trkpt lat="46.508" lon="0.33678">
        <ele>182.16</ele>
        <time>2019-01-13T08:53:21.000Z</time>
      </trkpt>
      <trkpt lat="46.5081" lon="0.33671">
        <ele>182.42</ele>
        <time>2019-01-13T08:53:23.000Z</time>
      </trkpt>
      <trkpt lat="46.50819" lon="0.33661">
        <ele>182.6</ele>
        <time>2019-01-13T08:53:25.000Z</time>
      </trkpt>
      <trkpt lat="46.50825" lon="0.33645">
        <ele>182.31</ele>
        <time>2019-01-13T08:53:27.000Z</time>
      </trkpt>
      <trkpt lat="46.50825" lon="0.33624">
        <ele>181.51</ele>
        <time>2019-01-13T08:53:29.000Z</time>
      </trkpt>
      <trkpt lat="46.50826" lon="0.33607">
        <ele>181</ele>
        <time>2019-01-13T08:53:31.000Z</time>
      </trkpt>
      <trkpt lat="46.50827" lon="0.33592">
        <ele>180.18</ele>
        <time>2019-01-13T08:53:41.000Z</time>
      </trkpt>
      <trkpt lat="46.50827" lon="0.33576">
        <ele>179.98</ele>
        <time>2019-01-13T08:53:44.000Z</time>
      </trkpt>
      <trkpt lat="46.50826" lon="0.33561">
        <ele>178.7</ele>
        <time>2019-01-13T08:53:46.000Z</time>
      </trkpt>
      <trkpt lat="46.50826" lon="0.3354">
        <ele>177.29</ele>
        <time>2019-01-13T08:53:48.000Z</time>
      </trkpt>
      <trkpt lat="46.50827" lon="0.33522">
        <ele>176.24</ele>
        <time>2019-01-13T08:53:50.000Z</time>
      </trkpt>
      <trkpt lat="46.50831" lon="0.33504">
        <ele>175.32</ele>
        <time>2019-01-13T08:53:52.000Z</time>
      </trkpt>
      <trkpt lat="46.50836" lon="0.33493">
        <ele>174.96</ele>
        <time>2019-01-13T08:53:53.000Z</time>
      </trkpt>
      <trkpt lat="46.50848" lon="0.33472">
        <ele>174.1</ele>
        <time>2019-01-13T08:53:55.000Z</time>
      </trkpt>
      <trkpt lat="46.50854" lon="0.33462">
        <ele>173.51</ele>
        <time>2019-01-13T08:53:56.000Z</time>
      </trkpt>
      <trkpt lat="46.50861" lon="0.33452">
        <ele>173.04</ele>
        <time>2019-01-13T08:53:57.000Z</time>
      </trkpt>
      <trkpt lat="46.50869" lon="0.33443">
        <ele>172.67</ele>
        <time>2019-01-13T08:53:58.000Z</time>
      </trkpt>
      <trkpt lat="46.50877" lon="0.33435">
        <ele>172.38</ele>
        <time>2019-01-13T08:53:59.000Z</time>
      </trkpt>
      <trkpt lat="46.50885" lon="0.33426">
        <ele>172.21</ele>
        <time>2019-01-13T08:54:00.000Z</time>
      </trkpt>
      <trkpt lat="46.50891" lon="0.33416">
        <ele>172.02</ele>
        <time>2019-01-13T08:54:01.000Z</time>
      </trkpt>
      <trkpt lat="46.50904" lon="0.334">
        <ele>171.56</ele>
        <time>2019-01-13T08:54:03.000Z</time>
      </trkpt>
      <trkpt lat="46.50917" lon="0.33386">
        <ele>170.96</ele>
        <time>2019-01-13T08:54:05.000Z</time>
      </trkpt>
      <trkpt lat="46.50927" lon="0.33366">
        <ele>170.08</ele>
        <time>2019-01-13T08:54:07.000Z</time>
      </trkpt>
      <trkpt lat="46.50934" lon="0.33342">
        <ele>169.03</ele>
        <time>2019-01-13T08:54:09.000Z</time>
      </trkpt>
      <trkpt lat="46.5094" lon="0.3332">
        <ele>168.15</ele>
        <time>2019-01-13T08:54:11.000Z</time>
      </trkpt>
      <trkpt lat="46.50948" lon="0.33302">
        <ele>167.15</ele>
        <time>2019-01-13T08:54:13.000Z</time>
      </trkpt>
      <trkpt lat="46.50964" lon="0.33291">
        <ele>166.16</ele>
        <time>2019-01-13T08:54:15.000Z</time>
      </trkpt>
      <trkpt lat="46.50982" lon="0.33285">
        <ele>164.58</ele>
        <time>2019-01-13T08:54:17.000Z</time>
      </trkpt>
      <trkpt lat="46.50991" lon="0.33285">
        <ele>163.56</ele>
        <time>2019-01-13T08:54:18.000Z</time>
      </trkpt>
      <trkpt lat="46.51002" lon="0.33287">
        <ele>162.69</ele>
        <time>2019-01-13T08:54:19.000Z</time>
      </trkpt>
      <trkpt lat="46.51013" lon="0.33291">
        <ele>161.98</ele>
        <time>2019-01-13T08:54:20.000Z</time>
      </trkpt>
      <trkpt lat="46.51023" lon="0.33298">
        <ele>161.16</ele>
        <time>2019-01-13T08:54:21.000Z</time>
      </trkpt>
      <trkpt lat="46.51032" lon="0.33307">
        <ele>160.24</ele>
        <time>2019-01-13T08:54:22.000Z</time>
      </trkpt>
      <trkpt lat="46.51038" lon="0.33317">
        <ele>159.58</ele>
        <time>2019-01-13T08:54:23.000Z</time>
      </trkpt>
      <trkpt lat="46.51045" lon="0.33327">
        <ele>159.04</ele>
        <time>2019-01-13T08:54:24.000Z</time>
      </trkpt>
      <trkpt lat="46.51052" lon="0.33336">
        <ele>158.49</ele>
        <time>2019-01-13T08:54:25.000Z</time>
      </trkpt>
      <trkpt lat="46.51059" lon="0.33345">
        <ele>157.96</ele>
        <time>2019-01-13T08:54:26.000Z</time>
      </trkpt>
      <trkpt lat="46.51065" lon="0.33357">
        <ele>157.49</ele>
        <time>2019-01-13T08:54:27.000Z</time>
      </trkpt>
      <trkpt lat="46.51072" lon="0.33368">
        <ele>157.08</ele>
        <time>2019-01-13T08:54:28.000Z</time>
      </trkpt>
      <trkpt lat="46.51077" lon="0.33379">
        <ele>156.59</ele>
        <time>2019-01-13T08:54:29.000Z</time>
      </trkpt>
      <trkpt lat="46.51083" lon="0.33389">
        <ele>156.03</ele>
        <time>2019-01-13T08:54:30.000Z</time>
      </trkpt>
      <trkpt lat="46.51095" lon="0.3341">
        <ele>155.39</ele>
        <time>2019-01-13T08:54:32.000Z</time>
      </trkpt>
      <trkpt lat="46.51105" lon="0.3343">
        <ele>155.28</ele>
        <time>2019-01-13T08:54:34.000Z</time>
      </trkpt>
      <trkpt lat="46.51115" lon="0.33451">
        <ele>155.12</ele>
        <time>2019-01-13T08:54:36.000Z</time>
      </trkpt>
      <trkpt lat="46.5112" lon="0.33461">
        <ele>154.96</ele>
        <time>2019-01-13T08:54:37.000Z</time>
      </trkpt>
      <trkpt lat="46.51125" lon="0.33472">
        <ele>154.44</ele>
        <time>2019-01-13T08:54:38.000Z</time>
      </trkpt>
      <trkpt lat="46.51133" lon="0.33494">
        <ele>153.19</ele>
        <time>2019-01-13T08:54:40.000Z</time>
      </trkpt>
      <trkpt lat="46.51141" lon="0.33515">
        <ele>152.33</ele>
        <time>2019-01-13T08:54:42.000Z</time>
      </trkpt>
      <trkpt lat="46.51146" lon="0.33527">
        <ele>151.86</ele>
        <time>2019-01-13T08:54:43.000Z</time>
      </trkpt>
      <trkpt lat="46.5115" lon="0.33541">
        <ele>151.44</ele>
        <time>2019-01-13T08:54:44.000Z</time>
      </trkpt>
      <trkpt lat="46.51152" lon="0.33555">
        <ele>151.15</ele>
        <time>2019-01-13T08:54:45.000Z</time>
      </trkpt>
      <trkpt lat="46.51153" lon="0.3357">
        <ele>150.51</ele>
        <time>2019-01-13T08:54:46.000Z</time>
      </trkpt>
      <trkpt lat="46.51156" lon="0.33584">
        <ele>149.63</ele>
        <time>2019-01-13T08:54:47.000Z</time>
      </trkpt>
      <trkpt lat="46.51157" lon="0.33597">
        <ele>148.76</ele>
        <time>2019-01-13T08:54:48.000Z</time>
      </trkpt>
      <trkpt lat="46.51158" lon="0.3361">
        <ele>148.04</ele>
        <time>2019-01-13T08:54:49.000Z</time>
      </trkpt>
      <trkpt lat="46.51157" lon="0.33625">
        <ele>147.55</ele>
        <time>2019-01-13T08:54:50.000Z</time>
      </trkpt>
      <trkpt lat="46.51157" lon="0.33639">
        <ele>147.29</ele>
        <time>2019-01-13T08:54:51.000Z</time>
      </trkpt>
      <trkpt lat="46.51158" lon="0.33663">
        <ele>146.31</ele>
        <time>2019-01-13T08:54:53.000Z</time>
      </trkpt>
      <trkpt lat="46.51158" lon="0.33687">
        <ele>145.91</ele>
        <time>2019-01-13T08:54:55.000Z</time>
      </trkpt>
      <trkpt lat="46.51159" lon="0.33711">
        <ele>145.85</ele>
        <time>2019-01-13T08:54:57.000Z</time>
      </trkpt>
      <trkpt lat="46.51159" lon="0.33734">
        <ele>145.87</ele>
        <time>2019-01-13T08:54:59.000Z</time>
      </trkpt>
      <trkpt lat="46.51163" lon="0.33756">
        <ele>145.76</ele>
        <time>2019-01-13T08:55:01.000Z</time>
      </trkpt>
      <trkpt lat="46.51165" lon="0.33779">
        <ele>145.66</ele>
        <time>2019-01-13T08:55:03.000Z</time>
      </trkpt>
      <trkpt lat="46.5117" lon="0.33802">
        <ele>146.02</ele>
        <time>2019-01-13T08:55:05.000Z</time>
      </trkpt>
      <trkpt lat="46.51175" lon="0.33824">
        <ele>145.81</ele>
        <time>2019-01-13T08:55:07.000Z</time>
      </trkpt>
      <trkpt lat="46.51179" lon="0.33847">
        <ele>146.57</ele>
        <time>2019-01-13T08:55:09.000Z</time>
      </trkpt>
      <trkpt lat="46.51185" lon="0.33869">
        <ele>147.08</ele>
        <time>2019-01-13T08:55:11.000Z</time>
      </trkpt>
      <trkpt lat="46.51193" lon="0.3389">
        <ele>146.85</ele>
        <time>2019-01-13T08:55:13.000Z</time>
      </trkpt>
      <trkpt lat="46.51201" lon="0.33908">
        <ele>146.65</ele>
        <time>2019-01-13T08:55:15.000Z</time>
      </trkpt>
      <trkpt lat="46.51213" lon="0.33923">
        <ele>146.22</ele>
        <time>2019-01-13T08:55:17.000Z</time>
      </trkpt>
      <trkpt lat="46.51224" lon="0.33937">
        <ele>146.41</ele>
        <time>2019-01-13T08:55:19.000Z</time>
      </trkpt>
      <trkpt lat="46.51235" lon="0.33951">
        <ele>146.84</ele>
        <time>2019-01-13T08:55:21.000Z</time>
      </trkpt>
      <trkpt lat="46.51244" lon="0.33966">
        <ele>147.32</ele>
        <time>2019-01-13T08:55:23.000Z</time>
      </trkpt>
      <trkpt lat="46.51253" lon="0.33978">
        <ele>148.06</ele>
        <time>2019-01-13T08:55:25.000Z</time>
      </trkpt>
      <trkpt lat="46.51264" lon="0.33991">
        <ele>148.82</ele>
        <time>2019-01-13T08:55:27.000Z</time>
      </trkpt>
      <trkpt lat="46.51277" lon="0.34003">
        <ele>149.8</ele>
        <time>2019-01-13T08:55:29.000Z</time>
      </trkpt>
      <trkpt lat="46.51291" lon="0.34013">
        <ele>150.39</ele>
        <time>2019-01-13T08:55:31.000Z</time>
      </trkpt>
      <trkpt lat="46.51307" lon="0.3402">
        <ele>150.5</ele>
        <time>2019-01-13T08:55:33.000Z</time>
      </trkpt>
      <trkpt lat="46.5132" lon="0.34028">
        <ele>150.15</ele>
        <time>2019-01-13T08:55:35.000Z</time>
      </trkpt>
      <trkpt lat="46.51333" lon="0.34034">
        <ele>149.69</ele>
        <time>2019-01-13T08:55:37.000Z</time>
      </trkpt>
      <trkpt lat="46.51345" lon="0.34039">
        <ele>149.18</ele>
        <time>2019-01-13T08:55:39.000Z</time>
      </trkpt>
      <trkpt lat="46.51359" lon="0.34044">
        <ele>148.27</ele>
        <time>2019-01-13T08:55:41.000Z</time>
      </trkpt>
      <trkpt lat="46.51373" lon="0.34054">
        <ele>148.18</ele>
        <time>2019-01-13T08:55:43.000Z</time>
      </trkpt>
      <trkpt lat="46.51387" lon="0.34064">
        <ele>149.05</ele>
        <time>2019-01-13T08:55:45.000Z</time>
      </trkpt>
      <trkpt lat="46.51399" lon="0.34074">
        <ele>149.89</ele>
        <time>2019-01-13T08:55:47.000Z</time>
      </trkpt>
      <trkpt lat="46.51411" lon="0.34084">
        <ele>150.34</ele>
        <time>2019-01-13T08:55:49.000Z</time>
      </trkpt>
      <trkpt lat="46.51421" lon="0.34093">
        <ele>150.95</ele>
        <time>2019-01-13T08:55:51.000Z</time>
      </trkpt>
      <trkpt lat="46.51433" lon="0.34103">
        <ele>150.84</ele>
        <time>2019-01-13T08:55:53.000Z</time>
      </trkpt>
      <trkpt lat="46.51443" lon="0.34111">
        <ele>150.62</ele>
        <time>2019-01-13T08:55:55.000Z</time>
      </trkpt>
      <trkpt lat="46.51453" lon="0.34118">
        <ele>150.05</ele>
        <time>2019-01-13T08:55:57.000Z</time>
      </trkpt>
      <trkpt lat="46.51465" lon="0.34127">
        <ele>149.97</ele>
        <time>2019-01-13T08:56:00.000Z</time>
      </trkpt>
      <trkpt lat="46.51474" lon="0.34133">
        <ele>149.86</ele>
        <time>2019-01-13T08:56:03.000Z</time>
      </trkpt>
      <trkpt lat="46.51484" lon="0.34137">
        <ele>149.7</ele>
        <time>2019-01-13T08:56:07.000Z</time>
      </trkpt>
      <trkpt lat="46.51494" lon="0.34143">
        <ele>149.86</ele>
        <time>2019-01-13T08:56:11.000Z</time>
      </trkpt>
      <trkpt lat="46.51503" lon="0.34149">
        <ele>150.08</ele>
        <time>2019-01-13T08:56:14.000Z</time>
      </trkpt>
      <trkpt lat="46.51509" lon="0.34159">
        <ele>150.41</ele>
        <time>2019-01-13T08:56:17.000Z</time>
      </trkpt>
      <trkpt lat="46.51519" lon="0.34166">
        <ele>150.66</ele>
        <time>2019-01-13T08:56:20.000Z</time>
      </trkpt>
      <trkpt lat="46.51527" lon="0.34175">
        <ele>150.98</ele>
        <time>2019-01-13T08:56:25.000Z</time>
      </trkpt>
      <trkpt lat="46.51536" lon="0.34183">
        <ele>151.26</ele>
        <time>2019-01-13T08:56:30.000Z</time>
      </trkpt>
      <trkpt lat="46.51547" lon="0.34189">
        <ele>151.5</ele>
        <time>2019-01-13T08:56:34.000Z</time>
      </trkpt>
      <trkpt lat="46.51556" lon="0.34192">
        <ele>151.73</ele>
        <time>2019-01-13T08:56:38.000Z</time>
      </trkpt>
      <trkpt lat="46.51568" lon="0.3419">
        <ele>151.85</ele>
        <time>2019-01-13T08:56:41.000Z</time>
      </trkpt>
      <trkpt lat="46.51579" lon="0.34193">
        <ele>152</ele>
        <time>2019-01-13T08:56:44.000Z</time>
      </trkpt>
      <trkpt lat="46.51592" lon="0.34199">
        <ele>153.2</ele>
        <time>2019-01-13T08:56:46.000Z</time>
      </trkpt>
      <trkpt lat="46.51605" lon="0.34209">
        <ele>154.51</ele>
        <time>2019-01-13T08:56:48.000Z</time>
      </trkpt>
      <trkpt lat="46.51617" lon="0.34218">
        <ele>156.43</ele>
        <time>2019-01-13T08:56:50.000Z</time>
      </trkpt>
      <trkpt lat="46.51628" lon="0.34224">
        <ele>158.31</ele>
        <time>2019-01-13T08:56:52.000Z</time>
      </trkpt>
      <trkpt lat="46.5164" lon="0.34231">
        <ele>159.93</ele>
        <time>2019-01-13T08:56:54.000Z</time>
      </trkpt>
      <trkpt lat="46.51647" lon="0.34239">
        <ele>160.07</ele>
        <time>2019-01-13T08:56:56.000Z</time>
      </trkpt>
      <trkpt lat="46.51655" lon="0.34249">
        <ele>161.24</ele>
        <time>2019-01-13T08:56:58.000Z</time>
      </trkpt>
      <trkpt lat="46.51663" lon="0.34264">
        <ele>161.99</ele>
        <time>2019-01-13T08:57:00.000Z</time>
      </trkpt>
      <trkpt lat="46.51673" lon="0.34273">
        <ele>162.03</ele>
        <time>2019-01-13T08:57:02.000Z</time>
      </trkpt>
      <trkpt lat="46.5168" lon="0.34261">
        <ele>160.87</ele>
        <time>2019-01-13T08:57:05.000Z</time>
      </trkpt>
      <trkpt lat="46.51681" lon="0.34242">
        <ele>159.3</ele>
        <time>2019-01-13T08:57:07.000Z</time>
      </trkpt>
      <trkpt lat="46.51684" lon="0.3422">
        <ele>156.91</ele>
        <time>2019-01-13T08:57:09.000Z</time>
      </trkpt>
      <trkpt lat="46.5169" lon="0.34197">
        <ele>153.52</ele>
        <time>2019-01-13T08:57:11.000Z</time>
      </trkpt>
      <trkpt lat="46.51695" lon="0.34186">
        <ele>152</ele>
        <time>2019-01-13T08:57:12.000Z</time>
      </trkpt>
      <trkpt lat="46.51705" lon="0.34164">
        <ele>149.32</ele>
        <time>2019-01-13T08:57:14.000Z</time>
      </trkpt>
      <trkpt lat="46.51714" lon="0.34144">
        <ele>146.97</ele>
        <time>2019-01-13T08:57:16.000Z</time>
      </trkpt>
      <trkpt lat="46.51721" lon="0.34123">
        <ele>144.92</ele>
        <time>2019-01-13T08:57:18.000Z</time>
      </trkpt>
      <trkpt lat="46.51725" lon="0.341">
        <ele>143.16</ele>
        <time>2019-01-13T08:57:20.000Z</time>
      </trkpt>
      <trkpt lat="46.51728" lon="0.34078">
        <ele>141.62</ele>
        <time>2019-01-13T08:57:22.000Z</time>
      </trkpt>
      <trkpt lat="46.51728" lon="0.34062">
        <ele>140.69</ele>
        <time>2019-01-13T08:57:24.000Z</time>
      </trkpt>
      <trkpt lat="46.51729" lon="0.34042">
        <ele>139.2</ele>
        <time>2019-01-13T08:57:27.000Z</time>
      </trkpt>
      <trkpt lat="46.51719" lon="0.34034">
        <ele>138.56</ele>
        <time>2019-01-13T08:57:30.000Z</time>
      </trkpt>
      <trkpt lat="46.5171" lon="0.34034">
        <ele>137.94</ele>
        <time>2019-01-13T08:57:32.000Z</time>
      </trkpt>
      <trkpt lat="46.51702" lon="0.34024">
        <ele>137.49</ele>
        <time>2019-01-13T08:57:34.000Z</time>
      </trkpt>
      <trkpt lat="46.51699" lon="0.34009">
        <ele>137.78</ele>
        <time>2019-01-13T08:57:36.000Z</time>
      </trkpt>
      <trkpt lat="46.51696" lon="0.33995">
        <ele>138.34</ele>
        <time>2019-01-13T08:57:38.000Z</time>
      </trkpt>
      <trkpt lat="46.51693" lon="0.3398">
        <ele>139.1</ele>
        <time>2019-01-13T08:57:40.000Z</time>
      </trkpt>
      <trkpt lat="46.5169" lon="0.33964">
        <ele>139.79</ele>
        <time>2019-01-13T08:57:42.000Z</time>
      </trkpt>
      <trkpt lat="46.51688" lon="0.33948">
        <ele>140.39</ele>
        <time>2019-01-13T08:57:44.000Z</time>
      </trkpt>
      <trkpt lat="46.51684" lon="0.33933">
        <ele>140.79</ele>
        <time>2019-01-13T08:57:46.000Z</time>
      </trkpt>
      <trkpt lat="46.51682" lon="0.33918">
        <ele>140.94</ele>
        <time>2019-01-13T08:57:48.000Z</time>
      </trkpt>
      <trkpt lat="46.51679" lon="0.33904">
        <ele>141.05</ele>
        <time>2019-01-13T08:57:50.000Z</time>
      </trkpt>
      <trkpt lat="46.51674" lon="0.3389">
        <ele>141.04</ele>
        <time>2019-01-13T08:57:52.000Z</time>
      </trkpt>
      <trkpt lat="46.51669" lon="0.33875">
        <ele>140.96</ele>
        <time>2019-01-13T08:57:54.000Z</time>
      </trkpt>
      <trkpt lat="46.51664" lon="0.33859">
        <ele>140.87</ele>
        <time>2019-01-13T08:57:56.000Z</time>
      </trkpt>
      <trkpt lat="46.51659" lon="0.33843">
        <ele>140.54</ele>
        <time>2019-01-13T08:57:58.000Z</time>
      </trkpt>
      <trkpt lat="46.51655" lon="0.33827">
        <ele>140.04</ele>
        <time>2019-01-13T08:58:00.000Z</time>
      </trkpt>
      <trkpt lat="46.5165" lon="0.33811">
        <ele>139.65</ele>
        <time>2019-01-13T08:58:02.000Z</time>
      </trkpt>
      <trkpt lat="46.51645" lon="0.33797">
        <ele>139.44</ele>
        <time>2019-01-13T08:58:04.000Z</time>
      </trkpt>
      <trkpt lat="46.51641" lon="0.33782">
        <ele>139.48</ele>
        <time>2019-01-13T08:58:06.000Z</time>
      </trkpt>
      <trkpt lat="46.51636" lon="0.33767">
        <ele>139.79</ele>
        <time>2019-01-13T08:58:08.000Z</time>
      </trkpt>
      <trkpt lat="46.51629" lon="0.33752">
        <ele>140.19</ele>
        <time>2019-01-13T08:58:10.000Z</time>
      </trkpt>
      <trkpt lat="46.51622" lon="0.33738">
        <ele>140.46</ele>
        <time>2019-01-13T08:58:12.000Z</time>
      </trkpt>
      <trkpt lat="46.51615" lon="0.33724">
        <ele>140.82</ele>
        <time>2019-01-13T08:58:14.000Z</time>
      </trkpt>
      <trkpt lat="46.51608" lon="0.3371">
        <ele>141.08</ele>
        <time>2019-01-13T08:58:16.000Z</time>
      </trkpt>
      <trkpt lat="46.51602" lon="0.33696">
        <ele>141.92</ele>
        <time>2019-01-13T08:58:18.000Z</time>
      </trkpt>
      <trkpt lat="46.51597" lon="0.3368">
        <ele>142.48</ele>
        <time>2019-01-13T08:58:20.000Z</time>
      </trkpt>
      <trkpt lat="46.51594" lon="0.33663">
        <ele>143.11</ele>
        <time>2019-01-13T08:58:22.000Z</time>
      </trkpt>
      <trkpt lat="46.51591" lon="0.33646">
        <ele>143.38</ele>
        <time>2019-01-13T08:58:24.000Z</time>
      </trkpt>
      <trkpt lat="46.51589" lon="0.3363">
        <ele>143.62</ele>
        <time>2019-01-13T08:58:26.000Z</time>
      </trkpt>
      <trkpt lat="46.5159" lon="0.33617">
        <ele>143.4</ele>
        <time>2019-01-13T08:58:28.000Z</time>
      </trkpt>
      <trkpt lat="46.51595" lon="0.33604">
        <ele>143.36</ele>
        <time>2019-01-13T08:58:31.000Z</time>
      </trkpt>
      <trkpt lat="46.51601" lon="0.33591">
        <ele>143.2</ele>
        <time>2019-01-13T08:58:34.000Z</time>
      </trkpt>
      <trkpt lat="46.51608" lon="0.33576">
        <ele>143</ele>
        <time>2019-01-13T08:58:37.000Z</time>
      </trkpt>
      <trkpt lat="46.51616" lon="0.33569">
        <ele>143.07</ele>
        <time>2019-01-13T08:58:39.000Z</time>
      </trkpt>
      <trkpt lat="46.51623" lon="0.33562">
        <ele>142.85</ele>
        <time>2019-01-13T08:58:41.000Z</time>
      </trkpt>
      <trkpt lat="46.51631" lon="0.33553">
        <ele>142.81</ele>
        <time>2019-01-13T08:58:43.000Z</time>
      </trkpt>
      <trkpt lat="46.5164" lon="0.33544">
        <ele>143.24</ele>
        <time>2019-01-13T08:58:45.000Z</time>
      </trkpt>
      <trkpt lat="46.51649" lon="0.33534">
        <ele>143.28</ele>
        <time>2019-01-13T08:58:47.000Z</time>
      </trkpt>
      <trkpt lat="46.51659" lon="0.33524">
        <ele>142.95</ele>
        <time>2019-01-13T08:58:49.000Z</time>
      </trkpt>
      <trkpt lat="46.51668" lon="0.33514">
        <ele>142.67</ele>
        <time>2019-01-13T08:58:51.000Z</time>
      </trkpt>
      <trkpt lat="46.51681" lon="0.33501">
        <ele>142.26</ele>
        <time>2019-01-13T08:58:53.000Z</time>
      </trkpt>
      <trkpt lat="46.51693" lon="0.3349">
        <ele>141.66</ele>
        <time>2019-01-13T08:58:55.000Z</time>
      </trkpt>
      <trkpt lat="46.51702" lon="0.33482">
        <ele>140.66</ele>
        <time>2019-01-13T08:58:57.000Z</time>
      </trkpt>
      <trkpt lat="46.51711" lon="0.33475">
        <ele>139.65</ele>
        <time>2019-01-13T08:58:59.000Z</time>
      </trkpt>
      <trkpt lat="46.51723" lon="0.33465">
        <ele>138.48</ele>
        <time>2019-01-13T08:59:01.000Z</time>
      </trkpt>
      <trkpt lat="46.51732" lon="0.33458">
        <ele>137.77</ele>
        <time>2019-01-13T08:59:03.000Z</time>
      </trkpt>
      <trkpt lat="46.5174" lon="0.3345">
        <ele>137.9</ele>
        <time>2019-01-13T08:59:05.000Z</time>
      </trkpt>
      <trkpt lat="46.51748" lon="0.33443">
        <ele>138.36</ele>
        <time>2019-01-13T08:59:07.000Z</time>
      </trkpt>
      <trkpt lat="46.51757" lon="0.33435">
        <ele>138.52</ele>
        <time>2019-01-13T08:59:09.000Z</time>
      </trkpt>
      <trkpt lat="46.51767" lon="0.33429">
        <ele>138.07</ele>
        <time>2019-01-13T08:59:11.000Z</time>
      </trkpt>
      <trkpt lat="46.51777" lon="0.33424">
        <ele>137.11</ele>
        <time>2019-01-13T08:59:13.000Z</time>
      </trkpt>
      <trkpt lat="46.51786" lon="0.33421">
        <ele>136.37</ele>
        <time>2019-01-13T08:59:15.000Z</time>
      </trkpt>
      <trkpt lat="46.51797" lon="0.33416">
        <ele>135.64</ele>
        <time>2019-01-13T08:59:17.000Z</time>
      </trkpt>
      <trkpt lat="46.51807" lon="0.33413">
        <ele>135.43</ele>
        <time>2019-01-13T08:59:19.000Z</time>
      </trkpt>
      <trkpt lat="46.5182" lon="0.33415">
        <ele>135.39</ele>
        <time>2019-01-13T08:59:22.000Z</time>
      </trkpt>
      <trkpt lat="46.51831" lon="0.33414">
        <ele>134.92</ele>
        <time>2019-01-13T08:59:24.000Z</time>
      </trkpt>
      <trkpt lat="46.5184" lon="0.33411">
        <ele>134.33</ele>
        <time>2019-01-13T08:59:26.000Z</time>
      </trkpt>
      <trkpt lat="46.5185" lon="0.33414">
        <ele>133.89</ele>
        <time>2019-01-13T08:59:28.000Z</time>
      </trkpt>
      <trkpt lat="46.5186" lon="0.33416">
        <ele>133.51</ele>
        <time>2019-01-13T08:59:30.000Z</time>
      </trkpt>
      <trkpt lat="46.51872" lon="0.33412">
        <ele>133.8</ele>
        <time>2019-01-13T08:59:32.000Z</time>
      </trkpt>
      <trkpt lat="46.51882" lon="0.33405">
        <ele>134.81</ele>
        <time>2019-01-13T08:59:34.000Z</time>
      </trkpt>
      <trkpt lat="46.51892" lon="0.334">
        <ele>136.89</ele>
        <time>2019-01-13T08:59:36.000Z</time>
      </trkpt>
      <trkpt lat="46.51904" lon="0.33403">
        <ele>138.11</ele>
        <time>2019-01-13T08:59:39.000Z</time>
      </trkpt>
      <trkpt lat="46.51905" lon="0.33419">
        <ele>138.35</ele>
        <time>2019-01-13T08:59:41.000Z</time>
      </trkpt>
      <trkpt lat="46.51906" lon="0.33433">
        <ele>138.64</ele>
        <time>2019-01-13T08:59:43.000Z</time>
      </trkpt>
      <trkpt lat="46.5191" lon="0.33446">
        <ele>141.26</ele>
        <time>2019-01-13T08:59:45.000Z</time>
      </trkpt>
      <trkpt lat="46.51915" lon="0.33461">
        <ele>142.47</ele>
        <time>2019-01-13T08:59:47.000Z</time>
      </trkpt>
      <trkpt lat="46.5192" lon="0.33476">
        <ele>143.03</ele>
        <time>2019-01-13T08:59:49.000Z</time>
      </trkpt>
      <trkpt lat="46.51925" lon="0.33492">
        <ele>143.62</ele>
        <time>2019-01-13T08:59:51.000Z</time>
      </trkpt>
      <trkpt lat="46.51928" lon="0.33508">
        <ele>144.54</ele>
        <time>2019-01-13T08:59:53.000Z</time>
      </trkpt>
      <trkpt lat="46.51932" lon="0.33524">
        <ele>145.67</ele>
        <time>2019-01-13T08:59:55.000Z</time>
      </trkpt>
      <trkpt lat="46.51937" lon="0.3354">
        <ele>146.87</ele>
        <time>2019-01-13T08:59:57.000Z</time>
      </trkpt>
      <trkpt lat="46.51941" lon="0.33555">
        <ele>148.33</ele>
        <time>2019-01-13T08:59:59.000Z</time>
      </trkpt>
      <trkpt lat="46.51945" lon="0.33569">
        <ele>149.49</ele>
        <time>2019-01-13T09:00:01.000Z</time>
      </trkpt>
      <trkpt lat="46.5195" lon="0.33582">
        <ele>149.6</ele>
        <time>2019-01-13T09:00:03.000Z</time>
      </trkpt>
      <trkpt lat="46.51955" lon="0.33597">
        <ele>149.34</ele>
        <time>2019-01-13T09:00:05.000Z</time>
      </trkpt>
      <trkpt lat="46.51957" lon="0.33611">
        <ele>149.11</ele>
        <time>2019-01-13T09:00:07.000Z</time>
      </trkpt>
      <trkpt lat="46.5196" lon="0.33626">
        <ele>148.67</ele>
        <time>2019-01-13T09:00:09.000Z</time>
      </trkpt>
      <trkpt lat="46.51965" lon="0.33641">
        <ele>148.34</ele>
        <time>2019-01-13T09:00:11.000Z</time>
      </trkpt>
      <trkpt lat="46.51969" lon="0.33655">
        <ele>148.16</ele>
        <time>2019-01-13T09:00:13.000Z</time>
      </trkpt>
      <trkpt lat="46.51971" lon="0.33668">
        <ele>148.27</ele>
        <time>2019-01-13T09:00:15.000Z</time>
      </trkpt>
      <trkpt lat="46.51975" lon="0.33683">
        <ele>148.24</ele>
        <time>2019-01-13T09:00:18.000Z</time>
      </trkpt>
      <trkpt lat="46.51979" lon="0.33695">
        <ele>148.32</ele>
        <time>2019-01-13T09:00:20.000Z</time>
      </trkpt>
      <trkpt lat="46.51987" lon="0.33708">
        <ele>148.43</ele>
        <time>2019-01-13T09:00:22.000Z</time>
      </trkpt>
      <trkpt lat="46.51996" lon="0.33719">
        <ele>148.05</ele>
        <time>2019-01-13T09:00:24.000Z</time>
      </trkpt>
      <trkpt lat="46.52005" lon="0.33723">
        <ele>147.83</ele>
        <time>2019-01-13T09:00:27.000Z</time>
      </trkpt>
      <trkpt lat="46.52015" lon="0.33723">
        <ele>147.54</ele>
        <time>2019-01-13T09:00:31.000Z</time>
      </trkpt>
      <trkpt lat="46.52025" lon="0.33723">
        <ele>147.4</ele>
        <time>2019-01-13T09:00:33.000Z</time>
      </trkpt>
      <trkpt lat="46.52035" lon="0.33727">
        <ele>147.24</ele>
        <time>2019-01-13T09:00:35.000Z</time>
      </trkpt>
      <trkpt lat="46.52044" lon="0.33729">
        <ele>147.06</ele>
        <time>2019-01-13T09:00:37.000Z</time>
      </trkpt>
      <trkpt lat="46.52057" lon="0.33731">
        <ele>146.84</ele>
        <time>2019-01-13T09:00:39.000Z</time>
      </trkpt>
      <trkpt lat="46.52066" lon="0.3373">
        <ele>146.75</ele>
        <time>2019-01-13T09:00:41.000Z</time>
      </trkpt>
      <trkpt lat="46.52071" lon="0.33746">
        <ele>146.67</ele>
        <time>2019-01-13T09:00:43.000Z</time>
      </trkpt>
      <trkpt lat="46.52069" lon="0.33762">
        <ele>145.48</ele>
        <time>2019-01-13T09:00:45.000Z</time>
      </trkpt>
      <trkpt lat="46.52066" lon="0.33776">
        <ele>144.13</ele>
        <time>2019-01-13T09:00:47.000Z</time>
      </trkpt>
      <trkpt lat="46.52064" lon="0.33792">
        <ele>143.11</ele>
        <time>2019-01-13T09:00:49.000Z</time>
      </trkpt>
      <trkpt lat="46.52063" lon="0.33807">
        <ele>141.95</ele>
        <time>2019-01-13T09:00:51.000Z</time>
      </trkpt>
      <trkpt lat="46.52064" lon="0.33826">
        <ele>140.32</ele>
        <time>2019-01-13T09:00:53.000Z</time>
      </trkpt>
      <trkpt lat="46.52065" lon="0.33843">
        <ele>139.11</ele>
        <time>2019-01-13T09:00:55.000Z</time>
      </trkpt>
      <trkpt lat="46.52067" lon="0.3386">
        <ele>138.29</ele>
        <time>2019-01-13T09:00:57.000Z</time>
      </trkpt>
      <trkpt lat="46.52069" lon="0.33878">
        <ele>138.06</ele>
        <time>2019-01-13T09:00:59.000Z</time>
      </trkpt>
      <trkpt lat="46.52072" lon="0.33894">
        <ele>138.44</ele>
        <time>2019-01-13T09:01:01.000Z</time>
      </trkpt>
      <trkpt lat="46.52075" lon="0.33909">
        <ele>139.38</ele>
        <time>2019-01-13T09:01:03.000Z</time>
      </trkpt>
      <trkpt lat="46.52081" lon="0.33924">
        <ele>140.6</ele>
        <time>2019-01-13T09:01:05.000Z</time>
      </trkpt>
      <trkpt lat="46.52086" lon="0.3394">
        <ele>141.85</ele>
        <time>2019-01-13T09:01:07.000Z</time>
      </trkpt>
      <trkpt lat="46.52091" lon="0.33953">
        <ele>142.96</ele>
        <time>2019-01-13T09:01:09.000Z</time>
      </trkpt>
      <trkpt lat="46.52102" lon="0.33965">
        <ele>143.84</ele>
        <time>2019-01-13T09:01:12.000Z</time>
      </trkpt>
      <trkpt lat="46.52113" lon="0.33972">
        <ele>145.49</ele>
        <time>2019-01-13T09:01:14.000Z</time>
      </trkpt>
      <trkpt lat="46.52126" lon="0.33977">
        <ele>144.78</ele>
        <time>2019-01-13T09:01:16.000Z</time>
      </trkpt>
      <trkpt lat="46.52138" lon="0.33982">
        <ele>143.35</ele>
        <time>2019-01-13T09:01:18.000Z</time>
      </trkpt>
      <trkpt lat="46.52152" lon="0.33985">
        <ele>142.09</ele>
        <time>2019-01-13T09:01:20.000Z</time>
      </trkpt>
      <trkpt lat="46.52165" lon="0.33986">
        <ele>140.88</ele>
        <time>2019-01-13T09:01:22.000Z</time>
      </trkpt>
      <trkpt lat="46.52176" lon="0.33986">
        <ele>140</ele>
        <time>2019-01-13T09:01:24.000Z</time>
      </trkpt>
      <trkpt lat="46.52188" lon="0.33984">
        <ele>139.53</ele>
        <time>2019-01-13T09:01:26.000Z</time>
      </trkpt>
      <trkpt lat="46.52199" lon="0.33982">
        <ele>139.04</ele>
        <time>2019-01-13T09:01:28.000Z</time>
      </trkpt>
      <trkpt lat="46.52211" lon="0.33981">
        <ele>138.34</ele>
        <time>2019-01-13T09:01:30.000Z</time>
      </trkpt>
      <trkpt lat="46.52223" lon="0.33975">
        <ele>137.51</ele>
        <time>2019-01-13T09:01:32.000Z</time>
      </trkpt>
      <trkpt lat="46.52235" lon="0.33963">
        <ele>136.59</ele>
        <time>2019-01-13T09:01:34.000Z</time>
      </trkpt>
      <trkpt lat="46.52245" lon="0.33953">
        <ele>135.96</ele>
        <time>2019-01-13T09:01:36.000Z</time>
      </trkpt>
      <trkpt lat="46.52255" lon="0.33943">
        <ele>135.52</ele>
        <time>2019-01-13T09:01:38.000Z</time>
      </trkpt>
      <trkpt lat="46.52265" lon="0.33934">
        <ele>135.37</ele>
        <time>2019-01-13T09:01:40.000Z</time>
      </trkpt>
      <trkpt lat="46.52275" lon="0.33926">
        <ele>135.34</ele>
        <time>2019-01-13T09:01:42.000Z</time>
      </trkpt>
      <trkpt lat="46.52284" lon="0.33917">
        <ele>135.48</ele>
        <time>2019-01-13T09:01:44.000Z</time>
      </trkpt>
      <trkpt lat="46.52293" lon="0.33907">
        <ele>135.55</ele>
        <time>2019-01-13T09:01:46.000Z</time>
      </trkpt>
      <trkpt lat="46.52303" lon="0.33896">
        <ele>135.66</ele>
        <time>2019-01-13T09:01:48.000Z</time>
      </trkpt>
      <trkpt lat="46.52313" lon="0.33891">
        <ele>135.73</ele>
        <time>2019-01-13T09:01:50.000Z</time>
      </trkpt>
      <trkpt lat="46.52324" lon="0.33886">
        <ele>135.8</ele>
        <time>2019-01-13T09:01:52.000Z</time>
      </trkpt>
      <trkpt lat="46.52335" lon="0.3388">
        <ele>135.79</ele>
        <time>2019-01-13T09:01:54.000Z</time>
      </trkpt>
      <trkpt lat="46.52345" lon="0.33874">
        <ele>135.72</ele>
        <time>2019-01-13T09:01:56.000Z</time>
      </trkpt>
      <trkpt lat="46.52355" lon="0.33867">
        <ele>135.69</ele>
        <time>2019-01-13T09:01:58.000Z</time>
      </trkpt>
      <trkpt lat="46.52366" lon="0.33861">
        <ele>135.67</ele>
        <time>2019-01-13T09:02:00.000Z</time>
      </trkpt>
      <trkpt lat="46.52377" lon="0.33853">
        <ele>135.73</ele>
        <time>2019-01-13T09:02:02.000Z</time>
      </trkpt>
      <trkpt lat="46.52388" lon="0.33846">
        <ele>135.76</ele>
        <time>2019-01-13T09:02:04.000Z</time>
      </trkpt>
      <trkpt lat="46.52399" lon="0.33837">
        <ele>135.69</ele>
        <time>2019-01-13T09:02:06.000Z</time>
      </trkpt>
      <trkpt lat="46.52409" lon="0.33829">
        <ele>135.69</ele>
        <time>2019-01-13T09:02:08.000Z</time>
      </trkpt>
      <trkpt lat="46.52418" lon="0.33821">
        <ele>135.78</ele>
        <time>2019-01-13T09:02:10.000Z</time>
      </trkpt>
      <trkpt lat="46.52427" lon="0.33812">
        <ele>135.9</ele>
        <time>2019-01-13T09:02:12.000Z</time>
      </trkpt>
      <trkpt lat="46.52436" lon="0.33803">
        <ele>135.92</ele>
        <time>2019-01-13T09:02:14.000Z</time>
      </trkpt>
      <trkpt lat="46.52445" lon="0.33794">
        <ele>135.98</ele>
        <time>2019-01-13T09:02:16.000Z</time>
      </trkpt>
      <trkpt lat="46.52455" lon="0.33784">
        <ele>135.97</ele>
        <time>2019-01-13T09:02:18.000Z</time>
      </trkpt>
      <trkpt lat="46.52464" lon="0.33774">
        <ele>135.82</ele>
        <time>2019-01-13T09:02:20.000Z</time>
      </trkpt>
      <trkpt lat="46.52472" lon="0.33764">
        <ele>135.8</ele>
        <time>2019-01-13T09:02:22.000Z</time>
      </trkpt>
      <trkpt lat="46.5248" lon="0.33753">
        <ele>135.8</ele>
        <time>2019-01-13T09:02:24.000Z</time>
      </trkpt>
      <trkpt lat="46.52487" lon="0.33741">
        <ele>135.87</ele>
        <time>2019-01-13T09:02:26.000Z</time>
      </trkpt>
      <trkpt lat="46.52491" lon="0.3373">
        <ele>135.98</ele>
        <time>2019-01-13T09:02:28.000Z</time>
      </trkpt>
      <trkpt lat="46.52498" lon="0.33713">
        <ele>136.44</ele>
        <time>2019-01-13T09:02:31.000Z</time>
      </trkpt>
      <trkpt lat="46.52502" lon="0.33696">
        <ele>136.88</ele>
        <time>2019-01-13T09:02:34.000Z</time>
      </trkpt>
      <trkpt lat="46.52501" lon="0.33682">
        <ele>137</ele>
        <time>2019-01-13T09:02:37.000Z</time>
      </trkpt>
      <trkpt lat="46.52501" lon="0.33669">
        <ele>137.15</ele>
        <time>2019-01-13T09:02:40.000Z</time>
      </trkpt>
      <trkpt lat="46.52505" lon="0.33655">
        <ele>137.41</ele>
        <time>2019-01-13T09:02:45.000Z</time>
      </trkpt>
      <trkpt lat="46.52511" lon="0.33642">
        <ele>137.94</ele>
        <time>2019-01-13T09:02:51.000Z</time>
      </trkpt>
      <trkpt lat="46.52517" lon="0.33629">
        <ele>138.39</ele>
        <time>2019-01-13T09:02:55.000Z</time>
      </trkpt>
      <trkpt lat="46.52523" lon="0.33618">
        <ele>138.78</ele>
        <time>2019-01-13T09:02:58.000Z</time>
      </trkpt>
      <trkpt lat="46.52527" lon="0.33603">
        <ele>139.39</ele>
        <time>2019-01-13T09:03:02.000Z</time>
      </trkpt>
      <trkpt lat="46.52528" lon="0.33586">
        <ele>139.99</ele>
        <time>2019-01-13T09:03:06.000Z</time>
      </trkpt>
      <trkpt lat="46.52527" lon="0.3357">
        <ele>140.31</ele>
        <time>2019-01-13T09:03:09.000Z</time>
      </trkpt>
      <trkpt lat="46.52527" lon="0.33557">
        <ele>140.58</ele>
        <time>2019-01-13T09:03:12.000Z</time>
      </trkpt>
      <trkpt lat="46.52527" lon="0.3354">
        <ele>140.98</ele>
        <time>2019-01-13T09:03:16.000Z</time>
      </trkpt>
      <trkpt lat="46.52525" lon="0.33525">
        <ele>141.52</ele>
        <time>2019-01-13T09:03:20.000Z</time>
      </trkpt>
      <trkpt lat="46.52523" lon="0.33511">
        <ele>141.82</ele>
        <time>2019-01-13T09:03:24.000Z</time>
      </trkpt>
      <trkpt lat="46.52524" lon="0.33497">
        <ele>142.18</ele>
        <time>2019-01-13T09:03:28.000Z</time>
      </trkpt>
      <trkpt lat="46.52525" lon="0.3348">
        <ele>142.86</ele>
        <time>2019-01-13T09:03:32.000Z</time>
      </trkpt>
      <trkpt lat="46.52527" lon="0.33465">
        <ele>143.46</ele>
        <time>2019-01-13T09:03:36.000Z</time>
      </trkpt>
      <trkpt lat="46.52528" lon="0.33451">
        <ele>144.11</ele>
        <time>2019-01-13T09:03:40.000Z</time>
      </trkpt>
      <trkpt lat="46.52529" lon="0.33435">
        <ele>144.59</ele>
        <time>2019-01-13T09:03:43.000Z</time>
      </trkpt>
      <trkpt lat="46.52525" lon="0.33419">
        <ele>145.01</ele>
        <time>2019-01-13T09:03:47.000Z</time>
      </trkpt>
      <trkpt lat="46.52524" lon="0.33403">
        <ele>145.4</ele>
        <time>2019-01-13T09:03:51.000Z</time>
      </trkpt>
      <trkpt lat="46.52523" lon="0.33387">
        <ele>145.77</ele>
        <time>2019-01-13T09:03:55.000Z</time>
      </trkpt>
      <trkpt lat="46.5252" lon="0.33371">
        <ele>146.16</ele>
        <time>2019-01-13T09:03:59.000Z</time>
      </trkpt>
      <trkpt lat="46.52524" lon="0.33358">
        <ele>146.82</ele>
        <time>2019-01-13T09:04:04.000Z</time>
      </trkpt>
      <trkpt lat="46.52535" lon="0.33353">
        <ele>147.21</ele>
        <time>2019-01-13T09:04:07.000Z</time>
      </trkpt>
      <trkpt lat="46.52546" lon="0.33352">
        <ele>147.56</ele>
        <time>2019-01-13T09:04:10.000Z</time>
      </trkpt>
      <trkpt lat="46.52557" lon="0.33351">
        <ele>147.87</ele>
        <time>2019-01-13T09:04:13.000Z</time>
      </trkpt>
      <trkpt lat="46.52567" lon="0.33353">
        <ele>148.26</ele>
        <time>2019-01-13T09:04:16.000Z</time>
      </trkpt>
      <trkpt lat="46.52578" lon="0.33361">
        <ele>151.79</ele>
        <time>2019-01-13T09:04:19.000Z</time>
      </trkpt>
      <trkpt lat="46.52589" lon="0.33362">
        <ele>154.13</ele>
        <time>2019-01-13T09:04:21.000Z</time>
      </trkpt>
      <trkpt lat="46.52598" lon="0.33371">
        <ele>154.23</ele>
        <time>2019-01-13T09:04:24.000Z</time>
      </trkpt>
      <trkpt lat="46.52605" lon="0.33381">
        <ele>154.3</ele>
        <time>2019-01-13T09:04:26.000Z</time>
      </trkpt>
      <trkpt lat="46.52611" lon="0.33393">
        <ele>154.82</ele>
        <time>2019-01-13T09:04:28.000Z</time>
      </trkpt>
      <trkpt lat="46.52622" lon="0.33405">
        <ele>155.38</ele>
        <time>2019-01-13T09:04:31.000Z</time>
      </trkpt>
      <trkpt lat="46.52632" lon="0.33414">
        <ele>155.57</ele>
        <time>2019-01-13T09:04:34.000Z</time>
      </trkpt>
      <trkpt lat="46.52645" lon="0.3342">
        <ele>155.97</ele>
        <time>2019-01-13T09:04:37.000Z</time>
      </trkpt>
      <trkpt lat="46.52657" lon="0.33423">
        <ele>156.03</ele>
        <time>2019-01-13T09:04:40.000Z</time>
      </trkpt>
      <trkpt lat="46.52668" lon="0.33424">
        <ele>156.03</ele>
        <time>2019-01-13T09:04:43.000Z</time>
      </trkpt>
      <trkpt lat="46.52679" lon="0.33427">
        <ele>156.01</ele>
        <time>2019-01-13T09:04:45.000Z</time>
      </trkpt>
      <trkpt lat="46.52691" lon="0.33428">
        <ele>156.05</ele>
        <time>2019-01-13T09:04:48.000Z</time>
      </trkpt>
      <trkpt lat="46.52704" lon="0.33432">
        <ele>156.24</ele>
        <time>2019-01-13T09:04:51.000Z</time>
      </trkpt>
      <trkpt lat="46.52714" lon="0.33432">
        <ele>156.43</ele>
        <time>2019-01-13T09:04:53.000Z</time>
      </trkpt>
      <trkpt lat="46.52723" lon="0.3343">
        <ele>156.69</ele>
        <time>2019-01-13T09:04:55.000Z</time>
      </trkpt>
      <trkpt lat="46.52736" lon="0.33432">
        <ele>159.14</ele>
        <time>2019-01-13T09:04:58.000Z</time>
      </trkpt>
      <trkpt lat="46.52748" lon="0.3344">
        <ele>163.79</ele>
        <time>2019-01-13T09:05:01.000Z</time>
      </trkpt>
      <trkpt lat="46.52758" lon="0.33445">
        <ele>165.62</ele>
        <time>2019-01-13T09:05:03.000Z</time>
      </trkpt>
      <trkpt lat="46.52769" lon="0.3345">
        <ele>167.51</ele>
        <time>2019-01-13T09:05:05.000Z</time>
      </trkpt>
      <trkpt lat="46.52782" lon="0.33451">
        <ele>167.46</ele>
        <time>2019-01-13T09:05:07.000Z</time>
      </trkpt>
      <trkpt lat="46.52795" lon="0.33453">
        <ele>167.16</ele>
        <time>2019-01-13T09:05:10.000Z</time>
      </trkpt>
      <trkpt lat="46.52806" lon="0.33451">
        <ele>166.72</ele>
        <time>2019-01-13T09:05:12.000Z</time>
      </trkpt>
      <trkpt lat="46.52815" lon="0.33451">
        <ele>166.44</ele>
        <time>2019-01-13T09:05:14.000Z</time>
      </trkpt>
      <trkpt lat="46.52827" lon="0.33444">
        <ele>165.83</ele>
        <time>2019-01-13T09:05:16.000Z</time>
      </trkpt>
      <trkpt lat="46.5284" lon="0.33437">
        <ele>164.71</ele>
        <time>2019-01-13T09:05:19.000Z</time>
      </trkpt>
      <trkpt lat="46.52854" lon="0.33436">
        <ele>163.73</ele>
        <time>2019-01-13T09:05:21.000Z</time>
      </trkpt>
      <trkpt lat="46.52869" lon="0.33438">
        <ele>162.83</ele>
        <time>2019-01-13T09:05:23.000Z</time>
      </trkpt>
      <trkpt lat="46.52881" lon="0.33442">
        <ele>162.03</ele>
        <time>2019-01-13T09:05:25.000Z</time>
      </trkpt>
      <trkpt lat="46.52892" lon="0.33445">
        <ele>161.69</ele>
        <time>2019-01-13T09:05:27.000Z</time>
      </trkpt>
      <trkpt lat="46.52901" lon="0.33449">
        <ele>161.43</ele>
        <time>2019-01-13T09:05:29.000Z</time>
      </trkpt>
      <trkpt lat="46.52913" lon="0.33456">
        <ele>161.5</ele>
        <time>2019-01-13T09:05:32.000Z</time>
      </trkpt>
      <trkpt lat="46.52923" lon="0.33465">
        <ele>161.63</ele>
        <time>2019-01-13T09:05:35.000Z</time>
      </trkpt>
      <trkpt lat="46.52933" lon="0.3347">
        <ele>162</ele>
        <time>2019-01-13T09:05:38.000Z</time>
      </trkpt>
      <trkpt lat="46.52943" lon="0.33473">
        <ele>162.22</ele>
        <time>2019-01-13T09:05:41.000Z</time>
      </trkpt>
      <trkpt lat="46.52952" lon="0.33478">
        <ele>162.57</ele>
        <time>2019-01-13T09:05:44.000Z</time>
      </trkpt>
      <trkpt lat="46.52962" lon="0.33489">
        <ele>164.38</ele>
        <time>2019-01-13T09:05:48.000Z</time>
      </trkpt>
      <trkpt lat="46.52968" lon="0.33503">
        <ele>165.39</ele>
        <time>2019-01-13T09:05:50.000Z</time>
      </trkpt>
      <trkpt lat="46.52977" lon="0.33516">
        <ele>165.84</ele>
        <time>2019-01-13T09:05:53.000Z</time>
      </trkpt>
      <trkpt lat="46.52987" lon="0.33524">
        <ele>165.71</ele>
        <time>2019-01-13T09:05:55.000Z</time>
      </trkpt>
      <trkpt lat="46.52998" lon="0.33528">
        <ele>165.3</ele>
        <time>2019-01-13T09:05:57.000Z</time>
      </trkpt>
      <trkpt lat="46.53008" lon="0.3353">
        <ele>165.13</ele>
        <time>2019-01-13T09:05:59.000Z</time>
      </trkpt>
      <trkpt lat="46.53019" lon="0.33531">
        <ele>165.1</ele>
        <time>2019-01-13T09:06:01.000Z</time>
      </trkpt>
      <trkpt lat="46.5303" lon="0.33532">
        <ele>165.61</ele>
        <time>2019-01-13T09:06:03.000Z</time>
      </trkpt>
      <trkpt lat="46.53039" lon="0.33538">
        <ele>166.11</ele>
        <time>2019-01-13T09:06:05.000Z</time>
      </trkpt>
      <trkpt lat="46.53049" lon="0.33542">
        <ele>166.76</ele>
        <time>2019-01-13T09:06:07.000Z</time>
      </trkpt>
      <trkpt lat="46.53059" lon="0.33546">
        <ele>167.22</ele>
        <time>2019-01-13T09:06:09.000Z</time>
      </trkpt>
      <trkpt lat="46.53067" lon="0.3355">
        <ele>167.35</ele>
        <time>2019-01-13T09:06:11.000Z</time>
      </trkpt>
      <trkpt lat="46.53079" lon="0.33551">
        <ele>167.34</ele>
        <time>2019-01-13T09:06:14.000Z</time>
      </trkpt>
      <trkpt lat="46.53088" lon="0.33555">
        <ele>167.28</ele>
        <time>2019-01-13T09:06:16.000Z</time>
      </trkpt>
      <trkpt lat="46.53098" lon="0.33552">
        <ele>167.28</ele>
        <time>2019-01-13T09:06:18.000Z</time>
      </trkpt>
      <trkpt lat="46.5311" lon="0.33554">
        <ele>167.13</ele>
        <time>2019-01-13T09:06:21.000Z</time>
      </trkpt>
      <trkpt lat="46.53122" lon="0.33559">
        <ele>167.01</ele>
        <time>2019-01-13T09:06:24.000Z</time>
      </trkpt>
      <trkpt lat="46.53132" lon="0.33561">
        <ele>166.92</ele>
        <time>2019-01-13T09:06:26.000Z</time>
      </trkpt>
      <trkpt lat="46.53143" lon="0.33564">
        <ele>167.44</ele>
        <time>2019-01-13T09:06:28.000Z</time>
      </trkpt>
      <trkpt lat="46.53155" lon="0.33568">
        <ele>168.54</ele>
        <time>2019-01-13T09:06:31.000Z</time>
      </trkpt>
      <trkpt lat="46.53165" lon="0.3357">
        <ele>169.32</ele>
        <time>2019-01-13T09:06:33.000Z</time>
      </trkpt>
      <trkpt lat="46.53175" lon="0.3357">
        <ele>169.66</ele>
        <time>2019-01-13T09:06:35.000Z</time>
      </trkpt>
      <trkpt lat="46.53188" lon="0.33568">
        <ele>169.81</ele>
        <time>2019-01-13T09:06:38.000Z</time>
      </trkpt>
      <trkpt lat="46.53199" lon="0.33565">
        <ele>169.92</ele>
        <time>2019-01-13T09:06:41.000Z</time>
      </trkpt>
      <trkpt lat="46.53211" lon="0.33563">
        <ele>170</ele>
        <time>2019-01-13T09:06:44.000Z</time>
      </trkpt>
      <trkpt lat="46.53221" lon="0.33563">
        <ele>170.03</ele>
        <time>2019-01-13T09:06:47.000Z</time>
      </trkpt>
      <trkpt lat="46.5323" lon="0.33568">
        <ele>170.13</ele>
        <time>2019-01-13T09:06:51.000Z</time>
      </trkpt>
      <trkpt lat="46.53239" lon="0.3357">
        <ele>170.39</ele>
        <time>2019-01-13T09:06:55.000Z</time>
      </trkpt>
      <trkpt lat="46.53249" lon="0.33566">
        <ele>170.64</ele>
        <time>2019-01-13T09:06:59.000Z</time>
      </trkpt>
      <trkpt lat="46.53259" lon="0.33568">
        <ele>170.63</ele>
        <time>2019-01-13T09:07:02.000Z</time>
      </trkpt>
      <trkpt lat="46.53268" lon="0.33573">
        <ele>170.55</ele>
        <time>2019-01-13T09:07:05.000Z</time>
      </trkpt>
      <trkpt lat="46.53279" lon="0.3358">
        <ele>170.72</ele>
        <time>2019-01-13T09:07:09.000Z</time>
      </trkpt>
      <trkpt lat="46.53287" lon="0.33587">
        <ele>171</ele>
        <time>2019-01-13T09:07:13.000Z</time>
      </trkpt>
      <trkpt lat="46.53294" lon="0.3358">
        <ele>171.54</ele>
        <time>2019-01-13T09:07:46.000Z</time>
      </trkpt>
      <trkpt lat="46.53303" lon="0.33576">
        <ele>170.9</ele>
        <time>2019-01-13T09:08:09.000Z</time>
      </trkpt>
      <trkpt lat="46.53309" lon="0.33585">
        <ele>169.1</ele>
        <time>2019-01-13T09:09:34.000Z</time>
      </trkpt>
      <trkpt lat="46.53302" lon="0.33579">
        <ele>170.07</ele>
        <time>2019-01-13T09:10:28.000Z</time>
      </trkpt>
      <trkpt lat="46.53309" lon="0.33586">
        <ele>170.05</ele>
        <time>2019-01-13T09:15:09.000Z</time>
      </trkpt>
      <trkpt lat="46.533" lon="0.3359">
        <ele>168.92</ele>
        <time>2019-01-13T09:18:16.000Z</time>
      </trkpt>
      <trkpt lat="46.53294" lon="0.33599">
        <ele>170.71</ele>
        <time>2019-01-13T09:18:32.000Z</time>
      </trkpt>
      <trkpt lat="46.53291" lon="0.33585">
        <ele>173.39</ele>
        <time>2019-01-13T09:21:21.000Z</time>
      </trkpt>
      <trkpt lat="46.53296" lon="0.33569">
        <ele>175.28</ele>
        <time>2019-01-13T09:22:14.000Z</time>
      </trkpt>
      <trkpt lat="46.53297" lon="0.33555">
        <ele>175.37</ele>
        <time>2019-01-13T09:22:17.000Z</time>
      </trkpt>
      <trkpt lat="46.53296" lon="0.33541">
        <ele>175.38</ele>
        <time>2019-01-13T09:22:20.000Z</time>
      </trkpt>
      <trkpt lat="46.53291" lon="0.33526">
        <ele>175.27</ele>
        <time>2019-01-13T09:22:24.000Z</time>
      </trkpt>
      <trkpt lat="46.53291" lon="0.3351">
        <ele>175.13</ele>
        <time>2019-01-13T09:22:27.000Z</time>
      </trkpt>
      <trkpt lat="46.53289" lon="0.33496">
        <ele>174.99</ele>
        <time>2019-01-13T09:22:30.000Z</time>
      </trkpt>
      <trkpt lat="46.53286" lon="0.33483">
        <ele>174.83</ele>
        <time>2019-01-13T09:22:33.000Z</time>
      </trkpt>
      <trkpt lat="46.53283" lon="0.3347">
        <ele>174.63</ele>
        <time>2019-01-13T09:22:36.000Z</time>
      </trkpt>
      <trkpt lat="46.53278" lon="0.33454">
        <ele>174.41</ele>
        <time>2019-01-13T09:22:39.000Z</time>
      </trkpt>
      <trkpt lat="46.53275" lon="0.33439">
        <ele>174.24</ele>
        <time>2019-01-13T09:22:42.000Z</time>
      </trkpt>
      <trkpt lat="46.53273" lon="0.33424">
        <ele>174.21</ele>
        <time>2019-01-13T09:22:45.000Z</time>
      </trkpt>
      <trkpt lat="46.53271" lon="0.3341">
        <ele>174.31</ele>
        <time>2019-01-13T09:22:48.000Z</time>
      </trkpt>
      <trkpt lat="46.53269" lon="0.33395">
        <ele>174.39</ele>
        <time>2019-01-13T09:22:51.000Z</time>
      </trkpt>
      <trkpt lat="46.53265" lon="0.3338">
        <ele>174.49</ele>
        <time>2019-01-13T09:22:54.000Z</time>
      </trkpt>
      <trkpt lat="46.53262" lon="0.33367">
        <ele>174.59</ele>
        <time>2019-01-13T09:22:57.000Z</time>
      </trkpt>
      <trkpt lat="46.5326" lon="0.33352">
        <ele>174.58</ele>
        <time>2019-01-13T09:23:02.000Z</time>
      </trkpt>
      <trkpt lat="46.53257" lon="0.33337">
        <ele>174.44</ele>
        <time>2019-01-13T09:23:06.000Z</time>
      </trkpt>
      <trkpt lat="46.53253" lon="0.33325">
        <ele>174.34</ele>
        <time>2019-01-13T09:23:09.000Z</time>
      </trkpt>
      <trkpt lat="46.53248" lon="0.33312">
        <ele>174.24</ele>
        <time>2019-01-13T09:23:13.000Z</time>
      </trkpt>
      <trkpt lat="46.53241" lon="0.33302">
        <ele>174.16</ele>
        <time>2019-01-13T09:23:17.000Z</time>
      </trkpt>
      <trkpt lat="46.53232" lon="0.33292">
        <ele>174.12</ele>
        <time>2019-01-13T09:23:21.000Z</time>
      </trkpt>
      <trkpt lat="46.53224" lon="0.33284">
        <ele>174.34</ele>
        <time>2019-01-13T09:23:25.000Z</time>
      </trkpt>
      <trkpt lat="46.53214" lon="0.3328">
        <ele>174.52</ele>
        <time>2019-01-13T09:23:28.000Z</time>
      </trkpt>
      <trkpt lat="46.53204" lon="0.33285">
        <ele>174.55</ele>
        <time>2019-01-13T09:23:31.000Z</time>
      </trkpt>
      <trkpt lat="46.53196" lon="0.33293">
        <ele>174.45</ele>
        <time>2019-01-13T09:23:34.000Z</time>
      </trkpt>
      <trkpt lat="46.5319" lon="0.33306">
        <ele>173.35</ele>
        <time>2019-01-13T09:23:37.000Z</time>
      </trkpt>
      <trkpt lat="46.53182" lon="0.3332">
        <ele>169.51</ele>
        <time>2019-01-13T09:23:40.000Z</time>
      </trkpt>
      <trkpt lat="46.53173" lon="0.33329">
        <ele>168.09</ele>
        <time>2019-01-13T09:23:42.000Z</time>
      </trkpt>
      <trkpt lat="46.53162" lon="0.3334">
        <ele>167.1</ele>
        <time>2019-01-13T09:23:44.000Z</time>
      </trkpt>
      <trkpt lat="46.53151" lon="0.33347">
        <ele>166.91</ele>
        <time>2019-01-13T09:23:46.000Z</time>
      </trkpt>
      <trkpt lat="46.5314" lon="0.33354">
        <ele>167.11</ele>
        <time>2019-01-13T09:23:48.000Z</time>
      </trkpt>
      <trkpt lat="46.53127" lon="0.3336">
        <ele>168.62</ele>
        <time>2019-01-13T09:23:50.000Z</time>
      </trkpt>
      <trkpt lat="46.53116" lon="0.33366">
        <ele>170.37</ele>
        <time>2019-01-13T09:23:52.000Z</time>
      </trkpt>
      <trkpt lat="46.53106" lon="0.3337">
        <ele>172.31</ele>
        <time>2019-01-13T09:23:54.000Z</time>
      </trkpt>
      <trkpt lat="46.53092" lon="0.33375">
        <ele>173.96</ele>
        <time>2019-01-13T09:23:56.000Z</time>
      </trkpt>
      <trkpt lat="46.53078" lon="0.33377">
        <ele>174.81</ele>
        <time>2019-01-13T09:23:58.000Z</time>
      </trkpt>
      <trkpt lat="46.53064" lon="0.33378">
        <ele>174.89</ele>
        <time>2019-01-13T09:24:00.000Z</time>
      </trkpt>
      <trkpt lat="46.5305" lon="0.33378">
        <ele>174.18</ele>
        <time>2019-01-13T09:24:02.000Z</time>
      </trkpt>
      <trkpt lat="46.53035" lon="0.33381">
        <ele>172.93</ele>
        <time>2019-01-13T09:24:04.000Z</time>
      </trkpt>
      <trkpt lat="46.5302" lon="0.33388">
        <ele>171.99</ele>
        <time>2019-01-13T09:24:06.000Z</time>
      </trkpt>
      <trkpt lat="46.53006" lon="0.33397">
        <ele>171.36</ele>
        <time>2019-01-13T09:24:08.000Z</time>
      </trkpt>
      <trkpt lat="46.5299" lon="0.33405">
        <ele>170.58</ele>
        <time>2019-01-13T09:24:10.000Z</time>
      </trkpt>
      <trkpt lat="46.52974" lon="0.33413">
        <ele>169.69</ele>
        <time>2019-01-13T09:24:12.000Z</time>
      </trkpt>
      <trkpt lat="46.52956" lon="0.33422">
        <ele>168.94</ele>
        <time>2019-01-13T09:24:14.000Z</time>
      </trkpt>
      <trkpt lat="46.52947" lon="0.33425">
        <ele>168.49</ele>
        <time>2019-01-13T09:24:15.000Z</time>
      </trkpt>
      <trkpt lat="46.52937" lon="0.33426">
        <ele>168.05</ele>
        <time>2019-01-13T09:24:16.000Z</time>
      </trkpt>
      <trkpt lat="46.52928" lon="0.33426">
        <ele>167.62</ele>
        <time>2019-01-13T09:24:17.000Z</time>
      </trkpt>
      <trkpt lat="46.52919" lon="0.33425">
        <ele>167.33</ele>
        <time>2019-01-13T09:24:18.000Z</time>
      </trkpt>
      <trkpt lat="46.5291" lon="0.33424">
        <ele>166.86</ele>
        <time>2019-01-13T09:24:19.000Z</time>
      </trkpt>
      <trkpt lat="46.529" lon="0.33425">
        <ele>166.23</ele>
        <time>2019-01-13T09:24:20.000Z</time>
      </trkpt>
      <trkpt lat="46.52891" lon="0.33423">
        <ele>165.82</ele>
        <time>2019-01-13T09:24:21.000Z</time>
      </trkpt>
      <trkpt lat="46.52881" lon="0.33421">
        <ele>165.3</ele>
        <time>2019-01-13T09:24:22.000Z</time>
      </trkpt>
      <trkpt lat="46.52872" lon="0.33421">
        <ele>164.42</ele>
        <time>2019-01-13T09:24:23.000Z</time>
      </trkpt>
      <trkpt lat="46.52862" lon="0.33422">
        <ele>163.74</ele>
        <time>2019-01-13T09:24:24.000Z</time>
      </trkpt>
      <trkpt lat="46.52853" lon="0.33423">
        <ele>163.03</ele>
        <time>2019-01-13T09:24:25.000Z</time>
      </trkpt>
      <trkpt lat="46.52836" lon="0.33428">
        <ele>161.77</ele>
        <time>2019-01-13T09:24:27.000Z</time>
      </trkpt>
      <trkpt lat="46.52823" lon="0.33432">
        <ele>161.24</ele>
        <time>2019-01-13T09:24:29.000Z</time>
      </trkpt>
      <trkpt lat="46.52811" lon="0.33434">
        <ele>160.57</ele>
        <time>2019-01-13T09:24:31.000Z</time>
      </trkpt>
      <trkpt lat="46.52803" lon="0.33427">
        <ele>159.94</ele>
        <time>2019-01-13T09:24:33.000Z</time>
      </trkpt>
      <trkpt lat="46.52799" lon="0.33415">
        <ele>159.54</ele>
        <time>2019-01-13T09:24:35.000Z</time>
      </trkpt>
      <trkpt lat="46.52798" lon="0.33396">
        <ele>158.59</ele>
        <time>2019-01-13T09:24:38.000Z</time>
      </trkpt>
      <trkpt lat="46.52796" lon="0.33382">
        <ele>157.79</ele>
        <time>2019-01-13T09:24:40.000Z</time>
      </trkpt>
      <trkpt lat="46.52795" lon="0.33366">
        <ele>156.96</ele>
        <time>2019-01-13T09:24:42.000Z</time>
      </trkpt>
      <trkpt lat="46.52795" lon="0.33348">
        <ele>156.51</ele>
        <time>2019-01-13T09:24:44.000Z</time>
      </trkpt>
      <trkpt lat="46.52794" lon="0.33332">
        <ele>156.16</ele>
        <time>2019-01-13T09:24:46.000Z</time>
      </trkpt>
      <trkpt lat="46.52797" lon="0.33315">
        <ele>156.11</ele>
        <time>2019-01-13T09:24:48.000Z</time>
      </trkpt>
      <trkpt lat="46.52798" lon="0.33297">
        <ele>155.54</ele>
        <time>2019-01-13T09:24:50.000Z</time>
      </trkpt>
      <trkpt lat="46.52799" lon="0.3328">
        <ele>155.28</ele>
        <time>2019-01-13T09:24:52.000Z</time>
      </trkpt>
      <trkpt lat="46.52798" lon="0.33264">
        <ele>154.87</ele>
        <time>2019-01-13T09:24:54.000Z</time>
      </trkpt>
      <trkpt lat="46.52795" lon="0.3325">
        <ele>153.98</ele>
        <time>2019-01-13T09:24:56.000Z</time>
      </trkpt>
      <trkpt lat="46.52793" lon="0.33235">
        <ele>153.98</ele>
        <time>2019-01-13T09:24:58.000Z</time>
      </trkpt>
      <trkpt lat="46.52791" lon="0.33217">
        <ele>153.97</ele>
        <time>2019-01-13T09:25:01.000Z</time>
      </trkpt>
      <trkpt lat="46.5279" lon="0.33204">
        <ele>154.04</ele>
        <time>2019-01-13T09:25:04.000Z</time>
      </trkpt>
      <trkpt lat="46.52791" lon="0.33188">
        <ele>154.34</ele>
        <time>2019-01-13T09:25:08.000Z</time>
      </trkpt>
      <trkpt lat="46.5279" lon="0.33174">
        <ele>154.67</ele>
        <time>2019-01-13T09:25:11.000Z</time>
      </trkpt>
      <trkpt lat="46.5279" lon="0.33161">
        <ele>155.13</ele>
        <time>2019-01-13T09:25:15.000Z</time>
      </trkpt>
      <trkpt lat="46.52788" lon="0.33144">
        <ele>155.58</ele>
        <time>2019-01-13T09:25:20.000Z</time>
      </trkpt>
      <trkpt lat="46.52785" lon="0.33129">
        <ele>155.41</ele>
        <time>2019-01-13T09:25:24.000Z</time>
      </trkpt>
      <trkpt lat="46.52783" lon="0.33113">
        <ele>155.08</ele>
        <time>2019-01-13T09:25:28.000Z</time>
      </trkpt>
      <trkpt lat="46.52782" lon="0.33097">
        <ele>154.82</ele>
        <time>2019-01-13T09:25:32.000Z</time>
      </trkpt>
      <trkpt lat="46.52781" lon="0.33083">
        <ele>154.48</ele>
        <time>2019-01-13T09:25:36.000Z</time>
      </trkpt>
      <trkpt lat="46.52781" lon="0.33065">
        <ele>154.32</ele>
        <time>2019-01-13T09:25:40.000Z</time>
      </trkpt>
      <trkpt lat="46.5278" lon="0.3305">
        <ele>154.26</ele>
        <time>2019-01-13T09:25:43.000Z</time>
      </trkpt>
      <trkpt lat="46.52778" lon="0.33036">
        <ele>154.27</ele>
        <time>2019-01-13T09:25:47.000Z</time>
      </trkpt>
      <trkpt lat="46.52777" lon="0.33022">
        <ele>154.48</ele>
        <time>2019-01-13T09:25:50.000Z</time>
      </trkpt>
      <trkpt lat="46.52777" lon="0.33005">
        <ele>154.84</ele>
        <time>2019-01-13T09:25:53.000Z</time>
      </trkpt>
      <trkpt lat="46.52776" lon="0.3299">
        <ele>155.24</ele>
        <time>2019-01-13T09:25:56.000Z</time>
      </trkpt>
      <trkpt lat="46.52774" lon="0.32976">
        <ele>155.66</ele>
        <time>2019-01-13T09:25:59.000Z</time>
      </trkpt>
      <trkpt lat="46.52771" lon="0.32962">
        <ele>156.19</ele>
        <time>2019-01-13T09:26:02.000Z</time>
      </trkpt>
      <trkpt lat="46.5277" lon="0.32949">
        <ele>157.07</ele>
        <time>2019-01-13T09:26:06.000Z</time>
      </trkpt>
      <trkpt lat="46.52768" lon="0.32933">
        <ele>158.03</ele>
        <time>2019-01-13T09:26:10.000Z</time>
      </trkpt>
      <trkpt lat="46.52766" lon="0.32917">
        <ele>158.77</ele>
        <time>2019-01-13T09:26:13.000Z</time>
      </trkpt>
      <trkpt lat="46.52765" lon="0.32903">
        <ele>159.19</ele>
        <time>2019-01-13T09:26:15.000Z</time>
      </trkpt>
      <trkpt lat="46.52762" lon="0.32886">
        <ele>159.69</ele>
        <time>2019-01-13T09:26:17.000Z</time>
      </trkpt>
      <trkpt lat="46.52761" lon="0.32869">
        <ele>160.4</ele>
        <time>2019-01-13T09:26:20.000Z</time>
      </trkpt>
      <trkpt lat="46.52761" lon="0.32855">
        <ele>161.07</ele>
        <time>2019-01-13T09:26:23.000Z</time>
      </trkpt>
      <trkpt lat="46.5276" lon="0.32841">
        <ele>161.67</ele>
        <time>2019-01-13T09:26:26.000Z</time>
      </trkpt>
      <trkpt lat="46.52757" lon="0.32823">
        <ele>162.15</ele>
        <time>2019-01-13T09:26:29.000Z</time>
      </trkpt>
      <trkpt lat="46.52756" lon="0.32805">
        <ele>162.57</ele>
        <time>2019-01-13T09:26:32.000Z</time>
      </trkpt>
      <trkpt lat="46.52754" lon="0.32788">
        <ele>163.66</ele>
        <time>2019-01-13T09:26:35.000Z</time>
      </trkpt>
      <trkpt lat="46.52753" lon="0.32775">
        <ele>164.16</ele>
        <time>2019-01-13T09:26:37.000Z</time>
      </trkpt>
      <trkpt lat="46.5275" lon="0.32757">
        <ele>164.18</ele>
        <time>2019-01-13T09:26:40.000Z</time>
      </trkpt>
      <trkpt lat="46.52749" lon="0.3274">
        <ele>164.2</ele>
        <time>2019-01-13T09:26:43.000Z</time>
      </trkpt>
      <trkpt lat="46.52748" lon="0.32725">
        <ele>163.93</ele>
        <time>2019-01-13T09:26:45.000Z</time>
      </trkpt>
      <trkpt lat="46.52747" lon="0.32708">
        <ele>163.32</ele>
        <time>2019-01-13T09:26:47.000Z</time>
      </trkpt>
      <trkpt lat="46.52745" lon="0.32691">
        <ele>163.01</ele>
        <time>2019-01-13T09:26:49.000Z</time>
      </trkpt>
      <trkpt lat="46.52744" lon="0.32676">
        <ele>163.03</ele>
        <time>2019-01-13T09:26:51.000Z</time>
      </trkpt>
      <trkpt lat="46.52735" lon="0.32674">
        <ele>163.09</ele>
        <time>2019-01-13T09:26:54.000Z</time>
      </trkpt>
      <trkpt lat="46.52723" lon="0.32682">
        <ele>163.3</ele>
        <time>2019-01-13T09:26:57.000Z</time>
      </trkpt>
      <trkpt lat="46.5271" lon="0.32687">
        <ele>164.51</ele>
        <time>2019-01-13T09:27:00.000Z</time>
      </trkpt>
      <trkpt lat="46.527" lon="0.32691">
        <ele>165.79</ele>
        <time>2019-01-13T09:27:02.000Z</time>
      </trkpt>
      <trkpt lat="46.52689" lon="0.32694">
        <ele>166.55</ele>
        <time>2019-01-13T09:27:04.000Z</time>
      </trkpt>
      <trkpt lat="46.52678" lon="0.32699">
        <ele>167.22</ele>
        <time>2019-01-13T09:27:06.000Z</time>
      </trkpt>
      <trkpt lat="46.52665" lon="0.32706">
        <ele>167.1</ele>
        <time>2019-01-13T09:27:08.000Z</time>
      </trkpt>
      <trkpt lat="46.52649" lon="0.32711">
        <ele>166.31</ele>
        <time>2019-01-13T09:27:10.000Z</time>
      </trkpt>
      <trkpt lat="46.52637" lon="0.32719">
        <ele>165.67</ele>
        <time>2019-01-13T09:27:12.000Z</time>
      </trkpt>
      <trkpt lat="46.52625" lon="0.3273">
        <ele>165.74</ele>
        <time>2019-01-13T09:27:14.000Z</time>
      </trkpt>
      <trkpt lat="46.52614" lon="0.32745">
        <ele>165.97</ele>
        <time>2019-01-13T09:27:16.000Z</time>
      </trkpt>
      <trkpt lat="46.52603" lon="0.32763">
        <ele>166.42</ele>
        <time>2019-01-13T09:27:18.000Z</time>
      </trkpt>
      <trkpt lat="46.52593" lon="0.32778">
        <ele>166.8</ele>
        <time>2019-01-13T09:27:20.000Z</time>
      </trkpt>
      <trkpt lat="46.52582" lon="0.32784">
        <ele>167.28</ele>
        <time>2019-01-13T09:27:22.000Z</time>
      </trkpt>
      <trkpt lat="46.5257" lon="0.32786">
        <ele>167.99</ele>
        <time>2019-01-13T09:27:24.000Z</time>
      </trkpt>
      <trkpt lat="46.52559" lon="0.32792">
        <ele>168.2</ele>
        <time>2019-01-13T09:27:26.000Z</time>
      </trkpt>
      <trkpt lat="46.52547" lon="0.32792">
        <ele>168.23</ele>
        <time>2019-01-13T09:27:28.000Z</time>
      </trkpt>
      <trkpt lat="46.52537" lon="0.32795">
        <ele>168.05</ele>
        <time>2019-01-13T09:27:30.000Z</time>
      </trkpt>
      <trkpt lat="46.52527" lon="0.32802">
        <ele>167.74</ele>
        <time>2019-01-13T09:27:32.000Z</time>
      </trkpt>
      <trkpt lat="46.52517" lon="0.32806">
        <ele>167.29</ele>
        <time>2019-01-13T09:27:34.000Z</time>
      </trkpt>
      <trkpt lat="46.52507" lon="0.3281">
        <ele>166.99</ele>
        <time>2019-01-13T09:27:36.000Z</time>
      </trkpt>
      <trkpt lat="46.52495" lon="0.32816">
        <ele>166.73</ele>
        <time>2019-01-13T09:27:38.000Z</time>
      </trkpt>
      <trkpt lat="46.52483" lon="0.32822">
        <ele>166.83</ele>
        <time>2019-01-13T09:27:40.000Z</time>
      </trkpt>
      <trkpt lat="46.5247" lon="0.32828">
        <ele>166.92</ele>
        <time>2019-01-13T09:27:42.000Z</time>
      </trkpt>
      <trkpt lat="46.52459" lon="0.32835">
        <ele>167.09</ele>
        <time>2019-01-13T09:27:44.000Z</time>
      </trkpt>
      <trkpt lat="46.52448" lon="0.3284">
        <ele>167.01</ele>
        <time>2019-01-13T09:27:46.000Z</time>
      </trkpt>
      <trkpt lat="46.52438" lon="0.32845">
        <ele>166.85</ele>
        <time>2019-01-13T09:27:48.000Z</time>
      </trkpt>
      <trkpt lat="46.52427" lon="0.3285">
        <ele>166.52</ele>
        <time>2019-01-13T09:27:50.000Z</time>
      </trkpt>
      <trkpt lat="46.52415" lon="0.32855">
        <ele>166.06</ele>
        <time>2019-01-13T09:27:52.000Z</time>
      </trkpt>
      <trkpt lat="46.52404" lon="0.32861">
        <ele>166.02</ele>
        <time>2019-01-13T09:27:54.000Z</time>
      </trkpt>
      <trkpt lat="46.52391" lon="0.32868">
        <ele>165.95</ele>
        <time>2019-01-13T09:27:56.000Z</time>
      </trkpt>
      <trkpt lat="46.52381" lon="0.32875">
        <ele>165.54</ele>
        <time>2019-01-13T09:27:58.000Z</time>
      </trkpt>
      <trkpt lat="46.5237" lon="0.32882">
        <ele>165.11</ele>
        <time>2019-01-13T09:28:00.000Z</time>
      </trkpt>
      <trkpt lat="46.52359" lon="0.32889">
        <ele>164.61</ele>
        <time>2019-01-13T09:28:02.000Z</time>
      </trkpt>
      <trkpt lat="46.52349" lon="0.32895">
        <ele>164.1</ele>
        <time>2019-01-13T09:28:04.000Z</time>
      </trkpt>
      <trkpt lat="46.52338" lon="0.32902">
        <ele>163.63</ele>
        <time>2019-01-13T09:28:06.000Z</time>
      </trkpt>
      <trkpt lat="46.52327" lon="0.32908">
        <ele>163.41</ele>
        <time>2019-01-13T09:28:08.000Z</time>
      </trkpt>
      <trkpt lat="46.52316" lon="0.32914">
        <ele>162.75</ele>
        <time>2019-01-13T09:28:10.000Z</time>
      </trkpt>
      <trkpt lat="46.52303" lon="0.32923">
        <ele>161.93</ele>
        <time>2019-01-13T09:28:12.000Z</time>
      </trkpt>
      <trkpt lat="46.5229" lon="0.32933">
        <ele>161.01</ele>
        <time>2019-01-13T09:28:14.000Z</time>
      </trkpt>
      <trkpt lat="46.52275" lon="0.32943">
        <ele>160.12</ele>
        <time>2019-01-13T09:28:16.000Z</time>
      </trkpt>
      <trkpt lat="46.5226" lon="0.32955">
        <ele>159.38</ele>
        <time>2019-01-13T09:28:18.000Z</time>
      </trkpt>
      <trkpt lat="46.52247" lon="0.32967">
        <ele>158.83</ele>
        <time>2019-01-13T09:28:20.000Z</time>
      </trkpt>
      <trkpt lat="46.52237" lon="0.32982">
        <ele>158.36</ele>
        <time>2019-01-13T09:28:22.000Z</time>
      </trkpt>
      <trkpt lat="46.52229" lon="0.32994">
        <ele>158.03</ele>
        <time>2019-01-13T09:28:24.000Z</time>
      </trkpt>
      <trkpt lat="46.52218" lon="0.33003">
        <ele>157.86</ele>
        <time>2019-01-13T09:28:27.000Z</time>
      </trkpt>
      <trkpt lat="46.5221" lon="0.33012">
        <ele>157.6</ele>
        <time>2019-01-13T09:28:32.000Z</time>
      </trkpt>
      <trkpt lat="46.52201" lon="0.33018">
        <ele>155.84</ele>
        <time>2019-01-13T09:28:35.000Z</time>
      </trkpt>
      <trkpt lat="46.52191" lon="0.33019">
        <ele>154.13</ele>
        <time>2019-01-13T09:28:37.000Z</time>
      </trkpt>
      <trkpt lat="46.52179" lon="0.33023">
        <ele>152.56</ele>
        <time>2019-01-13T09:28:39.000Z</time>
      </trkpt>
      <trkpt lat="46.52167" lon="0.33028">
        <ele>151.04</ele>
        <time>2019-01-13T09:28:41.000Z</time>
      </trkpt>
      <trkpt lat="46.52155" lon="0.3303">
        <ele>149.64</ele>
        <time>2019-01-13T09:28:43.000Z</time>
      </trkpt>
      <trkpt lat="46.52143" lon="0.33035">
        <ele>148.29</ele>
        <time>2019-01-13T09:28:45.000Z</time>
      </trkpt>
      <trkpt lat="46.52136" lon="0.33049">
        <ele>147.1</ele>
        <time>2019-01-13T09:28:47.000Z</time>
      </trkpt>
      <trkpt lat="46.52126" lon="0.33053">
        <ele>146.17</ele>
        <time>2019-01-13T09:28:49.000Z</time>
      </trkpt>
      <trkpt lat="46.52116" lon="0.33047">
        <ele>145.66</ele>
        <time>2019-01-13T09:28:51.000Z</time>
      </trkpt>
      <trkpt lat="46.52108" lon="0.33033">
        <ele>145.64</ele>
        <time>2019-01-13T09:28:54.000Z</time>
      </trkpt>
      <trkpt lat="46.521" lon="0.33022">
        <ele>145.68</ele>
        <time>2019-01-13T09:28:57.000Z</time>
      </trkpt>
      <trkpt lat="46.52092" lon="0.33011">
        <ele>145.72</ele>
        <time>2019-01-13T09:29:00.000Z</time>
      </trkpt>
      <trkpt lat="46.52086" lon="0.33001">
        <ele>145.8</ele>
        <time>2019-01-13T09:29:03.000Z</time>
      </trkpt>
      <trkpt lat="46.52078" lon="0.32991">
        <ele>145.89</ele>
        <time>2019-01-13T09:29:06.000Z</time>
      </trkpt>
      <trkpt lat="46.52071" lon="0.32981">
        <ele>145.96</ele>
        <time>2019-01-13T09:29:09.000Z</time>
      </trkpt>
      <trkpt lat="46.52062" lon="0.32975">
        <ele>146.09</ele>
        <time>2019-01-13T09:29:12.000Z</time>
      </trkpt>
      <trkpt lat="46.52052" lon="0.32971">
        <ele>147.16</ele>
        <time>2019-01-13T09:29:15.000Z</time>
      </trkpt>
      <trkpt lat="46.52041" lon="0.32966">
        <ele>147.21</ele>
        <time>2019-01-13T09:29:18.000Z</time>
      </trkpt>
      <trkpt lat="46.52029" lon="0.32958">
        <ele>147.85</ele>
        <time>2019-01-13T09:29:21.000Z</time>
      </trkpt>
      <trkpt lat="46.52018" lon="0.32954">
        <ele>148.68</ele>
        <time>2019-01-13T09:29:24.000Z</time>
      </trkpt>
      <trkpt lat="46.52008" lon="0.32951">
        <ele>149.3</ele>
        <time>2019-01-13T09:29:26.000Z</time>
      </trkpt>
      <trkpt lat="46.51996" lon="0.32947">
        <ele>149.66</ele>
        <time>2019-01-13T09:29:29.000Z</time>
      </trkpt>
      <trkpt lat="46.51984" lon="0.32945">
        <ele>149.6</ele>
        <time>2019-01-13T09:29:32.000Z</time>
      </trkpt>
      <trkpt lat="46.51975" lon="0.32942">
        <ele>149.2</ele>
        <time>2019-01-13T09:29:34.000Z</time>
      </trkpt>
      <trkpt lat="46.51962" lon="0.32937">
        <ele>148.79</ele>
        <time>2019-01-13T09:29:37.000Z</time>
      </trkpt>
      <trkpt lat="46.51952" lon="0.32934">
        <ele>148.4</ele>
        <time>2019-01-13T09:29:39.000Z</time>
      </trkpt>
      <trkpt lat="46.51942" lon="0.32932">
        <ele>148.22</ele>
        <time>2019-01-13T09:29:41.000Z</time>
      </trkpt>
      <trkpt lat="46.51931" lon="0.32929">
        <ele>148.09</ele>
        <time>2019-01-13T09:29:43.000Z</time>
      </trkpt>
      <trkpt lat="46.51922" lon="0.32927">
        <ele>147.62</ele>
        <time>2019-01-13T09:29:45.000Z</time>
      </trkpt>
      <trkpt lat="46.51912" lon="0.32924">
        <ele>146.55</ele>
        <time>2019-01-13T09:29:47.000Z</time>
      </trkpt>
      <trkpt lat="46.51902" lon="0.3292">
        <ele>145.84</ele>
        <time>2019-01-13T09:29:49.000Z</time>
      </trkpt>
      <trkpt lat="46.51893" lon="0.32915">
        <ele>145.87</ele>
        <time>2019-01-13T09:29:51.000Z</time>
      </trkpt>
      <trkpt lat="46.51883" lon="0.32911">
        <ele>146.49</ele>
        <time>2019-01-13T09:29:53.000Z</time>
      </trkpt>
      <trkpt lat="46.51873" lon="0.32906">
        <ele>147.16</ele>
        <time>2019-01-13T09:29:55.000Z</time>
      </trkpt>
      <trkpt lat="46.51863" lon="0.32902">
        <ele>147.14</ele>
        <time>2019-01-13T09:29:57.000Z</time>
      </trkpt>
      <trkpt lat="46.51853" lon="0.32896">
        <ele>147.29</ele>
        <time>2019-01-13T09:29:59.000Z</time>
      </trkpt>
      <trkpt lat="46.51843" lon="0.32891">
        <ele>147.33</ele>
        <time>2019-01-13T09:30:01.000Z</time>
      </trkpt>
      <trkpt lat="46.51834" lon="0.32886">
        <ele>146.98</ele>
        <time>2019-01-13T09:30:03.000Z</time>
      </trkpt>
      <trkpt lat="46.51824" lon="0.3288">
        <ele>146.74</ele>
        <time>2019-01-13T09:30:05.000Z</time>
      </trkpt>
      <trkpt lat="46.51814" lon="0.32874">
        <ele>146.36</ele>
        <time>2019-01-13T09:30:07.000Z</time>
      </trkpt>
      <trkpt lat="46.51804" lon="0.32869">
        <ele>146.34</ele>
        <time>2019-01-13T09:30:09.000Z</time>
      </trkpt>
      <trkpt lat="46.51794" lon="0.3287">
        <ele>146.45</ele>
        <time>2019-01-13T09:30:11.000Z</time>
      </trkpt>
      <trkpt lat="46.51784" lon="0.32874">
        <ele>146.33</ele>
        <time>2019-01-13T09:30:13.000Z</time>
      </trkpt>
      <trkpt lat="46.51774" lon="0.32875">
        <ele>145.91</ele>
        <time>2019-01-13T09:30:15.000Z</time>
      </trkpt>
      <trkpt lat="46.51764" lon="0.32867">
        <ele>145.99</ele>
        <time>2019-01-13T09:30:18.000Z</time>
      </trkpt>
      <trkpt lat="46.5176" lon="0.3285">
        <ele>146.13</ele>
        <time>2019-01-13T09:30:21.000Z</time>
      </trkpt>
      <trkpt lat="46.51757" lon="0.32835">
        <ele>146.25</ele>
        <time>2019-01-13T09:30:24.000Z</time>
      </trkpt>
      <trkpt lat="46.51754" lon="0.32819">
        <ele>146.39</ele>
        <time>2019-01-13T09:30:28.000Z</time>
      </trkpt>
      <trkpt lat="46.51751" lon="0.32807">
        <ele>146.77</ele>
        <time>2019-01-13T09:30:32.000Z</time>
      </trkpt>
      <trkpt lat="46.51751" lon="0.32792">
        <ele>147.6</ele>
        <time>2019-01-13T09:30:38.000Z</time>
      </trkpt>
      <trkpt lat="46.51752" lon="0.32777">
        <ele>148.93</ele>
        <time>2019-01-13T09:30:49.000Z</time>
      </trkpt>
      <trkpt lat="46.51751" lon="0.32764">
        <ele>149.8</ele>
        <time>2019-01-13T09:30:56.000Z</time>
      </trkpt>
      <trkpt lat="46.5175" lon="0.32751">
        <ele>150.59</ele>
        <time>2019-01-13T09:31:03.000Z</time>
      </trkpt>
      <trkpt lat="46.5175" lon="0.32737">
        <ele>151.42</ele>
        <time>2019-01-13T09:31:10.000Z</time>
      </trkpt>
      <trkpt lat="46.51749" lon="0.32724">
        <ele>152.28</ele>
        <time>2019-01-13T09:31:17.000Z</time>
      </trkpt>
      <trkpt lat="46.51749" lon="0.3271">
        <ele>153.45</ele>
        <time>2019-01-13T09:31:24.000Z</time>
      </trkpt>
      <trkpt lat="46.51747" lon="0.32696">
        <ele>154.59</ele>
        <time>2019-01-13T09:31:30.000Z</time>
      </trkpt>
      <trkpt lat="46.51747" lon="0.32681">
        <ele>155.86</ele>
        <time>2019-01-13T09:31:36.000Z</time>
      </trkpt>
      <trkpt lat="46.51751" lon="0.32668">
        <ele>157.01</ele>
        <time>2019-01-13T09:31:41.000Z</time>
      </trkpt>
      <trkpt lat="46.51755" lon="0.32656">
        <ele>158.25</ele>
        <time>2019-01-13T09:31:46.000Z</time>
      </trkpt>
      <trkpt lat="46.51761" lon="0.32645">
        <ele>160.35</ele>
        <time>2019-01-13T09:31:55.000Z</time>
      </trkpt>
      <trkpt lat="46.51769" lon="0.32635">
        <ele>162.19</ele>
        <time>2019-01-13T09:32:03.000Z</time>
      </trkpt>
      <trkpt lat="46.51777" lon="0.32628">
        <ele>163.3</ele>
        <time>2019-01-13T09:32:07.000Z</time>
      </trkpt>
      <trkpt lat="46.51781" lon="0.32613">
        <ele>164.68</ele>
        <time>2019-01-13T09:32:12.000Z</time>
      </trkpt>
      <trkpt lat="46.51783" lon="0.32598">
        <ele>165.65</ele>
        <time>2019-01-13T09:32:17.000Z</time>
      </trkpt>
      <trkpt lat="46.51785" lon="0.32585">
        <ele>166.32</ele>
        <time>2019-01-13T09:32:21.000Z</time>
      </trkpt>
      <trkpt lat="46.51786" lon="0.3257">
        <ele>166.83</ele>
        <time>2019-01-13T09:32:25.000Z</time>
      </trkpt>
      <trkpt lat="46.51789" lon="0.32556">
        <ele>167.32</ele>
        <time>2019-01-13T09:32:29.000Z</time>
      </trkpt>
      <trkpt lat="46.51793" lon="0.32544">
        <ele>167.85</ele>
        <time>2019-01-13T09:32:33.000Z</time>
      </trkpt>
      <trkpt lat="46.51798" lon="0.32532">
        <ele>168.48</ele>
        <time>2019-01-13T09:32:37.000Z</time>
      </trkpt>
      <trkpt lat="46.5179" lon="0.32523">
        <ele>170.29</ele>
        <time>2019-01-13T09:32:48.000Z</time>
      </trkpt>
      <trkpt lat="46.51779" lon="0.3252">
        <ele>170.67</ele>
        <time>2019-01-13T09:32:52.000Z</time>
      </trkpt>
      <trkpt lat="46.51768" lon="0.32518">
        <ele>171.34</ele>
        <time>2019-01-13T09:32:55.000Z</time>
      </trkpt>
      <trkpt lat="46.51759" lon="0.32516">
        <ele>171.88</ele>
        <time>2019-01-13T09:32:57.000Z</time>
      </trkpt>
      <trkpt lat="46.51746" lon="0.32515">
        <ele>172.19</ele>
        <time>2019-01-13T09:33:00.000Z</time>
      </trkpt>
      <trkpt lat="46.51734" lon="0.32514">
        <ele>172.22</ele>
        <time>2019-01-13T09:33:02.000Z</time>
      </trkpt>
      <trkpt lat="46.51724" lon="0.32512">
        <ele>171.86</ele>
        <time>2019-01-13T09:33:04.000Z</time>
      </trkpt>
      <trkpt lat="46.51713" lon="0.32512">
        <ele>171.52</ele>
        <time>2019-01-13T09:33:06.000Z</time>
      </trkpt>
      <trkpt lat="46.517" lon="0.32513">
        <ele>171.39</ele>
        <time>2019-01-13T09:33:08.000Z</time>
      </trkpt>
      <trkpt lat="46.51688" lon="0.32514">
        <ele>171.61</ele>
        <time>2019-01-13T09:33:10.000Z</time>
      </trkpt>
      <trkpt lat="46.51674" lon="0.32515">
        <ele>171.42</ele>
        <time>2019-01-13T09:33:12.000Z</time>
      </trkpt>
      <trkpt lat="46.51656" lon="0.32513">
        <ele>170.99</ele>
        <time>2019-01-13T09:33:14.000Z</time>
      </trkpt>
      <trkpt lat="46.51647" lon="0.32513">
        <ele>170.59</ele>
        <time>2019-01-13T09:33:15.000Z</time>
      </trkpt>
      <trkpt lat="46.51637" lon="0.32513">
        <ele>170.24</ele>
        <time>2019-01-13T09:33:16.000Z</time>
      </trkpt>
      <trkpt lat="46.51628" lon="0.32513">
        <ele>169.92</ele>
        <time>2019-01-13T09:33:17.000Z</time>
      </trkpt>
      <trkpt lat="46.51613" lon="0.32515">
        <ele>169.28</ele>
        <time>2019-01-13T09:33:19.000Z</time>
      </trkpt>
      <trkpt lat="46.51603" lon="0.32516">
        <ele>168.63</ele>
        <time>2019-01-13T09:33:21.000Z</time>
      </trkpt>
      <trkpt lat="46.51592" lon="0.32522">
        <ele>168.08</ele>
        <time>2019-01-13T09:33:24.000Z</time>
      </trkpt>
      <trkpt lat="46.51586" lon="0.3254">
        <ele>166.34</ele>
        <time>2019-01-13T09:33:27.000Z</time>
      </trkpt>
      <trkpt lat="46.51581" lon="0.32555">
        <ele>165.16</ele>
        <time>2019-01-13T09:33:29.000Z</time>
      </trkpt>
      <trkpt lat="46.5157" lon="0.32564">
        <ele>164.29</ele>
        <time>2019-01-13T09:33:31.000Z</time>
      </trkpt>
      <trkpt lat="46.51559" lon="0.32561">
        <ele>163.47</ele>
        <time>2019-01-13T09:33:33.000Z</time>
      </trkpt>
      <trkpt lat="46.51552" lon="0.32551">
        <ele>162.9</ele>
        <time>2019-01-13T09:33:35.000Z</time>
      </trkpt>
      <trkpt lat="46.51545" lon="0.32535">
        <ele>162.47</ele>
        <time>2019-01-13T09:33:38.000Z</time>
      </trkpt>
      <trkpt lat="46.51539" lon="0.32521">
        <ele>162.56</ele>
        <time>2019-01-13T09:33:41.000Z</time>
      </trkpt>
      <trkpt lat="46.51532" lon="0.32507">
        <ele>163.02</ele>
        <time>2019-01-13T09:33:44.000Z</time>
      </trkpt>
      <trkpt lat="46.51524" lon="0.32491">
        <ele>163.48</ele>
        <time>2019-01-13T09:33:47.000Z</time>
      </trkpt>
      <trkpt lat="46.51519" lon="0.3248">
        <ele>163.77</ele>
        <time>2019-01-13T09:33:49.000Z</time>
      </trkpt>
      <trkpt lat="46.51514" lon="0.32468">
        <ele>164.09</ele>
        <time>2019-01-13T09:33:51.000Z</time>
      </trkpt>
      <trkpt lat="46.51508" lon="0.32452">
        <ele>164.61</ele>
        <time>2019-01-13T09:33:54.000Z</time>
      </trkpt>
      <trkpt lat="46.51502" lon="0.32435">
        <ele>164.99</ele>
        <time>2019-01-13T09:33:57.000Z</time>
      </trkpt>
      <trkpt lat="46.51498" lon="0.32423">
        <ele>165.34</ele>
        <time>2019-01-13T09:33:59.000Z</time>
      </trkpt>
      <trkpt lat="46.51494" lon="0.32411">
        <ele>165.72</ele>
        <time>2019-01-13T09:34:01.000Z</time>
      </trkpt>
      <trkpt lat="46.51489" lon="0.32394">
        <ele>166.38</ele>
        <time>2019-01-13T09:34:04.000Z</time>
      </trkpt>
      <trkpt lat="46.51485" lon="0.32376">
        <ele>166.6</ele>
        <time>2019-01-13T09:34:07.000Z</time>
      </trkpt>
      <trkpt lat="46.51481" lon="0.32358">
        <ele>167</ele>
        <time>2019-01-13T09:34:10.000Z</time>
      </trkpt>
      <trkpt lat="46.51476" lon="0.32347">
        <ele>167.33</ele>
        <time>2019-01-13T09:34:12.000Z</time>
      </trkpt>
      <trkpt lat="46.51472" lon="0.32335">
        <ele>167.72</ele>
        <time>2019-01-13T09:34:14.000Z</time>
      </trkpt>
      <trkpt lat="46.51463" lon="0.3232">
        <ele>167.32</ele>
        <time>2019-01-13T09:34:17.000Z</time>
      </trkpt>
      <trkpt lat="46.51456" lon="0.3231">
        <ele>167.15</ele>
        <time>2019-01-13T09:34:19.000Z</time>
      </trkpt>
      <trkpt lat="46.51449" lon="0.32299">
        <ele>167.03</ele>
        <time>2019-01-13T09:34:21.000Z</time>
      </trkpt>
      <trkpt lat="46.51444" lon="0.32286">
        <ele>166.62</ele>
        <time>2019-01-13T09:34:23.000Z</time>
      </trkpt>
      <trkpt lat="46.5144" lon="0.32273">
        <ele>166.01</ele>
        <time>2019-01-13T09:34:25.000Z</time>
      </trkpt>
      <trkpt lat="46.51437" lon="0.32253">
        <ele>165.96</ele>
        <time>2019-01-13T09:34:28.000Z</time>
      </trkpt>
      <trkpt lat="46.51436" lon="0.3224">
        <ele>166.28</ele>
        <time>2019-01-13T09:34:30.000Z</time>
      </trkpt>
      <trkpt lat="46.51434" lon="0.32227">
        <ele>166.78</ele>
        <time>2019-01-13T09:34:32.000Z</time>
      </trkpt>
      <trkpt lat="46.51433" lon="0.32213">
        <ele>167.48</ele>
        <time>2019-01-13T09:34:34.000Z</time>
      </trkpt>
      <trkpt lat="46.51431" lon="0.32199">
        <ele>168.52</ele>
        <time>2019-01-13T09:34:36.000Z</time>
      </trkpt>
      <trkpt lat="46.51428" lon="0.32184">
        <ele>169.39</ele>
        <time>2019-01-13T09:34:38.000Z</time>
      </trkpt>
      <trkpt lat="46.51426" lon="0.32171">
        <ele>170.22</ele>
        <time>2019-01-13T09:34:40.000Z</time>
      </trkpt>
      <trkpt lat="46.51424" lon="0.32156">
        <ele>170.99</ele>
        <time>2019-01-13T09:34:42.000Z</time>
      </trkpt>
      <trkpt lat="46.51421" lon="0.32142">
        <ele>171.03</ele>
        <time>2019-01-13T09:34:44.000Z</time>
      </trkpt>
      <trkpt lat="46.51418" lon="0.32128">
        <ele>170.62</ele>
        <time>2019-01-13T09:34:46.000Z</time>
      </trkpt>
      <trkpt lat="46.51415" lon="0.32114">
        <ele>170.27</ele>
        <time>2019-01-13T09:34:48.000Z</time>
      </trkpt>
      <trkpt lat="46.51412" lon="0.321">
        <ele>169.96</ele>
        <time>2019-01-13T09:34:50.000Z</time>
      </trkpt>
      <trkpt lat="46.51409" lon="0.32085">
        <ele>169.46</ele>
        <time>2019-01-13T09:34:52.000Z</time>
      </trkpt>
      <trkpt lat="46.51405" lon="0.32073">
        <ele>168.86</ele>
        <time>2019-01-13T09:34:54.000Z</time>
      </trkpt>
      <trkpt lat="46.51401" lon="0.32061">
        <ele>168.12</ele>
        <time>2019-01-13T09:34:56.000Z</time>
      </trkpt>
      <trkpt lat="46.51395" lon="0.32047">
        <ele>167.44</ele>
        <time>2019-01-13T09:34:58.000Z</time>
      </trkpt>
      <trkpt lat="46.5139" lon="0.32035">
        <ele>167.18</ele>
        <time>2019-01-13T09:35:00.000Z</time>
      </trkpt>
      <trkpt lat="46.51385" lon="0.32021">
        <ele>166.94</ele>
        <time>2019-01-13T09:35:02.000Z</time>
      </trkpt>
      <trkpt lat="46.5138" lon="0.32008">
        <ele>166.77</ele>
        <time>2019-01-13T09:35:04.000Z</time>
      </trkpt>
      <trkpt lat="46.51376" lon="0.31996">
        <ele>166.97</ele>
        <time>2019-01-13T09:35:06.000Z</time>
      </trkpt>
      <trkpt lat="46.51371" lon="0.31984">
        <ele>167.57</ele>
        <time>2019-01-13T09:35:08.000Z</time>
      </trkpt>
      <trkpt lat="46.51365" lon="0.3197">
        <ele>168.32</ele>
        <time>2019-01-13T09:35:10.000Z</time>
      </trkpt>
      <trkpt lat="46.5136" lon="0.31955">
        <ele>168.79</ele>
        <time>2019-01-13T09:35:12.000Z</time>
      </trkpt>
      <trkpt lat="46.51354" lon="0.31941">
        <ele>168.94</ele>
        <time>2019-01-13T09:35:14.000Z</time>
      </trkpt>
      <trkpt lat="46.51348" lon="0.31927">
        <ele>168.88</ele>
        <time>2019-01-13T09:35:16.000Z</time>
      </trkpt>
      <trkpt lat="46.51342" lon="0.31913">
        <ele>168.43</ele>
        <time>2019-01-13T09:35:18.000Z</time>
      </trkpt>
      <trkpt lat="46.51337" lon="0.31897">
        <ele>167.74</ele>
        <time>2019-01-13T09:35:20.000Z</time>
      </trkpt>
      <trkpt lat="46.51332" lon="0.3188">
        <ele>167.26</ele>
        <time>2019-01-13T09:35:22.000Z</time>
      </trkpt>
      <trkpt lat="46.51329" lon="0.31862">
        <ele>166.89</ele>
        <time>2019-01-13T09:35:24.000Z</time>
      </trkpt>
      <trkpt lat="46.51326" lon="0.31843">
        <ele>166.51</ele>
        <time>2019-01-13T09:35:26.000Z</time>
      </trkpt>
      <trkpt lat="46.51326" lon="0.31825">
        <ele>166.25</ele>
        <time>2019-01-13T09:35:28.000Z</time>
      </trkpt>
      <trkpt lat="46.51326" lon="0.31806">
        <ele>166.14</ele>
        <time>2019-01-13T09:35:30.000Z</time>
      </trkpt>
      <trkpt lat="46.51328" lon="0.31788">
        <ele>166.3</ele>
        <time>2019-01-13T09:35:32.000Z</time>
      </trkpt>
      <trkpt lat="46.51326" lon="0.31772">
        <ele>166.4</ele>
        <time>2019-01-13T09:35:34.000Z</time>
      </trkpt>
      <trkpt lat="46.51325" lon="0.31756">
        <ele>166.77</ele>
        <time>2019-01-13T09:35:36.000Z</time>
      </trkpt>
      <trkpt lat="46.51323" lon="0.31738">
        <ele>167.14</ele>
        <time>2019-01-13T09:35:38.000Z</time>
      </trkpt>
      <trkpt lat="46.51321" lon="0.31719">
        <ele>167.38</ele>
        <time>2019-01-13T09:35:40.000Z</time>
      </trkpt>
      <trkpt lat="46.51317" lon="0.317">
        <ele>167.49</ele>
        <time>2019-01-13T09:35:42.000Z</time>
      </trkpt>
      <trkpt lat="46.51312" lon="0.3168">
        <ele>167.29</ele>
        <time>2019-01-13T09:35:44.000Z</time>
      </trkpt>
      <trkpt lat="46.51304" lon="0.31658">
        <ele>167.01</ele>
        <time>2019-01-13T09:35:46.000Z</time>
      </trkpt>
      <trkpt lat="46.51296" lon="0.31637">
        <ele>166.48</ele>
        <time>2019-01-13T09:35:48.000Z</time>
      </trkpt>
      <trkpt lat="46.51289" lon="0.31617">
        <ele>165.81</ele>
        <time>2019-01-13T09:35:50.000Z</time>
      </trkpt>
      <trkpt lat="46.51286" lon="0.31598">
        <ele>165.22</ele>
        <time>2019-01-13T09:35:52.000Z</time>
      </trkpt>
      <trkpt lat="46.51288" lon="0.31573">
        <ele>164.25</ele>
        <time>2019-01-13T09:35:54.000Z</time>
      </trkpt>
      <trkpt lat="46.51289" lon="0.31559">
        <ele>163.84</ele>
        <time>2019-01-13T09:35:55.000Z</time>
      </trkpt>
      <trkpt lat="46.51289" lon="0.31545">
        <ele>163.43</ele>
        <time>2019-01-13T09:35:56.000Z</time>
      </trkpt>
      <trkpt lat="46.51288" lon="0.31531">
        <ele>163.08</ele>
        <time>2019-01-13T09:35:57.000Z</time>
      </trkpt>
      <trkpt lat="46.51288" lon="0.31517">
        <ele>162.83</ele>
        <time>2019-01-13T09:35:58.000Z</time>
      </trkpt>
      <trkpt lat="46.51286" lon="0.31495">
        <ele>162.48</ele>
        <time>2019-01-13T09:36:00.000Z</time>
      </trkpt>
      <trkpt lat="46.51288" lon="0.31475">
        <ele>162.15</ele>
        <time>2019-01-13T09:36:02.000Z</time>
      </trkpt>
      <trkpt lat="46.51287" lon="0.31458">
        <ele>161.89</ele>
        <time>2019-01-13T09:36:04.000Z</time>
      </trkpt>
      <trkpt lat="46.51292" lon="0.31444">
        <ele>161.47</ele>
        <time>2019-01-13T09:36:06.000Z</time>
      </trkpt>
      <trkpt lat="46.51294" lon="0.31431">
        <ele>161.17</ele>
        <time>2019-01-13T09:36:08.000Z</time>
      </trkpt>
      <trkpt lat="46.51297" lon="0.31415">
        <ele>161.18</ele>
        <time>2019-01-13T09:36:12.000Z</time>
      </trkpt>
      <trkpt lat="46.513" lon="0.31399">
        <ele>161.22</ele>
        <time>2019-01-13T09:36:16.000Z</time>
      </trkpt>
      <trkpt lat="46.51302" lon="0.31386">
        <ele>161.22</ele>
        <time>2019-01-13T09:36:19.000Z</time>
      </trkpt>
      <trkpt lat="46.51304" lon="0.31371">
        <ele>161.21</ele>
        <time>2019-01-13T09:36:23.000Z</time>
      </trkpt>
      <trkpt lat="46.51305" lon="0.31357">
        <ele>161.32</ele>
        <time>2019-01-13T09:36:28.000Z</time>
      </trkpt>
      <trkpt lat="46.513" lon="0.31341">
        <ele>161.64</ele>
        <time>2019-01-13T09:36:33.000Z</time>
      </trkpt>
      <trkpt lat="46.51298" lon="0.31327">
        <ele>161.84</ele>
        <time>2019-01-13T09:36:37.000Z</time>
      </trkpt>
      <trkpt lat="46.51294" lon="0.31315">
        <ele>161.87</ele>
        <time>2019-01-13T09:36:42.000Z</time>
      </trkpt>
      <trkpt lat="46.51291" lon="0.31303">
        <ele>162.05</ele>
        <time>2019-01-13T09:36:46.000Z</time>
      </trkpt>
      <trkpt lat="46.51286" lon="0.3129">
        <ele>162.36</ele>
        <time>2019-01-13T09:36:51.000Z</time>
      </trkpt>
      <trkpt lat="46.51281" lon="0.31276">
        <ele>162.72</ele>
        <time>2019-01-13T09:36:56.000Z</time>
      </trkpt>
      <trkpt lat="46.51275" lon="0.31265">
        <ele>163.05</ele>
        <time>2019-01-13T09:37:00.000Z</time>
      </trkpt>
      <trkpt lat="46.51269" lon="0.31255">
        <ele>163.48</ele>
        <time>2019-01-13T09:37:03.000Z</time>
      </trkpt>
      <trkpt lat="46.51262" lon="0.31241">
        <ele>164.21</ele>
        <time>2019-01-13T09:37:07.000Z</time>
      </trkpt>
      <trkpt lat="46.51257" lon="0.3123">
        <ele>164.83</ele>
        <time>2019-01-13T09:37:10.000Z</time>
      </trkpt>
      <trkpt lat="46.51251" lon="0.31218">
        <ele>165.72</ele>
        <time>2019-01-13T09:37:14.000Z</time>
      </trkpt>
      <trkpt lat="46.51244" lon="0.31207">
        <ele>166.66</ele>
        <time>2019-01-13T09:37:18.000Z</time>
      </trkpt>
      <trkpt lat="46.51238" lon="0.31197">
        <ele>167.3</ele>
        <time>2019-01-13T09:37:21.000Z</time>
      </trkpt>
      <trkpt lat="46.51233" lon="0.31183">
        <ele>168.07</ele>
        <time>2019-01-13T09:37:25.000Z</time>
      </trkpt>
      <trkpt lat="46.51228" lon="0.31169">
        <ele>168.7</ele>
        <time>2019-01-13T09:37:29.000Z</time>
      </trkpt>
      <trkpt lat="46.51224" lon="0.31157">
        <ele>169.04</ele>
        <time>2019-01-13T09:37:32.000Z</time>
      </trkpt>
      <trkpt lat="46.51218" lon="0.31144">
        <ele>169.36</ele>
        <time>2019-01-13T09:37:35.000Z</time>
      </trkpt>
      <trkpt lat="46.51213" lon="0.31129">
        <ele>169.91</ele>
        <time>2019-01-13T09:37:39.000Z</time>
      </trkpt>
      <trkpt lat="46.51207" lon="0.31115">
        <ele>170.64</ele>
        <time>2019-01-13T09:37:43.000Z</time>
      </trkpt>
      <trkpt lat="46.51202" lon="0.31102">
        <ele>171.14</ele>
        <time>2019-01-13T09:37:46.000Z</time>
      </trkpt>
      <trkpt lat="46.51199" lon="0.31088">
        <ele>171.56</ele>
        <time>2019-01-13T09:37:49.000Z</time>
      </trkpt>
      <trkpt lat="46.51201" lon="0.31074">
        <ele>172.04</ele>
        <time>2019-01-13T09:37:52.000Z</time>
      </trkpt>
      <trkpt lat="46.51204" lon="0.3106">
        <ele>172.57</ele>
        <time>2019-01-13T09:37:55.000Z</time>
      </trkpt>
      <trkpt lat="46.51209" lon="0.31045">
        <ele>173.04</ele>
        <time>2019-01-13T09:37:58.000Z</time>
      </trkpt>
      <trkpt lat="46.51212" lon="0.31032">
        <ele>173.52</ele>
        <time>2019-01-13T09:38:01.000Z</time>
      </trkpt>
      <trkpt lat="46.51212" lon="0.31014">
        <ele>173.99</ele>
        <time>2019-01-13T09:38:05.000Z</time>
      </trkpt>
      <trkpt lat="46.51212" lon="0.30998">
        <ele>174.24</ele>
        <time>2019-01-13T09:38:08.000Z</time>
      </trkpt>
      <trkpt lat="46.5121" lon="0.30984">
        <ele>175.07</ele>
        <time>2019-01-13T09:38:11.000Z</time>
      </trkpt>
      <trkpt lat="46.51207" lon="0.30969">
        <ele>175.35</ele>
        <time>2019-01-13T09:38:14.000Z</time>
      </trkpt>
      <trkpt lat="46.51201" lon="0.30954">
        <ele>175.65</ele>
        <time>2019-01-13T09:38:17.000Z</time>
      </trkpt>
      <trkpt lat="46.51196" lon="0.3094">
        <ele>175.86</ele>
        <time>2019-01-13T09:38:20.000Z</time>
      </trkpt>
      <trkpt lat="46.5119" lon="0.30926">
        <ele>176</ele>
        <time>2019-01-13T09:38:23.000Z</time>
      </trkpt>
      <trkpt lat="46.51185" lon="0.30913">
        <ele>176.12</ele>
        <time>2019-01-13T09:38:26.000Z</time>
      </trkpt>
      <trkpt lat="46.51181" lon="0.30898">
        <ele>176.2</ele>
        <time>2019-01-13T09:38:29.000Z</time>
      </trkpt>
      <trkpt lat="46.51178" lon="0.30884">
        <ele>176.24</ele>
        <time>2019-01-13T09:38:32.000Z</time>
      </trkpt>
      <trkpt lat="46.51177" lon="0.3087">
        <ele>176.29</ele>
        <time>2019-01-13T09:38:35.000Z</time>
      </trkpt>
      <trkpt lat="46.51175" lon="0.30857">
        <ele>176.36</ele>
        <time>2019-01-13T09:38:38.000Z</time>
      </trkpt>
      <trkpt lat="46.51178" lon="0.30841">
        <ele>176.44</ele>
        <time>2019-01-13T09:38:41.000Z</time>
      </trkpt>
      <trkpt lat="46.51184" lon="0.30831">
        <ele>176.56</ele>
        <time>2019-01-13T09:38:44.000Z</time>
      </trkpt>
      <trkpt lat="46.51189" lon="0.30819">
        <ele>176.75</ele>
        <time>2019-01-13T09:38:47.000Z</time>
      </trkpt>
      <trkpt lat="46.51197" lon="0.30805">
        <ele>177.88</ele>
        <time>2019-01-13T09:38:50.000Z</time>
      </trkpt>
      <trkpt lat="46.51202" lon="0.30794">
        <ele>178.97</ele>
        <time>2019-01-13T09:38:52.000Z</time>
      </trkpt>
      <trkpt lat="46.51208" lon="0.30778">
        <ele>179.98</ele>
        <time>2019-01-13T09:38:55.000Z</time>
      </trkpt>
      <trkpt lat="46.51213" lon="0.30761">
        <ele>180.36</ele>
        <time>2019-01-13T09:38:58.000Z</time>
      </trkpt>
      <trkpt lat="46.51218" lon="0.30745">
        <ele>179.71</ele>
        <time>2019-01-13T09:39:01.000Z</time>
      </trkpt>
      <trkpt lat="46.51223" lon="0.3073">
        <ele>179.28</ele>
        <time>2019-01-13T09:39:04.000Z</time>
      </trkpt>
      <trkpt lat="46.51228" lon="0.30716">
        <ele>179.46</ele>
        <time>2019-01-13T09:39:07.000Z</time>
      </trkpt>
      <trkpt lat="46.51234" lon="0.30704">
        <ele>179.51</ele>
        <time>2019-01-13T09:39:10.000Z</time>
      </trkpt>
      <trkpt lat="46.51241" lon="0.30687">
        <ele>179.83</ele>
        <time>2019-01-13T09:39:13.000Z</time>
      </trkpt>
      <trkpt lat="46.51245" lon="0.30676">
        <ele>180.24</ele>
        <time>2019-01-13T09:39:15.000Z</time>
      </trkpt>
      <trkpt lat="46.51249" lon="0.30664">
        <ele>180.67</ele>
        <time>2019-01-13T09:39:17.000Z</time>
      </trkpt>
      <trkpt lat="46.51253" lon="0.30652">
        <ele>180.82</ele>
        <time>2019-01-13T09:39:19.000Z</time>
      </trkpt>
      <trkpt lat="46.51259" lon="0.30637">
        <ele>180.61</ele>
        <time>2019-01-13T09:39:22.000Z</time>
      </trkpt>
      <trkpt lat="46.51264" lon="0.30622">
        <ele>180.82</ele>
        <time>2019-01-13T09:39:25.000Z</time>
      </trkpt>
      <trkpt lat="46.51268" lon="0.30609">
        <ele>181.48</ele>
        <time>2019-01-13T09:39:27.000Z</time>
      </trkpt>
      <trkpt lat="46.51272" lon="0.30597">
        <ele>182.44</ele>
        <time>2019-01-13T09:39:29.000Z</time>
      </trkpt>
      <trkpt lat="46.51278" lon="0.30582">
        <ele>182.97</ele>
        <time>2019-01-13T09:39:32.000Z</time>
      </trkpt>
      <trkpt lat="46.51283" lon="0.30565">
        <ele>183.58</ele>
        <time>2019-01-13T09:39:35.000Z</time>
      </trkpt>
      <trkpt lat="46.51288" lon="0.30553">
        <ele>184.01</ele>
        <time>2019-01-13T09:39:37.000Z</time>
      </trkpt>
      <trkpt lat="46.51292" lon="0.30539">
        <ele>184.79</ele>
        <time>2019-01-13T09:39:40.000Z</time>
      </trkpt>
      <trkpt lat="46.51298" lon="0.30525">
        <ele>184.91</ele>
        <time>2019-01-13T09:39:43.000Z</time>
      </trkpt>
      <trkpt lat="46.51304" lon="0.30509">
        <ele>184.77</ele>
        <time>2019-01-13T09:39:46.000Z</time>
      </trkpt>
      <trkpt lat="46.51311" lon="0.30493">
        <ele>184.55</ele>
        <time>2019-01-13T09:39:49.000Z</time>
      </trkpt>
      <trkpt lat="46.51316" lon="0.30481">
        <ele>184.09</ele>
        <time>2019-01-13T09:39:51.000Z</time>
      </trkpt>
      <trkpt lat="46.51323" lon="0.30465">
        <ele>183.5</ele>
        <time>2019-01-13T09:39:54.000Z</time>
      </trkpt>
      <trkpt lat="46.51328" lon="0.30448">
        <ele>182.81</ele>
        <time>2019-01-13T09:39:57.000Z</time>
      </trkpt>
      <trkpt lat="46.51333" lon="0.30437">
        <ele>182.44</ele>
        <time>2019-01-13T09:39:59.000Z</time>
      </trkpt>
      <trkpt lat="46.51338" lon="0.30424">
        <ele>182.43</ele>
        <time>2019-01-13T09:40:01.000Z</time>
      </trkpt>
      <trkpt lat="46.51344" lon="0.30408">
        <ele>183.07</ele>
        <time>2019-01-13T09:40:04.000Z</time>
      </trkpt>
      <trkpt lat="46.5135" lon="0.30392">
        <ele>184.04</ele>
        <time>2019-01-13T09:40:07.000Z</time>
      </trkpt>
      <trkpt lat="46.51354" lon="0.3038">
        <ele>184.48</ele>
        <time>2019-01-13T09:40:09.000Z</time>
      </trkpt>
      <trkpt lat="46.51359" lon="0.30368">
        <ele>184.38</ele>
        <time>2019-01-13T09:40:11.000Z</time>
      </trkpt>
      <trkpt lat="46.51363" lon="0.30355">
        <ele>183.81</ele>
        <time>2019-01-13T09:40:13.000Z</time>
      </trkpt>
      <trkpt lat="46.5137" lon="0.30337">
        <ele>182.73</ele>
        <time>2019-01-13T09:40:16.000Z</time>
      </trkpt>
      <trkpt lat="46.51377" lon="0.30318">
        <ele>181.85</ele>
        <time>2019-01-13T09:40:19.000Z</time>
      </trkpt>
      <trkpt lat="46.51382" lon="0.30305">
        <ele>182.17</ele>
        <time>2019-01-13T09:40:21.000Z</time>
      </trkpt>
      <trkpt lat="46.5139" lon="0.30285">
        <ele>183.57</ele>
        <time>2019-01-13T09:40:24.000Z</time>
      </trkpt>
      <trkpt lat="46.51395" lon="0.30272">
        <ele>184.39</ele>
        <time>2019-01-13T09:40:26.000Z</time>
      </trkpt>
      <trkpt lat="46.514" lon="0.30255">
        <ele>184.95</ele>
        <time>2019-01-13T09:40:28.000Z</time>
      </trkpt>
      <trkpt lat="46.51404" lon="0.30242">
        <ele>185.6</ele>
        <time>2019-01-13T09:40:30.000Z</time>
      </trkpt>
      <trkpt lat="46.51407" lon="0.30223">
        <ele>186.31</ele>
        <time>2019-01-13T09:40:33.000Z</time>
      </trkpt>
      <trkpt lat="46.51409" lon="0.30203">
        <ele>186.7</ele>
        <time>2019-01-13T09:40:36.000Z</time>
      </trkpt>
      <trkpt lat="46.51409" lon="0.30187">
        <ele>187.03</ele>
        <time>2019-01-13T09:40:38.000Z</time>
      </trkpt>
      <trkpt lat="46.51408" lon="0.3017">
        <ele>186.92</ele>
        <time>2019-01-13T09:40:40.000Z</time>
      </trkpt>
      <trkpt lat="46.51405" lon="0.30153">
        <ele>186.41</ele>
        <time>2019-01-13T09:40:42.000Z</time>
      </trkpt>
      <trkpt lat="46.51403" lon="0.30137">
        <ele>185.62</ele>
        <time>2019-01-13T09:40:44.000Z</time>
      </trkpt>
      <trkpt lat="46.51403" lon="0.30122">
        <ele>185.48</ele>
        <time>2019-01-13T09:40:46.000Z</time>
      </trkpt>
      <trkpt lat="46.51405" lon="0.30105">
        <ele>185.29</ele>
        <time>2019-01-13T09:40:49.000Z</time>
      </trkpt>
      <trkpt lat="46.51394" lon="0.30096">
        <ele>185.24</ele>
        <time>2019-01-13T09:40:52.000Z</time>
      </trkpt>
      <trkpt lat="46.51382" lon="0.30093">
        <ele>185.03</ele>
        <time>2019-01-13T09:40:54.000Z</time>
      </trkpt>
      <trkpt lat="46.51369" lon="0.30086">
        <ele>184.17</ele>
        <time>2019-01-13T09:40:56.000Z</time>
      </trkpt>
      <trkpt lat="46.51362" lon="0.30074">
        <ele>183.18</ele>
        <time>2019-01-13T09:40:58.000Z</time>
      </trkpt>
      <trkpt lat="46.51363" lon="0.3006">
        <ele>182.7</ele>
        <time>2019-01-13T09:41:00.000Z</time>
      </trkpt>
      <trkpt lat="46.51366" lon="0.30045">
        <ele>182.66</ele>
        <time>2019-01-13T09:41:02.000Z</time>
      </trkpt>
      <trkpt lat="46.5137" lon="0.30028">
        <ele>182.82</ele>
        <time>2019-01-13T09:41:04.000Z</time>
      </trkpt>
      <trkpt lat="46.51374" lon="0.30012">
        <ele>182.75</ele>
        <time>2019-01-13T09:41:06.000Z</time>
      </trkpt>
      <trkpt lat="46.51376" lon="0.29996">
        <ele>182.42</ele>
        <time>2019-01-13T09:41:08.000Z</time>
      </trkpt>
      <trkpt lat="46.51379" lon="0.2998">
        <ele>182.12</ele>
        <time>2019-01-13T09:41:10.000Z</time>
      </trkpt>
      <trkpt lat="46.51381" lon="0.29965">
        <ele>181.89</ele>
        <time>2019-01-13T09:41:12.000Z</time>
      </trkpt>
      <trkpt lat="46.51383" lon="0.29951">
        <ele>181.77</ele>
        <time>2019-01-13T09:41:14.000Z</time>
      </trkpt>
      <trkpt lat="46.51385" lon="0.29938">
        <ele>181.67</ele>
        <time>2019-01-13T09:41:16.000Z</time>
      </trkpt>
      <trkpt lat="46.51388" lon="0.29924">
        <ele>181.34</ele>
        <time>2019-01-13T09:41:18.000Z</time>
      </trkpt>
      <trkpt lat="46.5139" lon="0.2991">
        <ele>180.76</ele>
        <time>2019-01-13T09:41:20.000Z</time>
      </trkpt>
      <trkpt lat="46.51394" lon="0.29897">
        <ele>180.35</ele>
        <time>2019-01-13T09:41:22.000Z</time>
      </trkpt>
      <trkpt lat="46.51399" lon="0.29884">
        <ele>180.54</ele>
        <time>2019-01-13T09:41:24.000Z</time>
      </trkpt>
      <trkpt lat="46.51404" lon="0.2987">
        <ele>181.1</ele>
        <time>2019-01-13T09:41:27.000Z</time>
      </trkpt>
      <trkpt lat="46.51409" lon="0.29855">
        <ele>181.2</ele>
        <time>2019-01-13T09:41:30.000Z</time>
      </trkpt>
      <trkpt lat="46.51414" lon="0.29841">
        <ele>181.31</ele>
        <time>2019-01-13T09:41:33.000Z</time>
      </trkpt>
      <trkpt lat="46.5142" lon="0.29828">
        <ele>181.41</ele>
        <time>2019-01-13T09:41:36.000Z</time>
      </trkpt>
      <trkpt lat="46.51426" lon="0.29815">
        <ele>181.52</ele>
        <time>2019-01-13T09:41:39.000Z</time>
      </trkpt>
      <trkpt lat="46.51431" lon="0.29801">
        <ele>182.89</ele>
        <time>2019-01-13T09:41:42.000Z</time>
      </trkpt>
      <trkpt lat="46.51437" lon="0.29786">
        <ele>183.5</ele>
        <time>2019-01-13T09:41:45.000Z</time>
      </trkpt>
      <trkpt lat="46.51445" lon="0.29775">
        <ele>183.63</ele>
        <time>2019-01-13T09:41:48.000Z</time>
      </trkpt>
      <trkpt lat="46.51456" lon="0.29779">
        <ele>183.85</ele>
        <time>2019-01-13T09:41:51.000Z</time>
      </trkpt>
      <trkpt lat="46.51468" lon="0.29785">
        <ele>185.68</ele>
        <time>2019-01-13T09:41:54.000Z</time>
      </trkpt>
      <trkpt lat="46.51482" lon="0.29786">
        <ele>187.3</ele>
        <time>2019-01-13T09:41:57.000Z</time>
      </trkpt>
      <trkpt lat="46.51492" lon="0.29785">
        <ele>188.24</ele>
        <time>2019-01-13T09:41:59.000Z</time>
      </trkpt>
      <trkpt lat="46.51504" lon="0.29783">
        <ele>189.13</ele>
        <time>2019-01-13T09:42:02.000Z</time>
      </trkpt>
      <trkpt lat="46.51518" lon="0.29781">
        <ele>188.97</ele>
        <time>2019-01-13T09:42:05.000Z</time>
      </trkpt>
      <trkpt lat="46.51529" lon="0.2978">
        <ele>188.89</ele>
        <time>2019-01-13T09:42:07.000Z</time>
      </trkpt>
      <trkpt lat="46.5154" lon="0.29779">
        <ele>188.99</ele>
        <time>2019-01-13T09:42:09.000Z</time>
      </trkpt>
      <trkpt lat="46.51551" lon="0.29779">
        <ele>189.12</ele>
        <time>2019-01-13T09:42:11.000Z</time>
      </trkpt>
      <trkpt lat="46.51563" lon="0.29779">
        <ele>189</ele>
        <time>2019-01-13T09:42:13.000Z</time>
      </trkpt>
      <trkpt lat="46.51575" lon="0.29778">
        <ele>188.76</ele>
        <time>2019-01-13T09:42:15.000Z</time>
      </trkpt>
      <trkpt lat="46.51585" lon="0.29777">
        <ele>189.1</ele>
        <time>2019-01-13T09:42:17.000Z</time>
      </trkpt>
      <trkpt lat="46.51598" lon="0.29776">
        <ele>189.28</ele>
        <time>2019-01-13T09:42:19.000Z</time>
      </trkpt>
      <trkpt lat="46.51609" lon="0.29775">
        <ele>189.38</ele>
        <time>2019-01-13T09:42:21.000Z</time>
      </trkpt>
      <trkpt lat="46.5162" lon="0.29772">
        <ele>189.53</ele>
        <time>2019-01-13T09:42:23.000Z</time>
      </trkpt>
      <trkpt lat="46.51632" lon="0.29769">
        <ele>189.26</ele>
        <time>2019-01-13T09:42:25.000Z</time>
      </trkpt>
      <trkpt lat="46.51642" lon="0.29759">
        <ele>188.43</ele>
        <time>2019-01-13T09:42:27.000Z</time>
      </trkpt>
      <trkpt lat="46.51651" lon="0.2975">
        <ele>187.24</ele>
        <time>2019-01-13T09:42:29.000Z</time>
      </trkpt>
      <trkpt lat="46.51662" lon="0.2974">
        <ele>186.06</ele>
        <time>2019-01-13T09:42:31.000Z</time>
      </trkpt>
      <trkpt lat="46.51674" lon="0.29725">
        <ele>184.6</ele>
        <time>2019-01-13T09:42:33.000Z</time>
      </trkpt>
      <trkpt lat="46.51685" lon="0.29713">
        <ele>183.19</ele>
        <time>2019-01-13T09:42:35.000Z</time>
      </trkpt>
      <trkpt lat="46.51696" lon="0.29704">
        <ele>182.18</ele>
        <time>2019-01-13T09:42:37.000Z</time>
      </trkpt>
      <trkpt lat="46.51708" lon="0.29697">
        <ele>181.3</ele>
        <time>2019-01-13T09:42:39.000Z</time>
      </trkpt>
      <trkpt lat="46.51718" lon="0.29696">
        <ele>180.54</ele>
        <time>2019-01-13T09:42:41.000Z</time>
      </trkpt>
      <trkpt lat="46.51728" lon="0.29691">
        <ele>180.18</ele>
        <time>2019-01-13T09:42:43.000Z</time>
      </trkpt>
      <trkpt lat="46.51737" lon="0.29679">
        <ele>180.71</ele>
        <time>2019-01-13T09:42:45.000Z</time>
      </trkpt>
      <trkpt lat="46.51745" lon="0.29664">
        <ele>181.08</ele>
        <time>2019-01-13T09:42:47.000Z</time>
      </trkpt>
      <trkpt lat="46.51753" lon="0.29648">
        <ele>181.31</ele>
        <time>2019-01-13T09:42:49.000Z</time>
      </trkpt>
      <trkpt lat="46.51762" lon="0.29632">
        <ele>181.54</ele>
        <time>2019-01-13T09:42:51.000Z</time>
      </trkpt>
      <trkpt lat="46.5177" lon="0.29613">
        <ele>181.58</ele>
        <time>2019-01-13T09:42:53.000Z</time>
      </trkpt>
      <trkpt lat="46.51777" lon="0.29595">
        <ele>181.36</ele>
        <time>2019-01-13T09:42:55.000Z</time>
      </trkpt>
      <trkpt lat="46.51786" lon="0.29579">
        <ele>181.19</ele>
        <time>2019-01-13T09:42:57.000Z</time>
      </trkpt>
      <trkpt lat="46.51798" lon="0.29564">
        <ele>180.95</ele>
        <time>2019-01-13T09:42:59.000Z</time>
      </trkpt>
      <trkpt lat="46.51807" lon="0.29547">
        <ele>180.59</ele>
        <time>2019-01-13T09:43:01.000Z</time>
      </trkpt>
      <trkpt lat="46.51814" lon="0.29529">
        <ele>180.25</ele>
        <time>2019-01-13T09:43:03.000Z</time>
      </trkpt>
      <trkpt lat="46.5182" lon="0.29511">
        <ele>179.68</ele>
        <time>2019-01-13T09:43:05.000Z</time>
      </trkpt>
      <trkpt lat="46.51828" lon="0.29491">
        <ele>178.71</ele>
        <time>2019-01-13T09:43:07.000Z</time>
      </trkpt>
      <trkpt lat="46.51838" lon="0.29471">
        <ele>178</ele>
        <time>2019-01-13T09:43:09.000Z</time>
      </trkpt>
      <trkpt lat="46.51849" lon="0.29453">
        <ele>177.48</ele>
        <time>2019-01-13T09:43:11.000Z</time>
      </trkpt>
      <trkpt lat="46.51858" lon="0.29436">
        <ele>176.89</ele>
        <time>2019-01-13T09:43:13.000Z</time>
      </trkpt>
      <trkpt lat="46.51862" lon="0.29421">
        <ele>176.4</ele>
        <time>2019-01-13T09:43:15.000Z</time>
      </trkpt>
      <trkpt lat="46.51867" lon="0.2941">
        <ele>176.17</ele>
        <time>2019-01-13T09:43:17.000Z</time>
      </trkpt>
      <trkpt lat="46.51873" lon="0.29394">
        <ele>175.05</ele>
        <time>2019-01-13T09:43:20.000Z</time>
      </trkpt>
      <trkpt lat="46.5188" lon="0.29403">
        <ele>174.05</ele>
        <time>2019-01-13T09:43:31.000Z</time>
      </trkpt>
      <trkpt lat="46.51885" lon="0.29419">
        <ele>172.99</ele>
        <time>2019-01-13T09:43:34.000Z</time>
      </trkpt>
      <trkpt lat="46.51891" lon="0.29432">
        <ele>171.57</ele>
        <time>2019-01-13T09:43:36.000Z</time>
      </trkpt>
      <trkpt lat="46.51897" lon="0.29443">
        <ele>170.57</ele>
        <time>2019-01-13T09:43:38.000Z</time>
      </trkpt>
      <trkpt lat="46.51904" lon="0.29453">
        <ele>169.84</ele>
        <time>2019-01-13T09:43:40.000Z</time>
      </trkpt>
      <trkpt lat="46.51915" lon="0.29464">
        <ele>168.82</ele>
        <time>2019-01-13T09:43:43.000Z</time>
      </trkpt>
      <trkpt lat="46.51926" lon="0.29476">
        <ele>167.93</ele>
        <time>2019-01-13T09:43:46.000Z</time>
      </trkpt>
      <trkpt lat="46.51935" lon="0.29489">
        <ele>165.81</ele>
        <time>2019-01-13T09:43:49.000Z</time>
      </trkpt>
      <trkpt lat="46.51941" lon="0.29499">
        <ele>164.47</ele>
        <time>2019-01-13T09:43:51.000Z</time>
      </trkpt>
      <trkpt lat="46.51949" lon="0.29512">
        <ele>163.2</ele>
        <time>2019-01-13T09:43:53.000Z</time>
      </trkpt>
      <trkpt lat="46.51957" lon="0.29523">
        <ele>161.94</ele>
        <time>2019-01-13T09:43:55.000Z</time>
      </trkpt>
      <trkpt lat="46.51966" lon="0.29536">
        <ele>160</ele>
        <time>2019-01-13T09:43:58.000Z</time>
      </trkpt>
      <trkpt lat="46.51974" lon="0.29547">
        <ele>159.03</ele>
        <time>2019-01-13T09:44:01.000Z</time>
      </trkpt>
      <trkpt lat="46.51982" lon="0.29557">
        <ele>158.8</ele>
        <time>2019-01-13T09:44:04.000Z</time>
      </trkpt>
      <trkpt lat="46.51989" lon="0.29566">
        <ele>158.58</ele>
        <time>2019-01-13T09:44:07.000Z</time>
      </trkpt>
      <trkpt lat="46.51999" lon="0.29574">
        <ele>158.45</ele>
        <time>2019-01-13T09:44:12.000Z</time>
      </trkpt>
      <trkpt lat="46.52007" lon="0.29584">
        <ele>158.7</ele>
        <time>2019-01-13T09:44:16.000Z</time>
      </trkpt>
      <trkpt lat="46.52015" lon="0.29593">
        <ele>159.06</ele>
        <time>2019-01-13T09:44:20.000Z</time>
      </trkpt>
      <trkpt lat="46.52021" lon="0.29604">
        <ele>159.7</ele>
        <time>2019-01-13T09:44:25.000Z</time>
      </trkpt>
      <trkpt lat="46.52028" lon="0.29614">
        <ele>159.98</ele>
        <time>2019-01-13T09:44:29.000Z</time>
      </trkpt>
      <trkpt lat="46.52035" lon="0.29624">
        <ele>160.16</ele>
        <time>2019-01-13T09:44:33.000Z</time>
      </trkpt>
      <trkpt lat="46.52043" lon="0.29633">
        <ele>160.33</ele>
        <time>2019-01-13T09:44:37.000Z</time>
      </trkpt>
      <trkpt lat="46.52052" lon="0.29641">
        <ele>160.57</ele>
        <time>2019-01-13T09:44:41.000Z</time>
      </trkpt>
      <trkpt lat="46.5206" lon="0.29649">
        <ele>160.7</ele>
        <time>2019-01-13T09:44:45.000Z</time>
      </trkpt>
      <trkpt lat="46.52068" lon="0.29657">
        <ele>160.78</ele>
        <time>2019-01-13T09:44:49.000Z</time>
      </trkpt>
      <trkpt lat="46.52078" lon="0.29667">
        <ele>160.79</ele>
        <time>2019-01-13T09:44:53.000Z</time>
      </trkpt>
      <trkpt lat="46.52085" lon="0.29674">
        <ele>160.89</ele>
        <time>2019-01-13T09:44:56.000Z</time>
      </trkpt>
      <trkpt lat="46.52093" lon="0.29684">
        <ele>161.01</ele>
        <time>2019-01-13T09:45:00.000Z</time>
      </trkpt>
      <trkpt lat="46.521" lon="0.29694">
        <ele>161.08</ele>
        <time>2019-01-13T09:45:04.000Z</time>
      </trkpt>
      <trkpt lat="46.52108" lon="0.29703">
        <ele>161.26</ele>
        <time>2019-01-13T09:45:08.000Z</time>
      </trkpt>
      <trkpt lat="46.52116" lon="0.29712">
        <ele>161.4</ele>
        <time>2019-01-13T09:45:12.000Z</time>
      </trkpt>
      <trkpt lat="46.52123" lon="0.29721">
        <ele>161.4</ele>
        <time>2019-01-13T09:45:15.000Z</time>
      </trkpt>
      <trkpt lat="46.52129" lon="0.29731">
        <ele>161.44</ele>
        <time>2019-01-13T09:45:18.000Z</time>
      </trkpt>
      <trkpt lat="46.52136" lon="0.29742">
        <ele>161.53</ele>
        <time>2019-01-13T09:45:22.000Z</time>
      </trkpt>
      <trkpt lat="46.52142" lon="0.29753">
        <ele>161.64</ele>
        <time>2019-01-13T09:45:25.000Z</time>
      </trkpt>
      <trkpt lat="46.52149" lon="0.29765">
        <ele>161.76</ele>
        <time>2019-01-13T09:45:29.000Z</time>
      </trkpt>
      <trkpt lat="46.52154" lon="0.29776">
        <ele>161.93</ele>
        <time>2019-01-13T09:45:33.000Z</time>
      </trkpt>
      <trkpt lat="46.52161" lon="0.29789">
        <ele>162.14</ele>
        <time>2019-01-13T09:45:38.000Z</time>
      </trkpt>
      <trkpt lat="46.52167" lon="0.29801">
        <ele>162.6</ele>
        <time>2019-01-13T09:45:43.000Z</time>
      </trkpt>
      <trkpt lat="46.52172" lon="0.29814">
        <ele>163.3</ele>
        <time>2019-01-13T09:45:50.000Z</time>
      </trkpt>
      <trkpt lat="46.52176" lon="0.29829">
        <ele>164.23</ele>
        <time>2019-01-13T09:45:58.000Z</time>
      </trkpt>
      <trkpt lat="46.5218" lon="0.29844">
        <ele>165.02</ele>
        <time>2019-01-13T09:46:04.000Z</time>
      </trkpt>
      <trkpt lat="46.52182" lon="0.29858">
        <ele>165.74</ele>
        <time>2019-01-13T09:46:10.000Z</time>
      </trkpt>
      <trkpt lat="46.52182" lon="0.29872">
        <ele>166.4</ele>
        <time>2019-01-13T09:46:15.000Z</time>
      </trkpt>
      <trkpt lat="46.52182" lon="0.29886">
        <ele>167.19</ele>
        <time>2019-01-13T09:46:21.000Z</time>
      </trkpt>
      <trkpt lat="46.52183" lon="0.299">
        <ele>167.86</ele>
        <time>2019-01-13T09:46:26.000Z</time>
      </trkpt>
      <trkpt lat="46.52187" lon="0.29914">
        <ele>168.44</ele>
        <time>2019-01-13T09:46:31.000Z</time>
      </trkpt>
      <trkpt lat="46.52189" lon="0.29928">
        <ele>168.91</ele>
        <time>2019-01-13T09:46:36.000Z</time>
      </trkpt>
      <trkpt lat="46.52185" lon="0.29942">
        <ele>169.31</ele>
        <time>2019-01-13T09:46:41.000Z</time>
      </trkpt>
      <trkpt lat="46.52179" lon="0.29957">
        <ele>169.94</ele>
        <time>2019-01-13T09:46:46.000Z</time>
      </trkpt>
      <trkpt lat="46.52173" lon="0.29967">
        <ele>170.7</ele>
        <time>2019-01-13T09:46:50.000Z</time>
      </trkpt>
      <trkpt lat="46.52167" lon="0.29979">
        <ele>171.54</ele>
        <time>2019-01-13T09:46:54.000Z</time>
      </trkpt>
      <trkpt lat="46.5216" lon="0.29992">
        <ele>172.36</ele>
        <time>2019-01-13T09:46:58.000Z</time>
      </trkpt>
      <trkpt lat="46.52153" lon="0.30002">
        <ele>172.96</ele>
        <time>2019-01-13T09:47:01.000Z</time>
      </trkpt>
      <trkpt lat="46.52146" lon="0.30016">
        <ele>173.79</ele>
        <time>2019-01-13T09:47:05.000Z</time>
      </trkpt>
      <trkpt lat="46.5215" lon="0.30028">
        <ele>174.35</ele>
        <time>2019-01-13T09:47:08.000Z</time>
      </trkpt>
      <trkpt lat="46.52161" lon="0.30031">
        <ele>179.23</ele>
        <time>2019-01-13T09:47:11.000Z</time>
      </trkpt>
      <trkpt lat="46.52174" lon="0.30037">
        <ele>181.65</ele>
        <time>2019-01-13T09:47:14.000Z</time>
      </trkpt>
      <trkpt lat="46.52184" lon="0.30044">
        <ele>182.6</ele>
        <time>2019-01-13T09:47:16.000Z</time>
      </trkpt>
      <trkpt lat="46.52192" lon="0.30055">
        <ele>183</ele>
        <time>2019-01-13T09:47:18.000Z</time>
      </trkpt>
      <trkpt lat="46.522" lon="0.30064">
        <ele>182.74</ele>
        <time>2019-01-13T09:47:20.000Z</time>
      </trkpt>
      <trkpt lat="46.52208" lon="0.30074">
        <ele>182.7</ele>
        <time>2019-01-13T09:47:22.000Z</time>
      </trkpt>
      <trkpt lat="46.52218" lon="0.30085">
        <ele>182.8</ele>
        <time>2019-01-13T09:47:25.000Z</time>
      </trkpt>
      <trkpt lat="46.52225" lon="0.30094">
        <ele>182.69</ele>
        <time>2019-01-13T09:47:27.000Z</time>
      </trkpt>
      <trkpt lat="46.52232" lon="0.30103">
        <ele>182.16</ele>
        <time>2019-01-13T09:47:29.000Z</time>
      </trkpt>
      <trkpt lat="46.52237" lon="0.30115">
        <ele>181.69</ele>
        <time>2019-01-13T09:47:31.000Z</time>
      </trkpt>
      <trkpt lat="46.52243" lon="0.30128">
        <ele>181.19</ele>
        <time>2019-01-13T09:47:33.000Z</time>
      </trkpt>
      <trkpt lat="46.5225" lon="0.3014">
        <ele>180.87</ele>
        <time>2019-01-13T09:47:35.000Z</time>
      </trkpt>
      <trkpt lat="46.52255" lon="0.30154">
        <ele>179.83</ele>
        <time>2019-01-13T09:47:37.000Z</time>
      </trkpt>
      <trkpt lat="46.52259" lon="0.3017">
        <ele>178.35</ele>
        <time>2019-01-13T09:47:39.000Z</time>
      </trkpt>
      <trkpt lat="46.52264" lon="0.30189">
        <ele>176.4</ele>
        <time>2019-01-13T09:47:41.000Z</time>
      </trkpt>
      <trkpt lat="46.52268" lon="0.3021">
        <ele>174.36</ele>
        <time>2019-01-13T09:47:43.000Z</time>
      </trkpt>
      <trkpt lat="46.52274" lon="0.30231">
        <ele>172.2</ele>
        <time>2019-01-13T09:47:45.000Z</time>
      </trkpt>
      <trkpt lat="46.52283" lon="0.30248">
        <ele>170.33</ele>
        <time>2019-01-13T09:47:47.000Z</time>
      </trkpt>
      <trkpt lat="46.52295" lon="0.30259">
        <ele>168.72</ele>
        <time>2019-01-13T09:47:49.000Z</time>
      </trkpt>
      <trkpt lat="46.52305" lon="0.30264">
        <ele>167</ele>
        <time>2019-01-13T09:47:51.000Z</time>
      </trkpt>
      <trkpt lat="46.52317" lon="0.30262">
        <ele>165.66</ele>
        <time>2019-01-13T09:47:53.000Z</time>
      </trkpt>
      <trkpt lat="46.52333" lon="0.30258">
        <ele>164.07</ele>
        <time>2019-01-13T09:47:55.000Z</time>
      </trkpt>
      <trkpt lat="46.52348" lon="0.30251">
        <ele>164.95</ele>
        <time>2019-01-13T09:47:57.000Z</time>
      </trkpt>
      <trkpt lat="46.52363" lon="0.30246">
        <ele>166.11</ele>
        <time>2019-01-13T09:47:59.000Z</time>
      </trkpt>
      <trkpt lat="46.52374" lon="0.30245">
        <ele>166.8</ele>
        <time>2019-01-13T09:48:01.000Z</time>
      </trkpt>
      <trkpt lat="46.52387" lon="0.30247">
        <ele>166.93</ele>
        <time>2019-01-13T09:48:04.000Z</time>
      </trkpt>
      <trkpt lat="46.52395" lon="0.30255">
        <ele>166.79</ele>
        <time>2019-01-13T09:48:06.000Z</time>
      </trkpt>
      <trkpt lat="46.52406" lon="0.30261">
        <ele>165.52</ele>
        <time>2019-01-13T09:48:08.000Z</time>
      </trkpt>
      <trkpt lat="46.52416" lon="0.30257">
        <ele>164.86</ele>
        <time>2019-01-13T09:48:10.000Z</time>
      </trkpt>
      <trkpt lat="46.52427" lon="0.30253">
        <ele>164.82</ele>
        <time>2019-01-13T09:48:12.000Z</time>
      </trkpt>
      <trkpt lat="46.52438" lon="0.30245">
        <ele>165.35</ele>
        <time>2019-01-13T09:48:14.000Z</time>
      </trkpt>
      <trkpt lat="46.52449" lon="0.30237">
        <ele>165.24</ele>
        <time>2019-01-13T09:48:16.000Z</time>
      </trkpt>
      <trkpt lat="46.52462" lon="0.30239">
        <ele>165.22</ele>
        <time>2019-01-13T09:48:19.000Z</time>
      </trkpt>
      <trkpt lat="46.52473" lon="0.30242">
        <ele>165.45</ele>
        <time>2019-01-13T09:48:22.000Z</time>
      </trkpt>
      <trkpt lat="46.52482" lon="0.30243">
        <ele>165.71</ele>
        <time>2019-01-13T09:48:25.000Z</time>
      </trkpt>
      <trkpt lat="46.52491" lon="0.30243">
        <ele>166.31</ele>
        <time>2019-01-13T09:48:30.000Z</time>
      </trkpt>
      <trkpt lat="46.52502" lon="0.3024">
        <ele>167.31</ele>
        <time>2019-01-13T09:48:36.000Z</time>
      </trkpt>
      <trkpt lat="46.52512" lon="0.30236">
        <ele>168.15</ele>
        <time>2019-01-13T09:48:41.000Z</time>
      </trkpt>
      <trkpt lat="46.52522" lon="0.30231">
        <ele>168.94</ele>
        <time>2019-01-13T09:48:46.000Z</time>
      </trkpt>
      <trkpt lat="46.52534" lon="0.30226">
        <ele>169.26</ele>
        <time>2019-01-13T09:48:50.000Z</time>
      </trkpt>
      <trkpt lat="46.52547" lon="0.30225">
        <ele>169.28</ele>
        <time>2019-01-13T09:48:54.000Z</time>
      </trkpt>
      <trkpt lat="46.52557" lon="0.30229">
        <ele>169.2</ele>
        <time>2019-01-13T09:48:58.000Z</time>
      </trkpt>
      <trkpt lat="46.52566" lon="0.30236">
        <ele>168.84</ele>
        <time>2019-01-13T09:49:02.000Z</time>
      </trkpt>
      <trkpt lat="46.52573" lon="0.30245">
        <ele>168.2</ele>
        <time>2019-01-13T09:49:06.000Z</time>
      </trkpt>
      <trkpt lat="46.52584" lon="0.30254">
        <ele>167.34</ele>
        <time>2019-01-13T09:49:11.000Z</time>
      </trkpt>
      <trkpt lat="46.52592" lon="0.30261">
        <ele>167.02</ele>
        <time>2019-01-13T09:49:14.000Z</time>
      </trkpt>
      <trkpt lat="46.52601" lon="0.30269">
        <ele>166.8</ele>
        <time>2019-01-13T09:49:18.000Z</time>
      </trkpt>
      <trkpt lat="46.5261" lon="0.30275">
        <ele>166.52</ele>
        <time>2019-01-13T09:49:21.000Z</time>
      </trkpt>
      <trkpt lat="46.52618" lon="0.30283">
        <ele>165.99</ele>
        <time>2019-01-13T09:49:25.000Z</time>
      </trkpt>
      <trkpt lat="46.52626" lon="0.30294">
        <ele>165.48</ele>
        <time>2019-01-13T09:49:29.000Z</time>
      </trkpt>
      <trkpt lat="46.5263" lon="0.30307">
        <ele>165.12</ele>
        <time>2019-01-13T09:49:33.000Z</time>
      </trkpt>
      <trkpt lat="46.52634" lon="0.3032">
        <ele>164.93</ele>
        <time>2019-01-13T09:49:37.000Z</time>
      </trkpt>
      <trkpt lat="46.52638" lon="0.30334">
        <ele>164.84</ele>
        <time>2019-01-13T09:49:40.000Z</time>
      </trkpt>
      <trkpt lat="46.5264" lon="0.30352">
        <ele>164.88</ele>
        <time>2019-01-13T09:49:44.000Z</time>
      </trkpt>
      <trkpt lat="46.52638" lon="0.30368">
        <ele>165.13</ele>
        <time>2019-01-13T09:49:48.000Z</time>
      </trkpt>
      <trkpt lat="46.52638" lon="0.30381">
        <ele>165.31</ele>
        <time>2019-01-13T09:49:52.000Z</time>
      </trkpt>
      <trkpt lat="46.52641" lon="0.30397">
        <ele>165.64</ele>
        <time>2019-01-13T09:49:57.000Z</time>
      </trkpt>
      <trkpt lat="46.52641" lon="0.30414">
        <ele>166.27</ele>
        <time>2019-01-13T09:50:02.000Z</time>
      </trkpt>
      <trkpt lat="46.52642" lon="0.30428">
        <ele>166.7</ele>
        <time>2019-01-13T09:50:05.000Z</time>
      </trkpt>
      <trkpt lat="46.52643" lon="0.30444">
        <ele>167.03</ele>
        <time>2019-01-13T09:50:08.000Z</time>
      </trkpt>
      <trkpt lat="46.52643" lon="0.30458">
        <ele>167.36</ele>
        <time>2019-01-13T09:50:11.000Z</time>
      </trkpt>
      <trkpt lat="46.52642" lon="0.30472">
        <ele>167.58</ele>
        <time>2019-01-13T09:50:14.000Z</time>
      </trkpt>
      <trkpt lat="46.52643" lon="0.30488">
        <ele>167.77</ele>
        <time>2019-01-13T09:50:19.000Z</time>
      </trkpt>
      <trkpt lat="46.52644" lon="0.30503">
        <ele>167.86</ele>
        <time>2019-01-13T09:50:22.000Z</time>
      </trkpt>
      <trkpt lat="46.52644" lon="0.30518">
        <ele>168.12</ele>
        <time>2019-01-13T09:50:26.000Z</time>
      </trkpt>
      <trkpt lat="46.52653" lon="0.30522">
        <ele>168.37</ele>
        <time>2019-01-13T09:50:30.000Z</time>
      </trkpt>
      <trkpt lat="46.52659" lon="0.30541">
        <ele>168.93</ele>
        <time>2019-01-13T09:50:36.000Z</time>
      </trkpt>
      <trkpt lat="46.52665" lon="0.30552">
        <ele>169.04</ele>
        <time>2019-01-13T09:50:38.000Z</time>
      </trkpt>
      <trkpt lat="46.52667" lon="0.30565">
        <ele>169.6</ele>
        <time>2019-01-13T09:50:42.000Z</time>
      </trkpt>
      <trkpt lat="46.52666" lon="0.30578">
        <ele>170.11</ele>
        <time>2019-01-13T09:50:45.000Z</time>
      </trkpt>
      <trkpt lat="46.52663" lon="0.3059">
        <ele>170.94</ele>
        <time>2019-01-13T09:50:49.000Z</time>
      </trkpt>
      <trkpt lat="46.52664" lon="0.30604">
        <ele>172.1</ele>
        <time>2019-01-13T09:50:54.000Z</time>
      </trkpt>
      <trkpt lat="46.52668" lon="0.30622">
        <ele>172.67</ele>
        <time>2019-01-13T09:50:58.000Z</time>
      </trkpt>
      <trkpt lat="46.52672" lon="0.30635">
        <ele>172.81</ele>
        <time>2019-01-13T09:51:02.000Z</time>
      </trkpt>
      <trkpt lat="46.52678" lon="0.30649">
        <ele>172.68</ele>
        <time>2019-01-13T09:51:08.000Z</time>
      </trkpt>
      <trkpt lat="46.52682" lon="0.30662">
        <ele>172.43</ele>
        <time>2019-01-13T09:51:17.000Z</time>
      </trkpt>
      <trkpt lat="46.52684" lon="0.30676">
        <ele>172.64</ele>
        <time>2019-01-13T09:51:21.000Z</time>
      </trkpt>
      <trkpt lat="46.52686" lon="0.3069">
        <ele>172.81</ele>
        <time>2019-01-13T09:51:24.000Z</time>
      </trkpt>
      <trkpt lat="46.52691" lon="0.30705">
        <ele>173.15</ele>
        <time>2019-01-13T09:51:27.000Z</time>
      </trkpt>
      <trkpt lat="46.52696" lon="0.30718">
        <ele>173.6</ele>
        <time>2019-01-13T09:51:30.000Z</time>
      </trkpt>
      <trkpt lat="46.52704" lon="0.30729">
        <ele>173.91</ele>
        <time>2019-01-13T09:51:32.000Z</time>
      </trkpt>
      <trkpt lat="46.52708" lon="0.30741">
        <ele>174.31</ele>
        <time>2019-01-13T09:51:35.000Z</time>
      </trkpt>
      <trkpt lat="46.52713" lon="0.30757">
        <ele>174.54</ele>
        <time>2019-01-13T09:51:38.000Z</time>
      </trkpt>
      <trkpt lat="46.52715" lon="0.30773">
        <ele>174.72</ele>
        <time>2019-01-13T09:51:41.000Z</time>
      </trkpt>
      <trkpt lat="46.52713" lon="0.30788">
        <ele>174.89</ele>
        <time>2019-01-13T09:51:45.000Z</time>
      </trkpt>
      <trkpt lat="46.52717" lon="0.30799">
        <ele>174.79</ele>
        <time>2019-01-13T09:51:47.000Z</time>
      </trkpt>
      <trkpt lat="46.52724" lon="0.30816">
        <ele>174.48</ele>
        <time>2019-01-13T09:51:50.000Z</time>
      </trkpt>
      <trkpt lat="46.5273" lon="0.30829">
        <ele>174.06</ele>
        <time>2019-01-13T09:51:53.000Z</time>
      </trkpt>
      <trkpt lat="46.52734" lon="0.30846">
        <ele>171.6</ele>
        <time>2019-01-13T09:51:56.000Z</time>
      </trkpt>
      <trkpt lat="46.52741" lon="0.30861">
        <ele>167.84</ele>
        <time>2019-01-13T09:52:00.000Z</time>
      </trkpt>
      <trkpt lat="46.52745" lon="0.3088">
        <ele>163.4</ele>
        <time>2019-01-13T09:52:03.000Z</time>
      </trkpt>
      <trkpt lat="46.52751" lon="0.30894">
        <ele>162.68</ele>
        <time>2019-01-13T09:52:07.000Z</time>
      </trkpt>
      <trkpt lat="46.52755" lon="0.30907">
        <ele>162.29</ele>
        <time>2019-01-13T09:52:10.000Z</time>
      </trkpt>
      <trkpt lat="46.52759" lon="0.30919">
        <ele>161.9</ele>
        <time>2019-01-13T09:52:13.000Z</time>
      </trkpt>
      <trkpt lat="46.52762" lon="0.30934">
        <ele>161.72</ele>
        <time>2019-01-13T09:52:16.000Z</time>
      </trkpt>
      <trkpt lat="46.52766" lon="0.30946">
        <ele>161.52</ele>
        <time>2019-01-13T09:52:19.000Z</time>
      </trkpt>
      <trkpt lat="46.52771" lon="0.3096">
        <ele>160.98</ele>
        <time>2019-01-13T09:52:23.000Z</time>
      </trkpt>
      <trkpt lat="46.52777" lon="0.30973">
        <ele>160.04</ele>
        <time>2019-01-13T09:52:28.000Z</time>
      </trkpt>
      <trkpt lat="46.52783" lon="0.30986">
        <ele>159.24</ele>
        <time>2019-01-13T09:52:32.000Z</time>
      </trkpt>
      <trkpt lat="46.52787" lon="0.31">
        <ele>158.06</ele>
        <time>2019-01-13T09:52:37.000Z</time>
      </trkpt>
      <trkpt lat="46.52792" lon="0.31012">
        <ele>157.29</ele>
        <time>2019-01-13T09:52:41.000Z</time>
      </trkpt>
      <trkpt lat="46.52797" lon="0.31025">
        <ele>156.94</ele>
        <time>2019-01-13T09:52:43.000Z</time>
      </trkpt>
      <trkpt lat="46.52805" lon="0.31042">
        <ele>156.03</ele>
        <time>2019-01-13T09:52:47.000Z</time>
      </trkpt>
      <trkpt lat="46.52811" lon="0.31054">
        <ele>155.47</ele>
        <time>2019-01-13T09:52:49.000Z</time>
      </trkpt>
      <trkpt lat="46.52818" lon="0.31066">
        <ele>154.89</ele>
        <time>2019-01-13T09:52:51.000Z</time>
      </trkpt>
      <trkpt lat="46.52823" lon="0.31079">
        <ele>154</ele>
        <time>2019-01-13T09:52:54.000Z</time>
      </trkpt>
      <trkpt lat="46.52829" lon="0.31089">
        <ele>149.31</ele>
        <time>2019-01-13T09:52:56.000Z</time>
      </trkpt>
      <trkpt lat="46.52836" lon="0.31101">
        <ele>147.42</ele>
        <time>2019-01-13T09:52:58.000Z</time>
      </trkpt>
      <trkpt lat="46.52842" lon="0.31115">
        <ele>147.11</ele>
        <time>2019-01-13T09:53:01.000Z</time>
      </trkpt>
      <trkpt lat="46.52849" lon="0.31125">
        <ele>146.9</ele>
        <time>2019-01-13T09:53:04.000Z</time>
      </trkpt>
      <trkpt lat="46.52855" lon="0.31138">
        <ele>146.44</ele>
        <time>2019-01-13T09:53:08.000Z</time>
      </trkpt>
      <trkpt lat="46.52861" lon="0.31148">
        <ele>145.79</ele>
        <time>2019-01-13T09:53:11.000Z</time>
      </trkpt>
      <trkpt lat="46.52868" lon="0.31158">
        <ele>145.23</ele>
        <time>2019-01-13T09:53:14.000Z</time>
      </trkpt>
      <trkpt lat="46.52874" lon="0.31169">
        <ele>144.95</ele>
        <time>2019-01-13T09:53:16.000Z</time>
      </trkpt>
      <trkpt lat="46.5288" lon="0.31179">
        <ele>144.76</ele>
        <time>2019-01-13T09:53:18.000Z</time>
      </trkpt>
      <trkpt lat="46.52887" lon="0.31193">
        <ele>142.96</ele>
        <time>2019-01-13T09:53:20.000Z</time>
      </trkpt>
      <trkpt lat="46.52894" lon="0.31204">
        <ele>141.15</ele>
        <time>2019-01-13T09:53:22.000Z</time>
      </trkpt>
      <trkpt lat="46.529" lon="0.31215">
        <ele>139.22</ele>
        <time>2019-01-13T09:53:24.000Z</time>
      </trkpt>
      <trkpt lat="46.52906" lon="0.31228">
        <ele>137.97</ele>
        <time>2019-01-13T09:53:26.000Z</time>
      </trkpt>
      <trkpt lat="46.52914" lon="0.31242">
        <ele>137.93</ele>
        <time>2019-01-13T09:53:29.000Z</time>
      </trkpt>
      <trkpt lat="46.52922" lon="0.31255">
        <ele>139.23</ele>
        <time>2019-01-13T09:53:31.000Z</time>
      </trkpt>
      <trkpt lat="46.52932" lon="0.31265">
        <ele>140.63</ele>
        <time>2019-01-13T09:53:33.000Z</time>
      </trkpt>
      <trkpt lat="46.52942" lon="0.31261">
        <ele>141.37</ele>
        <time>2019-01-13T09:53:36.000Z</time>
      </trkpt>
      <trkpt lat="46.5295" lon="0.31255">
        <ele>141.76</ele>
        <time>2019-01-13T09:53:39.000Z</time>
      </trkpt>
      <trkpt lat="46.52959" lon="0.31246">
        <ele>141.83</ele>
        <time>2019-01-13T09:53:42.000Z</time>
      </trkpt>
      <trkpt lat="46.5297" lon="0.31243">
        <ele>141.13</ele>
        <time>2019-01-13T09:53:50.000Z</time>
      </trkpt>
      <trkpt lat="46.52977" lon="0.31233">
        <ele>140.75</ele>
        <time>2019-01-13T09:53:53.000Z</time>
      </trkpt>
      <trkpt lat="46.52984" lon="0.31224">
        <ele>140.63</ele>
        <time>2019-01-13T09:53:55.000Z</time>
      </trkpt>
      <trkpt lat="46.52992" lon="0.31214">
        <ele>140.9</ele>
        <time>2019-01-13T09:53:58.000Z</time>
      </trkpt>
      <trkpt lat="46.53" lon="0.31203">
        <ele>140.87</ele>
        <time>2019-01-13T09:54:01.000Z</time>
      </trkpt>
      <trkpt lat="46.53004" lon="0.31185">
        <ele>140.64</ele>
        <time>2019-01-13T09:54:05.000Z</time>
      </trkpt>
      <trkpt lat="46.52996" lon="0.31175">
        <ele>140.34</ele>
        <time>2019-01-13T09:54:08.000Z</time>
      </trkpt>
      <trkpt lat="46.52988" lon="0.31166">
        <ele>140.08</ele>
        <time>2019-01-13T09:54:11.000Z</time>
      </trkpt>
      <trkpt lat="46.5298" lon="0.31154">
        <ele>139.88</ele>
        <time>2019-01-13T09:54:13.000Z</time>
      </trkpt>
      <trkpt lat="46.52972" lon="0.31139">
        <ele>139.49</ele>
        <time>2019-01-13T09:54:16.000Z</time>
      </trkpt>
      <trkpt lat="46.52966" lon="0.31129">
        <ele>139.08</ele>
        <time>2019-01-13T09:54:19.000Z</time>
      </trkpt>
      <trkpt lat="46.52959" lon="0.31118">
        <ele>138.76</ele>
        <time>2019-01-13T09:54:21.000Z</time>
      </trkpt>
      <trkpt lat="46.52951" lon="0.31106">
        <ele>136.14</ele>
        <time>2019-01-13T09:54:23.000Z</time>
      </trkpt>
      <trkpt lat="46.52943" lon="0.31095">
        <ele>133.84</ele>
        <time>2019-01-13T09:54:25.000Z</time>
      </trkpt>
      <trkpt lat="46.52936" lon="0.31082">
        <ele>132.13</ele>
        <time>2019-01-13T09:54:27.000Z</time>
      </trkpt>
      <trkpt lat="46.52931" lon="0.31067">
        <ele>132.08</ele>
        <time>2019-01-13T09:54:30.000Z</time>
      </trkpt>
      <trkpt lat="46.52927" lon="0.31054">
        <ele>132.28</ele>
        <time>2019-01-13T09:54:33.000Z</time>
      </trkpt>
      <trkpt lat="46.52921" lon="0.31038">
        <ele>132.55</ele>
        <time>2019-01-13T09:54:36.000Z</time>
      </trkpt>
      <trkpt lat="46.52918" lon="0.31023">
        <ele>133.05</ele>
        <time>2019-01-13T09:54:39.000Z</time>
      </trkpt>
      <trkpt lat="46.52916" lon="0.31007">
        <ele>133.63</ele>
        <time>2019-01-13T09:54:42.000Z</time>
      </trkpt>
      <trkpt lat="46.52914" lon="0.30989">
        <ele>134.22</ele>
        <time>2019-01-13T09:54:45.000Z</time>
      </trkpt>
      <trkpt lat="46.52912" lon="0.30976">
        <ele>134.58</ele>
        <time>2019-01-13T09:54:47.000Z</time>
      </trkpt>
      <trkpt lat="46.52911" lon="0.30955">
        <ele>136.8</ele>
        <time>2019-01-13T09:54:50.000Z</time>
      </trkpt>
      <trkpt lat="46.52909" lon="0.30937">
        <ele>138.61</ele>
        <time>2019-01-13T09:54:53.000Z</time>
      </trkpt>
      <trkpt lat="46.5291" lon="0.30918">
        <ele>140.35</ele>
        <time>2019-01-13T09:54:56.000Z</time>
      </trkpt>
      <trkpt lat="46.52909" lon="0.30897">
        <ele>141.67</ele>
        <time>2019-01-13T09:54:59.000Z</time>
      </trkpt>
      <trkpt lat="46.52908" lon="0.3088">
        <ele>142.9</ele>
        <time>2019-01-13T09:55:02.000Z</time>
      </trkpt>
      <trkpt lat="46.52908" lon="0.30867">
        <ele>144.14</ele>
        <time>2019-01-13T09:55:04.000Z</time>
      </trkpt>
      <trkpt lat="46.52907" lon="0.30852">
        <ele>144.73</ele>
        <time>2019-01-13T09:55:06.000Z</time>
      </trkpt>
      <trkpt lat="46.52907" lon="0.30834">
        <ele>146.72</ele>
        <time>2019-01-13T09:55:09.000Z</time>
      </trkpt>
      <trkpt lat="46.52906" lon="0.30821">
        <ele>147.31</ele>
        <time>2019-01-13T09:55:11.000Z</time>
      </trkpt>
      <trkpt lat="46.52904" lon="0.30808">
        <ele>147.89</ele>
        <time>2019-01-13T09:55:13.000Z</time>
      </trkpt>
      <trkpt lat="46.52902" lon="0.30793">
        <ele>147.56</ele>
        <time>2019-01-13T09:55:15.000Z</time>
      </trkpt>
      <trkpt lat="46.52901" lon="0.30773">
        <ele>147.32</ele>
        <time>2019-01-13T09:55:18.000Z</time>
      </trkpt>
      <trkpt lat="46.52903" lon="0.30756">
        <ele>146.12</ele>
        <time>2019-01-13T09:55:21.000Z</time>
      </trkpt>
      <trkpt lat="46.529" lon="0.30741">
        <ele>145.91</ele>
        <time>2019-01-13T09:55:24.000Z</time>
      </trkpt>
      <trkpt lat="46.52899" lon="0.30722">
        <ele>145.02</ele>
        <time>2019-01-13T09:55:27.000Z</time>
      </trkpt>
      <trkpt lat="46.52896" lon="0.30703">
        <ele>144.11</ele>
        <time>2019-01-13T09:55:30.000Z</time>
      </trkpt>
      <trkpt lat="46.52892" lon="0.30689">
        <ele>142.57</ele>
        <time>2019-01-13T09:55:32.000Z</time>
      </trkpt>
      <trkpt lat="46.52891" lon="0.30675">
        <ele>141.22</ele>
        <time>2019-01-13T09:55:34.000Z</time>
      </trkpt>
      <trkpt lat="46.52888" lon="0.3066">
        <ele>140.21</ele>
        <time>2019-01-13T09:55:36.000Z</time>
      </trkpt>
      <trkpt lat="46.52883" lon="0.30646">
        <ele>139.73</ele>
        <time>2019-01-13T09:55:38.000Z</time>
      </trkpt>
      <trkpt lat="46.52879" lon="0.30633">
        <ele>139.3</ele>
        <time>2019-01-13T09:55:40.000Z</time>
      </trkpt>
      <trkpt lat="46.52876" lon="0.30612">
        <ele>139.76</ele>
        <time>2019-01-13T09:55:42.000Z</time>
      </trkpt>
      <trkpt lat="46.52872" lon="0.30596">
        <ele>140.35</ele>
        <time>2019-01-13T09:55:44.000Z</time>
      </trkpt>
      <trkpt lat="46.52868" lon="0.30581">
        <ele>140.74</ele>
        <time>2019-01-13T09:55:46.000Z</time>
      </trkpt>
      <trkpt lat="46.52865" lon="0.30568">
        <ele>140.57</ele>
        <time>2019-01-13T09:55:48.000Z</time>
      </trkpt>
      <trkpt lat="46.52862" lon="0.30555">
        <ele>140.2</ele>
        <time>2019-01-13T09:55:50.000Z</time>
      </trkpt>
      <trkpt lat="46.5286" lon="0.30542">
        <ele>140.51</ele>
        <time>2019-01-13T09:55:52.000Z</time>
      </trkpt>
      <trkpt lat="46.52861" lon="0.30527">
        <ele>140.56</ele>
        <time>2019-01-13T09:55:55.000Z</time>
      </trkpt>
      <trkpt lat="46.5286" lon="0.30514">
        <ele>140.56</ele>
        <time>2019-01-13T09:55:57.000Z</time>
      </trkpt>
      <trkpt lat="46.52861" lon="0.30493">
        <ele>140.52</ele>
        <time>2019-01-13T09:56:00.000Z</time>
      </trkpt>
      <trkpt lat="46.52862" lon="0.30476">
        <ele>140.58</ele>
        <time>2019-01-13T09:56:03.000Z</time>
      </trkpt>
      <trkpt lat="46.52864" lon="0.3046">
        <ele>140.65</ele>
        <time>2019-01-13T09:56:06.000Z</time>
      </trkpt>
      <trkpt lat="46.52869" lon="0.30449">
        <ele>140.71</ele>
        <time>2019-01-13T09:56:10.000Z</time>
      </trkpt>
      <trkpt lat="46.52874" lon="0.30437">
        <ele>141.49</ele>
        <time>2019-01-13T09:56:18.000Z</time>
      </trkpt>
      <trkpt lat="46.52879" lon="0.30426">
        <ele>142.7</ele>
        <time>2019-01-13T09:56:24.000Z</time>
      </trkpt>
      <trkpt lat="46.52887" lon="0.30415">
        <ele>143.33</ele>
        <time>2019-01-13T09:56:28.000Z</time>
      </trkpt>
      <trkpt lat="46.52892" lon="0.30403">
        <ele>143.58</ele>
        <time>2019-01-13T09:56:33.000Z</time>
      </trkpt>
      <trkpt lat="46.52897" lon="0.30392">
        <ele>143.43</ele>
        <time>2019-01-13T09:56:40.000Z</time>
      </trkpt>
      <trkpt lat="46.52902" lon="0.30379">
        <ele>143.4</ele>
        <time>2019-01-13T09:56:46.000Z</time>
      </trkpt>
      <trkpt lat="46.52905" lon="0.30392">
        <ele>144.74</ele>
        <time>2019-01-13T09:57:02.000Z</time>
      </trkpt>
      <trkpt lat="46.52903" lon="0.30406">
        <ele>145.95</ele>
        <time>2019-01-13T09:57:09.000Z</time>
      </trkpt>
      <trkpt lat="46.52902" lon="0.30419">
        <ele>147.37</ele>
        <time>2019-01-13T09:57:16.000Z</time>
      </trkpt>
      <trkpt lat="46.52901" lon="0.30433">
        <ele>148.72</ele>
        <time>2019-01-13T09:57:22.000Z</time>
      </trkpt>
      <trkpt lat="46.52901" lon="0.30446">
        <ele>149.94</ele>
        <time>2019-01-13T09:57:27.000Z</time>
      </trkpt>
      <trkpt lat="46.52902" lon="0.30463">
        <ele>151.17</ele>
        <time>2019-01-13T09:57:33.000Z</time>
      </trkpt>
      <trkpt lat="46.52904" lon="0.30477">
        <ele>151.65</ele>
        <time>2019-01-13T09:57:37.000Z</time>
      </trkpt>
      <trkpt lat="46.52909" lon="0.3049">
        <ele>151.72</ele>
        <time>2019-01-13T09:57:43.000Z</time>
      </trkpt>
      <trkpt lat="46.52913" lon="0.30502">
        <ele>151.33</ele>
        <time>2019-01-13T09:57:52.000Z</time>
      </trkpt>
      <trkpt lat="46.52918" lon="0.30516">
        <ele>151.43</ele>
        <time>2019-01-13T09:58:00.000Z</time>
      </trkpt>
      <trkpt lat="46.52921" lon="0.30528">
        <ele>151.87</ele>
        <time>2019-01-13T09:58:06.000Z</time>
      </trkpt>
      <trkpt lat="46.52925" lon="0.3054">
        <ele>152.38</ele>
        <time>2019-01-13T09:58:12.000Z</time>
      </trkpt>
      <trkpt lat="46.52926" lon="0.30554">
        <ele>152.9</ele>
        <time>2019-01-13T09:58:19.000Z</time>
      </trkpt>
      <trkpt lat="46.52931" lon="0.30567">
        <ele>153.45</ele>
        <time>2019-01-13T09:58:26.000Z</time>
      </trkpt>
      <trkpt lat="46.52932" lon="0.30581">
        <ele>154.09</ele>
        <time>2019-01-13T09:58:32.000Z</time>
      </trkpt>
      <trkpt lat="46.52935" lon="0.30594">
        <ele>154.75</ele>
        <time>2019-01-13T09:58:37.000Z</time>
      </trkpt>
      <trkpt lat="46.52942" lon="0.306">
        <ele>155.6</ele>
        <time>2019-01-13T09:58:42.000Z</time>
      </trkpt>
      <trkpt lat="46.5295" lon="0.30593">
        <ele>156.91</ele>
        <time>2019-01-13T09:58:48.000Z</time>
      </trkpt>
      <trkpt lat="46.52953" lon="0.30579">
        <ele>158.02</ele>
        <time>2019-01-13T09:58:54.000Z</time>
      </trkpt>
      <trkpt lat="46.52954" lon="0.30565">
        <ele>158.77</ele>
        <time>2019-01-13T09:58:59.000Z</time>
      </trkpt>
      <trkpt lat="46.52953" lon="0.30552">
        <ele>159.56</ele>
        <time>2019-01-13T09:59:04.000Z</time>
      </trkpt>
      <trkpt lat="46.52955" lon="0.30537">
        <ele>160.72</ele>
        <time>2019-01-13T09:59:10.000Z</time>
      </trkpt>
      <trkpt lat="46.52957" lon="0.30522">
        <ele>162</ele>
        <time>2019-01-13T09:59:16.000Z</time>
      </trkpt>
      <trkpt lat="46.52961" lon="0.30508">
        <ele>162.89</ele>
        <time>2019-01-13T09:59:21.000Z</time>
      </trkpt>
      <trkpt lat="46.52964" lon="0.30494">
        <ele>163.84</ele>
        <time>2019-01-13T09:59:26.000Z</time>
      </trkpt>
      <trkpt lat="46.52968" lon="0.30482">
        <ele>165</ele>
        <time>2019-01-13T09:59:32.000Z</time>
      </trkpt>
      <trkpt lat="46.52974" lon="0.30471">
        <ele>166.03</ele>
        <time>2019-01-13T09:59:38.000Z</time>
      </trkpt>
      <trkpt lat="46.5298" lon="0.3046">
        <ele>166.8</ele>
        <time>2019-01-13T09:59:43.000Z</time>
      </trkpt>
      <trkpt lat="46.52987" lon="0.30447">
        <ele>167.76</ele>
        <time>2019-01-13T09:59:49.000Z</time>
      </trkpt>
      <trkpt lat="46.52993" lon="0.30433">
        <ele>168.84</ele>
        <time>2019-01-13T09:59:55.000Z</time>
      </trkpt>
      <trkpt lat="46.52999" lon="0.30421">
        <ele>169.96</ele>
        <time>2019-01-13T10:00:00.000Z</time>
      </trkpt>
      <trkpt lat="46.53008" lon="0.3041">
        <ele>171.15</ele>
        <time>2019-01-13T10:00:06.000Z</time>
      </trkpt>
      <trkpt lat="46.53015" lon="0.30401">
        <ele>171.91</ele>
        <time>2019-01-13T10:00:11.000Z</time>
      </trkpt>
      <trkpt lat="46.53022" lon="0.30393">
        <ele>172.49</ele>
        <time>2019-01-13T10:00:15.000Z</time>
      </trkpt>
      <trkpt lat="46.53032" lon="0.30386">
        <ele>173.58</ele>
        <time>2019-01-13T10:00:20.000Z</time>
      </trkpt>
      <trkpt lat="46.53041" lon="0.30383">
        <ele>174.99</ele>
        <time>2019-01-13T10:00:25.000Z</time>
      </trkpt>
      <trkpt lat="46.53052" lon="0.30385">
        <ele>176.08</ele>
        <time>2019-01-13T10:00:29.000Z</time>
      </trkpt>
      <trkpt lat="46.53061" lon="0.30384">
        <ele>177.14</ele>
        <time>2019-01-13T10:00:33.000Z</time>
      </trkpt>
      <trkpt lat="46.53071" lon="0.30385">
        <ele>178.22</ele>
        <time>2019-01-13T10:00:37.000Z</time>
      </trkpt>
      <trkpt lat="46.53082" lon="0.30383">
        <ele>179.48</ele>
        <time>2019-01-13T10:00:42.000Z</time>
      </trkpt>
      <trkpt lat="46.53093" lon="0.3038">
        <ele>180.68</ele>
        <time>2019-01-13T10:00:47.000Z</time>
      </trkpt>
      <trkpt lat="46.53104" lon="0.3038">
        <ele>181.58</ele>
        <time>2019-01-13T10:00:51.000Z</time>
      </trkpt>
      <trkpt lat="46.53113" lon="0.3038">
        <ele>182.14</ele>
        <time>2019-01-13T10:00:54.000Z</time>
      </trkpt>
      <trkpt lat="46.53122" lon="0.30377">
        <ele>182.65</ele>
        <time>2019-01-13T10:00:57.000Z</time>
      </trkpt>
      <trkpt lat="46.53132" lon="0.30374">
        <ele>183.15</ele>
        <time>2019-01-13T10:01:00.000Z</time>
      </trkpt>
      <trkpt lat="46.53142" lon="0.30369">
        <ele>183.62</ele>
        <time>2019-01-13T10:01:03.000Z</time>
      </trkpt>
      <trkpt lat="46.53154" lon="0.30364">
        <ele>185.5</ele>
        <time>2019-01-13T10:01:06.000Z</time>
      </trkpt>
      <trkpt lat="46.53166" lon="0.30363">
        <ele>188.03</ele>
        <time>2019-01-13T10:01:09.000Z</time>
      </trkpt>
      <trkpt lat="46.53176" lon="0.30368">
        <ele>188.99</ele>
        <time>2019-01-13T10:01:11.000Z</time>
      </trkpt>
      <trkpt lat="46.53185" lon="0.30377">
        <ele>188.46</ele>
        <time>2019-01-13T10:01:13.000Z</time>
      </trkpt>
      <trkpt lat="46.53194" lon="0.30383">
        <ele>187.25</ele>
        <time>2019-01-13T10:01:15.000Z</time>
      </trkpt>
      <trkpt lat="46.53205" lon="0.3039">
        <ele>185.78</ele>
        <time>2019-01-13T10:01:17.000Z</time>
      </trkpt>
      <trkpt lat="46.53215" lon="0.30396">
        <ele>184.97</ele>
        <time>2019-01-13T10:01:19.000Z</time>
      </trkpt>
      <trkpt lat="46.53224" lon="0.30401">
        <ele>185.19</ele>
        <time>2019-01-13T10:01:21.000Z</time>
      </trkpt>
      <trkpt lat="46.53234" lon="0.30406">
        <ele>186.16</ele>
        <time>2019-01-13T10:01:23.000Z</time>
      </trkpt>
      <trkpt lat="46.53245" lon="0.30412">
        <ele>186.84</ele>
        <time>2019-01-13T10:01:25.000Z</time>
      </trkpt>
      <trkpt lat="46.53257" lon="0.30419">
        <ele>187.03</ele>
        <time>2019-01-13T10:01:27.000Z</time>
      </trkpt>
      <trkpt lat="46.53269" lon="0.30426">
        <ele>186.89</ele>
        <time>2019-01-13T10:01:29.000Z</time>
      </trkpt>
      <trkpt lat="46.5328" lon="0.30431">
        <ele>186.78</ele>
        <time>2019-01-13T10:01:31.000Z</time>
      </trkpt>
      <trkpt lat="46.53291" lon="0.30436">
        <ele>186.64</ele>
        <time>2019-01-13T10:01:33.000Z</time>
      </trkpt>
      <trkpt lat="46.533" lon="0.3044">
        <ele>186.86</ele>
        <time>2019-01-13T10:01:35.000Z</time>
      </trkpt>
      <trkpt lat="46.5331" lon="0.30445">
        <ele>186.99</ele>
        <time>2019-01-13T10:01:37.000Z</time>
      </trkpt>
      <trkpt lat="46.53322" lon="0.30452">
        <ele>186.8</ele>
        <time>2019-01-13T10:01:39.000Z</time>
      </trkpt>
      <trkpt lat="46.53331" lon="0.30457">
        <ele>186.63</ele>
        <time>2019-01-13T10:01:41.000Z</time>
      </trkpt>
      <trkpt lat="46.5334" lon="0.30462">
        <ele>186.6</ele>
        <time>2019-01-13T10:01:43.000Z</time>
      </trkpt>
      <trkpt lat="46.53353" lon="0.30468">
        <ele>185.99</ele>
        <time>2019-01-13T10:01:46.000Z</time>
      </trkpt>
      <trkpt lat="46.53366" lon="0.30476">
        <ele>185.98</ele>
        <time>2019-01-13T10:01:49.000Z</time>
      </trkpt>
      <trkpt lat="46.53376" lon="0.30483">
        <ele>184.81</ele>
        <time>2019-01-13T10:01:51.000Z</time>
      </trkpt>
      <trkpt lat="46.53386" lon="0.3049">
        <ele>182.61</ele>
        <time>2019-01-13T10:01:53.000Z</time>
      </trkpt>
      <trkpt lat="46.53397" lon="0.30498">
        <ele>180.12</ele>
        <time>2019-01-13T10:01:55.000Z</time>
      </trkpt>
      <trkpt lat="46.53407" lon="0.30504">
        <ele>178.94</ele>
        <time>2019-01-13T10:01:57.000Z</time>
      </trkpt>
      <trkpt lat="46.53416" lon="0.3051">
        <ele>179.32</ele>
        <time>2019-01-13T10:01:59.000Z</time>
      </trkpt>
      <trkpt lat="46.53424" lon="0.30517">
        <ele>179.84</ele>
        <time>2019-01-13T10:02:01.000Z</time>
      </trkpt>
      <trkpt lat="46.53434" lon="0.30524">
        <ele>180.37</ele>
        <time>2019-01-13T10:02:03.000Z</time>
      </trkpt>
      <trkpt lat="46.53445" lon="0.30525">
        <ele>181.01</ele>
        <time>2019-01-13T10:02:05.000Z</time>
      </trkpt>
      <trkpt lat="46.53456" lon="0.30523">
        <ele>181.63</ele>
        <time>2019-01-13T10:02:07.000Z</time>
      </trkpt>
      <trkpt lat="46.53466" lon="0.30529">
        <ele>182.15</ele>
        <time>2019-01-13T10:02:09.000Z</time>
      </trkpt>
      <trkpt lat="46.53477" lon="0.30542">
        <ele>182.67</ele>
        <time>2019-01-13T10:02:11.000Z</time>
      </trkpt>
      <trkpt lat="46.53487" lon="0.30553">
        <ele>182.83</ele>
        <time>2019-01-13T10:02:13.000Z</time>
      </trkpt>
      <trkpt lat="46.53498" lon="0.30558">
        <ele>183.06</ele>
        <time>2019-01-13T10:02:15.000Z</time>
      </trkpt>
      <trkpt lat="46.53511" lon="0.30562">
        <ele>182.04</ele>
        <time>2019-01-13T10:02:17.000Z</time>
      </trkpt>
      <trkpt lat="46.53524" lon="0.30561">
        <ele>180.75</ele>
        <time>2019-01-13T10:02:19.000Z</time>
      </trkpt>
      <trkpt lat="46.53534" lon="0.30557">
        <ele>179.78</ele>
        <time>2019-01-13T10:02:21.000Z</time>
      </trkpt>
      <trkpt lat="46.53544" lon="0.30556">
        <ele>179.23</ele>
        <time>2019-01-13T10:02:23.000Z</time>
      </trkpt>
      <trkpt lat="46.53554" lon="0.3055">
        <ele>178.72</ele>
        <time>2019-01-13T10:02:25.000Z</time>
      </trkpt>
      <trkpt lat="46.53563" lon="0.30546">
        <ele>177.6</ele>
        <time>2019-01-13T10:02:27.000Z</time>
      </trkpt>
      <trkpt lat="46.53572" lon="0.3054">
        <ele>176.9</ele>
        <time>2019-01-13T10:02:30.000Z</time>
      </trkpt>
      <trkpt lat="46.53584" lon="0.30537">
        <ele>174.03</ele>
        <time>2019-01-13T10:02:33.000Z</time>
      </trkpt>
      <trkpt lat="46.53595" lon="0.30539">
        <ele>172.32</ele>
        <time>2019-01-13T10:02:35.000Z</time>
      </trkpt>
      <trkpt lat="46.53605" lon="0.30541">
        <ele>171.26</ele>
        <time>2019-01-13T10:02:37.000Z</time>
      </trkpt>
      <trkpt lat="46.53617" lon="0.30542">
        <ele>171.12</ele>
        <time>2019-01-13T10:02:40.000Z</time>
      </trkpt>
      <trkpt lat="46.53627" lon="0.30544">
        <ele>171.23</ele>
        <time>2019-01-13T10:02:43.000Z</time>
      </trkpt>
      <trkpt lat="46.53636" lon="0.30543">
        <ele>171.57</ele>
        <time>2019-01-13T10:02:47.000Z</time>
      </trkpt>
      <trkpt lat="46.53646" lon="0.30544">
        <ele>172.27</ele>
        <time>2019-01-13T10:02:52.000Z</time>
      </trkpt>
      <trkpt lat="46.53656" lon="0.30546">
        <ele>173.17</ele>
        <time>2019-01-13T10:02:57.000Z</time>
      </trkpt>
      <trkpt lat="46.53666" lon="0.3055">
        <ele>174.21</ele>
        <time>2019-01-13T10:03:02.000Z</time>
      </trkpt>
      <trkpt lat="46.53676" lon="0.30551">
        <ele>175.04</ele>
        <time>2019-01-13T10:03:07.000Z</time>
      </trkpt>
      <trkpt lat="46.53685" lon="0.3055">
        <ele>175.44</ele>
        <time>2019-01-13T10:03:11.000Z</time>
      </trkpt>
      <trkpt lat="46.53694" lon="0.30549">
        <ele>175.71</ele>
        <time>2019-01-13T10:03:14.000Z</time>
      </trkpt>
      <trkpt lat="46.53706" lon="0.30547">
        <ele>175.98</ele>
        <time>2019-01-13T10:03:18.000Z</time>
      </trkpt>
      <trkpt lat="46.53717" lon="0.30544">
        <ele>176.31</ele>
        <time>2019-01-13T10:03:22.000Z</time>
      </trkpt>
      <trkpt lat="46.53727" lon="0.30547">
        <ele>176.73</ele>
        <time>2019-01-13T10:03:27.000Z</time>
      </trkpt>
      <trkpt lat="46.53736" lon="0.30548">
        <ele>176.98</ele>
        <time>2019-01-13T10:03:30.000Z</time>
      </trkpt>
      <trkpt lat="46.53746" lon="0.30549">
        <ele>177.3</ele>
        <time>2019-01-13T10:03:34.000Z</time>
      </trkpt>
      <trkpt lat="46.53758" lon="0.30552">
        <ele>177.83</ele>
        <time>2019-01-13T10:03:38.000Z</time>
      </trkpt>
      <trkpt lat="46.53767" lon="0.30553">
        <ele>178.42</ele>
        <time>2019-01-13T10:03:41.000Z</time>
      </trkpt>
      <trkpt lat="46.53777" lon="0.30554">
        <ele>179.22</ele>
        <time>2019-01-13T10:03:45.000Z</time>
      </trkpt>
      <trkpt lat="46.53787" lon="0.30555">
        <ele>179.91</ele>
        <time>2019-01-13T10:03:48.000Z</time>
      </trkpt>
      <trkpt lat="46.53796" lon="0.30556">
        <ele>180.56</ele>
        <time>2019-01-13T10:03:51.000Z</time>
      </trkpt>
      <trkpt lat="46.53807" lon="0.30559">
        <ele>181.15</ele>
        <time>2019-01-13T10:03:54.000Z</time>
      </trkpt>
      <trkpt lat="46.53817" lon="0.30561">
        <ele>181.61</ele>
        <time>2019-01-13T10:03:57.000Z</time>
      </trkpt>
      <trkpt lat="46.53826" lon="0.30565">
        <ele>182.02</ele>
        <time>2019-01-13T10:04:00.000Z</time>
      </trkpt>
      <trkpt lat="46.53834" lon="0.30577">
        <ele>182.38</ele>
        <time>2019-01-13T10:04:03.000Z</time>
      </trkpt>
      <trkpt lat="46.53845" lon="0.30581">
        <ele>182.59</ele>
        <time>2019-01-13T10:04:06.000Z</time>
      </trkpt>
      <trkpt lat="46.53856" lon="0.30584">
        <ele>182.86</ele>
        <time>2019-01-13T10:04:09.000Z</time>
      </trkpt>
      <trkpt lat="46.53865" lon="0.30586">
        <ele>182.99</ele>
        <time>2019-01-13T10:04:11.000Z</time>
      </trkpt>
      <trkpt lat="46.53878" lon="0.30589">
        <ele>183.6</ele>
        <time>2019-01-13T10:04:14.000Z</time>
      </trkpt>
      <trkpt lat="46.53889" lon="0.30588">
        <ele>184.45</ele>
        <time>2019-01-13T10:04:16.000Z</time>
      </trkpt>
      <trkpt lat="46.53899" lon="0.30588">
        <ele>185.48</ele>
        <time>2019-01-13T10:04:18.000Z</time>
      </trkpt>
      <trkpt lat="46.53913" lon="0.30591">
        <ele>186.48</ele>
        <time>2019-01-13T10:04:21.000Z</time>
      </trkpt>
      <trkpt lat="46.53923" lon="0.30593">
        <ele>187.08</ele>
        <time>2019-01-13T10:04:23.000Z</time>
      </trkpt>
      <trkpt lat="46.53933" lon="0.30596">
        <ele>187.41</ele>
        <time>2019-01-13T10:04:25.000Z</time>
      </trkpt>
      <trkpt lat="46.53942" lon="0.30598">
        <ele>187.58</ele>
        <time>2019-01-13T10:04:27.000Z</time>
      </trkpt>
      <trkpt lat="46.53954" lon="0.30601">
        <ele>187.61</ele>
        <time>2019-01-13T10:04:29.000Z</time>
      </trkpt>
      <trkpt lat="46.53965" lon="0.30604">
        <ele>187.71</ele>
        <time>2019-01-13T10:04:31.000Z</time>
      </trkpt>
      <trkpt lat="46.53976" lon="0.30605">
        <ele>187.87</ele>
        <time>2019-01-13T10:04:33.000Z</time>
      </trkpt>
      <trkpt lat="46.53987" lon="0.30607">
        <ele>188.15</ele>
        <time>2019-01-13T10:04:35.000Z</time>
      </trkpt>
      <trkpt lat="46.53997" lon="0.30607">
        <ele>188.6</ele>
        <time>2019-01-13T10:04:37.000Z</time>
      </trkpt>
      <trkpt lat="46.54008" lon="0.30608">
        <ele>188.98</ele>
        <time>2019-01-13T10:04:39.000Z</time>
      </trkpt>
      <trkpt lat="46.54017" lon="0.30608">
        <ele>188.78</ele>
        <time>2019-01-13T10:04:41.000Z</time>
      </trkpt>
      <trkpt lat="46.54026" lon="0.3061">
        <ele>188.93</ele>
        <time>2019-01-13T10:04:43.000Z</time>
      </trkpt>
      <trkpt lat="46.54039" lon="0.3061">
        <ele>189.81</ele>
        <time>2019-01-13T10:04:46.000Z</time>
      </trkpt>
      <trkpt lat="46.5405" lon="0.30608">
        <ele>190.22</ele>
        <time>2019-01-13T10:04:48.000Z</time>
      </trkpt>
      <trkpt lat="46.54063" lon="0.30606">
        <ele>190.57</ele>
        <time>2019-01-13T10:04:51.000Z</time>
      </trkpt>
      <trkpt lat="46.54072" lon="0.30605">
        <ele>189.87</ele>
        <time>2019-01-13T10:04:53.000Z</time>
      </trkpt>
      <trkpt lat="46.54083" lon="0.30601">
        <ele>189.39</ele>
        <time>2019-01-13T10:04:55.000Z</time>
      </trkpt>
      <trkpt lat="46.54091" lon="0.30598">
        <ele>189.33</ele>
        <time>2019-01-13T10:04:57.000Z</time>
      </trkpt>
      <trkpt lat="46.54101" lon="0.30595">
        <ele>190.06</ele>
        <time>2019-01-13T10:04:59.000Z</time>
      </trkpt>
      <trkpt lat="46.5411" lon="0.30592">
        <ele>191.78</ele>
        <time>2019-01-13T10:05:01.000Z</time>
      </trkpt>
      <trkpt lat="46.54121" lon="0.30587">
        <ele>193.68</ele>
        <time>2019-01-13T10:05:03.000Z</time>
      </trkpt>
      <trkpt lat="46.54134" lon="0.30582">
        <ele>194.72</ele>
        <time>2019-01-13T10:05:05.000Z</time>
      </trkpt>
      <trkpt lat="46.54144" lon="0.30578">
        <ele>195.89</ele>
        <time>2019-01-13T10:05:07.000Z</time>
      </trkpt>
      <trkpt lat="46.54154" lon="0.30574">
        <ele>196.39</ele>
        <time>2019-01-13T10:05:09.000Z</time>
      </trkpt>
      <trkpt lat="46.54165" lon="0.30569">
        <ele>196.11</ele>
        <time>2019-01-13T10:05:11.000Z</time>
      </trkpt>
      <trkpt lat="46.54176" lon="0.30565">
        <ele>196.19</ele>
        <time>2019-01-13T10:05:13.000Z</time>
      </trkpt>
      <trkpt lat="46.54186" lon="0.30561">
        <ele>196.22</ele>
        <time>2019-01-13T10:05:15.000Z</time>
      </trkpt>
      <trkpt lat="46.54198" lon="0.30555">
        <ele>195.99</ele>
        <time>2019-01-13T10:05:17.000Z</time>
      </trkpt>
      <trkpt lat="46.54211" lon="0.30549">
        <ele>196.47</ele>
        <time>2019-01-13T10:05:19.000Z</time>
      </trkpt>
      <trkpt lat="46.54222" lon="0.30546">
        <ele>196.74</ele>
        <time>2019-01-13T10:05:21.000Z</time>
      </trkpt>
      <trkpt lat="46.54232" lon="0.30544">
        <ele>196.99</ele>
        <time>2019-01-13T10:05:23.000Z</time>
      </trkpt>
      <trkpt lat="46.54244" lon="0.30545">
        <ele>197.5</ele>
        <time>2019-01-13T10:05:25.000Z</time>
      </trkpt>
      <trkpt lat="46.54256" lon="0.30547">
        <ele>197.95</ele>
        <time>2019-01-13T10:05:27.000Z</time>
      </trkpt>
      <trkpt lat="46.54266" lon="0.30553">
        <ele>197.62</ele>
        <time>2019-01-13T10:05:29.000Z</time>
      </trkpt>
      <trkpt lat="46.54277" lon="0.30559">
        <ele>196.89</ele>
        <time>2019-01-13T10:05:31.000Z</time>
      </trkpt>
      <trkpt lat="46.54287" lon="0.30566">
        <ele>195.54</ele>
        <time>2019-01-13T10:05:33.000Z</time>
      </trkpt>
      <trkpt lat="46.54297" lon="0.30572">
        <ele>194.83</ele>
        <time>2019-01-13T10:05:35.000Z</time>
      </trkpt>
      <trkpt lat="46.54308" lon="0.30577">
        <ele>194.11</ele>
        <time>2019-01-13T10:05:37.000Z</time>
      </trkpt>
      <trkpt lat="46.54319" lon="0.30583">
        <ele>193.07</ele>
        <time>2019-01-13T10:05:39.000Z</time>
      </trkpt>
      <trkpt lat="46.54331" lon="0.30589">
        <ele>191.92</ele>
        <time>2019-01-13T10:05:41.000Z</time>
      </trkpt>
      <trkpt lat="46.54345" lon="0.30594">
        <ele>190.75</ele>
        <time>2019-01-13T10:05:43.000Z</time>
      </trkpt>
      <trkpt lat="46.54359" lon="0.30599">
        <ele>189.76</ele>
        <time>2019-01-13T10:05:45.000Z</time>
      </trkpt>
      <trkpt lat="46.54374" lon="0.30604">
        <ele>188.64</ele>
        <time>2019-01-13T10:05:47.000Z</time>
      </trkpt>
      <trkpt lat="46.54389" lon="0.30608">
        <ele>187.67</ele>
        <time>2019-01-13T10:05:49.000Z</time>
      </trkpt>
      <trkpt lat="46.54402" lon="0.30611">
        <ele>186.95</ele>
        <time>2019-01-13T10:05:51.000Z</time>
      </trkpt>
      <trkpt lat="46.54411" lon="0.30618">
        <ele>186.42</ele>
        <time>2019-01-13T10:05:53.000Z</time>
      </trkpt>
      <trkpt lat="46.54414" lon="0.30631">
        <ele>186.4</ele>
        <time>2019-01-13T10:05:56.000Z</time>
      </trkpt>
      <trkpt lat="46.54419" lon="0.30648">
        <ele>186.43</ele>
        <time>2019-01-13T10:05:59.000Z</time>
      </trkpt>
      <trkpt lat="46.54423" lon="0.30663">
        <ele>186.29</ele>
        <time>2019-01-13T10:06:01.000Z</time>
      </trkpt>
      <trkpt lat="46.54428" lon="0.30677">
        <ele>186.34</ele>
        <time>2019-01-13T10:06:03.000Z</time>
      </trkpt>
      <trkpt lat="46.54433" lon="0.30692">
        <ele>186.44</ele>
        <time>2019-01-13T10:06:05.000Z</time>
      </trkpt>
      <trkpt lat="46.54437" lon="0.30707">
        <ele>186.68</ele>
        <time>2019-01-13T10:06:07.000Z</time>
      </trkpt>
      <trkpt lat="46.5444" lon="0.30722">
        <ele>187.19</ele>
        <time>2019-01-13T10:06:09.000Z</time>
      </trkpt>
      <trkpt lat="46.54445" lon="0.30735">
        <ele>187.76</ele>
        <time>2019-01-13T10:06:11.000Z</time>
      </trkpt>
      <trkpt lat="46.5445" lon="0.30749">
        <ele>188.14</ele>
        <time>2019-01-13T10:06:13.000Z</time>
      </trkpt>
      <trkpt lat="46.54455" lon="0.30762">
        <ele>188.73</ele>
        <time>2019-01-13T10:06:15.000Z</time>
      </trkpt>
      <trkpt lat="46.54459" lon="0.30776">
        <ele>188.25</ele>
        <time>2019-01-13T10:06:17.000Z</time>
      </trkpt>
      <trkpt lat="46.54464" lon="0.30792">
        <ele>188.16</ele>
        <time>2019-01-13T10:06:19.000Z</time>
      </trkpt>
      <trkpt lat="46.5447" lon="0.30809">
        <ele>188.36</ele>
        <time>2019-01-13T10:06:21.000Z</time>
      </trkpt>
      <trkpt lat="46.54475" lon="0.30824">
        <ele>188.74</ele>
        <time>2019-01-13T10:06:23.000Z</time>
      </trkpt>
      <trkpt lat="46.5448" lon="0.30837">
        <ele>189.27</ele>
        <time>2019-01-13T10:06:25.000Z</time>
      </trkpt>
      <trkpt lat="46.54485" lon="0.30849">
        <ele>189.98</ele>
        <time>2019-01-13T10:06:27.000Z</time>
      </trkpt>
      <trkpt lat="46.54489" lon="0.30861">
        <ele>191.49</ele>
        <time>2019-01-13T10:06:29.000Z</time>
      </trkpt>
      <trkpt lat="46.54495" lon="0.30879">
        <ele>194.33</ele>
        <time>2019-01-13T10:06:32.000Z</time>
      </trkpt>
      <trkpt lat="46.54499" lon="0.30892">
        <ele>196.04</ele>
        <time>2019-01-13T10:06:34.000Z</time>
      </trkpt>
      <trkpt lat="46.54504" lon="0.30906">
        <ele>196.92</ele>
        <time>2019-01-13T10:06:36.000Z</time>
      </trkpt>
      <trkpt lat="46.54507" lon="0.30918">
        <ele>197.99</ele>
        <time>2019-01-13T10:06:38.000Z</time>
      </trkpt>
      <trkpt lat="46.54512" lon="0.30932">
        <ele>198.97</ele>
        <time>2019-01-13T10:06:40.000Z</time>
      </trkpt>
      <trkpt lat="46.54519" lon="0.30949">
        <ele>200.4</ele>
        <time>2019-01-13T10:06:42.000Z</time>
      </trkpt>
      <trkpt lat="46.54524" lon="0.30964">
        <ele>201.13</ele>
        <time>2019-01-13T10:06:44.000Z</time>
      </trkpt>
      <trkpt lat="46.5453" lon="0.30981">
        <ele>201.69</ele>
        <time>2019-01-13T10:06:47.000Z</time>
      </trkpt>
      <trkpt lat="46.54535" lon="0.30992">
        <ele>202.22</ele>
        <time>2019-01-13T10:06:49.000Z</time>
      </trkpt>
      <trkpt lat="46.54539" lon="0.31005">
        <ele>202.87</ele>
        <time>2019-01-13T10:06:51.000Z</time>
      </trkpt>
      <trkpt lat="46.54541" lon="0.31018">
        <ele>203.06</ele>
        <time>2019-01-13T10:06:53.000Z</time>
      </trkpt>
      <trkpt lat="46.54546" lon="0.31032">
        <ele>202.42</ele>
        <time>2019-01-13T10:06:55.000Z</time>
      </trkpt>
      <trkpt lat="46.54551" lon="0.31045">
        <ele>201.24</ele>
        <time>2019-01-13T10:06:57.000Z</time>
      </trkpt>
      <trkpt lat="46.54555" lon="0.31059">
        <ele>199.89</ele>
        <time>2019-01-13T10:06:59.000Z</time>
      </trkpt>
      <trkpt lat="46.54561" lon="0.31074">
        <ele>198.85</ele>
        <time>2019-01-13T10:07:01.000Z</time>
      </trkpt>
      <trkpt lat="46.54566" lon="0.3109">
        <ele>197.33</ele>
        <time>2019-01-13T10:07:03.000Z</time>
      </trkpt>
      <trkpt lat="46.54572" lon="0.31107">
        <ele>195.79</ele>
        <time>2019-01-13T10:07:05.000Z</time>
      </trkpt>
      <trkpt lat="46.54575" lon="0.31121">
        <ele>194.62</ele>
        <time>2019-01-13T10:07:07.000Z</time>
      </trkpt>
      <trkpt lat="46.54581" lon="0.3114">
        <ele>194.96</ele>
        <time>2019-01-13T10:07:09.000Z</time>
      </trkpt>
      <trkpt lat="46.54584" lon="0.31154">
        <ele>195.55</ele>
        <time>2019-01-13T10:07:11.000Z</time>
      </trkpt>
      <trkpt lat="46.54587" lon="0.31168">
        <ele>195.7</ele>
        <time>2019-01-13T10:07:13.000Z</time>
      </trkpt>
      <trkpt lat="46.54593" lon="0.31182">
        <ele>195</ele>
        <time>2019-01-13T10:07:15.000Z</time>
      </trkpt>
      <trkpt lat="46.54599" lon="0.31194">
        <ele>193.73</ele>
        <time>2019-01-13T10:07:17.000Z</time>
      </trkpt>
      <trkpt lat="46.54603" lon="0.31208">
        <ele>192.73</ele>
        <time>2019-01-13T10:07:19.000Z</time>
      </trkpt>
      <trkpt lat="46.54609" lon="0.31225">
        <ele>192.67</ele>
        <time>2019-01-13T10:07:21.000Z</time>
      </trkpt>
      <trkpt lat="46.54614" lon="0.31239">
        <ele>193.06</ele>
        <time>2019-01-13T10:07:23.000Z</time>
      </trkpt>
      <trkpt lat="46.54619" lon="0.31254">
        <ele>193.85</ele>
        <time>2019-01-13T10:07:25.000Z</time>
      </trkpt>
      <trkpt lat="46.54624" lon="0.31269">
        <ele>194.12</ele>
        <time>2019-01-13T10:07:27.000Z</time>
      </trkpt>
      <trkpt lat="46.54628" lon="0.31283">
        <ele>194.91</ele>
        <time>2019-01-13T10:07:29.000Z</time>
      </trkpt>
      <trkpt lat="46.54634" lon="0.31308">
        <ele>195.29</ele>
        <time>2019-01-13T10:07:32.000Z</time>
      </trkpt>
      <trkpt lat="46.54636" lon="0.31322">
        <ele>194.55</ele>
        <time>2019-01-13T10:07:34.000Z</time>
      </trkpt>
      <trkpt lat="46.54639" lon="0.31335">
        <ele>193.14</ele>
        <time>2019-01-13T10:07:36.000Z</time>
      </trkpt>
      <trkpt lat="46.54652" lon="0.3134">
        <ele>191.06</ele>
        <time>2019-01-13T10:07:39.000Z</time>
      </trkpt>
      <trkpt lat="46.54663" lon="0.31335">
        <ele>190.3</ele>
        <time>2019-01-13T10:07:41.000Z</time>
      </trkpt>
      <trkpt lat="46.54675" lon="0.3133">
        <ele>189.57</ele>
        <time>2019-01-13T10:07:43.000Z</time>
      </trkpt>
      <trkpt lat="46.54686" lon="0.31327">
        <ele>189.05</ele>
        <time>2019-01-13T10:07:45.000Z</time>
      </trkpt>
      <trkpt lat="46.54697" lon="0.31325">
        <ele>188.98</ele>
        <time>2019-01-13T10:07:47.000Z</time>
      </trkpt>
      <trkpt lat="46.54706" lon="0.31331">
        <ele>188.64</ele>
        <time>2019-01-13T10:07:49.000Z</time>
      </trkpt>
      <trkpt lat="46.54711" lon="0.31343">
        <ele>187.89</ele>
        <time>2019-01-13T10:07:51.000Z</time>
      </trkpt>
      <trkpt lat="46.54714" lon="0.31358">
        <ele>187.09</ele>
        <time>2019-01-13T10:07:53.000Z</time>
      </trkpt>
      <trkpt lat="46.54713" lon="0.31377">
        <ele>186.45</ele>
        <time>2019-01-13T10:07:55.000Z</time>
      </trkpt>
      <trkpt lat="46.54712" lon="0.31396">
        <ele>186.15</ele>
        <time>2019-01-13T10:07:57.000Z</time>
      </trkpt>
      <trkpt lat="46.54713" lon="0.31415">
        <ele>185.77</ele>
        <time>2019-01-13T10:07:59.000Z</time>
      </trkpt>
      <trkpt lat="46.54716" lon="0.31435">
        <ele>185.47</ele>
        <time>2019-01-13T10:08:01.000Z</time>
      </trkpt>
      <trkpt lat="46.54717" lon="0.31453">
        <ele>185.01</ele>
        <time>2019-01-13T10:08:03.000Z</time>
      </trkpt>
      <trkpt lat="46.54719" lon="0.31471">
        <ele>184.24</ele>
        <time>2019-01-13T10:08:05.000Z</time>
      </trkpt>
      <trkpt lat="46.54717" lon="0.31487">
        <ele>183.93</ele>
        <time>2019-01-13T10:08:07.000Z</time>
      </trkpt>
      <trkpt lat="46.54712" lon="0.31501">
        <ele>183.83</ele>
        <time>2019-01-13T10:08:09.000Z</time>
      </trkpt>
      <trkpt lat="46.54716" lon="0.31515">
        <ele>183.56</ele>
        <time>2019-01-13T10:08:11.000Z</time>
      </trkpt>
      <trkpt lat="46.54722" lon="0.31529">
        <ele>183.31</ele>
        <time>2019-01-13T10:08:13.000Z</time>
      </trkpt>
      <trkpt lat="46.54723" lon="0.31549">
        <ele>183.14</ele>
        <time>2019-01-13T10:08:15.000Z</time>
      </trkpt>
      <trkpt lat="46.54722" lon="0.3157">
        <ele>182.74</ele>
        <time>2019-01-13T10:08:17.000Z</time>
      </trkpt>
      <trkpt lat="46.54721" lon="0.31591">
        <ele>182.38</ele>
        <time>2019-01-13T10:08:19.000Z</time>
      </trkpt>
      <trkpt lat="46.54722" lon="0.31614">
        <ele>182.03</ele>
        <time>2019-01-13T10:08:21.000Z</time>
      </trkpt>
      <trkpt lat="46.54724" lon="0.31637">
        <ele>181.64</ele>
        <time>2019-01-13T10:08:23.000Z</time>
      </trkpt>
      <trkpt lat="46.54726" lon="0.31659">
        <ele>181.22</ele>
        <time>2019-01-13T10:08:25.000Z</time>
      </trkpt>
      <trkpt lat="46.54731" lon="0.31683">
        <ele>180.9</ele>
        <time>2019-01-13T10:08:27.000Z</time>
      </trkpt>
      <trkpt lat="46.54739" lon="0.31707">
        <ele>180.47</ele>
        <time>2019-01-13T10:08:29.000Z</time>
      </trkpt>
      <trkpt lat="46.54743" lon="0.31719">
        <ele>180.24</ele>
        <time>2019-01-13T10:08:30.000Z</time>
      </trkpt>
      <trkpt lat="46.54748" lon="0.3173">
        <ele>180.04</ele>
        <time>2019-01-13T10:08:31.000Z</time>
      </trkpt>
      <trkpt lat="46.54753" lon="0.31742">
        <ele>179.88</ele>
        <time>2019-01-13T10:08:32.000Z</time>
      </trkpt>
      <trkpt lat="46.54758" lon="0.31754">
        <ele>179.77</ele>
        <time>2019-01-13T10:08:33.000Z</time>
      </trkpt>
      <trkpt lat="46.54762" lon="0.31766">
        <ele>179.64</ele>
        <time>2019-01-13T10:08:34.000Z</time>
      </trkpt>
      <trkpt lat="46.5477" lon="0.31788">
        <ele>179.38</ele>
        <time>2019-01-13T10:08:36.000Z</time>
      </trkpt>
      <trkpt lat="46.54778" lon="0.31811">
        <ele>178.96</ele>
        <time>2019-01-13T10:08:38.000Z</time>
      </trkpt>
      <trkpt lat="46.54787" lon="0.3183">
        <ele>178.64</ele>
        <time>2019-01-13T10:08:40.000Z</time>
      </trkpt>
      <trkpt lat="46.54795" lon="0.3185">
        <ele>178.4</ele>
        <time>2019-01-13T10:08:42.000Z</time>
      </trkpt>
      <trkpt lat="46.54802" lon="0.3187">
        <ele>178.22</ele>
        <time>2019-01-13T10:08:44.000Z</time>
      </trkpt>
      <trkpt lat="46.5481" lon="0.3189">
        <ele>178.02</ele>
        <time>2019-01-13T10:08:46.000Z</time>
      </trkpt>
      <trkpt lat="46.54818" lon="0.31912">
        <ele>177.83</ele>
        <time>2019-01-13T10:08:48.000Z</time>
      </trkpt>
      <trkpt lat="46.54826" lon="0.31935">
        <ele>177.62</ele>
        <time>2019-01-13T10:08:50.000Z</time>
      </trkpt>
      <trkpt lat="46.54836" lon="0.31957">
        <ele>177.5</ele>
        <time>2019-01-13T10:08:52.000Z</time>
      </trkpt>
      <trkpt lat="46.54844" lon="0.31978">
        <ele>177.46</ele>
        <time>2019-01-13T10:08:54.000Z</time>
      </trkpt>
      <trkpt lat="46.54852" lon="0.31997">
        <ele>177.34</ele>
        <time>2019-01-13T10:08:56.000Z</time>
      </trkpt>
      <trkpt lat="46.54858" lon="0.32018">
        <ele>177.18</ele>
        <time>2019-01-13T10:08:58.000Z</time>
      </trkpt>
      <trkpt lat="46.54865" lon="0.32036">
        <ele>177.23</ele>
        <time>2019-01-13T10:09:00.000Z</time>
      </trkpt>
      <trkpt lat="46.54871" lon="0.32052">
        <ele>177.4</ele>
        <time>2019-01-13T10:09:02.000Z</time>
      </trkpt>
      <trkpt lat="46.54877" lon="0.32066">
        <ele>177.87</ele>
        <time>2019-01-13T10:09:04.000Z</time>
      </trkpt>
      <trkpt lat="46.54884" lon="0.32081">
        <ele>178.62</ele>
        <time>2019-01-13T10:09:06.000Z</time>
      </trkpt>
      <trkpt lat="46.5489" lon="0.32096">
        <ele>179.4</ele>
        <time>2019-01-13T10:09:08.000Z</time>
      </trkpt>
      <trkpt lat="46.54896" lon="0.32112">
        <ele>180.21</ele>
        <time>2019-01-13T10:09:10.000Z</time>
      </trkpt>
      <trkpt lat="46.549" lon="0.32127">
        <ele>181.06</ele>
        <time>2019-01-13T10:09:12.000Z</time>
      </trkpt>
      <trkpt lat="46.54899" lon="0.32142">
        <ele>181.89</ele>
        <time>2019-01-13T10:09:14.000Z</time>
      </trkpt>
      <trkpt lat="46.54893" lon="0.32153">
        <ele>182.65</ele>
        <time>2019-01-13T10:09:16.000Z</time>
      </trkpt>
      <trkpt lat="46.54886" lon="0.32163">
        <ele>183.04</ele>
        <time>2019-01-13T10:09:18.000Z</time>
      </trkpt>
      <trkpt lat="46.54889" lon="0.32176">
        <ele>183.12</ele>
        <time>2019-01-13T10:09:21.000Z</time>
      </trkpt>
      <trkpt lat="46.54876" lon="0.32181">
        <ele>183.59</ele>
        <time>2019-01-13T10:09:25.000Z</time>
      </trkpt>
      <trkpt lat="46.54867" lon="0.32187">
        <ele>184.29</ele>
        <time>2019-01-13T10:09:27.000Z</time>
      </trkpt>
      <trkpt lat="46.54856" lon="0.32194">
        <ele>185.02</ele>
        <time>2019-01-13T10:09:29.000Z</time>
      </trkpt>
      <trkpt lat="46.54845" lon="0.32199">
        <ele>185.63</ele>
        <time>2019-01-13T10:09:31.000Z</time>
      </trkpt>
      <trkpt lat="46.54832" lon="0.32204">
        <ele>185.89</ele>
        <time>2019-01-13T10:09:33.000Z</time>
      </trkpt>
      <trkpt lat="46.54818" lon="0.32209">
        <ele>185.77</ele>
        <time>2019-01-13T10:09:35.000Z</time>
      </trkpt>
      <trkpt lat="46.54804" lon="0.32216">
        <ele>185.34</ele>
        <time>2019-01-13T10:09:37.000Z</time>
      </trkpt>
      <trkpt lat="46.54791" lon="0.32222">
        <ele>184.72</ele>
        <time>2019-01-13T10:09:39.000Z</time>
      </trkpt>
      <trkpt lat="46.54777" lon="0.3223">
        <ele>184.07</ele>
        <time>2019-01-13T10:09:41.000Z</time>
      </trkpt>
      <trkpt lat="46.54764" lon="0.32237">
        <ele>183.63</ele>
        <time>2019-01-13T10:09:43.000Z</time>
      </trkpt>
      <trkpt lat="46.54752" lon="0.32246">
        <ele>183.04</ele>
        <time>2019-01-13T10:09:45.000Z</time>
      </trkpt>
      <trkpt lat="46.54741" lon="0.32255">
        <ele>182.51</ele>
        <time>2019-01-13T10:09:47.000Z</time>
      </trkpt>
      <trkpt lat="46.54731" lon="0.32266">
        <ele>181.86</ele>
        <time>2019-01-13T10:09:49.000Z</time>
      </trkpt>
      <trkpt lat="46.5472" lon="0.32278">
        <ele>181.04</ele>
        <time>2019-01-13T10:09:51.000Z</time>
      </trkpt>
      <trkpt lat="46.54709" lon="0.32289">
        <ele>180.27</ele>
        <time>2019-01-13T10:09:53.000Z</time>
      </trkpt>
      <trkpt lat="46.54697" lon="0.32302">
        <ele>179.6</ele>
        <time>2019-01-13T10:09:55.000Z</time>
      </trkpt>
      <trkpt lat="46.54686" lon="0.32314">
        <ele>179</ele>
        <time>2019-01-13T10:09:57.000Z</time>
      </trkpt>
      <trkpt lat="46.54676" lon="0.32327">
        <ele>178.38</ele>
        <time>2019-01-13T10:09:59.000Z</time>
      </trkpt>
      <trkpt lat="46.54665" lon="0.32338">
        <ele>177.76</ele>
        <time>2019-01-13T10:10:01.000Z</time>
      </trkpt>
      <trkpt lat="46.54656" lon="0.3235">
        <ele>177.08</ele>
        <time>2019-01-13T10:10:03.000Z</time>
      </trkpt>
      <trkpt lat="46.54646" lon="0.32361">
        <ele>176.27</ele>
        <time>2019-01-13T10:10:05.000Z</time>
      </trkpt>
      <trkpt lat="46.54636" lon="0.32368">
        <ele>175.49</ele>
        <time>2019-01-13T10:10:07.000Z</time>
      </trkpt>
      <trkpt lat="46.54626" lon="0.32376">
        <ele>174.78</ele>
        <time>2019-01-13T10:10:09.000Z</time>
      </trkpt>
      <trkpt lat="46.54615" lon="0.32381">
        <ele>174.33</ele>
        <time>2019-01-13T10:10:11.000Z</time>
      </trkpt>
      <trkpt lat="46.54606" lon="0.32388">
        <ele>173.93</ele>
        <time>2019-01-13T10:10:13.000Z</time>
      </trkpt>
      <trkpt lat="46.54598" lon="0.32395">
        <ele>173.49</ele>
        <time>2019-01-13T10:10:15.000Z</time>
      </trkpt>
      <trkpt lat="46.5459" lon="0.32406">
        <ele>173.22</ele>
        <time>2019-01-13T10:10:17.000Z</time>
      </trkpt>
      <trkpt lat="46.54583" lon="0.32415">
        <ele>172.99</ele>
        <time>2019-01-13T10:10:19.000Z</time>
      </trkpt>
      <trkpt lat="46.54576" lon="0.32425">
        <ele>172.74</ele>
        <time>2019-01-13T10:10:21.000Z</time>
      </trkpt>
      <trkpt lat="46.54571" lon="0.32436">
        <ele>172.58</ele>
        <time>2019-01-13T10:10:23.000Z</time>
      </trkpt>
      <trkpt lat="46.54561" lon="0.32445">
        <ele>172.47</ele>
        <time>2019-01-13T10:10:27.000Z</time>
      </trkpt>
      <trkpt lat="46.54552" lon="0.3245">
        <ele>172.47</ele>
        <time>2019-01-13T10:10:30.000Z</time>
      </trkpt>
      <trkpt lat="46.54543" lon="0.32453">
        <ele>172.55</ele>
        <time>2019-01-13T10:10:32.000Z</time>
      </trkpt>
      <trkpt lat="46.54534" lon="0.32459">
        <ele>173.09</ele>
        <time>2019-01-13T10:10:34.000Z</time>
      </trkpt>
      <trkpt lat="46.54526" lon="0.32463">
        <ele>173.29</ele>
        <time>2019-01-13T10:10:37.000Z</time>
      </trkpt>
      <trkpt lat="46.54523" lon="0.32476">
        <ele>173.54</ele>
        <time>2019-01-13T10:10:46.000Z</time>
      </trkpt>
      <trkpt lat="46.5453" lon="0.32485">
        <ele>173.65</ele>
        <time>2019-01-13T10:10:51.000Z</time>
      </trkpt>
      <trkpt lat="46.54533" lon="0.32501">
        <ele>173.69</ele>
        <time>2019-01-13T10:10:55.000Z</time>
      </trkpt>
      <trkpt lat="46.54527" lon="0.32511">
        <ele>173.83</ele>
        <time>2019-01-13T10:10:58.000Z</time>
      </trkpt>
      <trkpt lat="46.54516" lon="0.32522">
        <ele>174.91</ele>
        <time>2019-01-13T10:11:01.000Z</time>
      </trkpt>
      <trkpt lat="46.54503" lon="0.32521">
        <ele>175.25</ele>
        <time>2019-01-13T10:11:04.000Z</time>
      </trkpt>
      <trkpt lat="46.54489" lon="0.32523">
        <ele>175.62</ele>
        <time>2019-01-13T10:11:07.000Z</time>
      </trkpt>
      <trkpt lat="46.54482" lon="0.32531">
        <ele>175.96</ele>
        <time>2019-01-13T10:11:10.000Z</time>
      </trkpt>
      <trkpt lat="46.54481" lon="0.32545">
        <ele>176.13</ele>
        <time>2019-01-13T10:11:12.000Z</time>
      </trkpt>
      <trkpt lat="46.54484" lon="0.3256">
        <ele>177.11</ele>
        <time>2019-01-13T10:11:14.000Z</time>
      </trkpt>
      <trkpt lat="46.54488" lon="0.32575">
        <ele>178.53</ele>
        <time>2019-01-13T10:11:16.000Z</time>
      </trkpt>
      <trkpt lat="46.54496" lon="0.32587">
        <ele>179.58</ele>
        <time>2019-01-13T10:11:18.000Z</time>
      </trkpt>
      <trkpt lat="46.54504" lon="0.32598">
        <ele>179.81</ele>
        <time>2019-01-13T10:11:20.000Z</time>
      </trkpt>
      <trkpt lat="46.5451" lon="0.3261">
        <ele>179.77</ele>
        <time>2019-01-13T10:11:22.000Z</time>
      </trkpt>
      <trkpt lat="46.54517" lon="0.32621">
        <ele>179.76</ele>
        <time>2019-01-13T10:11:25.000Z</time>
      </trkpt>
      <trkpt lat="46.54519" lon="0.32643">
        <ele>179.46</ele>
        <time>2019-01-13T10:11:28.000Z</time>
      </trkpt>
      <trkpt lat="46.54523" lon="0.32661">
        <ele>179.83</ele>
        <time>2019-01-13T10:11:30.000Z</time>
      </trkpt>
      <trkpt lat="46.54526" lon="0.32675">
        <ele>179.94</ele>
        <time>2019-01-13T10:11:32.000Z</time>
      </trkpt>
      <trkpt lat="46.54526" lon="0.32691">
        <ele>179.7</ele>
        <time>2019-01-13T10:11:36.000Z</time>
      </trkpt>
      <trkpt lat="46.54529" lon="0.32704">
        <ele>179.43</ele>
        <time>2019-01-13T10:11:41.000Z</time>
      </trkpt>
      <trkpt lat="46.54536" lon="0.32716">
        <ele>179.21</ele>
        <time>2019-01-13T10:11:44.000Z</time>
      </trkpt>
      <trkpt lat="46.54546" lon="0.32727">
        <ele>178.96</ele>
        <time>2019-01-13T10:11:47.000Z</time>
      </trkpt>
      <trkpt lat="46.54554" lon="0.32737">
        <ele>178.61</ele>
        <time>2019-01-13T10:11:50.000Z</time>
      </trkpt>
      <trkpt lat="46.54561" lon="0.32751">
        <ele>177.94</ele>
        <time>2019-01-13T10:11:55.000Z</time>
      </trkpt>
      <trkpt lat="46.54569" lon="0.32762">
        <ele>177.61</ele>
        <time>2019-01-13T10:11:58.000Z</time>
      </trkpt>
      <trkpt lat="46.54574" lon="0.32775">
        <ele>177.43</ele>
        <time>2019-01-13T10:12:03.000Z</time>
      </trkpt>
      <trkpt lat="46.54583" lon="0.32779">
        <ele>177.45</ele>
        <time>2019-01-13T10:12:06.000Z</time>
      </trkpt>
      <trkpt lat="46.54592" lon="0.32789">
        <ele>177.55</ele>
        <time>2019-01-13T10:12:10.000Z</time>
      </trkpt>
      <trkpt lat="46.54598" lon="0.32802">
        <ele>177.74</ele>
        <time>2019-01-13T10:12:14.000Z</time>
      </trkpt>
      <trkpt lat="46.54605" lon="0.32814">
        <ele>177.71</ele>
        <time>2019-01-13T10:12:17.000Z</time>
      </trkpt>
      <trkpt lat="46.5461" lon="0.32826">
        <ele>177.54</ele>
        <time>2019-01-13T10:12:20.000Z</time>
      </trkpt>
      <trkpt lat="46.54616" lon="0.32836">
        <ele>177.21</ele>
        <time>2019-01-13T10:12:23.000Z</time>
      </trkpt>
      <trkpt lat="46.54623" lon="0.32847">
        <ele>176.51</ele>
        <time>2019-01-13T10:12:28.000Z</time>
      </trkpt>
      <trkpt lat="46.54631" lon="0.32854">
        <ele>175.96</ele>
        <time>2019-01-13T10:12:34.000Z</time>
      </trkpt>
      <trkpt lat="46.54638" lon="0.32864">
        <ele>175.95</ele>
        <time>2019-01-13T10:12:37.000Z</time>
      </trkpt>
      <trkpt lat="46.54647" lon="0.32876">
        <ele>176.18</ele>
        <time>2019-01-13T10:12:40.000Z</time>
      </trkpt>
      <trkpt lat="46.54654" lon="0.32887">
        <ele>176.61</ele>
        <time>2019-01-13T10:12:43.000Z</time>
      </trkpt>
      <trkpt lat="46.54664" lon="0.32888">
        <ele>177.07</ele>
        <time>2019-01-13T10:12:46.000Z</time>
      </trkpt>
      <trkpt lat="46.54673" lon="0.32892">
        <ele>177.34</ele>
        <time>2019-01-13T10:12:49.000Z</time>
      </trkpt>
      <trkpt lat="46.5468" lon="0.32905">
        <ele>177.51</ele>
        <time>2019-01-13T10:12:54.000Z</time>
      </trkpt>
      <trkpt lat="46.54678" lon="0.3292">
        <ele>177.45</ele>
        <time>2019-01-13T10:12:57.000Z</time>
      </trkpt>
      <trkpt lat="46.54681" lon="0.32935">
        <ele>177.37</ele>
        <time>2019-01-13T10:13:00.000Z</time>
      </trkpt>
      <trkpt lat="46.54691" lon="0.32941">
        <ele>177.29</ele>
        <time>2019-01-13T10:13:03.000Z</time>
      </trkpt>
      <trkpt lat="46.54699" lon="0.32951">
        <ele>177.25</ele>
        <time>2019-01-13T10:13:06.000Z</time>
      </trkpt>
      <trkpt lat="46.54706" lon="0.32963">
        <ele>177.24</ele>
        <time>2019-01-13T10:13:09.000Z</time>
      </trkpt>
      <trkpt lat="46.54717" lon="0.32967">
        <ele>177.35</ele>
        <time>2019-01-13T10:13:12.000Z</time>
      </trkpt>
      <trkpt lat="46.54726" lon="0.32962">
        <ele>177.55</ele>
        <time>2019-01-13T10:13:15.000Z</time>
      </trkpt>
      <trkpt lat="46.54733" lon="0.32951">
        <ele>177.74</ele>
        <time>2019-01-13T10:13:18.000Z</time>
      </trkpt>
      <trkpt lat="46.54744" lon="0.32942">
        <ele>177.93</ele>
        <time>2019-01-13T10:13:21.000Z</time>
      </trkpt>
      <trkpt lat="46.54755" lon="0.32935">
        <ele>178.7</ele>
        <time>2019-01-13T10:13:23.000Z</time>
      </trkpt>
      <trkpt lat="46.54766" lon="0.3293">
        <ele>178.86</ele>
        <time>2019-01-13T10:13:26.000Z</time>
      </trkpt>
      <trkpt lat="46.54774" lon="0.32919">
        <ele>179.03</ele>
        <time>2019-01-13T10:13:29.000Z</time>
      </trkpt>
      <trkpt lat="46.54783" lon="0.32906">
        <ele>179.26</ele>
        <time>2019-01-13T10:13:32.000Z</time>
      </trkpt>
      <trkpt lat="46.54789" lon="0.32893">
        <ele>179.53</ele>
        <time>2019-01-13T10:13:35.000Z</time>
      </trkpt>
      <trkpt lat="46.54795" lon="0.32881">
        <ele>179.77</ele>
        <time>2019-01-13T10:13:37.000Z</time>
      </trkpt>
      <trkpt lat="46.548" lon="0.32869">
        <ele>180.09</ele>
        <time>2019-01-13T10:13:40.000Z</time>
      </trkpt>
      <trkpt lat="46.5481" lon="0.32882">
        <ele>183.22</ele>
        <time>2019-01-13T10:13:45.000Z</time>
      </trkpt>
      <trkpt lat="46.54814" lon="0.32897">
        <ele>184.72</ele>
        <time>2019-01-13T10:13:47.000Z</time>
      </trkpt>
      <trkpt lat="46.54818" lon="0.32912">
        <ele>184.88</ele>
        <time>2019-01-13T10:13:49.000Z</time>
      </trkpt>
      <trkpt lat="46.54818" lon="0.3293">
        <ele>184.59</ele>
        <time>2019-01-13T10:13:51.000Z</time>
      </trkpt>
      <trkpt lat="46.54818" lon="0.32946">
        <ele>184.23</ele>
        <time>2019-01-13T10:13:53.000Z</time>
      </trkpt>
      <trkpt lat="46.54816" lon="0.32964">
        <ele>184.01</ele>
        <time>2019-01-13T10:13:55.000Z</time>
      </trkpt>
      <trkpt lat="46.54818" lon="0.32986">
        <ele>183.73</ele>
        <time>2019-01-13T10:13:57.000Z</time>
      </trkpt>
      <trkpt lat="46.54819" lon="0.33008">
        <ele>182.63</ele>
        <time>2019-01-13T10:13:59.000Z</time>
      </trkpt>
      <trkpt lat="46.54819" lon="0.33029">
        <ele>180.85</ele>
        <time>2019-01-13T10:14:01.000Z</time>
      </trkpt>
      <trkpt lat="46.54821" lon="0.33048">
        <ele>179.4</ele>
        <time>2019-01-13T10:14:03.000Z</time>
      </trkpt>
      <trkpt lat="46.54824" lon="0.33068">
        <ele>178.14</ele>
        <time>2019-01-13T10:14:05.000Z</time>
      </trkpt>
      <trkpt lat="46.54826" lon="0.33089">
        <ele>177.29</ele>
        <time>2019-01-13T10:14:07.000Z</time>
      </trkpt>
      <trkpt lat="46.54829" lon="0.33109">
        <ele>176.6</ele>
        <time>2019-01-13T10:14:09.000Z</time>
      </trkpt>
      <trkpt lat="46.5483" lon="0.33129">
        <ele>176.66</ele>
        <time>2019-01-13T10:14:11.000Z</time>
      </trkpt>
      <trkpt lat="46.54835" lon="0.3315">
        <ele>177.36</ele>
        <time>2019-01-13T10:14:13.000Z</time>
      </trkpt>
      <trkpt lat="46.54841" lon="0.33175">
        <ele>177.12</ele>
        <time>2019-01-13T10:14:15.000Z</time>
      </trkpt>
      <trkpt lat="46.54845" lon="0.33188">
        <ele>176.68</ele>
        <time>2019-01-13T10:14:16.000Z</time>
      </trkpt>
      <trkpt lat="46.5485" lon="0.33201">
        <ele>176.44</ele>
        <time>2019-01-13T10:14:17.000Z</time>
      </trkpt>
      <trkpt lat="46.54857" lon="0.3322">
        <ele>175.66</ele>
        <time>2019-01-13T10:14:19.000Z</time>
      </trkpt>
      <trkpt lat="46.54865" lon="0.33234">
        <ele>174.68</ele>
        <time>2019-01-13T10:14:21.000Z</time>
      </trkpt>
      <trkpt lat="46.54871" lon="0.33245">
        <ele>173.81</ele>
        <time>2019-01-13T10:14:23.000Z</time>
      </trkpt>
      <trkpt lat="46.54881" lon="0.33257">
        <ele>172.34</ele>
        <time>2019-01-13T10:14:26.000Z</time>
      </trkpt>
      <trkpt lat="46.54889" lon="0.3327">
        <ele>169.98</ele>
        <time>2019-01-13T10:14:29.000Z</time>
      </trkpt>
      <trkpt lat="46.54895" lon="0.33283">
        <ele>167.82</ele>
        <time>2019-01-13T10:14:31.000Z</time>
      </trkpt>
      <trkpt lat="46.54903" lon="0.33294">
        <ele>165.47</ele>
        <time>2019-01-13T10:14:33.000Z</time>
      </trkpt>
      <trkpt lat="46.54911" lon="0.33303">
        <ele>163.05</ele>
        <time>2019-01-13T10:14:35.000Z</time>
      </trkpt>
      <trkpt lat="46.54916" lon="0.33315">
        <ele>160.51</ele>
        <time>2019-01-13T10:14:37.000Z</time>
      </trkpt>
      <trkpt lat="46.54921" lon="0.33326">
        <ele>160.31</ele>
        <time>2019-01-13T10:14:39.000Z</time>
      </trkpt>
      <trkpt lat="46.54929" lon="0.33338">
        <ele>160.02</ele>
        <time>2019-01-13T10:14:43.000Z</time>
      </trkpt>
      <trkpt lat="46.54937" lon="0.33344">
        <ele>159.57</ele>
        <time>2019-01-13T10:14:47.000Z</time>
      </trkpt>
      <trkpt lat="46.54942" lon="0.33357">
        <ele>158.95</ele>
        <time>2019-01-13T10:14:52.000Z</time>
      </trkpt>
      <trkpt lat="46.54932" lon="0.3335">
        <ele>158.26</ele>
        <time>2019-01-13T10:14:57.000Z</time>
      </trkpt>
      <trkpt lat="46.5492" lon="0.33345">
        <ele>155.13</ele>
        <time>2019-01-13T10:15:00.000Z</time>
      </trkpt>
      <trkpt lat="46.54907" lon="0.33342">
        <ele>151.16</ele>
        <time>2019-01-13T10:15:03.000Z</time>
      </trkpt>
      <trkpt lat="46.54896" lon="0.33345">
        <ele>149.65</ele>
        <time>2019-01-13T10:15:05.000Z</time>
      </trkpt>
      <trkpt lat="46.54882" lon="0.33355">
        <ele>149.14</ele>
        <time>2019-01-13T10:15:07.000Z</time>
      </trkpt>
      <trkpt lat="46.5487" lon="0.33368">
        <ele>148.83</ele>
        <time>2019-01-13T10:15:09.000Z</time>
      </trkpt>
      <trkpt lat="46.5486" lon="0.33378">
        <ele>148.84</ele>
        <time>2019-01-13T10:15:11.000Z</time>
      </trkpt>
      <trkpt lat="46.5485" lon="0.33388">
        <ele>149.34</ele>
        <time>2019-01-13T10:15:13.000Z</time>
      </trkpt>
      <trkpt lat="46.54839" lon="0.33401">
        <ele>149.49</ele>
        <time>2019-01-13T10:15:15.000Z</time>
      </trkpt>
      <trkpt lat="46.54829" lon="0.33416">
        <ele>149.74</ele>
        <time>2019-01-13T10:15:17.000Z</time>
      </trkpt>
      <trkpt lat="46.54822" lon="0.33432">
        <ele>149.88</ele>
        <time>2019-01-13T10:15:19.000Z</time>
      </trkpt>
      <trkpt lat="46.54815" lon="0.33447">
        <ele>150.08</ele>
        <time>2019-01-13T10:15:21.000Z</time>
      </trkpt>
      <trkpt lat="46.54807" lon="0.33461">
        <ele>150.26</ele>
        <time>2019-01-13T10:15:23.000Z</time>
      </trkpt>
      <trkpt lat="46.54798" lon="0.33476">
        <ele>150.37</ele>
        <time>2019-01-13T10:15:25.000Z</time>
      </trkpt>
      <trkpt lat="46.54791" lon="0.33493">
        <ele>150.52</ele>
        <time>2019-01-13T10:15:27.000Z</time>
      </trkpt>
      <trkpt lat="46.54783" lon="0.33508">
        <ele>150.66</ele>
        <time>2019-01-13T10:15:29.000Z</time>
      </trkpt>
      <trkpt lat="46.54773" lon="0.33524">
        <ele>150.95</ele>
        <time>2019-01-13T10:15:31.000Z</time>
      </trkpt>
      <trkpt lat="46.54765" lon="0.33541">
        <ele>151.29</ele>
        <time>2019-01-13T10:15:33.000Z</time>
      </trkpt>
      <trkpt lat="46.54755" lon="0.33557">
        <ele>151.72</ele>
        <time>2019-01-13T10:15:35.000Z</time>
      </trkpt>
      <trkpt lat="46.54747" lon="0.33571">
        <ele>152.41</ele>
        <time>2019-01-13T10:15:37.000Z</time>
      </trkpt>
      <trkpt lat="46.54739" lon="0.33587">
        <ele>153.05</ele>
        <time>2019-01-13T10:15:39.000Z</time>
      </trkpt>
      <trkpt lat="46.54731" lon="0.33603">
        <ele>153.58</ele>
        <time>2019-01-13T10:15:41.000Z</time>
      </trkpt>
      <trkpt lat="46.54721" lon="0.33616">
        <ele>153.88</ele>
        <time>2019-01-13T10:15:43.000Z</time>
      </trkpt>
      <trkpt lat="46.54712" lon="0.33627">
        <ele>154.19</ele>
        <time>2019-01-13T10:15:45.000Z</time>
      </trkpt>
      <trkpt lat="46.54702" lon="0.33635">
        <ele>154.27</ele>
        <time>2019-01-13T10:15:48.000Z</time>
      </trkpt>
      <trkpt lat="46.54693" lon="0.33642">
        <ele>155.04</ele>
        <time>2019-01-13T10:15:51.000Z</time>
      </trkpt>
      <trkpt lat="46.54682" lon="0.33646">
        <ele>155.35</ele>
        <time>2019-01-13T10:15:53.000Z</time>
      </trkpt>
      <trkpt lat="46.5467" lon="0.33646">
        <ele>155.33</ele>
        <time>2019-01-13T10:15:55.000Z</time>
      </trkpt>
      <trkpt lat="46.54658" lon="0.33646">
        <ele>154.95</ele>
        <time>2019-01-13T10:15:57.000Z</time>
      </trkpt>
      <trkpt lat="46.54646" lon="0.33642">
        <ele>154.55</ele>
        <time>2019-01-13T10:15:59.000Z</time>
      </trkpt>
      <trkpt lat="46.54636" lon="0.33636">
        <ele>154.29</ele>
        <time>2019-01-13T10:16:01.000Z</time>
      </trkpt>
      <trkpt lat="46.54627" lon="0.33628">
        <ele>154.06</ele>
        <time>2019-01-13T10:16:03.000Z</time>
      </trkpt>
      <trkpt lat="46.54619" lon="0.33621">
        <ele>153.8</ele>
        <time>2019-01-13T10:16:05.000Z</time>
      </trkpt>
      <trkpt lat="46.5461" lon="0.33615">
        <ele>153.7</ele>
        <time>2019-01-13T10:16:07.000Z</time>
      </trkpt>
      <trkpt lat="46.54602" lon="0.3361">
        <ele>153.42</ele>
        <time>2019-01-13T10:16:09.000Z</time>
      </trkpt>
      <trkpt lat="46.54593" lon="0.33616">
        <ele>153.42</ele>
        <time>2019-01-13T10:16:13.000Z</time>
      </trkpt>
      <trkpt lat="46.54594" lon="0.33629">
        <ele>153.4</ele>
        <time>2019-01-13T10:16:18.000Z</time>
      </trkpt>
      <trkpt lat="46.54591" lon="0.33643">
        <ele>153.39</ele>
        <time>2019-01-13T10:16:24.000Z</time>
      </trkpt>
      <trkpt lat="46.54587" lon="0.33656">
        <ele>153.91</ele>
        <time>2019-01-13T10:16:29.000Z</time>
      </trkpt>
      <trkpt lat="46.54594" lon="0.33666">
        <ele>154.29</ele>
        <time>2019-01-13T10:16:33.000Z</time>
      </trkpt>
      <trkpt lat="46.54604" lon="0.33674">
        <ele>154.51</ele>
        <time>2019-01-13T10:16:36.000Z</time>
      </trkpt>
      <trkpt lat="46.54616" lon="0.33682">
        <ele>155.04</ele>
        <time>2019-01-13T10:16:39.000Z</time>
      </trkpt>
      <trkpt lat="46.54628" lon="0.3369">
        <ele>156.23</ele>
        <time>2019-01-13T10:16:42.000Z</time>
      </trkpt>
      <trkpt lat="46.54637" lon="0.33695">
        <ele>157.36</ele>
        <time>2019-01-13T10:16:44.000Z</time>
      </trkpt>
      <trkpt lat="46.54646" lon="0.33701">
        <ele>158.36</ele>
        <time>2019-01-13T10:16:46.000Z</time>
      </trkpt>
      <trkpt lat="46.54656" lon="0.33706">
        <ele>159.08</ele>
        <time>2019-01-13T10:16:48.000Z</time>
      </trkpt>
      <trkpt lat="46.54665" lon="0.33712">
        <ele>159.73</ele>
        <time>2019-01-13T10:16:50.000Z</time>
      </trkpt>
      <trkpt lat="46.54675" lon="0.33716">
        <ele>160.59</ele>
        <time>2019-01-13T10:16:52.000Z</time>
      </trkpt>
      <trkpt lat="46.54686" lon="0.33719">
        <ele>161.19</ele>
        <time>2019-01-13T10:16:54.000Z</time>
      </trkpt>
      <trkpt lat="46.54698" lon="0.33723">
        <ele>161.69</ele>
        <time>2019-01-13T10:16:56.000Z</time>
      </trkpt>
      <trkpt lat="46.5471" lon="0.33727">
        <ele>161.87</ele>
        <time>2019-01-13T10:16:58.000Z</time>
      </trkpt>
      <trkpt lat="46.54724" lon="0.33732">
        <ele>161.81</ele>
        <time>2019-01-13T10:17:00.000Z</time>
      </trkpt>
      <trkpt lat="46.54739" lon="0.33736">
        <ele>161.47</ele>
        <time>2019-01-13T10:17:02.000Z</time>
      </trkpt>
      <trkpt lat="46.54755" lon="0.33742">
        <ele>160.62</ele>
        <time>2019-01-13T10:17:04.000Z</time>
      </trkpt>
      <trkpt lat="46.54773" lon="0.33752">
        <ele>159.32</ele>
        <time>2019-01-13T10:17:06.000Z</time>
      </trkpt>
      <trkpt lat="46.54781" lon="0.33758">
        <ele>158.56</ele>
        <time>2019-01-13T10:17:07.000Z</time>
      </trkpt>
      <trkpt lat="46.54791" lon="0.33766">
        <ele>157.94</ele>
        <time>2019-01-13T10:17:08.000Z</time>
      </trkpt>
      <trkpt lat="46.548" lon="0.33773">
        <ele>157.24</ele>
        <time>2019-01-13T10:17:09.000Z</time>
      </trkpt>
      <trkpt lat="46.54811" lon="0.33781">
        <ele>156.5</ele>
        <time>2019-01-13T10:17:10.000Z</time>
      </trkpt>
      <trkpt lat="46.54821" lon="0.33789">
        <ele>155.88</ele>
        <time>2019-01-13T10:17:11.000Z</time>
      </trkpt>
      <trkpt lat="46.54833" lon="0.33797">
        <ele>155.22</ele>
        <time>2019-01-13T10:17:12.000Z</time>
      </trkpt>
      <trkpt lat="46.54845" lon="0.33804">
        <ele>154.67</ele>
        <time>2019-01-13T10:17:13.000Z</time>
      </trkpt>
      <trkpt lat="46.54857" lon="0.33811">
        <ele>154.11</ele>
        <time>2019-01-13T10:17:14.000Z</time>
      </trkpt>
      <trkpt lat="46.54868" lon="0.33817">
        <ele>153.42</ele>
        <time>2019-01-13T10:17:15.000Z</time>
      </trkpt>
      <trkpt lat="46.54877" lon="0.33822">
        <ele>152.74</ele>
        <time>2019-01-13T10:17:16.000Z</time>
      </trkpt>
      <trkpt lat="46.54885" lon="0.33828">
        <ele>152.14</ele>
        <time>2019-01-13T10:17:17.000Z</time>
      </trkpt>
      <trkpt lat="46.54894" lon="0.33834">
        <ele>151.55</ele>
        <time>2019-01-13T10:17:18.000Z</time>
      </trkpt>
      <trkpt lat="46.5491" lon="0.33847">
        <ele>149.67</ele>
        <time>2019-01-13T10:17:20.000Z</time>
      </trkpt>
      <trkpt lat="46.54918" lon="0.33856">
        <ele>148.66</ele>
        <time>2019-01-13T10:17:21.000Z</time>
      </trkpt>
      <trkpt lat="46.54927" lon="0.33863">
        <ele>147.91</ele>
        <time>2019-01-13T10:17:22.000Z</time>
      </trkpt>
      <trkpt lat="46.54936" lon="0.33872">
        <ele>147.17</ele>
        <time>2019-01-13T10:17:23.000Z</time>
      </trkpt>
      <trkpt lat="46.54944" lon="0.33881">
        <ele>146.42</ele>
        <time>2019-01-13T10:17:24.000Z</time>
      </trkpt>
      <trkpt lat="46.54951" lon="0.33888">
        <ele>145.72</ele>
        <time>2019-01-13T10:17:25.000Z</time>
      </trkpt>
      <trkpt lat="46.54965" lon="0.33901">
        <ele>144.43</ele>
        <time>2019-01-13T10:17:27.000Z</time>
      </trkpt>
      <trkpt lat="46.5498" lon="0.33909">
        <ele>143.18</ele>
        <time>2019-01-13T10:17:29.000Z</time>
      </trkpt>
      <trkpt lat="46.5499" lon="0.33918">
        <ele>142.11</ele>
        <time>2019-01-13T10:17:31.000Z</time>
      </trkpt>
      <trkpt lat="46.54992" lon="0.33931">
        <ele>140.73</ele>
        <time>2019-01-13T10:17:33.000Z</time>
      </trkpt>
      <trkpt lat="46.54991" lon="0.33944">
        <ele>139.45</ele>
        <time>2019-01-13T10:17:35.000Z</time>
      </trkpt>
      <trkpt lat="46.54989" lon="0.33959">
        <ele>138.49</ele>
        <time>2019-01-13T10:17:37.000Z</time>
      </trkpt>
      <trkpt lat="46.54985" lon="0.33977">
        <ele>137.81</ele>
        <time>2019-01-13T10:17:39.000Z</time>
      </trkpt>
      <trkpt lat="46.54983" lon="0.33995">
        <ele>137.59</ele>
        <time>2019-01-13T10:17:41.000Z</time>
      </trkpt>
      <trkpt lat="46.5498" lon="0.34014">
        <ele>137.56</ele>
        <time>2019-01-13T10:17:43.000Z</time>
      </trkpt>
      <trkpt lat="46.54975" lon="0.34032">
        <ele>137.63</ele>
        <time>2019-01-13T10:17:45.000Z</time>
      </trkpt>
      <trkpt lat="46.54969" lon="0.34048">
        <ele>137.78</ele>
        <time>2019-01-13T10:17:47.000Z</time>
      </trkpt>
      <trkpt lat="46.54963" lon="0.34064">
        <ele>137.84</ele>
        <time>2019-01-13T10:17:49.000Z</time>
      </trkpt>
      <trkpt lat="46.54957" lon="0.34079">
        <ele>138.08</ele>
        <time>2019-01-13T10:17:51.000Z</time>
      </trkpt>
      <trkpt lat="46.54952" lon="0.34096">
        <ele>138.32</ele>
        <time>2019-01-13T10:17:53.000Z</time>
      </trkpt>
      <trkpt lat="46.54953" lon="0.34118">
        <ele>138.23</ele>
        <time>2019-01-13T10:17:55.000Z</time>
      </trkpt>
      <trkpt lat="46.5495" lon="0.34138">
        <ele>137.71</ele>
        <time>2019-01-13T10:17:57.000Z</time>
      </trkpt>
      <trkpt lat="46.54948" lon="0.34157">
        <ele>136.96</ele>
        <time>2019-01-13T10:17:59.000Z</time>
      </trkpt>
      <trkpt lat="46.54946" lon="0.34175">
        <ele>136.38</ele>
        <time>2019-01-13T10:18:01.000Z</time>
      </trkpt>
      <trkpt lat="46.54952" lon="0.34191">
        <ele>135.64</ele>
        <time>2019-01-13T10:18:03.000Z</time>
      </trkpt>
      <trkpt lat="46.54962" lon="0.34205">
        <ele>134.66</ele>
        <time>2019-01-13T10:18:05.000Z</time>
      </trkpt>
      <trkpt lat="46.5497" lon="0.34221">
        <ele>133.72</ele>
        <time>2019-01-13T10:18:07.000Z</time>
      </trkpt>
      <trkpt lat="46.54979" lon="0.34234">
        <ele>132.85</ele>
        <time>2019-01-13T10:18:09.000Z</time>
      </trkpt>
      <trkpt lat="46.5499" lon="0.34239">
        <ele>132.08</ele>
        <time>2019-01-13T10:18:11.000Z</time>
      </trkpt>
      <trkpt lat="46.55" lon="0.3423">
        <ele>131.7</ele>
        <time>2019-01-13T10:18:13.000Z</time>
      </trkpt>
      <trkpt lat="46.55003" lon="0.34218">
        <ele>131.71</ele>
        <time>2019-01-13T10:18:15.000Z</time>
      </trkpt>
      <trkpt lat="46.55006" lon="0.34205">
        <ele>132.29</ele>
        <time>2019-01-13T10:18:17.000Z</time>
      </trkpt>
      <trkpt lat="46.55006" lon="0.34189">
        <ele>133.02</ele>
        <time>2019-01-13T10:18:19.000Z</time>
      </trkpt>
      <trkpt lat="46.55007" lon="0.3417">
        <ele>134.19</ele>
        <time>2019-01-13T10:18:22.000Z</time>
      </trkpt>
      <trkpt lat="46.55007" lon="0.34156">
        <ele>134.39</ele>
        <time>2019-01-13T10:18:25.000Z</time>
      </trkpt>
      <trkpt lat="46.55007" lon="0.34139">
        <ele>134.8</ele>
        <time>2019-01-13T10:18:29.000Z</time>
      </trkpt>
      <trkpt lat="46.55009" lon="0.34125">
        <ele>135.2</ele>
        <time>2019-01-13T10:18:33.000Z</time>
      </trkpt>
      <trkpt lat="46.5502" lon="0.34124">
        <ele>135.66</ele>
        <time>2019-01-13T10:18:39.000Z</time>
      </trkpt>
      <trkpt lat="46.55029" lon="0.3413">
        <ele>135.86</ele>
        <time>2019-01-13T10:18:43.000Z</time>
      </trkpt>
      <trkpt lat="46.55039" lon="0.34137">
        <ele>136.27</ele>
        <time>2019-01-13T10:18:48.000Z</time>
      </trkpt>
      <trkpt lat="46.55048" lon="0.34138">
        <ele>136.9</ele>
        <time>2019-01-13T10:18:53.000Z</time>
      </trkpt>
      <trkpt lat="46.55059" lon="0.34135">
        <ele>137.81</ele>
        <time>2019-01-13T10:18:59.000Z</time>
      </trkpt>
      <trkpt lat="46.55068" lon="0.34132">
        <ele>138.43</ele>
        <time>2019-01-13T10:19:04.000Z</time>
      </trkpt>
      <trkpt lat="46.55079" lon="0.34132">
        <ele>139.28</ele>
        <time>2019-01-13T10:19:10.000Z</time>
      </trkpt>
      <trkpt lat="46.5509" lon="0.34132">
        <ele>139.89</ele>
        <time>2019-01-13T10:19:15.000Z</time>
      </trkpt>
      <trkpt lat="46.551" lon="0.34134">
        <ele>140.54</ele>
        <time>2019-01-13T10:19:20.000Z</time>
      </trkpt>
      <trkpt lat="46.55109" lon="0.34137">
        <ele>141.11</ele>
        <time>2019-01-13T10:19:25.000Z</time>
      </trkpt>
      <trkpt lat="46.55118" lon="0.3414">
        <ele>141.68</ele>
        <time>2019-01-13T10:19:31.000Z</time>
      </trkpt>
      <trkpt lat="46.55129" lon="0.34143">
        <ele>142.23</ele>
        <time>2019-01-13T10:19:37.000Z</time>
      </trkpt>
      <trkpt lat="46.5514" lon="0.34146">
        <ele>142.33</ele>
        <time>2019-01-13T10:19:42.000Z</time>
      </trkpt>
      <trkpt lat="46.5515" lon="0.34148">
        <ele>142.23</ele>
        <time>2019-01-13T10:19:46.000Z</time>
      </trkpt>
      <trkpt lat="46.5516" lon="0.34151">
        <ele>142.13</ele>
        <time>2019-01-13T10:19:51.000Z</time>
      </trkpt>
      <trkpt lat="46.5517" lon="0.34153">
        <ele>142.14</ele>
        <time>2019-01-13T10:19:56.000Z</time>
      </trkpt>
      <trkpt lat="46.55179" lon="0.34155">
        <ele>142.42</ele>
        <time>2019-01-13T10:20:01.000Z</time>
      </trkpt>
      <trkpt lat="46.5519" lon="0.34159">
        <ele>142.88</ele>
        <time>2019-01-13T10:20:06.000Z</time>
      </trkpt>
      <trkpt lat="46.552" lon="0.34164">
        <ele>143.34</ele>
        <time>2019-01-13T10:20:11.000Z</time>
      </trkpt>
      <trkpt lat="46.55209" lon="0.34166">
        <ele>143.65</ele>
        <time>2019-01-13T10:20:15.000Z</time>
      </trkpt>
      <trkpt lat="46.55218" lon="0.34168">
        <ele>144</ele>
        <time>2019-01-13T10:20:19.000Z</time>
      </trkpt>
      <trkpt lat="46.55229" lon="0.3417">
        <ele>144.54</ele>
        <time>2019-01-13T10:20:24.000Z</time>
      </trkpt>
      <trkpt lat="46.55239" lon="0.34172">
        <ele>145.03</ele>
        <time>2019-01-13T10:20:28.000Z</time>
      </trkpt>
      <trkpt lat="46.55251" lon="0.34173">
        <ele>145.65</ele>
        <time>2019-01-13T10:20:33.000Z</time>
      </trkpt>
      <trkpt lat="46.5526" lon="0.34177">
        <ele>146.17</ele>
        <time>2019-01-13T10:20:37.000Z</time>
      </trkpt>
      <trkpt lat="46.5527" lon="0.34179">
        <ele>146.77</ele>
        <time>2019-01-13T10:20:41.000Z</time>
      </trkpt>
      <trkpt lat="46.55281" lon="0.34181">
        <ele>147.68</ele>
        <time>2019-01-13T10:20:46.000Z</time>
      </trkpt>
      <trkpt lat="46.5529" lon="0.34184">
        <ele>148.34</ele>
        <time>2019-01-13T10:20:50.000Z</time>
      </trkpt>
      <trkpt lat="46.553" lon="0.34186">
        <ele>148.98</ele>
        <time>2019-01-13T10:20:54.000Z</time>
      </trkpt>
      <trkpt lat="46.55309" lon="0.34189">
        <ele>149.65</ele>
        <time>2019-01-13T10:20:58.000Z</time>
      </trkpt>
      <trkpt lat="46.55318" lon="0.34191">
        <ele>150.3</ele>
        <time>2019-01-13T10:21:02.000Z</time>
      </trkpt>
      <trkpt lat="46.55329" lon="0.34194">
        <ele>151.17</ele>
        <time>2019-01-13T10:21:07.000Z</time>
      </trkpt>
      <trkpt lat="46.55338" lon="0.34196">
        <ele>151.9</ele>
        <time>2019-01-13T10:21:11.000Z</time>
      </trkpt>
      <trkpt lat="46.55348" lon="0.34198">
        <ele>152.68</ele>
        <time>2019-01-13T10:21:16.000Z</time>
      </trkpt>
      <trkpt lat="46.55359" lon="0.34202">
        <ele>153.37</ele>
        <time>2019-01-13T10:21:21.000Z</time>
      </trkpt>
      <trkpt lat="46.55368" lon="0.34206">
        <ele>153.92</ele>
        <time>2019-01-13T10:21:25.000Z</time>
      </trkpt>
      <trkpt lat="46.55377" lon="0.34209">
        <ele>154.63</ele>
        <time>2019-01-13T10:21:29.000Z</time>
      </trkpt>
      <trkpt lat="46.55388" lon="0.3421">
        <ele>155.7</ele>
        <time>2019-01-13T10:21:33.000Z</time>
      </trkpt>
      <trkpt lat="46.55397" lon="0.34212">
        <ele>157.02</ele>
        <time>2019-01-13T10:21:37.000Z</time>
      </trkpt>
      <trkpt lat="46.55407" lon="0.34214">
        <ele>158.36</ele>
        <time>2019-01-13T10:21:41.000Z</time>
      </trkpt>
      <trkpt lat="46.55416" lon="0.34217">
        <ele>159.39</ele>
        <time>2019-01-13T10:21:45.000Z</time>
      </trkpt>
      <trkpt lat="46.55426" lon="0.34217">
        <ele>160.25</ele>
        <time>2019-01-13T10:21:49.000Z</time>
      </trkpt>
      <trkpt lat="46.55437" lon="0.3422">
        <ele>161.5</ele>
        <time>2019-01-13T10:21:54.000Z</time>
      </trkpt>
      <trkpt lat="46.55446" lon="0.34222">
        <ele>162.53</ele>
        <time>2019-01-13T10:21:58.000Z</time>
      </trkpt>
      <trkpt lat="46.55457" lon="0.34225">
        <ele>163.97</ele>
        <time>2019-01-13T10:22:04.000Z</time>
      </trkpt>
      <trkpt lat="46.55469" lon="0.34225">
        <ele>164.93</ele>
        <time>2019-01-13T10:22:08.000Z</time>
      </trkpt>
      <trkpt lat="46.55479" lon="0.34225">
        <ele>165.75</ele>
        <time>2019-01-13T10:22:12.000Z</time>
      </trkpt>
      <trkpt lat="46.5549" lon="0.34225">
        <ele>166.35</ele>
        <time>2019-01-13T10:22:16.000Z</time>
      </trkpt>
      <trkpt lat="46.55501" lon="0.34223">
        <ele>166.81</ele>
        <time>2019-01-13T10:22:20.000Z</time>
      </trkpt>
      <trkpt lat="46.55513" lon="0.34222">
        <ele>167.28</ele>
        <time>2019-01-13T10:22:24.000Z</time>
      </trkpt>
      <trkpt lat="46.55523" lon="0.34221">
        <ele>167.55</ele>
        <time>2019-01-13T10:22:27.000Z</time>
      </trkpt>
      <trkpt lat="46.55534" lon="0.34219">
        <ele>167.88</ele>
        <time>2019-01-13T10:22:30.000Z</time>
      </trkpt>
      <trkpt lat="46.55545" lon="0.34218">
        <ele>169.46</ele>
        <time>2019-01-13T10:22:33.000Z</time>
      </trkpt>
      <trkpt lat="46.55557" lon="0.34216">
        <ele>172.49</ele>
        <time>2019-01-13T10:22:36.000Z</time>
      </trkpt>
      <trkpt lat="46.5557" lon="0.34214">
        <ele>174.29</ele>
        <time>2019-01-13T10:22:39.000Z</time>
      </trkpt>
      <trkpt lat="46.55579" lon="0.34213">
        <ele>174.33</ele>
        <time>2019-01-13T10:22:41.000Z</time>
      </trkpt>
      <trkpt lat="46.55588" lon="0.34212">
        <ele>174.26</ele>
        <time>2019-01-13T10:22:43.000Z</time>
      </trkpt>
      <trkpt lat="46.55598" lon="0.3421">
        <ele>174.38</ele>
        <time>2019-01-13T10:22:45.000Z</time>
      </trkpt>
      <trkpt lat="46.55607" lon="0.3421">
        <ele>174.62</ele>
        <time>2019-01-13T10:22:47.000Z</time>
      </trkpt>
      <trkpt lat="46.55616" lon="0.3421">
        <ele>175.42</ele>
        <time>2019-01-13T10:22:49.000Z</time>
      </trkpt>
      <trkpt lat="46.55626" lon="0.34212">
        <ele>176.45</ele>
        <time>2019-01-13T10:22:51.000Z</time>
      </trkpt>
      <trkpt lat="46.55639" lon="0.34213">
        <ele>176.92</ele>
        <time>2019-01-13T10:22:54.000Z</time>
      </trkpt>
      <trkpt lat="46.55648" lon="0.34216">
        <ele>176.97</ele>
        <time>2019-01-13T10:22:56.000Z</time>
      </trkpt>
      <trkpt lat="46.55658" lon="0.34219">
        <ele>176.86</ele>
        <time>2019-01-13T10:22:58.000Z</time>
      </trkpt>
      <trkpt lat="46.55668" lon="0.34221">
        <ele>176.96</ele>
        <time>2019-01-13T10:23:00.000Z</time>
      </trkpt>
      <trkpt lat="46.55677" lon="0.34226">
        <ele>177.33</ele>
        <time>2019-01-13T10:23:02.000Z</time>
      </trkpt>
      <trkpt lat="46.55683" lon="0.34237">
        <ele>177.86</ele>
        <time>2019-01-13T10:23:04.000Z</time>
      </trkpt>
      <trkpt lat="46.55687" lon="0.34249">
        <ele>178.27</ele>
        <time>2019-01-13T10:23:06.000Z</time>
      </trkpt>
      <trkpt lat="46.55692" lon="0.34266">
        <ele>178.64</ele>
        <time>2019-01-13T10:23:09.000Z</time>
      </trkpt>
      <trkpt lat="46.55699" lon="0.34282">
        <ele>177.7</ele>
        <time>2019-01-13T10:23:12.000Z</time>
      </trkpt>
      <trkpt lat="46.55706" lon="0.34293">
        <ele>176.96</ele>
        <time>2019-01-13T10:23:15.000Z</time>
      </trkpt>
      <trkpt lat="46.55716" lon="0.34291">
        <ele>176.64</ele>
        <time>2019-01-13T10:23:19.000Z</time>
      </trkpt>
      <trkpt lat="46.55727" lon="0.34288">
        <ele>176.2</ele>
        <time>2019-01-13T10:23:23.000Z</time>
      </trkpt>
      <trkpt lat="46.55737" lon="0.34291">
        <ele>175.86</ele>
        <time>2019-01-13T10:23:26.000Z</time>
      </trkpt>
      <trkpt lat="46.55748" lon="0.34294">
        <ele>175.52</ele>
        <time>2019-01-13T10:23:30.000Z</time>
      </trkpt>
      <trkpt lat="46.55758" lon="0.34296">
        <ele>175.3</ele>
        <time>2019-01-13T10:23:33.000Z</time>
      </trkpt>
      <trkpt lat="46.55768" lon="0.34297">
        <ele>175.3</ele>
        <time>2019-01-13T10:23:36.000Z</time>
      </trkpt>
      <trkpt lat="46.5578" lon="0.34297">
        <ele>175.98</ele>
        <time>2019-01-13T10:23:39.000Z</time>
      </trkpt>
      <trkpt lat="46.55794" lon="0.34298">
        <ele>176.77</ele>
        <time>2019-01-13T10:23:42.000Z</time>
      </trkpt>
      <trkpt lat="46.55807" lon="0.34301">
        <ele>177.66</ele>
        <time>2019-01-13T10:23:45.000Z</time>
      </trkpt>
      <trkpt lat="46.55819" lon="0.34302">
        <ele>177.62</ele>
        <time>2019-01-13T10:23:48.000Z</time>
      </trkpt>
      <trkpt lat="46.5582" lon="0.34318">
        <ele>177.48</ele>
        <time>2019-01-13T10:23:51.000Z</time>
      </trkpt>
      <trkpt lat="46.55819" lon="0.34334">
        <ele>177.19</ele>
        <time>2019-01-13T10:23:55.000Z</time>
      </trkpt>
      <trkpt lat="46.55819" lon="0.34348">
        <ele>176.93</ele>
        <time>2019-01-13T10:24:00.000Z</time>
      </trkpt>
      <trkpt lat="46.55824" lon="0.34361">
        <ele>177.24</ele>
        <time>2019-01-13T10:24:42.000Z</time>
      </trkpt>
    </trkseg>
  </trk>
</gpx>